# Wetter Temperatur Luftdruck Luftfeuchtigkeit Sichtweite Windgeschwindigkeit Windrichtung Zeit
1 Clear 9 1010 30 10000 5.1 150 19:55 02.04.2020
2 Clear 9 1010 29 10000 4.6 140 19:37 02.04.2020
3 Clear 10 1010 27 10000 5.7 150 19:19 02.04.2020
4 Clear 11 1011 25 10000 5.7 140 18:42 02.04.2020
5 Clear 12 1011 25 10000 5.7 140 18:21 02.04.2020
6 Clear 12 1011 25 10000 5.7 140 17:59 02.04.2020
7 Clear 12 1011 25 10000 5.7 140 17:59 02.04.2020
8 Clear 12 1011 25 10000 5.7 140 17:40 02.04.2020
9 Clear 13 1011 25 10000 6.2 130 17:22 02.04.2020
10 Clear 13 1011 26 10000 5.1 130 16:57 02.04.2020
11 Clear 13 1011 26 10000 5.1 130 16:39 02.04.2020
12 Clear 13 1012 25 10000 5.7 120 16:21 02.04.2020
13 Clear 13 1012 25 10000 5.7 120 15:56 02.04.2020
14 Clear 13 1012 25 10000 3.6 140 15:38 02.04.2020
15 Clear 12 1012 25 10000 5.7 140 15:18 02.04.2020
16 Clear 12 1012 25 10000 5.7 140 15:18 02.04.2020
17 Clear 12 1013 25 10000 3.1 130 14:55 02.04.2020
18 Clear 12 1013 25 10000 3.1 130 14:37 02.04.2020
19 Clear 12 1013 27 10000 2.6 180 14:18 02.04.2020
20 Clear 12 1014 29 10000 2.6 0 13:40 02.04.2020
21 Clear 11 1014 31 10000 1.5 0 13:21 02.04.2020
22 Clear 11 1015 34 10000 2.1 0 12:59 02.04.2020
23 Clear 10 1015 34 10000 2.1 0 12:41 02.04.2020
24 Clear 10 1015 33 10000 2.1 0 12:19 02.04.2020
25 Clear 10 1015 33 10000 2.1 0 12:19 02.04.2020
26 Clear 10 1015 33 10000 2.1 0 12:19 02.04.2020
27 Clear 10 1015 33 10000 2.1 0 12:19 02.04.2020
28 Clear 9 1015 33 10000 2.1 0 11:57 02.04.2020
29 Clear 8 1015 39 10000 1.5 0 11:38 02.04.2020
30 Clear 8 1015 45 0 1 40 11:19 02.04.2020
31 Clear 8 1015 45 0 1 40 11:19 02.04.2020
32 Clear 7 1016 44 10000 2.1 170 10:55 02.04.2020
33 Clear 7 1016 44 10000 2.1 170 10:37 02.04.2020
34 Clear 6 1016 48 10000 1 0 10:19 02.04.2020
35 Clear 5 1016 55 10000 1.5 150 09:56 02.04.2020
36 Clear 4 1016 55 10000 1.5 150 09:38 02.04.2020
37 Clear 2 1016 55 10000 1.5 160 09:19 02.04.2020
38 Clear 1 1016 69 10000 1.5 150 08:46 02.04.2020
39 Clear 0 1016 68 10000 2.1 170 08:26 02.04.2020
40 Clear -1 1016 63 10000 2.1 220 07:45 02.04.2020
41 Clear -2 1015 68 10000 2.1 180 07:21 02.04.2020
42 Clear -2 1015 68 10000 2.1 180 06:58 02.04.2020
43 Clear -3 1015 63 10000 1.5 230 06:22 02.04.2020
44 Clear -2 1015 68 10000 3.6 160 05:45 02.04.2020
45 Clear -2 1015 63 10000 2.1 210 04:35 02.04.2020
46 Clear -1 1017 47 10000 2.1 240 01:52 02.04.2020
47 Clear 0 1017 78 10000 2.6 180 00:50 02.04.2020
48 Clear 0 1017 78 10000 2.6 180 00:50 02.04.2020
49 Clear 0 1017 58 10000 2.1 170 00:28 02.04.2020
50 Clear 1 1017 58 10000 3.1 150 23:57 01.04.2020
51 Clear 1 1017 58 10000 3.1 150 23:37 01.04.2020
52 Clear 1 1017 58 10000 3.1 150 23:37 01.04.2020
53 Clear 1 1018 58 10000 3.6 160 23:18 01.04.2020
54 Clear 2 1018 47 10000 3.6 150 22:41 01.04.2020
55 Clear 2 1018 71 10000 3.6 150 22:22 01.04.2020
56 Clear 2 1018 71 10000 3.6 150 22:22 01.04.2020
57 Clear 2 1018 71 10000 3.6 150 21:57 01.04.2020
58 Clear 2 1018 47 10000 2.6 160 21:39 01.04.2020
59 Clear 3 1018 44 10000 3.1 160 21:18 01.04.2020
60 Clear 3 1018 44 10000 3.1 160 20:55 01.04.2020
61 Clear 4 1018 55 10000 2.6 160 20:37 01.04.2020
62 Rain 4 1018 44 10000 3.6 140 20:18 01.04.2020
63 Rain 4 1018 44 10000 3.6 140 20:18 01.04.2020
64 Rain 5 1018 48 10000 3.6 150 19:43 01.04.2020
65 Clear 6 1018 41 10000 3.6 150 19:22 01.04.2020
66 Clear 7 1018 41 10000 3.6 150 18:59 01.04.2020
67 Clear 7 1018 41 10000 3.6 150 18:59 01.04.2020
68 Clear 7 1018 41 10000 3.6 150 18:59 01.04.2020
69 Clear 7 1018 41 10000 3.6 150 18:59 01.04.2020
70 Clear 7 1018 39 10000 3.1 150 18:40 01.04.2020
71 Clear 8 1019 31 10000 1.5 0 18:21 01.04.2020
72 Clear 8 1019 31 10000 3.1 180 17:56 01.04.2020
73 Clear 8 1019 31 10000 3.1 180 17:56 01.04.2020
74 Clear 8 1019 31 10000 3.1 180 17:56 01.04.2020
75 Clear 8 1019 31 10000 3.1 180 17:37 01.04.2020
76 Clear 9 1019 28 10000 2.1 130 17:18 01.04.2020
77 Clear 9 1019 28 10000 2.6 180 16:54 01.04.2020
78 Clear 9 1019 28 10000 2.6 180 16:36 01.04.2020
79 Clear 9 1020 31 10000 2.1 220 16:18 01.04.2020
80 Clear 9 1021 33 10000 1 0 15:42 01.04.2020
81 Clear 8 1021 33 10000 1 0 15:22 01.04.2020
82 Clear 8 1022 33 10000 1.5 0 14:58 01.04.2020
83 Clear 8 1022 33 10000 1.5 0 14:39 01.04.2020
84 Clear 8 1022 35 10000 1 0 14:20 01.04.2020
85 Clouds 7 1022 35 10000 1.5 0 13:59 01.04.2020
86 Clouds 7 1022 35 10000 1.5 0 13:59 01.04.2020
87 Clouds 7 1022 35 10000 1.5 0 13:38 01.04.2020
88 Clouds 7 1023 38 10000 1.5 260 13:20 01.04.2020
89 Clouds 7 1023 44 10000 3.6 320 12:57 01.04.2020
90 Clouds 6 1023 44 10000 3.6 320 12:37 01.04.2020
91 Clear 6 1024 48 0 1 360 12:18 01.04.2020
92 Clear 6 1024 48 0 1 360 12:18 01.04.2020
93 Rain 5 1024 51 0 1 110 11:56 01.04.2020
94 Rain 5 1024 51 0 1 110 11:37 01.04.2020
95 Rain 5 1024 51 0 1 110 11:37 01.04.2020
96 Rain 5 1024 51 0 1 110 11:37 01.04.2020
97 Rain 5 1025 55 0 1 230 11:18 01.04.2020
98 Clouds 4 1025 64 10000 2.6 360 10:38 01.04.2020
99 Rain 3 1025 64 10000 2.1 10 10:20 01.04.2020
100 Rain 2 1025 69 10000 2.6 10 09:58 01.04.2020
101 Clear 2 1025 69 10000 2.6 10 09:39 01.04.2020
102 Clear 1 1025 80 10000 2.6 10 09:19 01.04.2020
103 Clear 0 1025 80 10000 2.6 350 08:44 01.04.2020
104 Clear -1 1025 80 10000 2.6 340 08:19 01.04.2020
105 Clear -2 1025 79 10000 2.6 340 07:56 01.04.2020
106 Clear -3 1025 79 10000 2.6 340 07:38 01.04.2020
107 Clear -4 1024 79 10000 3.1 340 07:18 01.04.2020
108 Clear -4 1024 79 10000 3.1 340 06:39 01.04.2020
109 Clear -4 1025 79 10000 3.6 320 06:20 01.04.2020
110 Clear -3 1025 79 10000 4.6 330 04:55 01.04.2020
111 Clear -3 1025 79 10000 3.6 320 03:39 01.04.2020
112 Clouds -2 1025 80 10000 4.6 320 02:59 01.04.2020
113 Clouds -2 1025 86 10000 4.1 320 02:31 01.04.2020
114 Clouds -2 1026 86 10000 3.6 320 01:49 01.04.2020
115 Clouds -2 1026 86 10000 3.1 320 01:24 01.04.2020
116 Clouds -1 1026 80 10000 3.1 330 00:47 01.04.2020
117 Clouds -1 1026 80 10000 4.1 330 00:22 01.04.2020
118 Clouds -1 1026 80 10000 3.1 330 23:55 31.03.2020
119 Clouds -1 1026 80 10000 3.1 330 23:37 31.03.2020
120 Clouds -1 1026 80 10000 3.1 350 23:19 31.03.2020
121 Clouds 0 1026 81 10000 3.6 340 22:40 31.03.2020
122 Clouds 0 1026 81 10000 4.1 330 22:21 31.03.2020
123 Clouds 0 1026 81 10000 2.6 320 21:58 31.03.2020
124 Clouds 0 1026 81 10000 2.6 320 21:58 31.03.2020
125 Clouds 0 1026 81 10000 2.6 320 21:39 31.03.2020
126 Snow 1 1025 74 10000 2.6 310 21:21 31.03.2020
127 Clouds 1 1025 69 10000 3.6 300 20:57 31.03.2020
128 Clouds 1 1025 69 10000 3.6 300 20:37 31.03.2020
129 Clouds 1 1025 69 10000 3.6 300 20:18 31.03.2020
130 Rain 2 1025 55 10000 3.1 330 19:55 31.03.2020
131 Rain 2 1025 55 10000 3.1 330 19:37 31.03.2020
132 Rain 3 1025 59 10000 2.1 330 19:18 31.03.2020
133 Snow 4 1025 69 10000 0.5 0 18:43 31.03.2020
134 Clouds 4 1024 74 10000 1.5 170 18:20 31.03.2020
135 Clouds 5 1025 74 0 2.1 100 17:56 31.03.2020
136 Clouds 5 1025 74 0 2.1 100 17:56 31.03.2020
137 Clouds 5 1025 74 0 2.1 100 17:38 31.03.2020
138 Clouds 5 1025 74 0 2.1 100 17:38 31.03.2020
139 Clouds 5 1025 45 0 5.1 270 17:20 31.03.2020
140 Snow 6 1025 51 10000 11.8 330 16:42 31.03.2020
141 Clouds 6 1024 35 10000 2.6 0 16:20 31.03.2020
142 Clouds 6 1024 35 10000 2.6 0 15:59 31.03.2020
143 Clouds 7 1024 33 10000 3.1 360 15:41 31.03.2020
144 Clouds 7 1024 33 10000 2.6 0 15:23 31.03.2020
145 Clouds 7 1024 33 10000 2.6 0 15:00 31.03.2020
146 Clouds 7 1024 33 10000 2.6 0 15:00 31.03.2020
147 Clouds 7 1024 35 10000 3.1 350 14:41 31.03.2020
148 Clouds 7 1025 33 10000 2.1 0 14:22 31.03.2020
149 Clouds 7 1025 35 10000 2.6 10 13:55 31.03.2020
150 Clouds 7 1025 35 10000 2.6 10 13:37 31.03.2020
151 Clouds 6 1025 35 10000 3.1 0 13:18 31.03.2020
152 Clouds 7 1025 33 10000 2.6 360 12:44 31.03.2020
153 Clouds 6 1026 32 10000 1 0 12:20 31.03.2020
154 Clouds 6 1026 35 0 1 250 12:20 31.03.2020
155 Clouds 6 1026 36 0 1.2 348 11:55 31.03.2020
156 Clouds 6 1026 36 0 1.2 348 11:36 31.03.2020
157 Clouds 6 1026 36 0 1.2 348 11:36 31.03.2020
158 Clouds 6 1026 38 10000 2.1 0 11:18 31.03.2020
159 Clouds 5 1026 38 10000 1.5 0 10:55 31.03.2020
160 Clouds 4 1026 43 10000 1 0 10:37 31.03.2020
161 Clouds 5 1026 38 10000 1.5 0 10:37 31.03.2020
162 Clouds 4 1026 43 10000 1 0 10:18 31.03.2020
163 Clouds 3 1026 50 10000 1 0 09:43 31.03.2020
164 Clouds 1 1026 67 10000 0.5 0 09:24 31.03.2020
165 Clouds 1 1026 70 10000 0.5 0 08:57 31.03.2020
166 Clouds 0 1026 68 10000 1.5 150 08:39 31.03.2020
167 Clouds -1 1026 73 10000 1 0 08:19 31.03.2020
168 Clouds -2 1026 68 0 2.1 250 07:56 31.03.2020
169 Clouds -2 1026 73 10000 2.1 170 07:38 31.03.2020
170 Clouds -3 1025 73 10000 2.6 160 07:19 31.03.2020
171 Clouds -3 1025 68 0 0.96 296 06:47 31.03.2020
172 Clouds -4 1025 67 10000 0.5 0 06:23 31.03.2020
173 Clouds -3 1025 67 10000 1.5 170 05:40 31.03.2020
174 Clouds -3 1025 54 10000 2.6 260 03:43 31.03.2020
175 Clouds -3 1025 54 10000 1.5 290 02:19 31.03.2020
176 Clouds -2 1025 50 10000 2.6 280 01:45 31.03.2020
177 Snow -1 1025 50 10000 3.1 300 00:51 31.03.2020
178 Snow -1 1025 50 10000 2.6 320 00:25 31.03.2020
179 Clouds -1 1025 78 10000 2.1 350 23:58 30.03.2020
180 Clouds -1 1025 78 10000 2.1 350 23:38 30.03.2020
181 Clouds -1 1025 78 10000 2.6 20 23:18 30.03.2020
182 Clouds 0 1024 78 10000 2.6 30 22:55 30.03.2020
183 Clouds 0 1024 78 10000 2.6 30 22:36 30.03.2020
184 Clouds 0 1024 43 10000 3.1 30 22:18 30.03.2020
185 Clouds 0 1024 43 10000 3.1 30 21:55 30.03.2020
186 Clouds 1 1024 43 10000 3.1 30 21:36 30.03.2020
187 Clouds 1 1024 37 10000 3.6 20 21:18 30.03.2020
188 Clouds 2 1023 37 10000 3.1 10 20:42 30.03.2020
189 Clouds 2 1023 37 10000 3.1 30 20:24 30.03.2020
190 Clouds 3 1023 37 10000 3.1 30 19:59 30.03.2020
191 Clouds 3 1023 34 10000 3.1 10 19:40 30.03.2020
192 Clouds 4 1022 30 10000 5.1 360 19:21 30.03.2020
193 Clouds 5 1022 30 10000 5.1 350 18:56 30.03.2020
194 Clouds 5 1022 30 10000 5.1 350 18:38 30.03.2020
195 Clouds 6 1022 27 10000 6.7 360 18:19 30.03.2020
196 Clouds 6 1022 30 10000 7.2 340 17:56 30.03.2020
197 Clouds 6 1022 30 10000 7.2 340 17:56 30.03.2020
198 Clouds 6 1022 30 10000 7.2 340 17:37 30.03.2020
199 Clouds 6 1022 30 10000 5.7 350 17:18 30.03.2020
200 Clouds 6 1022 28 10000 6.2 330 16:54 30.03.2020
201 Clouds 6 1022 28 10000 6.2 330 16:36 30.03.2020
202 Clouds 6 1022 28 10000 7.2 330 16:18 30.03.2020
203 Clouds 6 1022 32 10000 7.7 340 15:41 30.03.2020
204 Clouds 6 1022 30 10000 6.7 340 15:22 30.03.2020
205 Clouds 6 1023 28 0 3.1 10 14:59 30.03.2020
206 Clouds 6 1023 35 10000 6.7 350 14:39 30.03.2020
207 Clouds 5 1023 35 10000 7.7 330 14:19 30.03.2020
208 Clouds 5 1023 35 10000 7.7 330 14:19 30.03.2020
209 Clouds 5 1023 35 10000 7.2 340 13:58 30.03.2020
210 Clouds 5 1023 35 10000 7.2 340 13:40 30.03.2020
211 Clouds 5 1023 37 10000 7.2 350 13:20 30.03.2020
212 Clouds 4 1023 37 10000 7.7 330 12:54 30.03.2020
213 Clouds 4 1023 37 10000 7.7 330 12:36 30.03.2020
214 Clouds 4 1024 37 10000 8.2 350 12:18 30.03.2020
215 Clouds 3 1024 37 10000 8.7 350 11:42 30.03.2020
216 Clouds 3 1024 43 10000 8.7 340 11:23 30.03.2020
217 Clouds 3 1024 43 10000 8.7 340 10:57 30.03.2020
218 Clouds 2 1024 43 10000 8.7 340 10:38 30.03.2020
219 Clouds 2 1024 50 10000 7.7 360 10:20 30.03.2020
220 Clouds 2 1024 50 10000 9.3 360 09:54 30.03.2020
221 Clouds 2 1024 50 10000 9.3 360 09:36 30.03.2020
222 Clouds 1 1023 55 10000 8.7 340 09:18 30.03.2020
223 Clouds 1 1023 59 10000 7.7 340 08:39 30.03.2020
224 Clouds 1 1023 59 10000 7.7 340 08:20 30.03.2020
225 Clouds 1 1022 64 10000 7.2 340 07:45 30.03.2020
226 Clouds 1 1022 64 10000 7.7 340 07:23 30.03.2020
227 Clouds 1 1021 59 10000 8.2 340 06:47 30.03.2020
228 Clouds 1 1021 64 10000 8.2 340 06:27 30.03.2020
229 Clouds 2 1021 59 10000 7.7 350 05:46 30.03.2020
230 Clouds 3 1020 59 10000 7.2 350 04:40 30.03.2020
231 Clouds 3 1020 69 10000 7.2 350 04:20 30.03.2020
232 Clouds 4 1020 64 10000 8.7 350 02:52 30.03.2020
233 Clouds 5 1019 79 10000 7.7 360 01:59 30.03.2020
234 Clouds 5 1019 60 10000 7.7 320 01:24 30.03.2020
235 Rain 5 1018 60 10000 7.2 320 00:30 30.03.2020
236 Clouds 5 1018 60 10000 6.7 320 23:59 29.03.2020
237 Clouds 5 1018 60 10000 7.2 320 23:40 29.03.2020
238 Clouds 6 1018 56 10000 7.7 320 23:21 29.03.2020
239 Clouds 6 1017 56 10000 6.2 330 22:55 29.03.2020
240 Clouds 6 1017 56 10000 6.2 330 22:37 29.03.2020
241 Clouds 6 1017 52 10000 7.2 340 22:18 29.03.2020
242 Clouds 7 1017 45 10000 7.7 340 21:40 29.03.2020
243 Clouds 7 1017 45 10000 6.7 340 21:21 29.03.2020
244 Clouds 8 1016 42 10000 5.7 340 20:56 29.03.2020
245 Clouds 8 1016 42 10000 5.7 340 20:38 29.03.2020
246 Clouds 8 1015 37 10000 6.7 330 20:19 29.03.2020
247 Clouds 9 1015 37 10000 6.2 340 19:59 29.03.2020
248 Rain 9 1015 37 10000 6.2 340 19:41 29.03.2020
249 Rain 10 1015 34 10000 7.7 330 19:23 29.03.2020
250 Clouds 11 1014 34 10000 9.3 320 18:57 29.03.2020
251 Clouds 11 1014 34 10000 9.3 320 18:39 29.03.2020
252 Clouds 12 1014 32 10000 8.2 320 18:20 29.03.2020
253 Clouds 12 1014 32 10000 8.7 310 17:56 29.03.2020
254 Clouds 13 1014 32 10000 8.7 310 17:38 29.03.2020
255 Clouds 13 1014 30 10000 8.7 320 17:19 29.03.2020
256 Clouds 13 1013 33 10000 7.2 320 16:57 29.03.2020
257 Clouds 14 1013 33 10000 7.2 320 16:38 29.03.2020
258 Clouds 14 1014 33 10000 7.7 310 16:19 29.03.2020
259 Clouds 14 1014 35 10000 9.3 330 15:43 29.03.2020
260 Clouds 14 1014 35 10000 9.3 330 15:43 29.03.2020
261 Clouds 13 1014 37 10000 7.7 320 15:25 29.03.2020
262 Clouds 13 1014 37 10000 7.7 320 14:59 29.03.2020
263 Clouds 14 1014 35 10000 8.2 310 14:40 29.03.2020
264 Clouds 13 1014 45 10000 8.7 310 14:20 29.03.2020
265 Clouds 13 1014 45 10000 8.7 310 13:58 29.03.2020
266 Clouds 14 1014 45 10000 8.7 310 13:40 29.03.2020
267 Clouds 13 1014 45 10000 8.2 300 13:21 29.03.2020
268 Clouds 13 1014 45 10000 7.7 300 12:57 29.03.2020
269 Clouds 13 1014 45 10000 7.7 300 12:38 29.03.2020
270 Clouds 12 1014 40 10000 7.2 320 12:19 29.03.2020
271 Clouds 12 1014 40 10000 7.7 300 11:55 29.03.2020
272 Clouds 12 1014 40 10000 7.7 300 11:37 29.03.2020
273 Clouds 11 1015 43 10000 7.2 300 11:19 29.03.2020
274 Clouds 11 1014 40 10000 7.7 310 10:38 29.03.2020
275 Clouds 10 1014 43 10000 6.7 320 10:19 29.03.2020
276 Clouds 10 1014 45 10000 6.7 320 09:54 29.03.2020
277 Clouds 9 1014 45 10000 6.7 320 09:36 29.03.2020
278 Clouds 9 1014 67 10000 6.2 310 09:18 29.03.2020
279 Clouds 8 1014 49 10000 6.7 310 08:41 29.03.2020
280 Clouds 7 1014 67 10000 6.2 300 08:22 29.03.2020
281 Clouds 6 1013 67 10000 5.7 300 07:45 29.03.2020
282 Clouds 6 1013 67 10000 4.6 300 07:23 29.03.2020
283 Clouds 6 1013 72 10000 5.1 310 05:59 29.03.2020
284 Clouds 7 1013 72 10000 4.1 300 04:56 29.03.2020
285 Clouds 7 1013 57 10000 4.1 300 03:41 29.03.2020
286 Rain 8 1013 57 10000 4.6 300 01:57 29.03.2020
287 Rain 8 1013 57 10000 4.1 290 01:39 29.03.2020
288 Rain 8 1013 57 10000 4.6 320 01:20 29.03.2020
289 Clouds 9 1013 53 10000 4.6 320 00:40 29.03.2020
290 Clouds 9 1013 53 10000 4.6 320 00:18 29.03.2020
291 Clouds 9 1013 53 10000 4.6 320 23:40 28.03.2020
292 Clouds 9 1013 53 10000 4.6 320 23:40 28.03.2020
293 Rain 10 1013 50 10000 4.6 330 23:22 28.03.2020
294 Rain 10 1013 46 10000 3.6 340 22:43 28.03.2020
295 Rain 11 1013 43 10000 4.1 320 22:22 28.03.2020
296 Rain 11 1012 43 10000 3.1 300 21:57 28.03.2020
297 Rain 12 1012 43 10000 3.1 300 21:39 28.03.2020
298 Rain 12 1012 43 10000 3.1 300 21:20 28.03.2020
299 Rain 12 1012 66 10000 3.6 280 20:57 28.03.2020
300 Rain 12 1012 66 10000 3.6 280 20:38 28.03.2020
301 Rain 12 1012 52 10000 2.1 270 20:19 28.03.2020
302 Rain 12 1012 52 10000 0.5 0 19:55 28.03.2020
303 Rain 13 1012 52 10000 0.5 0 19:36 28.03.2020
304 Rain 13 1012 52 10000 1 350 19:18 28.03.2020
305 Rain 14 1012 52 10000 1.5 350 18:42 28.03.2020
306 Rain 15 1012 52 10000 2.6 350 18:20 28.03.2020
307 Rain 16 1012 33 10000 3.6 360 17:43 28.03.2020
308 Rain 17 1012 33 10000 3.1 360 17:24 28.03.2020
309 Clear 17 1012 31 10000 2.6 340 16:59 28.03.2020
310 Clear 18 1012 31 10000 2.6 340 16:40 28.03.2020
311 Clouds 18 1012 36 10000 2.6 30 16:18 28.03.2020
312 Clouds 18 1012 36 10000 2.6 30 15:55 28.03.2020
313 Clouds 18 1012 36 10000 3.6 350 15:37 28.03.2020
314 Clouds 18 1013 36 10000 2.1 60 15:18 28.03.2020
315 Clouds 19 1013 36 10000 1.5 0 14:41 28.03.2020
316 Clouds 19 1013 38 10000 1.5 0 14:21 28.03.2020
317 Clouds 18 1014 38 10000 1 0 13:43 28.03.2020
318 Clouds 17 1014 33 10000 1 0 13:24 28.03.2020
319 Clouds 17 1014 33 10000 1.5 0 12:41 28.03.2020
320 Clear 17 1015 36 10000 2.1 210 12:23 28.03.2020
321 Clear 16 1015 38 10000 1 0 11:59 28.03.2020
322 Clear 16 1015 38 10000 1 0 11:41 28.03.2020
323 Clear 15 1015 44 10000 1.5 320 11:20 28.03.2020
324 Clear 14 1016 47 10000 2.1 250 10:40 28.03.2020
325 Clear 14 1016 54 10000 2.1 250 10:22 28.03.2020
326 Clear 12 1016 53 10000 1 0 09:43 28.03.2020
327 Clear 12 1016 57 10000 0.5 0 09:24 28.03.2020
328 Clear 11 1016 57 10000 0.5 0 08:59 28.03.2020
329 Clear 9 1016 61 10000 1 0 08:41 28.03.2020
330 Clouds 7 1016 65 10000 1 0 08:22 28.03.2020
331 Clouds 6 1016 75 10000 1.5 230 07:46 28.03.2020
332 Clouds 6 1016 75 10000 1.5 230 07:28 28.03.2020
333 Clouds 3 1016 74 10000 0.5 0 06:37 28.03.2020
334 Clouds 3 1016 74 10000 0.5 0 06:18 28.03.2020
335 Clouds 3 1016 74 10000 0.5 0 05:23 28.03.2020
336 Clouds 3 1016 74 10000 0.5 0 04:43 28.03.2020
337 Clouds 3 1016 74 10000 1.5 330 04:20 28.03.2020
338 Clouds 4 1017 67 10000 2.1 160 02:33 28.03.2020
339 Clouds 5 1017 74 10000 2.1 180 01:46 28.03.2020
340 Clouds 5 1017 74 10000 3.1 180 01:20 28.03.2020
341 Clouds 5 1018 74 10000 3.1 180 00:47 28.03.2020
342 Clouds 6 1018 69 10000 1.5 180 00:20 28.03.2020
343 Clouds 6 1018 69 10000 2.6 190 23:43 27.03.2020
344 Clouds 6 1018 69 10000 2.6 180 23:23 27.03.2020
345 Clouds 6 1018 74 10000 1.5 190 22:56 27.03.2020
346 Clouds 6 1018 74 10000 1.5 190 22:56 27.03.2020
347 Clouds 7 1018 65 0 1.52 184 22:38 27.03.2020
348 Clouds 7 1018 65 10000 2.1 240 22:20 27.03.2020
349 Clouds 7 1018 56 10000 1.5 240 21:56 27.03.2020
350 Clouds 7 1018 56 10000 1.5 240 21:38 27.03.2020
351 Clouds 7 1018 64 10000 2.6 200 21:20 27.03.2020
352 Clouds 8 1018 56 10000 3.1 200 20:43 27.03.2020
353 Clear 9 1019 46 10000 1.5 190 20:22 27.03.2020
354 Clear 9 1019 46 10000 1.5 190 19:59 27.03.2020
355 Clear 10 1018 60 10000 1 170 19:41 27.03.2020
356 Clear 10 1018 60 10000 1.5 190 19:22 27.03.2020
357 Clear 12 1018 50 10000 1.5 170 18:56 27.03.2020
358 Clear 12 1018 50 10000 1.5 170 18:38 27.03.2020
359 Clear 13 1018 43 10000 2.1 130 18:19 27.03.2020
360 Clear 13 1018 43 10000 2.1 130 18:19 27.03.2020
361 Clear 15 1018 38 10000 2.1 130 17:40 27.03.2020
362 Clouds 15 1018 45 10000 1.5 110 17:20 27.03.2020
363 Clouds 15 1018 45 10000 1.5 110 17:20 27.03.2020
364 Clouds 15 1018 45 10000 3.1 110 16:54 27.03.2020
365 Clouds 15 1018 45 10000 3.1 110 16:36 27.03.2020
366 Clouds 16 1018 45 10000 1.5 130 16:18 27.03.2020
367 Clouds 16 1019 45 10000 3.1 70 15:41 27.03.2020
368 Clouds 16 1019 36 10000 3.1 70 15:23 27.03.2020
369 Clouds 16 1019 45 10000 3.6 100 14:46 27.03.2020
370 Clouds 16 1020 45 10000 3.1 100 14:25 27.03.2020
371 Clouds 16 1020 45 10000 2.6 70 13:57 27.03.2020
372 Clouds 16 1020 45 10000 2.6 70 13:37 27.03.2020
373 Clouds 15 1020 38 10000 4.1 110 13:19 27.03.2020
374 Clouds 15 1021 41 10000 2.6 0 12:51 27.03.2020
375 Clouds 15 1021 41 10000 3.1 120 12:21 27.03.2020
376 Clouds 15 1019 48 0 0.89 232 11:59 27.03.2020
377 Clouds 14 1021 45 10000 4.6 120 11:41 27.03.2020
378 Clouds 13 1021 52 10000 4.1 120 11:22 27.03.2020
379 Clouds 12 1022 52 10000 5.1 130 10:55 27.03.2020
380 Clouds 12 1022 52 10000 5.1 130 10:37 27.03.2020
381 Clouds 12 1022 52 10000 5.1 130 10:36 27.03.2020
382 Clouds 12 1022 52 10000 4.6 120 10:18 27.03.2020
383 Clouds 11 1022 52 10000 2.6 40 09:56 27.03.2020
384 Clouds 10 1022 52 10000 2.6 40 09:37 27.03.2020
385 Clouds 9 1022 61 10000 1 0 09:18 27.03.2020
386 Clouds 8 1022 60 10000 1.5 210 08:55 27.03.2020
387 Clouds 8 1022 60 10000 1.5 210 08:37 27.03.2020
388 Clouds 6 1022 69 10000 2.6 330 08:18 27.03.2020
389 Clouds 4 1021 78 10000 2.1 180 07:49 27.03.2020
390 Clouds 3 1021 80 10000 1.5 260 07:23 27.03.2020
391 Clouds 4 1021 74 10000 2.6 240 06:46 27.03.2020
392 Clouds 3 1021 78 10000 3.1 160 06:27 27.03.2020
393 Clouds 1 1021 80 10000 1 150 04:23 27.03.2020
394 Clouds 3 1021 80 10000 2.1 180 02:25 27.03.2020
395 Clouds 3 1022 69 10000 1.5 250 01:23 27.03.2020
396 Clouds 3 1021 74 10000 0.5 0 00:48 27.03.2020
397 Clouds 3 1022 80 10000 2.6 180 00:23 27.03.2020
398 Clouds 4 1021 80 10000 2.1 170 23:43 26.03.2020
399 Clouds 5 1022 80 10000 3.1 170 23:21 26.03.2020
400 Clouds 5 1022 74 10000 2.6 170 22:58 26.03.2020
401 Clouds 5 1022 74 10000 2.6 170 22:38 26.03.2020
402 Clouds 5 1022 74 10000 2.1 170 22:19 26.03.2020
403 Clouds 5 1022 74 10000 2.1 170 21:56 26.03.2020
404 Clouds 5 1022 69 10000 2.1 180 21:37 26.03.2020
405 Clouds 6 1022 60 10000 2.6 180 21:18 26.03.2020
406 Clouds 6 1022 60 10000 2.6 180 20:56 26.03.2020
407 Clouds 6 1022 64 10000 2.6 180 20:37 26.03.2020
408 Clouds 7 1022 60 10000 2.6 180 20:19 26.03.2020
409 Clouds 7 1022 56 10000 2.6 180 19:54 26.03.2020
410 Clouds 7 1022 56 10000 2.6 180 19:36 26.03.2020
411 Clouds 7 1022 52 10000 2.6 240 19:18 26.03.2020
412 Clouds 8 1022 49 10000 3.1 250 18:41 26.03.2020
413 Clouds 9 1022 43 10000 2.6 130 18:23 26.03.2020
414 Clouds 10 1022 37 10000 2.1 120 17:55 26.03.2020
415 Clouds 10 1022 37 10000 2.1 120 17:37 26.03.2020
416 Clouds 11 1022 37 10000 2.6 90 17:18 26.03.2020
417 Clouds 11 1022 37 10000 3.6 110 16:40 26.03.2020
418 Clouds 11 1022 37 10000 3.6 100 16:21 26.03.2020
419 Clouds 10 1023 37 10000 3.6 80 15:57 26.03.2020
420 Clouds 10 1023 37 10000 3.6 80 15:38 26.03.2020
421 Clouds 10 1023 37 10000 4.6 100 15:20 26.03.2020
422 Clouds 11 1023 34 10000 4.1 100 14:55 26.03.2020
423 Clouds 10 1023 34 10000 4.1 100 14:36 26.03.2020
424 Clouds 10 1023 34 10000 3.6 90 14:18 26.03.2020
425 Clouds 10 1024 39 10000 3.6 80 13:41 26.03.2020
426 Clouds 10 1024 39 10000 3.6 90 13:22 26.03.2020
427 Clouds 9 1024 42 10000 2.6 0 12:55 26.03.2020
428 Clouds 9 1024 42 10000 2.6 0 12:37 26.03.2020
429 Clouds 7 1024 42 10000 3.6 100 12:18 26.03.2020
430 Clouds 7 1025 41 10000 4.1 110 11:44 26.03.2020
431 Clouds 6 1025 52 10000 2.6 130 11:20 26.03.2020
432 Clouds 5 1025 55 10000 0.5 0 10:55 26.03.2020
433 Clouds 5 1025 59 10000 1.5 200 10:36 26.03.2020
434 Clouds 4 1025 59 10000 1.5 200 10:18 26.03.2020
435 Clouds 3 1025 69 10000 2.1 250 09:42 26.03.2020
436 Clouds 3 1025 64 10000 2.6 260 09:19 26.03.2020
437 Clouds 2 1025 64 10000 1.5 250 08:44 26.03.2020
438 Clouds 2 1025 64 10000 1.5 250 08:26 26.03.2020
439 Clouds 1 1025 69 10000 2.1 240 07:57 26.03.2020
440 Clouds 2 1025 69 10000 2.1 240 07:38 26.03.2020
441 Clouds 1 1025 69 10000 2.1 260 07:20 26.03.2020
442 Clouds 1 1025 74 10000 0.5 0 06:46 26.03.2020
443 Clouds 1 1025 69 10000 0.5 0 05:52 26.03.2020
444 Clouds 1 1025 87 10000 1.5 60 03:52 26.03.2020
445 Clouds 1 1025 87 10000 1 20 03:33 26.03.2020
446 Clouds 1 1026 87 10000 0.5 0 02:53 26.03.2020
447 Clouds 0 1026 89 10000 0.5 0 01:44 26.03.2020
448 Clouds 0 1026 80 10000 2.1 40 00:43 26.03.2020
449 Clouds 0 1027 86 10000 2.1 50 23:45 25.03.2020
450 Clouds 0 1027 86 10000 1.5 60 23:27 25.03.2020
451 Clouds 1 1028 84 10000 1.5 60 22:57 25.03.2020
452 Clouds 1 1028 84 10000 1.5 60 22:38 25.03.2020
453 Clouds 1 1028 84 10000 1.5 40 22:19 25.03.2020
454 Clouds 1 1028 69 10000 1.5 50 21:55 25.03.2020
455 Clouds 1 1028 69 10000 1.5 50 21:37 25.03.2020
456 Clouds 2 1028 69 10000 0.5 0 21:18 25.03.2020
457 Clouds 2 1028 69 10000 1 100 20:40 25.03.2020
458 Clouds 2 1028 69 10000 1.5 110 20:20 25.03.2020
459 Clouds 2 1028 69 10000 1.5 110 19:59 25.03.2020
460 Clouds 2 1028 64 10000 2.1 120 19:41 25.03.2020
461 Clouds 2 1028 64 10000 3.6 110 19:21 25.03.2020
462 Clouds 2 1028 64 10000 3.6 110 18:56 25.03.2020
463 Clouds 2 1028 59 10000 4.6 100 18:37 25.03.2020
464 Clouds 3 1028 59 10000 4.6 100 18:19 25.03.2020
465 Clouds 3 1028 55 10000 4.1 100 17:54 25.03.2020
466 Clouds 3 1028 55 10000 5.7 110 17:36 25.03.2020
467 Clouds 3 1028 55 10000 5.7 110 17:18 25.03.2020
468 Clouds 4 1028 55 10000 4.1 90 16:41 25.03.2020
469 Clouds 4 1028 55 10000 4.6 90 16:22 25.03.2020
470 Clouds 3 1028 55 10000 4.6 90 16:21 25.03.2020
471 Clouds 3 1028 64 10000 5.1 100 15:44 25.03.2020
472 Clouds 3 1029 59 10000 4.6 90 15:21 25.03.2020
473 Clouds 3 1028 55 10000 4.6 80 14:59 25.03.2020
474 Clouds 3 1028 55 10000 4.6 80 14:40 25.03.2020
475 Clouds 3 1029 55 10000 3.1 80 14:21 25.03.2020
476 Clouds 3 1029 55 10000 3.6 90 13:46 25.03.2020
477 Clouds 3 1029 59 10000 4.1 90 13:25 25.03.2020
478 Clouds 2 1029 59 10000 4.6 80 12:55 25.03.2020
479 Clouds 2 1029 59 10000 4.6 80 12:37 25.03.2020
480 Clouds 3 1029 69 10000 3.6 90 12:18 25.03.2020
481 Snow 3 1029 64 10000 6.2 110 11:41 25.03.2020
482 Clouds 3 1029 55 10000 5.1 110 11:21 25.03.2020
483 Clouds 3 1029 55 10000 5.1 110 11:21 25.03.2020
484 Snow 4 1029 47 10000 7.2 110 10:59 25.03.2020
485 Snow 4 1029 47 10000 7.2 110 10:40 25.03.2020
486 Clouds 4 1030 38 0 2.24 37 10:19 25.03.2020
487 Clouds 4 1030 38 0 2.24 37 10:19 25.03.2020
488 Clouds 3 1029 40 10000 4.1 90 09:59 25.03.2020
489 Clouds 3 1029 40 10000 4.1 90 09:40 25.03.2020
490 Clouds 2 1029 47 10000 3.1 20 09:22 25.03.2020
491 Clouds 2 1027 45 0 1.79 99 08:54 25.03.2020
492 Clouds 1 1029 58 10000 2.6 360 08:36 25.03.2020
493 Clouds 0 1029 54 10000 2.1 10 08:18 25.03.2020
494 Clouds -1 1029 58 10000 2.6 10 07:39 25.03.2020
495 Clouds -1 1029 68 10000 2.6 350 07:19 25.03.2020
496 Clouds -2 1029 63 10000 2.6 10 06:45 25.03.2020
497 Clouds -1 1029 63 10000 2.6 10 06:25 25.03.2020
498 Clouds -2 1029 63 10000 3.1 10 05:50 25.03.2020
499 Clouds -2 1029 63 10000 2.6 360 04:59 25.03.2020
500 Clouds -2 1029 63 10000 2.6 360 04:39 25.03.2020
501 Clouds -2 1029 58 10000 3.1 20 03:35 25.03.2020
502 Clouds -1 1029 58 10000 1.5 320 01:57 25.03.2020
503 Clouds -1 1030 58 10000 2.1 360 01:20 25.03.2020
504 Clouds -1 1027 45 0 0.45 112 00:47 25.03.2020
505 Clouds 0 1030 58 10000 2.6 20 00:19 25.03.2020
506 Clouds 0 1029 54 10000 2.1 20 23:44 24.03.2020
507 Clouds 0 1029 54 10000 2.6 30 23:25 24.03.2020
508 Clouds 1 1029 79 10000 3.1 10 22:55 24.03.2020
509 Clouds 1 1029 79 10000 3.1 10 22:37 24.03.2020
510 Clouds 1 1029 47 10000 4.1 20 22:19 24.03.2020
511 Clouds 1 1029 47 10000 4.1 10 21:55 24.03.2020
512 Clouds 1 1029 47 10000 4.1 10 21:36 24.03.2020
513 Clouds 2 1029 43 10000 4.1 20 21:18 24.03.2020
514 Clouds 2 1029 43 10000 3.6 10 20:43 24.03.2020
515 Clouds 2 1029 43 10000 3.6 360 20:24 24.03.2020
516 Rain 3 1029 43 10000 3.6 360 19:57 24.03.2020
517 Rain 3 1029 40 10000 3.1 10 19:39 24.03.2020
518 Rain 3 1029 37 10000 3.6 360 19:18 24.03.2020
519 Rain 4 1028 32 10000 4.1 10 18:55 24.03.2020
520 Rain 4 1028 32 10000 4.1 10 18:36 24.03.2020
521 Rain 5 1028 32 10000 5.7 360 18:18 24.03.2020
522 Clouds 6 1028 30 10000 7.2 360 17:41 24.03.2020
523 Clouds 7 1028 28 10000 7.2 360 17:22 24.03.2020
524 Clouds 7 1028 28 10000 6.2 350 16:58 24.03.2020
525 Clouds 7 1028 28 10000 6.2 350 16:39 24.03.2020
526 Clouds 7 1028 28 10000 6.7 360 16:20 24.03.2020
527 Clouds 7 1029 28 10000 7.2 350 15:57 24.03.2020
528 Clouds 7 1029 28 10000 7.2 350 15:37 24.03.2020
529 Clouds 7 1029 30 10000 6.2 360 15:19 24.03.2020
530 Clouds 7 1029 30 10000 7.2 340 14:42 24.03.2020
531 Clouds 6 1030 33 10000 7.2 360 14:19 24.03.2020
532 Clouds 7 1030 33 10000 7.2 360 13:43 24.03.2020
533 Clouds 7 1030 33 10000 7.2 350 13:24 24.03.2020
534 Clouds 7 1030 38 10000 6.7 350 12:55 24.03.2020
535 Clouds 6 1030 38 10000 6.7 350 12:37 24.03.2020
536 Clouds 5 1031 38 10000 6.7 340 12:18 24.03.2020
537 Clouds 5 1031 41 10000 6.2 340 11:39 24.03.2020
538 Clouds 4 1031 44 10000 6.2 340 11:20 24.03.2020
539 Clouds 4 1031 44 10000 6.7 330 10:43 24.03.2020
540 Clouds 3 1032 47 10000 6.2 350 10:20 24.03.2020
541 Clouds 2 1032 47 10000 6.2 350 09:59 24.03.2020
542 Clouds 2 1032 50 10000 5.7 350 09:41 24.03.2020
543 Clouds 1 1032 41 10000 5.1 330 09:22 24.03.2020
544 Clouds 0 1032 54 10000 5.1 330 08:39 24.03.2020
545 Clouds -1 1032 58 10000 5.1 330 08:21 24.03.2020
546 Clouds -2 1031 58 10000 4.6 340 07:50 24.03.2020
547 Clouds -2 1031 58 10000 4.1 340 07:25 24.03.2020
548 Clouds -3 1031 58 10000 4.6 330 06:58 24.03.2020
549 Clouds -3 1031 58 10000 4.6 330 06:32 24.03.2020
550 Clouds -3 1031 63 10000 4.1 330 05:27 24.03.2020
551 Clouds -3 1031 63 10000 4.1 330 04:41 24.03.2020
552 Clouds -3 1031 58 10000 4.6 340 03:19 24.03.2020
553 Clouds -2 1031 50 10000 4.6 340 01:50 24.03.2020
554 Clouds -2 1031 50 10000 4.1 330 00:51 24.03.2020
555 Clouds -2 1031 50 10000 4.6 330 00:26 24.03.2020
556 Clouds -2 1031 50 10000 4.6 340 23:49 23.03.2020
557 Clouds -1 1031 50 10000 4.6 340 23:29 23.03.2020
558 Clouds -1 1031 50 10000 5.1 340 22:58 23.03.2020
559 Clouds -1 1031 50 10000 5.1 340 22:39 23.03.2020
560 Clouds -1 1031 50 10000 5.1 340 22:21 23.03.2020
561 Clouds 0 1031 50 10000 5.7 340 21:44 23.03.2020
562 Clouds 0 1031 43 10000 5.1 350 21:21 23.03.2020
563 Clouds 0 1031 43 10000 5.7 360 20:59 23.03.2020
564 Clouds 0 1031 43 10000 5.7 360 20:41 23.03.2020
565 Clouds 1 1031 40 10000 7.2 360 20:23 23.03.2020
566 Clouds 1 1031 40 10000 6.7 360 19:55 23.03.2020
567 Rain 1 1031 40 10000 6.7 360 19:37 23.03.2020
568 Clouds 1 1031 40 10000 6.2 360 19:18 23.03.2020
569 Clouds 2 1031 40 10000 7.2 360 18:43 23.03.2020
570 Clouds 2 1030 37 10000 8.2 10 18:24 23.03.2020
571 Clouds 2 1030 37 10000 8.7 10 17:57 23.03.2020
572 Clouds 3 1030 37 10000 9.3 10 17:38 23.03.2020
573 Clouds 3 1030 37 10000 9.3 10 17:19 23.03.2020
574 Clouds 3 1030 35 10000 9.3 360 16:43 23.03.2020
575 Clouds 4 1030 38 10000 9.8 360 16:25 23.03.2020
576 Clouds 4 1030 38 10000 9.3 10 15:44 23.03.2020
577 Clouds 4 1030 35 10000 10.3 360 15:21 23.03.2020
578 Clouds 4 1030 38 10000 9.8 360 14:57 23.03.2020
579 Clouds 4 1030 38 10000 9.8 360 14:37 23.03.2020
580 Clouds 4 1030 37 10000 9.8 360 14:18 23.03.2020
581 Clouds 4 1030 38 10000 9.3 360 13:54 23.03.2020
582 Clouds 4 1030 38 10000 9.3 360 13:54 23.03.2020
583 Clouds 4 1031 34 10000 9.8 360 13:36 23.03.2020
584 Clouds 4 1031 34 10000 9.8 360 13:36 23.03.2020
585 Clouds 4 1031 34 10000 9.8 360 13:18 23.03.2020
586 Clouds 4 1031 35 10000 10.8 360 12:41 23.03.2020
587 Clouds 4 1031 37 10000 9.3 10 12:22 23.03.2020
588 Clouds 4 1031 37 10000 8.7 360 11:55 23.03.2020
589 Clouds 3 1031 37 10000 8.7 360 11:37 23.03.2020
590 Clouds 3 1031 40 10000 8.2 10 11:18 23.03.2020
591 Clouds 3 1032 40 10000 9.3 20 10:40 23.03.2020
592 Clouds 3 1032 40 10000 9.3 20 10:40 23.03.2020
593 Clouds 2 1032 43 10000 8.2 20 10:22 23.03.2020
594 Clouds 2 1032 47 10000 9.3 10 09:59 23.03.2020
595 Clouds 2 1032 47 10000 9.3 10 09:40 23.03.2020
596 Clouds 1 1032 34 10000 7.2 360 09:19 23.03.2020
597 Clouds 0 1032 34 10000 8.2 350 08:38 23.03.2020
598 Clouds 0 1032 50 10000 8.7 340 08:19 23.03.2020
599 Clouds -1 1032 54 10000 9.3 330 07:51 23.03.2020
600 Clouds -2 1032 58 10000 7.2 330 07:33 23.03.2020
601 Clouds -3 1032 58 10000 6.7 330 06:55 23.03.2020
602 Clouds -3 1032 58 10000 6.7 330 06:33 23.03.2020
603 Clouds -3 1032 58 10000 5.7 330 05:44 23.03.2020
604 Clouds -3 1033 58 10000 5.1 330 03:54 23.03.2020
605 Clouds -3 1033 63 10000 5.7 330 02:44 23.03.2020
606 Clouds -3 1033 63 10000 5.7 330 01:42 23.03.2020
607 Clouds -3 1033 58 10000 5.1 340 00:46 23.03.2020
608 Clouds -3 1033 54 10000 5.1 340 00:26 23.03.2020
609 Clouds -2 1033 54 10000 6.2 340 23:42 22.03.2020
610 Clouds -2 1033 58 10000 4.6 340 23:24 22.03.2020
611 Clouds -2 1033 58 10000 5.7 340 22:41 22.03.2020
612 Clouds -1 1033 58 10000 4.6 350 22:20 22.03.2020
613 Clouds -1 1033 58 10000 4.1 350 21:41 22.03.2020
614 Clouds -1 1033 63 10000 4.1 350 21:23 22.03.2020
615 Clouds -1 1032 58 10000 4.6 360 20:59 22.03.2020
616 Clouds -1 1032 58 10000 4.6 360 20:40 22.03.2020
617 Clouds -1 1032 63 10000 4.1 10 20:22 22.03.2020
618 Rain 0 1032 54 10000 5.7 20 19:56 22.03.2020
619 Clouds 0 1032 54 10000 5.7 20 19:38 22.03.2020
620 Rain 0 1031 54 10000 4.6 360 19:19 22.03.2020
621 Clouds 0 1031 55 10000 5.1 360 18:57 22.03.2020
622 Rain 1 1031 55 10000 5.1 360 18:39 22.03.2020
623 Rain 1 1030 55 10000 4.6 360 18:20 22.03.2020
624 Rain 1 1030 55 10000 6.7 350 17:57 22.03.2020
625 Clouds 1 1030 55 10000 6.7 350 17:38 22.03.2020
626 Clouds 2 1030 55 10000 8.7 350 17:20 22.03.2020
627 Clouds 2 1029 55 10000 7.2 350 16:57 22.03.2020
628 Clouds 2 1029 55 10000 7.2 350 16:57 22.03.2020
629 Clouds 2 1029 55 10000 7.2 350 16:39 22.03.2020
630 Clouds 2 1029 55 10000 7.2 340 16:20 22.03.2020
631 Snow 3 1029 51 9000 8.2 340 15:40 22.03.2020
632 Rain 3 1028 44 10000 7.7 340 15:19 22.03.2020
633 Clouds 3 1028 44 10000 7.7 360 14:46 22.03.2020
634 Clear 3 1028 51 10000 8.2 340 14:18 22.03.2020
635 Clear 3 1028 35 10000 7.7 10 13:43 22.03.2020
636 Clear 3 1028 35 10000 7.2 10 13:20 22.03.2020
637 Clear 4 1028 35 10000 7.2 10 12:58 22.03.2020
638 Clear 4 1028 35 10000 7.2 360 12:39 22.03.2020
639 Clear 4 1028 38 10000 8.7 10 12:19 22.03.2020
640 Clear 4 1028 41 10000 6.7 360 11:43 22.03.2020
641 Clear 4 1029 40 10000 8.7 360 11:25 22.03.2020
642 Clouds 4 1029 44 10000 7.2 360 10:58 22.03.2020
643 Clouds 3 1029 44 10000 7.2 360 10:39 22.03.2020
644 Clouds 3 1028 44 10000 6.7 350 10:21 22.03.2020
645 Clouds 3 1029 51 10000 7.7 340 09:45 22.03.2020
646 Clouds 3 1028 47 10000 8.2 340 09:27 22.03.2020
647 Clouds 2 1028 55 10000 6.7 340 08:48 22.03.2020
648 Clouds 1 1028 55 10000 7.2 340 08:30 22.03.2020
649 Clouds 0 1028 62 10000 7.2 340 07:55 22.03.2020
650 Clouds 0 1028 62 10000 7.2 340 07:37 22.03.2020
651 Clouds -1 1028 63 10000 6.7 330 06:41 22.03.2020
652 Clouds -2 1027 63 10000 5.7 330 05:47 22.03.2020
653 Clouds -1 1027 65 10000 5.7 320 04:39 22.03.2020
654 Clouds 0 1026 64 10000 5.1 350 01:47 22.03.2020
655 Clouds 1 1026 64 10000 6.2 350 00:50 22.03.2020
656 Clouds 1 1026 69 10000 5.7 340 00:31 22.03.2020
657 Clouds 1 1026 64 10000 6.2 340 23:46 21.03.2020
658 Clouds 1 1026 64 10000 6.2 340 23:22 21.03.2020
659 Clouds 1 1026 64 10000 6.2 340 22:59 21.03.2020
660 Clouds 1 1026 64 10000 6.2 340 22:38 21.03.2020
661 Clouds 1 1026 64 10000 6.2 340 22:38 21.03.2020
662 Clouds 2 1025 69 10000 6.2 350 22:20 21.03.2020
663 Clouds 2 1025 64 10000 6.2 350 21:58 21.03.2020
664 Clouds 2 1025 64 10000 6.2 350 21:38 21.03.2020
665 Clouds 2 1025 64 10000 7.7 350 21:20 21.03.2020
666 Clouds 3 1024 64 10000 6.7 350 20:43 21.03.2020
667 Clouds 3 1024 64 10000 7.7 350 20:22 21.03.2020
668 Clouds 3 1024 69 10000 7.7 350 19:55 21.03.2020
669 Clouds 4 1024 69 10000 7.7 350 19:37 21.03.2020
670 Rain 4 1024 63 10000 8.7 350 19:18 21.03.2020
671 Clouds 4 1023 63 10000 7.7 350 18:41 21.03.2020
672 Rain 4 1023 80 10000 8.2 360 18:21 21.03.2020
673 Rain 4 1022 86 10000 8.7 350 17:59 21.03.2020
674 Rain 4 1022 86 10000 8.7 350 17:41 21.03.2020
675 Rain 4 1022 80 10000 9.3 350 17:22 21.03.2020
676 Rain 5 1021 80 10000 8.2 350 16:43 21.03.2020
677 Rain 5 1021 80 10000 7.7 360 16:24 21.03.2020
678 Rain 5 1021 80 10000 7.7 360 16:24 21.03.2020
679 Rain 5 1021 80 10000 9.3 350 15:59 21.03.2020
680 Rain 5 1021 80 10000 9.3 350 15:40 21.03.2020
681 Rain 5 1020 70 10000 9.8 340 15:22 21.03.2020
682 Rain 5 1020 70 10000 9.8 340 14:57 21.03.2020
683 Clouds 5 1020 70 10000 8.7 340 14:39 21.03.2020
684 Clouds 6 1020 75 10000 7.7 340 14:20 21.03.2020
685 Clouds 6 1020 75 10000 7.7 340 13:58 21.03.2020
686 Clouds 6 1020 75 10000 7.7 340 13:58 21.03.2020
687 Rain 6 1020 70 10000 8.2 340 13:39 21.03.2020
688 Clouds 6 1020 75 10000 7.7 340 13:21 21.03.2020
689 Clouds 6 1019 75 10000 7.2 340 12:57 21.03.2020
690 Clouds 6 1019 75 10000 7.2 340 12:37 21.03.2020
691 Rain 6 1019 75 10000 7.2 340 12:19 21.03.2020
692 Clouds 6 1019 75 10000 7.2 340 11:55 21.03.2020
693 Clouds 6 1019 75 10000 7.2 340 11:37 21.03.2020
694 Clouds 6 1019 80 10000 7.7 330 11:18 21.03.2020
695 Clouds 6 1019 80 10000 7.2 330 10:56 21.03.2020
696 Clouds 6 1019 80 10000 7.2 330 10:38 21.03.2020
697 Clouds 6 1019 86 10000 6.7 340 10:19 21.03.2020
698 Clouds 6 1019 81 10000 7.2 340 09:55 21.03.2020
699 Clouds 6 1019 81 10000 7.2 340 09:36 21.03.2020
700 Clouds 6 1018 86 10000 7.2 350 09:18 21.03.2020
701 Rain 6 1018 86 10000 7.2 340 08:41 21.03.2020
702 Rain 6 1018 86 10000 7.2 340 08:23 21.03.2020
703 Rain 6 1018 86 10000 6.2 350 07:42 21.03.2020
704 Rain 6 1017 87 10000 5.7 350 07:23 21.03.2020
705 Rain 6 1017 87 10000 6.2 360 06:46 21.03.2020
706 Rain 7 1017 87 10000 7.7 360 06:27 21.03.2020
707 Rain 8 1016 87 10000 8.2 360 05:46 21.03.2020
708 Rain 9 1016 81 6000 6.2 340 04:42 21.03.2020
709 Rain 10 1016 76 10000 4.1 350 02:48 21.03.2020
710 Rain 9 1016 76 10000 4.1 350 02:30 21.03.2020
711 Rain 10 1016 76 10000 3.6 350 01:32 21.03.2020
712 Rain 10 1016 71 10000 2.1 350 00:48 21.03.2020
713 Rain 11 1016 71 10000 3.1 350 00:25 21.03.2020
714 Rain 11 1016 66 10000 3.1 10 23:49 20.03.2020
715 Clouds 11 1016 62 10000 2.6 40 23:26 20.03.2020
716 Clouds 11 1017 58 10000 1.5 50 22:56 20.03.2020
717 Clouds 11 1017 58 10000 1.5 50 22:37 20.03.2020
718 Clouds 12 1017 58 10000 2.1 80 22:19 20.03.2020
719 Clouds 12 1017 58 10000 1 70 21:54 20.03.2020
720 Clouds 12 1017 58 10000 1 70 21:36 20.03.2020
721 Clouds 12 1017 54 10000 2.6 60 21:18 20.03.2020
722 Clouds 12 1017 54 10000 2.6 60 21:18 20.03.2020
723 Clouds 12 1017 51 10000 2.6 60 20:55 20.03.2020
724 Clouds 13 1017 51 10000 2.6 60 20:37 20.03.2020
725 Clear 13 1017 48 10000 2.6 60 20:18 20.03.2020
726 Clear 14 1017 48 10000 2.6 40 19:44 20.03.2020
727 Clear 14 1017 45 10000 2.6 50 19:18 20.03.2020
728 Clear 14 1017 45 10000 2.1 40 18:54 20.03.2020
729 Clear 15 1017 45 10000 2.1 40 18:36 20.03.2020
730 Clear 16 1017 42 10000 2.1 50 18:18 20.03.2020
731 Clear 17 1017 42 10000 2.6 50 17:39 20.03.2020
732 Clear 18 1017 39 10000 2.1 60 17:21 20.03.2020
733 Clear 19 1017 37 10000 1.5 50 16:57 20.03.2020
734 Clear 19 1017 37 10000 1.5 50 16:39 20.03.2020
735 Clear 19 1017 37 10000 1.5 50 16:39 20.03.2020
736 Clear 19 1017 37 10000 1 0 16:18 20.03.2020
737 Clear 20 1018 34 10000 1.5 100 15:42 20.03.2020
738 Clear 20 1018 37 10000 2.1 0 15:21 20.03.2020
739 Clear 20 1018 37 10000 2.6 110 14:54 20.03.2020
740 Clear 19 1018 37 10000 2.6 110 14:36 20.03.2020
741 Clear 19 1019 37 10000 4.1 130 14:18 20.03.2020
742 Clear 19 1019 34 10000 4.6 140 13:40 20.03.2020
743 Clouds 18 1019 39 10000 3.1 90 13:19 20.03.2020
744 Clouds 18 1020 42 10000 2.6 100 12:39 20.03.2020
745 Clouds 17 1020 51 10000 2.1 40 12:20 20.03.2020
746 Clouds 17 1020 51 10000 2.1 40 12:20 20.03.2020
747 Clear 17 1020 55 10000 1.5 110 11:57 20.03.2020
748 Clear 16 1021 54 10000 2.6 100 11:38 20.03.2020
749 Clear 15 1021 54 10000 2.6 100 11:19 20.03.2020
750 Clear 15 1021 62 10000 1 0 10:41 20.03.2020
751 Clear 14 1021 62 10000 1 0 10:21 20.03.2020
752 Clear 13 1021 62 10000 1 0 09:56 20.03.2020
753 Clear 13 1022 66 10000 1.5 100 09:37 20.03.2020
754 Clear 12 1022 71 10000 1 0 09:18 20.03.2020
755 Clear 11 1022 76 10000 0.5 0 08:42 20.03.2020
756 Clear 10 1022 81 10000 1 0 08:22 20.03.2020
757 Clear 8 1022 87 9000 0.5 0 07:48 20.03.2020
758 Clear 7 1022 87 9000 0.5 0 07:30 20.03.2020
759 Clear 7 1022 87 10000 0.53 104 06:58 20.03.2020
760 Clear 7 1022 87 10000 0.53 104 06:40 20.03.2020
761 Clouds 7 1022 87 10000 2.1 40 04:51 20.03.2020
762 Clouds 7 1022 81 10000 1.5 250 03:22 20.03.2020
763 Clear 8 1022 75 10000 1.5 160 01:58 20.03.2020
764 Clear 8 1022 75 10000 0.5 0 00:59 20.03.2020
765 Clear 8 1022 70 10000 1.5 330 00:30 20.03.2020
766 Clear 9 1023 70 10000 1 0 23:47 19.03.2020
767 Clear 9 1023 66 10000 1 0 23:28 19.03.2020
768 Clear 10 1023 66 10000 1 0 22:57 19.03.2020
769 Clear 10 1023 66 10000 1 0 22:38 19.03.2020
770 Clear 10 1023 66 10000 1 180 22:20 19.03.2020
771 Clear 11 1023 66 10000 2.6 130 21:42 19.03.2020
772 Clear 11 1023 71 0 0.96 157 21:20 19.03.2020
773 Clear 11 1023 71 0 0.96 157 20:59 19.03.2020
774 Clear 12 1023 58 10000 1 70 20:41 19.03.2020
775 Clear 12 1023 54 10000 1 60 20:23 19.03.2020
776 Clear 13 1023 54 10000 0.5 0 19:55 19.03.2020
777 Clear 13 1023 54 10000 0.5 0 19:37 19.03.2020
778 Clear 13 1022 51 10000 1 20 19:19 19.03.2020
779 Clear 14 1022 48 10000 1.5 350 18:55 19.03.2020
780 Clear 15 1022 45 10000 2.1 350 18:37 19.03.2020
781 Clear 15 1022 45 10000 2.1 350 18:37 19.03.2020
782 Clear 16 1022 45 10000 2.1 350 18:19 19.03.2020
783 Clear 17 1022 45 10000 2.1 360 17:41 19.03.2020
784 Clear 19 1022 39 10000 0.5 0 17:19 19.03.2020
785 Clear 19 1022 37 10000 0.5 0 16:44 19.03.2020
786 Clear 19 1023 37 10000 1 0 16:24 19.03.2020
787 Clear 19 1023 37 10000 1 0 16:24 19.03.2020
788 Clear 19 1023 39 10000 1 0 15:54 19.03.2020
789 Clear 19 1023 39 10000 1 0 15:36 19.03.2020
790 Clear 20 1023 39 10000 1 0 15:18 19.03.2020
791 Clear 19 1023 42 10000 1 0 14:42 19.03.2020
792 Clear 19 1024 45 10000 1.5 0 14:21 19.03.2020
793 Clear 18 1024 45 10000 1.5 0 13:41 19.03.2020
794 Clear 18 1024 48 10000 1.5 0 13:19 19.03.2020
795 Clear 18 1025 51 10000 1.5 0 12:57 19.03.2020
796 Clear 17 1025 51 10000 2.1 190 12:39 19.03.2020
797 Clear 17 1025 51 10000 2.1 190 12:20 19.03.2020
798 Clear 16 1026 58 10000 1 0 11:42 19.03.2020
799 Clear 16 1026 58 10000 1 0 11:23 19.03.2020
800 Clear 15 1026 58 10000 1 0 10:57 19.03.2020
801 Clear 14 1026 58 10000 1 0 10:38 19.03.2020
802 Clear 13 1026 62 10000 1 0 10:19 19.03.2020
803 Clear 13 1026 62 10000 1 0 09:45 19.03.2020
804 Clear 12 1026 66 10000 2.1 140 09:27 19.03.2020
805 Clear 10 1026 66 10000 2.1 140 08:58 19.03.2020
806 Clear 10 1026 76 10000 1.5 160 08:40 19.03.2020
807 Clear 8 1025 75 10000 1.5 150 08:19 19.03.2020
808 Clear 7 1025 81 10000 2.1 170 07:44 19.03.2020
809 Clear 6 1025 86 10000 1.5 150 07:23 19.03.2020
810 Clear 5 1025 86 10000 2.1 190 06:32 19.03.2020
811 Clear 5 1025 86 10000 4.6 160 05:46 19.03.2020
812 Clear 6 1025 86 10000 2.6 150 04:51 19.03.2020
813 Clear 6 1025 86 10000 2.6 150 04:24 19.03.2020
814 Clear 7 1025 81 10000 2.1 150 02:34 19.03.2020
815 Clear 8 1026 75 10000 1 0 00:57 19.03.2020
816 Clear 8 1026 75 10000 0.5 0 00:21 19.03.2020
817 Clear 9 1027 70 10000 2.6 190 23:46 18.03.2020
818 Clear 9 1027 75 10000 3.6 180 23:27 18.03.2020
819 Clear 9 1027 70 10000 3.6 170 22:44 18.03.2020
820 Clear 10 1027 70 10000 4.1 170 22:24 18.03.2020
821 Clear 10 1027 66 10000 3.6 170 21:59 18.03.2020
822 Clear 10 1027 66 10000 3.6 170 21:41 18.03.2020
823 Clear 10 1027 66 10000 3.1 170 21:21 18.03.2020
824 Clear 10 1027 66 10000 3.1 170 20:57 18.03.2020
825 Clear 11 1027 62 10000 3.6 160 20:39 18.03.2020
826 Clear 11 1027 62 10000 3.1 170 20:20 18.03.2020
827 Clear 11 1027 62 10000 2.6 170 19:55 18.03.2020
828 Clear 12 1027 62 10000 2.6 170 19:36 18.03.2020
829 Rain 12 1027 62 10000 2.6 160 19:18 18.03.2020
830 Rain 14 1026 58 10000 2.6 150 18:41 18.03.2020
831 Clear 15 1026 48 10000 2.1 130 18:20 18.03.2020
832 Clear 16 1026 45 10000 1.5 100 17:58 18.03.2020
833 Clear 16 1026 45 10000 1.5 100 17:39 18.03.2020
834 Clear 17 1026 42 10000 1.5 110 17:21 18.03.2020
835 Clear 18 1027 42 10000 1.5 70 16:55 18.03.2020
836 Clear 18 1027 42 10000 1.5 70 16:37 18.03.2020
837 Clouds 18 1027 42 10000 1.5 110 16:19 18.03.2020
838 Clouds 18 1027 39 10000 2.1 360 15:44 18.03.2020
839 Clouds 18 1028 39 10000 2.1 60 15:20 18.03.2020
840 Clouds 18 1028 39 10000 3.1 40 14:45 18.03.2020
841 Clouds 18 1028 45 10000 3.1 30 14:22 18.03.2020
842 Clouds 18 1028 45 10000 3.1 30 13:58 18.03.2020
843 Clouds 18 1029 51 10000 2.1 50 13:36 18.03.2020
844 Clouds 17 1029 51 10000 1.5 30 13:18 18.03.2020
845 Clouds 17 1029 55 10000 2.6 40 12:41 18.03.2020
846 Clouds 17 1030 58 10000 2.6 50 12:19 18.03.2020
847 Clouds 16 1030 62 10000 2.1 40 11:40 18.03.2020
848 Clouds 15 1030 62 10000 2.1 40 11:21 18.03.2020
849 Clear 15 1030 66 10000 1.5 40 10:58 18.03.2020
850 Clear 15 1030 66 10000 1.5 40 10:39 18.03.2020
851 Clear 14 1030 71 10000 1.5 30 10:20 18.03.2020
852 Clear 13 1030 76 10000 1.5 50 09:44 18.03.2020
853 Clear 12 1031 76 10000 2.1 30 09:26 18.03.2020
854 Clear 12 1031 76 10000 2.1 30 08:58 18.03.2020
855 Clear 11 1031 81 10000 1.5 40 08:39 18.03.2020
856 Clouds 8 1030 87 10000 1 40 08:21 18.03.2020
857 Clouds 7 1030 93 7000 2.55 343 07:49 18.03.2020
858 Clouds 6 1030 93 6000 1.5 100 07:30 18.03.2020
859 Clouds 6 1030 93 10000 1.5 100 06:45 18.03.2020
860 Clouds 6 1030 86 10000 1.5 130 06:23 18.03.2020
861 Clouds 6 1030 86 10000 1 60 05:35 18.03.2020
862 Clouds 7 1030 87 10000 0.5 0 04:27 18.03.2020
863 Clouds 8 1029 75 10000 2.6 310 02:49 18.03.2020
864 Clouds 8 1029 81 10000 1.5 350 01:48 18.03.2020
865 Clouds 9 1029 71 10000 3.1 320 01:27 18.03.2020
866 Clouds 9 1029 66 10000 4.1 300 00:26 18.03.2020
867 Clouds 9 1030 66 10000 5.1 280 23:57 17.03.2020
868 Clouds 10 1030 62 10000 6.2 280 23:37 17.03.2020
869 Clouds 10 1030 62 10000 6.2 280 23:18 17.03.2020
870 Clouds 10 1030 62 10000 4.6 290 22:41 17.03.2020
871 Clouds 10 1030 62 10000 5.1 290 22:22 17.03.2020
872 Clouds 10 1029 62 10000 4.6 280 21:42 17.03.2020
873 Clouds 10 1029 62 10000 5.7 280 21:22 17.03.2020
874 Clouds 11 1029 62 10000 5.7 290 20:41 17.03.2020
875 Clouds 11 1029 54 10000 5.1 290 20:23 17.03.2020
876 Clouds 11 1029 54 10000 5.1 290 19:59 17.03.2020
877 Clouds 10 1029 66 10000 2.6 310 19:40 17.03.2020
878 Clouds 11 1029 62 10000 1.5 330 19:18 17.03.2020
879 Clouds 11 1029 66 10000 0.5 0 18:56 17.03.2020
880 Clouds 11 1029 66 10000 0.5 0 18:38 17.03.2020
881 Clouds 11 1029 66 10000 0.5 0 18:38 17.03.2020
882 Clouds 11 1029 62 10000 1.5 290 18:20 17.03.2020
883 Clouds 12 1029 58 10000 2.1 340 17:41 17.03.2020
884 Clouds 12 1029 58 10000 2.1 340 17:41 17.03.2020
885 Clouds 12 1029 58 10000 2.1 340 17:41 17.03.2020
886 Clouds 12 1029 54 10000 2.6 330 17:22 17.03.2020
887 Clouds 12 1029 54 10000 2.1 320 16:56 17.03.2020
888 Clouds 13 1029 54 10000 2.1 320 16:38 17.03.2020
889 Clouds 13 1029 50 10000 2.6 270 16:18 17.03.2020
890 Clouds 13 1029 46 10000 1 0 15:43 17.03.2020
891 Clouds 12 1029 50 10000 1.5 280 15:21 17.03.2020
892 Clouds 12 1029 46 10000 1 0 14:44 17.03.2020
893 Clouds 12 1029 53 10000 1 0 14:21 17.03.2020
894 Clouds 12 1029 42 10000 1 0 13:46 17.03.2020
895 Clouds 12 1029 42 10000 1.5 50 13:28 17.03.2020
896 Clouds 12 1029 43 10000 1 0 12:59 17.03.2020
897 Clouds 11 1029 43 10000 1 0 12:40 17.03.2020
898 Clouds 11 1029 43 10000 1 0 12:22 17.03.2020
899 Clouds 11 1029 43 10000 1 0 11:47 17.03.2020
900 Clouds 10 1029 43 10000 1 0 11:29 17.03.2020
901 Clouds 9 1029 52 10000 0.5 0 10:58 17.03.2020
902 Clouds 9 1029 52 10000 0.5 0 10:38 17.03.2020
903 Clouds 9 1029 52 10000 1 0 10:20 17.03.2020
904 Clouds 9 1029 56 10000 1.5 280 09:59 17.03.2020
905 Clouds 9 1029 56 10000 1.5 280 09:39 17.03.2020
906 Clouds 7 1029 65 10000 0.5 0 09:19 17.03.2020
907 Clouds 6 1029 53 10000 0.5 0 08:47 17.03.2020
908 Clouds 5 1029 80 10000 0.5 0 08:23 17.03.2020
909 Clouds 3 1029 80 10000 2.6 170 07:50 17.03.2020
910 Clouds 3 1028 80 0 1 130 07:28 17.03.2020
911 Clouds 2 1028 80 10000 1.5 170 06:59 17.03.2020
912 Clouds 2 1028 80 10000 1.5 260 06:34 17.03.2020
913 Clouds 2 1028 64 10000 1.5 10 05:55 17.03.2020
914 Clouds 3 1027 74 10000 1.5 290 03:43 17.03.2020
915 Clouds 3 1027 69 10000 1.5 140 02:46 17.03.2020
916 Clouds 3 1026 69 10000 1 0 01:44 17.03.2020
917 Clouds 3 1026 69 10000 0.91 33 01:25 17.03.2020
918 Clouds 4 1026 69 10000 1 140 00:38 17.03.2020
919 Clouds 4 1026 65 10000 0.5 0 23:45 16.03.2020
920 Clouds 4 1026 65 10000 2.1 150 23:27 16.03.2020
921 Clear 5 1025 65 10000 3.1 160 22:41 16.03.2020
922 Clear 5 1025 65 10000 3.1 160 22:41 16.03.2020
923 Clear 5 1025 60 10000 4.1 150 22:23 16.03.2020
924 Clear 6 1025 56 10000 4.6 130 21:57 16.03.2020
925 Clear 6 1025 56 10000 4.6 130 21:39 16.03.2020
926 Clear 7 1025 56 10000 4.6 130 21:21 16.03.2020
927 Clear 7 1025 52 10000 4.6 130 20:55 16.03.2020
928 Clear 7 1025 52 10000 4.6 130 20:37 16.03.2020
929 Clouds 8 1025 52 10000 5.1 140 20:18 16.03.2020
930 Clouds 8 1025 49 10000 4.6 130 19:40 16.03.2020
931 Clouds 9 1025 49 10000 4.6 140 19:20 16.03.2020
932 Clouds 10 1025 46 10000 4.6 130 18:43 16.03.2020
933 Clouds 11 1024 40 10000 5.1 130 18:21 16.03.2020
934 Clouds 12 1024 37 10000 6.2 140 17:55 16.03.2020
935 Clouds 12 1024 37 10000 6.2 140 17:37 16.03.2020
936 Clouds 13 1024 35 10000 6.7 140 17:18 16.03.2020
937 Clouds 13 1024 37 10000 7.7 140 16:44 16.03.2020
938 Clouds 14 1024 37 10000 7.7 140 16:24 16.03.2020
939 Clouds 14 1024 37 10000 8.2 140 15:45 16.03.2020
940 Clouds 14 1024 37 10000 8.2 150 15:27 16.03.2020
941 Clouds 14 1024 35 10000 9.8 150 14:49 16.03.2020
942 Clouds 13 1024 35 10000 10.3 150 14:27 16.03.2020
943 Clouds 13 1024 37 10000 11.3 150 13:58 16.03.2020
944 Clouds 13 1024 37 10000 11.3 150 13:40 16.03.2020
945 Clouds 13 1024 37 10000 11.3 150 13:21 16.03.2020
946 Clouds 13 1025 37 10000 11.8 150 12:44 16.03.2020
947 Clouds 12 1025 40 10000 11.3 150 12:23 16.03.2020
948 Clouds 12 1025 37 10000 11.3 150 11:46 16.03.2020
949 Clouds 11 1025 37 10000 10.8 150 11:27 16.03.2020
950 Clouds 11 1025 37 10000 10.8 150 11:27 16.03.2020
951 Clouds 10 1025 39 10000 10.8 150 10:56 16.03.2020
952 Rain 9 1025 39 10000 10.8 150 10:37 16.03.2020
953 Rain 9 1025 36 10000 11.3 140 10:18 16.03.2020
954 Clouds 8 1025 39 10000 9.3 140 09:42 16.03.2020
955 Clouds 7 1025 44 10000 9.3 140 09:21 16.03.2020
956 Clouds 6 1024 44 10000 8.7 140 08:52 16.03.2020
957 Clouds 6 1024 44 10000 8.7 140 08:25 16.03.2020
958 Clear 3 1024 51 10000 8.7 140 07:48 16.03.2020
959 Clear 2 1023 47 10000 8.7 140 07:25 16.03.2020
960 Clear 2 1023 50 10000 9.3 130 06:52 16.03.2020
961 Clear 1 1023 50 10000 9.3 130 06:24 16.03.2020
962 Clear 1 1023 50 10000 9.3 130 04:54 16.03.2020
963 Clear 3 1023 43 10000 8.7 140 02:42 16.03.2020
964 Clouds 3 1024 37 10000 8.2 140 00:52 16.03.2020
965 Rain 4 1024 37 10000 8.2 140 00:33 16.03.2020
966 Rain 3 1025 37 10000 8.2 150 23:46 15.03.2020
967 Rain 4 1025 32 10000 8.2 150 23:20 15.03.2020
968 Clear 4 1025 32 10000 8.2 150 22:42 15.03.2020
969 Clear 5 1026 35 10000 8.7 150 22:23 15.03.2020
970 Clear 5 1025 41 10000 6.7 140 21:58 15.03.2020
971 Clear 5 1025 41 10000 6.7 140 21:38 15.03.2020
972 Clear 5 1026 44 10000 6.2 140 21:18 15.03.2020
973 Clear 5 1025 41 10000 6.2 140 20:42 15.03.2020
974 -273 0 0 0 0 0 20:20 15.03.2020
975 Clear 5 1025 41 10000 6.2 140 19:58 15.03.2020
976 Clear 5 1025 41 10000 5.7 140 19:39 15.03.2020
977 Clear 5 1025 44 10000 6.7 140 19:19 15.03.2020
978 Clear 6 1025 41 10000 5.7 130 18:55 15.03.2020
979 Clear 6 1025 41 10000 5.7 130 18:37 15.03.2020
980 Clear 7 1025 39 10000 6.7 140 18:19 15.03.2020
981 Clear 8 1025 39 10000 7.7 140 17:41 15.03.2020
982 Clear 8 1025 39 10000 7.7 140 17:41 15.03.2020
983 Clear 8 1025 36 10000 8.2 140 17:21 15.03.2020
984 Clear 9 1026 36 10000 8.2 140 16:58 15.03.2020
985 Clear 9 1026 36 10000 8.2 140 16:39 15.03.2020
986 Clear 9 1026 36 10000 8.7 150 16:21 15.03.2020
987 Clear 9 1026 36 10000 8.2 140 15:46 15.03.2020
988 Clear 9 1026 36 10000 8.2 140 15:28 15.03.2020
989 Clear 9 1026 34 10000 8.2 160 14:58 15.03.2020
990 Clear 9 1026 36 10000 7.7 140 14:38 15.03.2020
991 Clear 9 1027 33 10000 8.2 150 14:19 15.03.2020
992 Clear 9 1028 33 10000 7.7 150 13:55 15.03.2020
993 Clear 9 1028 33 10000 7.7 150 13:36 15.03.2020
994 Clear 9 1028 36 10000 7.7 150 13:18 15.03.2020
995 Clear 8 1028 39 10000 7.2 150 12:40 15.03.2020
996 Rain 8 1028 42 10000 6.2 140 12:21 15.03.2020
997 Rain 7 1028 41 10000 5.1 140 11:43 15.03.2020
998 Rain 7 1029 44 10000 4.6 160 11:24 15.03.2020
999 Rain 6 1029 48 10000 3.6 0 10:58 15.03.2020
1000 Rain 6 1029 48 10000 3.6 0 10:39 15.03.2020
1001 Rain 5 1028 44 0 1 80 10:21 15.03.2020
1002 Rain 5 1028 44 0 1 80 09:57 15.03.2020
1003 Clear 4 1029 51 10000 2.6 130 09:36 15.03.2020
1004 Clear 3 1029 51 10000 1.5 120 09:18 15.03.2020
1005 Clear 2 1029 59 10000 1 0 08:40 15.03.2020
1006 Clouds 1 1029 55 10000 0.5 0 08:19 15.03.2020
1007 Clouds -1 1028 60 10000 1 0 07:45 15.03.2020
1008 Clouds -2 1028 63 10000 0.5 0 07:21 15.03.2020
1009 Clouds -3 1028 73 10000 1 0 06:36 15.03.2020
1010 Clouds -2 1028 73 10000 1.5 120 05:48 15.03.2020
1011 Clouds -2 1028 58 10000 2.1 340 04:56 15.03.2020
1012 Clouds -1 1028 58 10000 2.1 340 04:37 15.03.2020
1013 Clouds -2 1027 63 10000 2.6 340 04:18 15.03.2020
1014 Clouds -1 1027 58 10000 3.1 340 03:19 15.03.2020
1015 Clouds 0 1027 55 10000 3.1 330 02:22 15.03.2020
1016 Clouds 1 1026 55 10000 4.1 10 00:58 15.03.2020
1017 Rain 1 1026 55 10000 4.1 10 00:40 15.03.2020
1018 Clouds 1 1026 51 10000 4.6 10 00:19 15.03.2020
1019 Clouds 2 1026 51 10000 4.6 360 23:39 14.03.2020
1020 Clouds 3 1026 51 10000 4.6 10 23:20 14.03.2020
1021 Clouds 3 1026 47 10000 4.6 360 22:56 14.03.2020
1022 Clouds 3 1026 47 10000 4.6 360 22:37 14.03.2020
1023 Clouds 3 1025 51 10000 5.1 20 22:19 14.03.2020
1024 Clouds 3 1025 55 10000 4.6 20 21:55 14.03.2020
1025 Clouds 4 1025 55 10000 4.6 20 21:36 14.03.2020
1026 Clouds 4 1024 52 10000 5.1 30 21:18 14.03.2020
1027 Clouds 4 1024 52 10000 5.1 30 20:56 14.03.2020
1028 Clouds 4 1024 48 10000 4.6 20 20:56 14.03.2020
1029 Clouds 4 1024 48 10000 4.6 20 20:38 14.03.2020
1030 Clouds 4 1024 48 10000 2.6 360 20:18 14.03.2020
1031 Clouds 5 1023 48 10000 2.6 360 19:41 14.03.2020
1032 Clouds 5 1023 41 10000 2.1 360 19:20 14.03.2020
1033 Clouds 6 1023 42 10000 2.6 20 18:40 14.03.2020
1034 Clouds 7 1022 42 10000 3.1 20 18:21 14.03.2020
1035 Clouds 9 1022 36 10000 4.1 20 17:43 14.03.2020
1036 Clouds 9 1022 39 10000 4.1 10 17:24 14.03.2020
1037 Clouds 10 1021 37 10000 4.1 350 16:59 14.03.2020
1038 Clouds 10 1021 37 10000 4.1 350 16:39 14.03.2020
1039 Clouds 10 1021 37 10000 5.1 360 16:20 14.03.2020
1040 Clouds 10 1021 39 10000 4.6 10 15:48 14.03.2020
1041 Clouds 10 1022 39 10000 5.1 340 15:25 14.03.2020
1042 Clouds 10 1021 46 10000 6.2 340 14:44 14.03.2020
1043 Clouds 10 1022 46 10000 5.7 330 14:22 14.03.2020
1044 Clouds 10 1022 46 10000 5.7 340 13:57 14.03.2020
1045 Clouds 10 1022 46 10000 5.7 340 13:39 14.03.2020
1046 Clouds 10 1022 49 10000 5.1 330 13:20 14.03.2020
1047 Clouds 10 1022 49 10000 5.7 350 12:44 14.03.2020
1048 Clouds 10 1022 49 10000 5.7 10 12:26 14.03.2020
1049 Clouds 10 1022 49 10000 5.7 10 12:26 14.03.2020
1050 Clouds 10 1022 49 10000 4.1 320 11:47 14.03.2020
1051 Clouds 9 1022 49 10000 4.1 350 11:26 14.03.2020
1052 Clouds 9 1022 49 10000 3.6 350 10:59 14.03.2020
1053 Clouds 9 1022 49 10000 3.6 350 10:40 14.03.2020
1054 Clouds 9 1022 57 10000 4.1 350 10:22 14.03.2020
1055 Clouds 8 1022 52 10000 5.7 350 09:43 14.03.2020
1056 Clouds 8 1022 52 10000 5.1 340 09:24 14.03.2020
1057 Clouds 7 1022 56 10000 4.6 330 08:47 14.03.2020
1058 Clouds 5 1022 56 10000 4.6 320 08:29 14.03.2020
1059 Clouds 4 1022 56 10000 3.1 330 07:55 14.03.2020
1060 Clouds 4 1022 56 10000 3.1 330 07:37 14.03.2020
1061 Clouds 3 1021 60 10000 3.1 320 07:18 14.03.2020
1062 Clouds 2 1021 64 10000 3.6 310 06:40 14.03.2020
1063 Clouds 2 1021 64 10000 3.6 310 06:40 14.03.2020
1064 Clear 3 1021 56 10000 6.2 300 05:19 14.03.2020
1065 Clear 4 1020 56 10000 2.1 320 03:46 14.03.2020
1066 Clear 4 1020 56 10000 5.7 280 03:24 14.03.2020
1067 Clear 4 1021 60 10000 4.1 260 02:22 14.03.2020
1068 Clear 4 1021 56 10000 2.1 260 00:46 14.03.2020
1069 Clear 4 1020 60 10000 3.1 260 23:46 13.03.2020
1070 Clear 5 1020 60 10000 2.6 260 23:28 13.03.2020
1071 Clear 5 1020 52 10000 1 0 22:49 13.03.2020
1072 Clear 5 1020 52 10000 1.5 330 22:26 13.03.2020
1073 Clear 6 1020 52 10000 3.1 320 21:44 13.03.2020
1074 Clear 6 1020 52 10000 2.1 320 21:22 13.03.2020
1075 Clear 7 1019 54 10000 4.6 280 20:59 13.03.2020
1076 Clear 7 1019 54 10000 4.6 280 20:40 13.03.2020
1077 Clouds 8 1019 49 10000 6.2 270 20:20 13.03.2020
1078 Clouds 8 1018 49 10000 6.7 270 19:48 13.03.2020
1079 Clouds 8 1018 44 10000 7.7 270 19:30 13.03.2020
1080 Clouds 9 1018 46 10000 8.2 270 18:49 13.03.2020
1081 Clouds 9 1018 46 10000 8.2 270 18:31 13.03.2020
1082 Clouds 10 1017 43 10000 9.3 270 17:57 13.03.2020
1083 Clouds 10 1017 43 10000 10.8 270 17:38 13.03.2020
1084 Clouds 11 1017 43 10000 10.8 270 17:20 13.03.2020
1085 Clouds 11 1017 43 10000 10.8 280 16:42 13.03.2020
1086 Clouds 12 1017 43 10000 10.3 270 16:24 13.03.2020
1087 Clouds 12 1016 40 10000 10.3 290 15:56 13.03.2020
1088 Clouds 12 1016 40 10000 10.3 290 15:37 13.03.2020
1089 Clouds 12 1016 37 10000 11.3 290 15:19 13.03.2020
1090 Clouds 12 1016 40 10000 11.3 290 14:41 13.03.2020
1091 Rain 12 1016 46 10000 13.4 300 14:22 13.03.2020
1092 Clouds 12 1016 46 10000 11.8 290 13:57 13.03.2020
1093 Clouds 12 1016 46 10000 11.8 290 13:39 13.03.2020
1094 Clouds 12 1016 37 10000 11.3 280 13:19 13.03.2020
1095 Clouds 11 1016 44 10000 9.3 290 12:54 13.03.2020
1096 Clouds 11 1016 44 10000 9.3 290 12:36 13.03.2020
1097 Clouds 11 1017 50 10000 6.7 290 12:18 13.03.2020
1098 Clouds 11 1017 57 10000 5.1 300 11:42 13.03.2020
1099 Clouds 10 1017 57 10000 7.2 300 11:24 13.03.2020
1100 Clouds 10 1017 57 10000 6.7 300 10:57 13.03.2020
1101 Clouds 10 1017 57 10000 6.7 300 10:38 13.03.2020
1102 Rain 10 1017 61 10000 5.7 300 10:20 13.03.2020
1103 Rain 10 1016 61 10000 8.2 280 09:43 13.03.2020
1104 Rain 9 1016 61 10000 8.7 280 09:24 13.03.2020
1105 Clouds 9 1016 66 10000 7.2 290 08:46 13.03.2020
1106 Clouds 9 1016 70 10000 6.7 300 08:23 13.03.2020
1107 Clouds 9 1016 70 10000 6.7 300 08:23 13.03.2020
1108 Clouds 9 1016 70 10000 6.7 300 07:58 13.03.2020
1109 Clouds 9 1016 76 10000 4.1 320 07:38 13.03.2020
1110 Clouds 9 1015 76 10000 5.7 310 07:18 13.03.2020
1111 Rain 9 1015 87 10000 8.2 330 06:43 13.03.2020
1112 Rain 9 1014 81 10000 1.5 350 05:56 13.03.2020
1113 Rain 10 1013 76 10000 2.6 360 05:37 13.03.2020
1114 Clouds 10 1013 76 10000 2.6 10 04:38 13.03.2020
1115 Clouds 10 1013 81 10000 2.6 360 03:43 13.03.2020
1116 Rain 11 1014 71 10000 5.1 360 01:48 13.03.2020
1117 Rain 11 1014 76 10000 5.1 20 01:19 13.03.2020
1118 Rain 11 1013 71 10000 2.6 350 00:56 13.03.2020
1119 Clouds 11 1013 71 10000 3.6 360 00:29 13.03.2020
1120 Clouds 12 1013 58 10000 5.7 10 23:59 12.03.2020
1121 Clouds 13 1012 51 10000 4.6 280 23:29 12.03.2020
1122 Clouds 14 1012 55 10000 5.1 280 22:58 12.03.2020
1123 Clouds 14 1012 55 10000 5.1 280 22:40 12.03.2020
1124 Clouds 14 1012 51 10000 7.2 280 22:22 12.03.2020
1125 Clouds 15 1012 48 10000 7.2 290 21:46 12.03.2020
1126 Clouds 15 1012 48 10000 7.2 290 21:28 12.03.2020
1127 Clouds 15 1012 52 10000 4.6 280 20:59 12.03.2020
1128 Clouds 16 1012 52 10000 3.6 260 20:40 12.03.2020
1129 Clouds 16 1012 51 10000 3.1 230 20:19 12.03.2020
1130 Clouds 16 1012 51 10000 3.1 210 19:42 12.03.2020
1131 -273 0 0 0 0 0 19:21 12.03.2020
1132 Clouds 16 1012 55 10000 2.6 220 18:45 12.03.2020
1133 Clouds 17 1011 59 10000 4.6 170 18:25 12.03.2020
1134 Clouds 17 1011 55 10000 4.6 160 17:57 12.03.2020
1135 Clouds 18 1011 55 10000 4.6 160 17:39 12.03.2020
1136 Clouds 18 1011 48 10000 6.7 160 17:21 12.03.2020
1137 Clouds 19 1011 40 10000 7.2 290 16:58 12.03.2020
1138 Clouds 20 1011 40 10000 7.2 290 16:38 12.03.2020
1139 Clouds 20 1011 40 10000 8.2 300 16:19 12.03.2020
1140 Clouds 20 1011 40 10000 7.2 290 15:45 12.03.2020
1141 Clouds 20 1012 40 10000 7.2 270 15:27 12.03.2020
1142 Clouds 21 1012 40 10000 8.7 260 14:43 12.03.2020
1143 Clouds 20 1013 37 10000 10.8 270 14:24 12.03.2020
1144 Clouds 20 1013 37 10000 8.2 270 13:57 12.03.2020
1145 Clouds 20 1013 37 10000 8.2 270 13:37 12.03.2020
1146 Clouds 19 1013 40 10000 8.2 260 13:19 12.03.2020
1147 Clouds 19 1014 42 10000 8.2 260 12:41 12.03.2020
1148 Clouds 19 1014 39 10000 8.2 250 12:22 12.03.2020
1149 Clouds 18 1015 42 10000 8.7 250 11:58 12.03.2020
1150 Clouds 18 1015 42 10000 8.7 250 11:39 12.03.2020
1151 Clouds 18 1015 45 10000 7.7 250 11:20 12.03.2020
1152 Clouds 17 1015 42 10000 7.2 260 10:59 12.03.2020
1153 Clouds 17 1015 42 10000 7.2 260 10:41 12.03.2020
1154 Clouds 17 1016 48 10000 3.6 230 10:22 12.03.2020
1155 Clouds 16 1016 62 10000 3.1 170 09:48 12.03.2020
1156 Clouds 16 1016 62 10000 3.1 170 09:28 12.03.2020
1157 Clouds 15 1016 71 10000 3.6 160 08:54 12.03.2020
1158 Clouds 14 1016 71 10000 3.6 160 08:36 12.03.2020
1159 Clear 11 1016 76 10000 2.1 150 08:18 12.03.2020
1160 Clear 10 1016 81 10000 2.6 170 07:45 12.03.2020
1161 Clear 9 1016 87 10000 2.1 180 07:21 12.03.2020
1162 Clear 9 1015 70 10000 2.1 170 05:57 12.03.2020
1163 Clouds 9 1016 81 10000 2.1 200 05:27 12.03.2020
1164 Clouds 11 1017 62 10000 2.6 240 02:43 12.03.2020
1165 Clouds 12 1017 66 10000 2.6 240 01:39 12.03.2020
1166 Clouds 12 1017 66 10000 3.1 240 01:20 12.03.2020
1167 Clouds 12 1017 67 10000 3.1 230 00:41 12.03.2020
1168 Clouds 12 1017 67 10000 3.1 230 00:41 12.03.2020
1169 Clouds 13 1017 67 10000 2.1 230 23:56 11.03.2020
1170 Rain 13 1017 62 10000 3.1 260 23:26 11.03.2020
1171 Clouds 13 1017 62 10000 3.1 260 22:55 11.03.2020
1172 Clouds 13 1017 62 10000 3.1 260 22:37 11.03.2020
1173 Clouds 13 1017 62 10000 3.1 270 22:18 11.03.2020
1174 Clouds 13 1017 62 10000 4.1 270 21:54 11.03.2020
1175 Clouds 14 1017 62 10000 4.1 270 21:36 11.03.2020
1176 Rain 14 1017 62 10000 3.1 260 21:18 11.03.2020
1177 Rain 14 1017 62 10000 4.1 270 20:55 11.03.2020
1178 Rain 14 1017 62 10000 4.1 270 20:36 11.03.2020
1179 Clouds 14 1017 62 10000 5.1 260 20:18 11.03.2020
1180 Clouds 14 1017 62 10000 4.6 260 19:41 11.03.2020
1181 Clouds 14 1017 62 10000 4.1 270 19:22 11.03.2020
1182 Clouds 14 1016 62 10000 4.1 260 18:56 11.03.2020
1183 Clouds 14 1016 62 10000 4.1 260 18:36 11.03.2020
1184 Clouds 14 1016 55 10000 5.1 270 18:18 11.03.2020
1185 Clouds 14 1016 55 10000 8.7 280 17:40 11.03.2020
1186 Clouds 15 1016 55 10000 8.7 280 17:21 11.03.2020
1187 Clouds 14 1015 55 10000 9.3 280 16:56 11.03.2020
1188 Clouds 14 1015 55 10000 9.3 280 16:37 11.03.2020
1189 Clouds 15 1015 51 10000 11.3 280 16:19 11.03.2020
1190 Clouds 15 1014 52 10000 11.8 290 15:42 11.03.2020
1191 Clouds 15 1014 52 10000 10.8 280 15:22 11.03.2020
1192 Clouds 15 1014 55 10000 11.3 280 14:44 11.03.2020
1193 Clouds 16 1014 55 10000 12.9 290 14:24 11.03.2020
1194 Clouds 16 1013 52 10000 12.9 290 13:59 11.03.2020
1195 Clouds 16 1013 52 10000 12.9 290 13:40 11.03.2020
1196 Clouds 16 1013 55 10000 10.8 280 13:22 11.03.2020
1197 Clouds 16 1013 59 10000 10.3 280 12:55 11.03.2020
1198 Clouds 15 1013 59 10000 10.3 280 12:37 11.03.2020
1199 Clouds 15 1013 59 10000 10.8 290 12:18 11.03.2020
1200 Clouds 15 1013 59 10000 12.3 280 11:40 11.03.2020
1201 Clouds 15 1013 62 10000 11.8 280 11:20 11.03.2020
1202 Clouds 15 1012 62 10000 11.8 280 10:46 11.03.2020
1203 Clouds 14 1012 62 10000 11.3 280 10:20 11.03.2020
1204 Clouds 14 1012 62 10000 10.8 280 09:55 11.03.2020
1205 Clouds 13 1012 62 10000 10.8 280 09:36 11.03.2020
1206 Clouds 13 1012 67 10000 9.8 280 09:18 11.03.2020
1207 Clouds 13 1012 67 10000 10.3 280 08:42 11.03.2020
1208 Clouds 13 1012 67 10000 9.8 280 08:23 11.03.2020
1209 Clouds 12 1011 71 10000 7.7 280 07:47 11.03.2020
1210 Clouds 12 1011 71 10000 9.3 280 07:20 11.03.2020
1211 Clouds 12 1011 71 10000 8.7 290 06:49 11.03.2020
1212 Clouds 11 1011 71 10000 8.2 280 06:20 11.03.2020
1213 Clouds 11 1011 76 10000 8.7 280 05:23 11.03.2020
1214 Rain 10 1012 81 10000 6.7 270 02:36 11.03.2020
1215 Rain 9 1012 81 10000 3.1 260 01:44 11.03.2020
1216 Rain 9 1012 81 10000 5.7 240 00:53 11.03.2020
1217 Rain 9 1012 76 10000 4.1 250 00:21 11.03.2020
1218 Rain 9 1012 66 10000 3.6 240 23:45 10.03.2020
1219 Rain 9 1013 66 10000 3.6 250 23:22 10.03.2020
1220 Rain 9 1013 66 10000 6.2 260 22:55 10.03.2020
1221 Clouds 8 1013 66 10000 6.2 260 22:36 10.03.2020
1222 Clouds 8 1013 66 10000 5.1 270 22:18 10.03.2020
1223 Clouds 8 1013 61 10000 4.6 270 21:55 10.03.2020
1224 Clouds 8 1013 61 10000 4.6 270 21:37 10.03.2020
1225 Clouds 8 1013 61 10000 4.6 270 21:18 10.03.2020
1226 Clouds 8 1013 61 10000 4.6 270 21:18 10.03.2020
1227 Clouds 9 1013 61 10000 6.2 260 20:42 10.03.2020
1228 Clouds 9 1013 57 10000 6.2 260 20:19 10.03.2020
1229 Clouds 9 1013 57 10000 9.3 290 19:58 10.03.2020
1230 Clouds 9 1013 57 10000 9.3 290 19:40 10.03.2020
1231 Clouds 9 1013 50 10000 7.7 280 19:21 10.03.2020
1232 Clouds 9 1013 57 10000 1 0 18:55 10.03.2020
1233 Clouds 10 1013 57 10000 1 0 18:36 10.03.2020
1234 Clouds 10 1013 50 10000 0.5 0 18:18 10.03.2020
1235 Clouds 11 1012 40 10000 1.5 350 17:41 10.03.2020
1236 Clouds 11 1012 40 10000 1.5 350 17:22 10.03.2020
1237 Clouds 11 1013 40 10000 2.6 330 16:54 10.03.2020
1238 Clouds 11 1013 40 10000 2.6 330 16:36 10.03.2020
1239 Rain 12 1013 40 10000 3.6 300 16:18 10.03.2020
1240 Rain 12 1013 35 10000 4.1 270 15:41 10.03.2020
1241 Rain 12 1013 35 10000 5.1 290 15:20 10.03.2020
1242 Clouds 12 1013 35 10000 5.1 290 14:58 10.03.2020
1243 Clouds 12 1013 37 10000 6.7 300 14:40 10.03.2020
1244 Clouds 12 1014 37 10000 5.7 290 14:19 10.03.2020
1245 Clouds 12 1014 42 10000 6.2 290 13:43 10.03.2020
1246 Clouds 12 1015 43 10000 7.7 310 13:25 10.03.2020
1247 Clouds 12 1016 43 10000 8.2 290 12:55 10.03.2020
1248 Clouds 12 1016 43 10000 8.2 290 12:37 10.03.2020
1249 Clouds 11 1016 43 10000 8.2 300 12:18 10.03.2020
1250 Clouds 11 1016 50 10000 6.7 300 11:42 10.03.2020
1251 Clouds 10 1016 53 10000 6.7 290 11:24 10.03.2020
1252 Clouds 10 1016 53 10000 6.7 290 11:24 10.03.2020
1253 Clouds 10 1017 57 10000 9.3 300 10:56 10.03.2020
1254 Clouds 10 1017 57 10000 9.3 300 10:38 10.03.2020
1255 Clouds 9 1017 61 10000 7.2 310 10:19 10.03.2020
1256 Clouds 9 1017 61 10000 7.7 290 09:45 10.03.2020
1257 Clouds 8 1017 65 10000 6.7 280 09:20 10.03.2020
1258 Clouds 8 1017 70 10000 6.7 280 08:58 10.03.2020
1259 Clouds 8 1017 70 10000 6.7 280 08:40 10.03.2020
1260 Clouds 7 1017 70 10000 5.7 280 08:20 10.03.2020
1261 Clouds 6 1017 70 10000 6.2 310 07:40 10.03.2020
1262 Clouds 5 1017 75 10000 5.1 290 07:21 10.03.2020
1263 Clouds 5 1017 75 10000 6.2 280 06:38 10.03.2020
1264 Clouds 5 1017 75 10000 5.1 290 05:55 10.03.2020
1265 Clouds 5 1016 75 10000 6.7 300 05:35 10.03.2020
1266 Clouds 6 1016 75 10000 7.2 310 04:31 10.03.2020
1267 Clouds 7 1016 75 10000 7.2 310 02:58 10.03.2020
1268 Clouds 7 1016 75 10000 6.2 300 01:36 10.03.2020
1269 Rain 7 1016 87 10000 5.1 300 00:51 10.03.2020
1270 Rain 7 1016 81 10000 6.7 300 00:29 10.03.2020
1271 Rain 7 1016 81 10000 6.2 300 23:43 09.03.2020
1272 Rain 7 1016 81 10000 6.7 300 23:23 09.03.2020
1273 Clouds 7 1016 81 10000 6.2 300 22:58 09.03.2020
1274 Clouds 7 1016 81 10000 6.2 300 22:38 09.03.2020
1275 Clouds 7 1016 81 10000 7.7 300 22:20 09.03.2020
1276 Clouds 7 1016 75 10000 5.7 300 21:45 09.03.2020
1277 Rain 7 1015 75 10000 6.7 300 21:22 09.03.2020
1278 Clouds 7 1015 70 10000 5.7 300 20:59 09.03.2020
1279 Clouds 7 1015 70 10000 5.7 300 20:41 09.03.2020
1280 Clouds 7 1015 70 10000 5.1 300 20:22 09.03.2020
1281 Clouds 7 1015 70 10000 5.1 300 19:59 09.03.2020
1282 Clouds 7 1015 75 10000 3.6 280 19:41 09.03.2020
1283 Clouds 7 1015 70 10000 4.6 290 19:19 09.03.2020
1284 Clouds 7 1014 66 10000 5.1 290 18:56 09.03.2020
1285 Clouds 8 1014 66 10000 5.1 290 18:56 09.03.2020
1286 Clouds 8 1014 66 10000 5.1 290 18:38 09.03.2020
1287 Clouds 8 1014 66 10000 5.7 300 18:18 09.03.2020
1288 Clouds 8 1014 57 10000 0.5 0 17:55 09.03.2020
1289 Clouds 9 1014 57 10000 0.5 0 17:37 09.03.2020
1290 Clouds 9 1013 57 10000 1.5 70 17:19 09.03.2020
1291 Clouds 10 1013 53 10000 2.6 50 16:56 09.03.2020
1292 Clouds 10 1013 53 10000 2.6 50 16:37 09.03.2020
1293 Clouds 10 1013 59 10000 1 0 16:19 09.03.2020
1294 Clouds 10 1013 59 10000 1 0 15:55 09.03.2020
1295 Rain 10 1012 59 10000 1.5 0 15:37 09.03.2020
1296 Rain 10 1012 59 10000 1.5 0 15:18 09.03.2020
1297 Rain 10 1013 49 10000 1.5 130 14:39 09.03.2020
1298 Rain 10 1013 49 10000 1.5 130 14:20 09.03.2020
1299 Rain 10 1013 48 10000 1 0 13:59 09.03.2020
1300 Rain 10 1013 48 10000 1 0 13:39 09.03.2020
1301 Rain 10 1013 48 10000 1.5 100 13:21 09.03.2020
1302 Rain 9 1013 52 10000 2.1 70 12:58 09.03.2020
1303 Rain 9 1013 48 10000 1.5 120 12:39 09.03.2020
1304 Rain 9 1013 48 10000 1.5 120 12:39 09.03.2020
1305 Rain 8 1013 48 10000 1.5 120 12:19 09.03.2020
1306 Rain 8 1013 65 10000 3.1 100 11:40 09.03.2020
1307 Rain 7 1013 60 0 1 230 11:20 09.03.2020
1308 Rain 7 1014 65 10000 2.6 130 10:58 09.03.2020
1309 Rain 6 1014 69 10000 1.5 180 10:40 09.03.2020
1310 Rain 5 1014 69 10000 1.5 180 10:19 09.03.2020
1311 Clouds 4 1014 69 10000 2.1 140 09:42 09.03.2020
1312 Clouds 4 1014 69 10000 2.1 150 09:24 09.03.2020
1313 Clouds 3 1014 69 10000 1 0 08:54 09.03.2020
1314 Clouds 2 1014 74 10000 0.5 0 08:36 09.03.2020
1315 Clouds 2 1014 74 10000 0.5 0 08:18 09.03.2020
1316 Clouds 1 1013 76 10000 1 150 07:39 09.03.2020
1317 Clouds 1 1013 76 10000 1 150 07:20 09.03.2020
1318 Clouds 0 1013 76 10000 2.1 160 06:41 09.03.2020
1319 Clouds 0 1013 76 10000 2.1 160 06:23 09.03.2020
1320 Clouds 0 1014 76 10000 1.5 160 05:45 09.03.2020
1321 Clear 0 1014 74 10000 1.5 130 04:59 09.03.2020
1322 Clear 0 1014 74 10000 1.5 130 04:40 09.03.2020
1323 Clear 0 1014 80 10000 1 180 04:21 09.03.2020
1324 Clear 0 1014 69 10000 1 180 02:55 09.03.2020
1325 Clear 1 1016 74 10000 3.6 170 00:45 09.03.2020
1326 Clear 1 1017 74 10000 0.5 0 00:27 09.03.2020
1327 Clear 1 1016 80 10000 3.6 170 23:59 08.03.2020
1328 Rain 2 1017 74 10000 2.6 190 23:39 08.03.2020
1329 Rain 2 1017 71 10000 2.6 190 23:20 08.03.2020
1330 Rain 2 1017 74 10000 3.6 180 22:42 08.03.2020
1331 Clear 2 1017 69 10000 4.6 200 22:22 08.03.2020
1332 Clear 2 1018 64 10000 4.1 180 21:59 08.03.2020
1333 Clear 2 1018 64 10000 4.1 180 21:59 08.03.2020
1334 Clear 2 1018 64 10000 3.1 170 21:41 08.03.2020
1335 Clear 2 1018 64 10000 3.1 170 21:23 08.03.2020
1336 Clear 3 1018 60 10000 2.1 100 20:58 08.03.2020
1337 Clear 3 1018 64 10000 1 10 20:38 08.03.2020
1338 Clouds 4 1018 65 10000 1.5 160 20:20 08.03.2020
1339 Clouds 4 1018 65 10000 1.5 160 19:40 08.03.2020
1340 Clouds 4 1018 60 0 1 160 19:20 08.03.2020
1341 Rain 5 1019 45 10000 1.5 330 18:57 08.03.2020
1342 Rain 6 1018 45 10000 0.5 0 18:38 08.03.2020
1343 Rain 7 1018 49 10000 1.5 340 18:20 08.03.2020
1344 Clouds 8 1019 42 10000 3.1 320 17:41 08.03.2020
1345 Clouds 8 1019 42 10000 3.1 320 17:22 08.03.2020
1346 Rain 9 1019 42 10000 3.1 320 16:59 08.03.2020
1347 Rain 9 1019 42 10000 3.1 320 16:40 08.03.2020
1348 Rain 9 1019 42 10000 3.1 320 16:22 08.03.2020
1349 Rain 9 1019 42 10000 4.1 320 15:41 08.03.2020
1350 Rain 9 1019 42 10000 4.1 320 15:22 08.03.2020
1351 Rain 9 1019 42 10000 4.1 320 14:59 08.03.2020
1352 Rain 9 1020 42 10000 5.1 310 14:38 08.03.2020
1353 Rain 9 1020 42 10000 5.1 310 14:20 08.03.2020
1354 Clouds 9 1020 39 10000 5.1 350 13:55 08.03.2020
1355 Rain 9 1020 39 10000 5.1 350 13:36 08.03.2020
1356 Rain 9 1021 45 10000 5.1 330 13:18 08.03.2020
1357 Rain 9 1021 42 10000 5.1 330 12:37 08.03.2020
1358 Clouds 9 1022 42 10000 4.1 330 12:18 08.03.2020
1359 Clouds 8 1022 39 10000 5.1 330 11:42 08.03.2020
1360 Clouds 8 1022 39 10000 5.1 330 11:23 08.03.2020
1361 Clouds 8 1022 42 10000 4.6 360 10:57 08.03.2020
1362 Clouds 8 1022 42 10000 4.6 360 10:57 08.03.2020
1363 Clouds 7 1022 42 10000 4.6 360 10:39 08.03.2020
1364 Clouds 7 1022 42 10000 4.6 360 10:21 08.03.2020
1365 Clouds 6 1022 48 10000 3.1 10 09:40 08.03.2020
1366 Clear 6 1022 56 10000 3.1 20 09:22 08.03.2020
1367 Clear 5 1022 52 10000 2.6 350 08:48 08.03.2020
1368 Clear 4 1022 60 10000 1.5 40 08:22 08.03.2020
1369 Clear 3 1022 55 10000 3.6 310 07:50 08.03.2020
1370 Clear 3 1022 69 10000 6.2 310 07:28 08.03.2020
1371 Clouds 3 1022 55 10000 5.1 310 06:51 08.03.2020
1372 Clouds 3 1022 55 10000 5.1 310 06:33 08.03.2020
1373 Clear 3 1022 69 10000 3.6 320 05:49 08.03.2020
1374 Clear 3 1021 69 10000 5.1 320 04:24 08.03.2020
1375 Clear 3 1021 65 10000 6.2 320 03:19 08.03.2020
1376 Clouds 4 1021 72 10000 6.2 310 01:55 08.03.2020
1377 Clouds 4 1021 72 10000 6.7 310 01:20 08.03.2020
1378 Clouds 4 1021 72 10000 6.7 310 00:41 08.03.2020
1379 Clouds 5 1020 72 10000 6.7 310 23:59 07.03.2020
1380 Clouds 5 1020 72 10000 6.7 310 23:41 07.03.2020
1381 Clouds 5 1020 70 10000 6.2 310 23:20 07.03.2020
1382 Clouds 5 1020 69 10000 6.2 300 22:38 07.03.2020
1383 Clouds 5 1020 69 10000 6.2 300 22:20 07.03.2020
1384 Clouds 5 1020 69 10000 4.6 290 21:45 07.03.2020
1385 Clouds 5 1020 69 10000 4.6 290 21:24 07.03.2020
1386 Clouds 5 1019 60 10000 6.2 320 20:42 07.03.2020
1387 Clear 5 1019 60 10000 6.2 320 20:23 07.03.2020
1388 Clouds 5 1018 60 10000 8.2 320 19:57 07.03.2020
1389 Clouds 6 1018 64 10000 6.2 320 19:38 07.03.2020
1390 Clouds 6 1018 64 10000 6.2 320 19:19 07.03.2020
1391 Clouds 6 1017 64 10000 6.2 330 18:41 07.03.2020
1392 Clouds 6 1017 64 10000 6.2 330 18:22 07.03.2020
1393 Rain 6 1016 61 10000 6.2 300 17:54 07.03.2020
1394 Clouds 7 1015 61 10000 6.7 300 17:36 07.03.2020
1395 Clouds 7 1015 61 10000 6.7 300 17:18 07.03.2020
1396 Clouds 7 1015 61 10000 7.7 300 16:42 07.03.2020
1397 Clouds 8 1015 61 10000 7.7 300 16:23 07.03.2020
1398 Clouds 8 1014 57 10000 6.2 300 15:57 07.03.2020
1399 Clouds 8 1014 53 10000 8.7 300 15:39 07.03.2020
1400 Clouds 8 1014 53 10000 8.7 300 15:20 07.03.2020
1401 Clouds 8 1014 57 10000 7.2 290 14:54 07.03.2020
1402 Clouds 8 1013 61 10000 7.2 280 14:36 07.03.2020
1403 Rain 9 1013 61 10000 7.2 280 14:18 07.03.2020
1404 Rain 9 1013 61 10000 7.7 290 13:39 07.03.2020
1405 Clouds 8 1013 61 10000 6.2 310 13:20 07.03.2020
1406 Rain 8 1013 61 10000 8.7 300 12:42 07.03.2020
1407 Clouds 8 1012 52 10000 9.3 290 12:20 07.03.2020
1408 Clouds 8 1012 52 10000 9.8 290 11:58 07.03.2020
1409 Clouds 8 1012 52 10000 9.8 290 11:58 07.03.2020
1410 Clouds 8 1012 52 10000 10.3 280 11:39 07.03.2020
1411 Clouds 8 1012 56 10000 10.3 280 11:21 07.03.2020
1412 Clouds 8 1012 56 10000 10.3 280 11:21 07.03.2020
1413 Clouds 8 1011 56 10000 9.8 280 10:41 07.03.2020
1414 Clouds 8 1011 56 10000 9.8 280 10:21 07.03.2020
1415 Clouds 8 1010 56 10000 10.8 290 09:58 07.03.2020
1416 Clouds 8 1010 56 10000 9.8 290 09:39 07.03.2020
1417 Clouds 8 1010 56 10000 9.8 290 09:18 07.03.2020
1418 Clouds 7 1009 65 10000 8.2 290 08:44 07.03.2020
1419 Clouds 6 1009 65 10000 8.2 290 08:21 07.03.2020
1420 Clouds 6 1009 75 10000 6.2 280 07:52 07.03.2020
1421 Clouds 5 1008 75 10000 7.2 280 07:23 07.03.2020
1422 Clouds 5 1007 74 0 5.05 298 06:59 07.03.2020
1423 Clouds 5 1004 69 0 1.34 230 06:35 07.03.2020
1424 Clouds 5 1007 70 10000 6.7 270 05:55 07.03.2020
1425 Clouds 6 1007 70 10000 6.7 270 04:56 07.03.2020
1426 Clouds 6 1006 65 10000 8.2 280 02:58 07.03.2020
1427 Clouds 6 1006 65 10000 8.2 270 02:35 07.03.2020
1428 Clouds 6 1006 65 10000 8.2 270 01:46 07.03.2020
1429 Clouds 6 1005 61 10000 5.7 260 00:41 07.03.2020
1430 Clouds 6 1005 61 10000 5.7 260 00:23 07.03.2020
1431 Rain 7 1004 61 10000 5.1 270 23:56 06.03.2020
1432 Rain 7 1004 57 10000 4.1 270 23:38 06.03.2020
1433 Rain 7 1004 57 10000 4.1 270 23:19 06.03.2020
1434 Clouds 6 1004 87 10000 2.6 200 22:42 06.03.2020
1435 Clouds 6 1004 87 10000 2.6 200 22:18 06.03.2020
1436 Clouds 6 1003 87 10000 3.1 180 21:45 06.03.2020
1437 Clouds 6 1003 70 10000 3.1 240 21:19 06.03.2020
1438 Clouds 7 1002 93 10000 4.1 170 20:40 06.03.2020
1439 Clouds 7 1002 93 10000 4.1 170 20:21 06.03.2020
1440 Clouds 7 1001 87 10000 2.1 0 19:54 06.03.2020
1441 Clouds 7 1001 87 10000 2.6 140 19:34 06.03.2020
1442 Clouds 8 1001 81 10000 2.1 140 18:59 06.03.2020
1443 Clouds 8 1001 81 10000 2.1 140 18:41 06.03.2020
1444 Clouds 9 1000 81 10000 2.6 150 18:19 06.03.2020
1445 Clouds 9 1000 76 10000 3.6 180 17:55 06.03.2020
1446 Clouds 10 999 71 10000 3.6 180 17:36 06.03.2020
1447 Clouds 10 999 71 10000 3.6 180 17:18 06.03.2020
1448 Clouds 10 999 66 10000 4.1 190 16:42 06.03.2020
1449 Clouds 11 999 66 10000 4.1 190 16:20 06.03.2020
1450 Rain 11 998 66 10000 4.1 190 15:45 06.03.2020
1451 Rain 11 998 66 10000 5.1 200 15:25 06.03.2020
1452 Clouds 11 998 71 10000 5.1 210 14:59 06.03.2020
1453 Clouds 11 998 71 10000 5.7 210 14:39 06.03.2020
1454 Clouds 10 998 71 10000 5.7 210 14:20 06.03.2020
1455 Clouds 10 998 81 10000 4.1 180 13:43 06.03.2020
1456 Clouds 10 998 87 10000 5.7 170 13:23 06.03.2020
1457 Drizzle 9 998 87 10000 5.7 170 12:58 06.03.2020
1458 Clouds 9 998 81 10000 5.1 190 12:38 06.03.2020
1459 Clouds 8 998 81 10000 5.1 190 12:19 06.03.2020
1460 Clouds 8 998 87 10000 4.6 180 11:57 06.03.2020
1461 Rain 8 998 87 10000 5.7 160 11:39 06.03.2020
1462 Drizzle 7 998 93 10000 6.2 160 11:20 06.03.2020
1463 Rain 6 998 87 10000 2.6 200 10:40 06.03.2020
1464 Rain 6 998 87 10000 2.6 200 10:21 06.03.2020
1465 Rain 6 997 93 10000 3.1 140 09:55 06.03.2020
1466 Rain 6 997 93 10000 4.6 130 09:37 06.03.2020
1467 Rain 5 997 93 10000 4.6 130 09:19 06.03.2020
1468 Rain 5 997 93 10000 5.1 140 08:46 06.03.2020
1469 Rain 5 997 93 10000 4.1 130 08:27 06.03.2020
1470 Rain 5 997 93 10000 3.1 150 07:58 06.03.2020
1471 Rain 5 997 86 10000 4.1 180 07:39 06.03.2020
1472 Rain 4 996 93 10000 2.1 140 06:59 06.03.2020
1473 Rain 5 996 93 10000 2.1 140 06:59 06.03.2020
1474 Rain 5 996 86 10000 4.1 150 06:41 06.03.2020
1475 Rain 4 996 93 10000 4.1 150 05:50 06.03.2020
1476 Rain 5 996 86 10000 4.6 150 05:31 06.03.2020
1477 Rain 5 996 86 10000 5.1 160 04:58 06.03.2020
1478 Rain 6 996 82 10000 6.7 150 02:56 06.03.2020
1479 Clouds 6 996 60 10000 8.7 140 01:42 06.03.2020
1480 Clouds 6 996 60 10000 8.7 140 01:23 06.03.2020
1481 Clouds 6 996 60 10000 9.3 140 00:39 06.03.2020
1482 Clouds 6 996 60 10000 10.3 140 00:19 06.03.2020
1483 Clouds 6 997 60 10000 10.8 140 23:42 05.03.2020
1484 Clouds 6 997 60 10000 11.8 140 23:22 05.03.2020
1485 Clouds 7 998 60 10000 11.8 140 22:41 05.03.2020
1486 Clouds 7 998 60 10000 11.8 140 22:23 05.03.2020
1487 Clouds 7 999 56 10000 11.3 140 21:58 05.03.2020
1488 Clouds 7 999 56 10000 11.8 140 21:39 05.03.2020
1489 Clouds 7 999 56 10000 11.8 140 21:21 05.03.2020
1490 Clouds 7 1000 52 10000 10.8 140 20:59 05.03.2020
1491 Clouds 7 1000 56 10000 10.8 140 20:41 05.03.2020
1492 Clouds 7 1000 56 10000 10.8 140 20:20 05.03.2020
1493 Clouds 8 1000 52 10000 10.3 140 19:58 05.03.2020
1494 Clouds 8 1001 52 10000 10.3 140 19:39 05.03.2020
1495 Clouds 8 1001 52 10000 10.3 140 19:19 05.03.2020
1496 Clouds 8 1001 49 10000 10.3 140 18:57 05.03.2020
1497 Clouds 8 1001 49 10000 9.8 150 18:37 05.03.2020
1498 Clouds 9 1001 49 10000 9.8 150 18:18 05.03.2020
1499 Clouds 9 1001 49 10000 10.3 140 17:54 05.03.2020
1500 Clouds 9 1002 46 10000 10.8 140 17:36 05.03.2020
1501 Clouds 10 1002 46 10000 10.8 140 17:18 05.03.2020
1502 Clouds 10 1003 43 10000 10.3 150 16:41 05.03.2020
1503 Clouds 11 1003 43 10000 10.3 150 16:22 05.03.2020
1504 Clouds 11 1003 34 10000 10.8 150 15:46 05.03.2020
1505 Clouds 11 1004 34 10000 9.8 150 15:24 05.03.2020
1506 Clouds 12 1004 37 10000 11.3 150 14:59 05.03.2020
1507 Clouds 12 1005 34 10000 10.8 160 14:41 05.03.2020
1508 Clear 12 1005 34 10000 10.8 160 14:22 05.03.2020
1509 Clear 12 1006 34 10000 11.3 150 13:57 05.03.2020
1510 Clear 11 1006 37 10000 10.8 160 13:38 05.03.2020
1511 Clear 11 1007 37 10000 9.3 160 13:20 05.03.2020
1512 Clouds 11 1007 43 10000 9.3 140 12:43 05.03.2020
1513 Clouds 11 1007 43 10000 9.3 140 12:21 05.03.2020
1514 Clear 10 1008 45 10000 8.2 140 11:58 05.03.2020
1515 Clear 10 1009 45 10000 7.2 140 11:38 05.03.2020
1516 Clear 9 1009 45 10000 7.2 140 11:20 05.03.2020
1517 Clear 9 1009 52 10000 6.7 130 10:58 05.03.2020
1518 Clear 9 1009 52 10000 6.7 130 10:58 05.03.2020
1519 Clear 8 1009 52 10000 6.7 130 10:40 05.03.2020
1520 Clear 7 1010 56 10000 6.2 120 10:21 05.03.2020
1521 Rain 7 1010 56 10000 3.1 130 09:59 05.03.2020
1522 Rain 6 1011 64 10000 2.6 160 09:40 05.03.2020
1523 Rain 5 1011 64 10000 2.6 160 09:21 05.03.2020
1524 Clear 3 1011 69 10000 1.5 140 08:43 05.03.2020
1525 Clear 2 1011 69 10000 3.1 180 08:24 05.03.2020
1526 Clear 0 1011 69 10000 2.1 180 07:45 05.03.2020
1527 Clear -1 1011 80 10000 3.6 190 07:22 05.03.2020
1528 Clear -2 1011 79 10000 2.1 190 06:45 05.03.2020
1529 Clear -2 1011 79 10000 3.1 180 06:21 05.03.2020
1530 Clear -1 1012 86 10000 2.6 180 05:37 05.03.2020
1531 Clear -1 1012 86 10000 2.6 180 04:25 05.03.2020
1532 Clouds -1 1012 80 10000 2.6 190 03:59 05.03.2020
1533 Clouds 0 1012 80 10000 2.1 180 03:18 05.03.2020
1534 Clear 1 1012 74 10000 2.1 220 01:28 05.03.2020
1535 Clear 1 1012 74 10000 2.6 210 00:58 05.03.2020
1536 Clear 1 1013 69 10000 1.5 260 23:59 04.03.2020
1537 Clear 2 1013 64 10000 3.1 260 23:40 04.03.2020
1538 Clear 2 1013 64 10000 3.1 260 23:22 04.03.2020
1539 Clear 2 1013 64 10000 3.1 260 22:56 04.03.2020
1540 Clear 3 1013 60 10000 2.6 270 22:37 04.03.2020
1541 Clear 3 1013 60 10000 2.6 270 22:19 04.03.2020
1542 Clear 3 1013 65 10000 3.1 300 21:56 04.03.2020
1543 Clear 3 1013 65 10000 3.6 300 21:37 04.03.2020
1544 Clear 4 1013 60 10000 4.6 290 21:18 04.03.2020
1545 Clear 4 1013 64 10000 3.6 290 20:40 04.03.2020
1546 Clear 4 1013 64 10000 3.6 290 20:22 04.03.2020
1547 Rain 5 1013 60 10000 3.6 310 19:58 04.03.2020
1548 Rain 5 1013 60 10000 3.6 310 19:40 04.03.2020
1549 Rain 5 1013 60 10000 7.2 300 19:22 04.03.2020
1550 Rain 6 1012 56 10000 6.2 280 18:42 04.03.2020
1551 Rain 6 1012 56 10000 6.2 280 18:24 04.03.2020
1552 Rain 6 1012 56 10000 6.2 280 17:59 04.03.2020
1553 Rain 7 1012 56 10000 6.2 280 17:39 04.03.2020
1554 Clouds 8 1011 49 10000 7.2 290 17:20 04.03.2020
1555 Clouds 8 1011 49 10000 7.2 290 16:58 04.03.2020
1556 Clouds 8 1011 37 10000 5.1 330 16:38 04.03.2020
1557 Clouds 8 1011 37 10000 5.1 330 16:20 04.03.2020
1558 Clouds 9 1011 39 10000 4.6 350 15:55 04.03.2020
1559 Clouds 9 1011 39 10000 6.2 340 15:36 04.03.2020
1560 Clouds 9 1011 39 10000 6.2 340 15:18 04.03.2020
1561 Clouds 9 1011 37 10000 8.2 330 14:41 04.03.2020
1562 Rain 9 1011 39 10000 7.7 330 14:21 04.03.2020
1563 Clouds 9 1011 42 10000 7.7 320 13:58 04.03.2020
1564 Clouds 9 1012 39 10000 8.7 320 13:39 04.03.2020
1565 Clouds 9 1012 39 10000 8.7 320 13:21 04.03.2020
1566 Clouds 9 1012 43 10000 8.7 320 12:56 04.03.2020
1567 Clouds 9 1012 45 10000 7.7 320 12:38 04.03.2020
1568 Clouds 9 1012 45 10000 7.7 320 12:20 04.03.2020
1569 Clouds 9 1012 52 10000 8.7 320 11:54 04.03.2020
1570 Clouds 8 1012 52 10000 9.3 310 11:36 04.03.2020
1571 Clouds 8 1012 52 10000 9.3 310 11:18 04.03.2020
1572 Clouds 7 1012 52 10000 7.7 320 10:41 04.03.2020
1573 Clouds 7 1012 56 10000 8.2 310 10:22 04.03.2020
1574 Clouds 7 1012 56 10000 8.2 310 09:44 04.03.2020
1575 Clouds 6 1012 54 10000 6.7 310 09:23 04.03.2020
1576 Clouds 6 1012 54 10000 6.2 310 08:59 04.03.2020
1577 Clouds 5 1012 54 10000 6.2 300 08:40 04.03.2020
1578 Clouds 5 1012 63 10000 6.2 300 08:22 04.03.2020
1579 Clouds 4 1011 63 10000 5.7 300 07:44 04.03.2020
1580 Clouds 4 1011 63 10000 6.7 300 07:25 04.03.2020
1581 Clouds 4 1011 63 10000 7.2 300 06:49 04.03.2020
1582 Clouds 4 1010 63 10000 6.7 300 06:26 04.03.2020
1583 Clouds 4 1010 60 10000 6.2 310 05:55 04.03.2020
1584 Clouds 4 1009 68 10000 5.1 310 05:00 04.03.2020
1585 Clouds 4 1009 68 10000 5.1 310 05:00 04.03.2020
1586 Clouds 4 1009 68 10000 5.1 310 04:59 04.03.2020
1587 Clouds 5 1009 68 10000 6.2 310 03:50 04.03.2020
1588 Clouds 5 1009 68 10000 5.7 310 03:31 04.03.2020
1589 Clouds 5 1009 68 10000 4.6 310 02:58 04.03.2020
1590 Clouds 5 1008 71 10000 5.1 320 02:25 04.03.2020
1591 Clouds 5 1009 71 10000 5.1 310 01:56 04.03.2020
1592 Clouds 5 1008 72 10000 6.2 310 01:31 04.03.2020
1593 Clouds 5 1008 72 10000 6.2 300 00:41 04.03.2020
1594 Clouds 5 1008 72 10000 6.2 300 00:19 04.03.2020
1595 Clouds 5 1008 72 10000 6.2 300 23:41 03.03.2020
1596 Clouds 5 1008 71 10000 6.2 300 23:22 03.03.2020
1597 Clouds 5 1007 71 10000 6.2 300 22:55 03.03.2020
1598 Clouds 6 1007 71 10000 6.7 300 22:37 03.03.2020
1599 Clouds 6 1007 71 10000 6.7 300 22:18 03.03.2020
1600 Clouds 5 1006 71 10000 7.7 300 21:42 03.03.2020
1601 Clouds 5 1006 71 10000 6.7 300 21:22 03.03.2020
1602 Clouds 5 1006 71 10000 6.2 300 20:58 03.03.2020
1603 Clouds 5 1005 71 10000 6.7 290 20:39 03.03.2020
1604 Clouds 6 1005 73 10000 6.7 290 20:19 03.03.2020
1605 Clouds 6 1005 73 10000 7.7 290 19:56 03.03.2020
1606 Clouds 6 1005 69 10000 6.2 280 19:37 03.03.2020
1607 Clouds 6 1004 73 10000 7.7 290 19:18 03.03.2020
1608 Clouds 6 1004 73 10000 7.7 290 18:56 03.03.2020
1609 Clouds 6 1004 73 10000 7.7 290 18:56 03.03.2020
1610 Clouds 6 1003 73 10000 7.7 290 18:38 03.03.2020
1611 Clouds 6 1003 69 10000 7.7 290 18:19 03.03.2020
1612 Clouds 6 1003 73 10000 8.2 280 17:54 03.03.2020
1613 Clouds 6 1003 73 10000 8.2 280 17:36 03.03.2020
1614 Clouds 6 1003 73 10000 8.2 280 17:36 03.03.2020
1615 Clouds 7 1003 63 10000 8.2 280 17:18 03.03.2020
1616 Clouds 7 1002 60 10000 11.3 280 16:55 03.03.2020
1617 Clouds 7 1002 61 10000 10.8 290 16:36 03.03.2020
1618 Clouds 7 1002 61 10000 10.8 290 16:18 03.03.2020
1619 Clouds 8 1002 61 10000 9.8 290 15:41 03.03.2020
1620 Clouds 8 1001 57 10000 10.8 290 15:21 03.03.2020
1621 Clouds 8 1001 57 10000 10.8 290 14:54 03.03.2020
1622 Rain 8 1001 61 10000 9.8 280 14:36 03.03.2020
1623 Rain 8 1001 61 10000 9.8 280 14:18 03.03.2020
1624 Clouds 9 1000 66 10000 8.2 280 13:42 03.03.2020
1625 Clouds 9 1000 66 10000 8.2 280 13:24 03.03.2020
1626 Clouds 9 1000 66 10000 8.2 280 12:55 03.03.2020
1627 Clouds 9 1000 66 10000 6.7 280 12:36 03.03.2020
1628 Clouds 9 1000 66 10000 6.7 280 12:18 03.03.2020
1629 Rain 8 999 75 10000 6.2 280 11:38 03.03.2020
1630 Rain 8 999 75 10000 6.2 280 11:19 03.03.2020
1631 Rain 7 999 81 10000 5.1 280 10:57 03.03.2020
1632 Rain 7 998 75 10000 5.7 270 10:39 03.03.2020
1633 Rain 7 998 75 10000 5.7 270 10:19 03.03.2020
1634 Rain 7 998 81 10000 7.2 280 09:45 03.03.2020
1635 Rain 7 997 81 10000 6.2 280 09:23 03.03.2020
1636 Rain 6 997 81 10000 8.7 280 08:59 03.03.2020
1637 Rain 7 997 93 10000 1.5 250 08:40 03.03.2020
1638 Rain 7 997 93 10000 1.5 250 08:22 03.03.2020
1639 Clouds 8 995 87 10000 1.5 310 07:44 03.03.2020
1640 Clouds 8 995 87 10000 1.5 310 07:24 03.03.2020
1641 Clouds 8 995 87 10000 1 0 06:54 03.03.2020
1642 Clouds 8 995 81 10000 2.6 110 06:27 03.03.2020
1643 Rain 9 995 81 10000 3.6 130 05:49 03.03.2020
1644 Clouds 9 995 81 10000 4.6 140 05:31 03.03.2020
1645 Rain 9 994 81 10000 5.7 140 04:44 03.03.2020
1646 Rain 10 994 76 10000 5.1 140 02:24 03.03.2020
1647 Clouds 10 995 66 10000 5.7 150 01:20 03.03.2020
1648 Clouds 10 994 66 10000 6.2 140 00:38 03.03.2020
1649 Clouds 10 994 66 10000 6.2 140 00:19 03.03.2020
1650 Clouds 10 994 71 10000 7.7 140 23:43 02.03.2020
1651 Clouds 10 994 66 10000 5.1 140 23:23 02.03.2020
1652 Clouds 10 995 66 10000 6.2 140 22:56 02.03.2020
1653 Clouds 10 995 66 10000 6.7 140 22:38 02.03.2020
1654 Rain 11 995 66 10000 6.7 140 22:19 02.03.2020
1655 Clouds 11 995 62 10000 8.2 150 21:43 02.03.2020
1656 Clouds 11 995 62 10000 7.2 140 21:24 02.03.2020
1657 Clouds 11 995 62 10000 8.7 150 20:59 02.03.2020
1658 Clouds 11 995 62 10000 8.7 150 20:41 02.03.2020
1659 Clouds 11 995 62 10000 8.2 150 20:22 02.03.2020
1660 Clouds 11 995 58 10000 8.2 150 19:58 02.03.2020
1661 Clouds 11 996 66 10000 8.7 150 19:39 02.03.2020
1662 Clouds 11 996 66 10000 8.7 150 19:20 02.03.2020
1663 Clouds 11 996 62 10000 7.7 150 18:56 02.03.2020
1664 Clouds 11 996 62 10000 6.7 150 18:38 02.03.2020
1665 Clouds 11 996 62 10000 6.7 150 18:18 02.03.2020
1666 Clouds 12 996 58 10000 7.2 160 17:56 02.03.2020
1667 Clouds 12 996 58 10000 7.7 150 17:38 02.03.2020
1668 Clouds 12 996 58 10000 7.7 150 17:19 02.03.2020
1669 Clouds 12 996 50 10000 9.3 170 16:42 02.03.2020
1670 Clouds 13 997 47 10000 9.3 160 16:23 02.03.2020
1671 Clouds 14 997 44 10000 8.7 160 15:56 02.03.2020
1672 Clouds 14 997 44 10000 8.7 160 15:56 02.03.2020
1673 Clouds 14 997 44 10000 8.7 150 15:38 02.03.2020
1674 Clouds 14 997 44 10000 8.7 150 15:18 02.03.2020
1675 Clouds 14 998 41 10000 5.7 160 14:37 02.03.2020
1676 Clouds 13 998 41 10000 5.7 160 14:19 02.03.2020
1677 Clouds 13 998 41 10000 5.7 160 14:19 02.03.2020
1678 Clouds 13 998 41 10000 5.7 160 14:19 02.03.2020
1679 Clouds 13 999 41 10000 6.2 160 13:45 02.03.2020
1680 Clouds 13 999 37 10000 4.6 200 13:20 02.03.2020
1681 Clouds 13 1000 37 10000 4.1 220 12:59 02.03.2020
1682 Clouds 13 1000 43 10000 3.6 200 12:41 02.03.2020
1683 Clouds 12 1000 43 10000 3.6 200 12:19 02.03.2020
1684 Clouds 12 1000 43 10000 3.6 200 12:19 02.03.2020
1685 Clouds 12 1000 43 10000 4.1 250 11:39 02.03.2020
1686 Clouds 11 1000 46 10000 4.1 250 11:21 02.03.2020
1687 Clouds 10 1000 46 10000 5.1 270 10:57 02.03.2020
1688 Clouds 10 1000 46 10000 5.1 270 10:38 02.03.2020
1689 Clouds 10 1000 46 10000 5.1 270 10:19 02.03.2020
1690 Clouds 9 1000 61 10000 4.1 270 09:51 02.03.2020
1691 Clouds 8 1000 65 10000 5.1 280 09:31 02.03.2020
1692 Clouds 7 999 65 10000 6.7 280 08:49 02.03.2020
1693 Rain 7 999 65 10000 5.7 290 08:24 02.03.2020
1694 Rain 6 998 70 10000 7.2 300 07:52 02.03.2020
1695 Clouds 6 998 70 10000 8.2 290 07:33 02.03.2020
1696 Rain 6 998 70 10000 7.7 290 06:53 02.03.2020
1697 Rain 5 998 75 10000 8.2 300 06:26 02.03.2020
1698 Rain 5 997 75 10000 10.8 290 05:26 02.03.2020
1699 Rain 6 996 100 10000 4.1 180 03:59 02.03.2020
1700 Rain 6 996 100 10000 5.1 160 03:19 02.03.2020
1701 Rain 7 996 100 10000 5.1 150 02:30 02.03.2020
1702 Rain 7 997 93 10000 5.7 140 01:37 02.03.2020
1703 Rain 7 997 93 10000 5.7 140 01:19 02.03.2020
1704 Rain 7 999 93 10000 4.6 140 00:22 02.03.2020
1705 Rain 7 999 93 10000 5.7 140 23:43 01.03.2020
1706 Rain 7 1000 93 10000 5.1 140 23:24 01.03.2020
1707 Rain 7 1000 93 10000 5.1 140 22:55 01.03.2020
1708 Rain 7 1001 87 10000 6.2 130 22:36 01.03.2020
1709 Rain 7 1001 87 10000 6.2 130 22:18 01.03.2020
1710 Clouds 7 1001 81 10000 6.2 130 21:42 01.03.2020
1711 Clouds 7 1001 81 10000 6.2 130 21:24 01.03.2020
1712 Clouds 7 1002 81 10000 6.7 140 20:58 01.03.2020
1713 Clouds 7 1002 76 10000 7.7 140 20:39 01.03.2020
1714 Clouds 7 1002 76 10000 7.7 140 20:21 01.03.2020
1715 Clouds 7 1002 81 10000 5.1 130 19:42 01.03.2020
1716 Clouds 7 1002 81 10000 5.1 130 19:22 01.03.2020
1717 Clouds 7 1002 81 10000 5.7 120 18:58 01.03.2020
1718 Clouds 7 1003 75 10000 5.7 120 18:39 01.03.2020
1719 Clouds 8 1003 75 10000 3.1 110 18:19 01.03.2020
1720 Clouds 8 1003 75 10000 3.1 110 17:57 01.03.2020
1721 Clouds 8 1003 70 10000 4.1 110 17:38 01.03.2020
1722 Clouds 9 1003 70 10000 4.1 110 17:20 01.03.2020
1723 Clouds 9 1003 70 10000 4.1 110 16:55 01.03.2020
1724 Clouds 10 1004 70 10000 4.6 110 16:36 01.03.2020
1725 Clouds 10 1004 70 10000 4.6 110 16:36 01.03.2020
1726 Clouds 10 1004 70 10000 4.6 110 16:18 01.03.2020
1727 Clouds 10 1005 65 10000 4.1 110 15:56 01.03.2020
1728 Clouds 10 1005 65 10000 3.6 110 15:37 01.03.2020
1729 Clouds 10 1005 65 10000 3.6 110 15:18 01.03.2020
1730 Clouds 10 1005 65 10000 4.1 120 14:55 01.03.2020
1731 Clouds 10 1005 65 10000 3.6 120 14:36 01.03.2020
1732 Clouds 10 1005 65 10000 3.6 120 14:18 01.03.2020
1733 Clouds 10 1006 61 10000 3.1 140 13:44 01.03.2020
1734 Clouds 10 1006 61 10000 3.1 140 13:21 01.03.2020
1735 Clouds 10 1006 61 10000 4.1 140 12:59 01.03.2020
1736 Clouds 9 1006 65 10000 2.1 100 12:40 01.03.2020
1737 Clouds 9 1006 65 10000 2.1 100 12:20 01.03.2020
1738 Rain 9 1007 61 10000 3.6 130 11:42 01.03.2020
1739 Rain 9 1007 61 10000 3.6 130 11:23 01.03.2020
1740 Rain 8 1007 61 10000 3.1 130 10:57 01.03.2020
1741 Rain 8 1007 70 10000 3.1 150 10:38 01.03.2020
1742 Rain 8 1007 70 10000 3.1 150 10:19 01.03.2020
1743 Rain 8 1007 70 10000 3.1 150 10:19 01.03.2020
1744 Rain 8 1007 75 10000 2.6 150 09:55 01.03.2020
1745 Clouds 7 1007 75 10000 3.1 160 09:36 01.03.2020
1746 Clouds 7 1007 75 10000 3.1 160 09:18 01.03.2020
1747 Clouds 6 1007 87 10000 3.6 180 08:39 01.03.2020
1748 Clouds 6 1007 64 10000 3.6 180 08:19 01.03.2020
1749 Rain 5 1007 64 10000 4.6 170 07:42 01.03.2020
1750 Clouds 5 1006 64 10000 4.1 170 07:23 01.03.2020
1751 Rain 5 1006 64 10000 3.1 180 06:53 01.03.2020
1752 Rain 5 1006 64 10000 3.1 180 06:53 01.03.2020
1753 Clouds 5 1006 64 10000 2.1 160 06:33 01.03.2020
1754 Clouds 5 1005 66 10000 2.1 10 04:24 01.03.2020
1755 Clouds 4 1004 80 10000 0.5 0 02:29 01.03.2020
1756 Clouds 4 1004 74 10000 2.1 310 01:53 01.03.2020
1757 Clouds 3 1003 74 10000 2.6 270 01:22 01.03.2020
1758 Rain 3 1002 69 10000 2.6 130 00:43 01.03.2020
1759 Clouds 3 1002 69 10000 2.6 130 00:21 01.03.2020
1760 Clouds 3 1002 65 10000 1.5 200 23:49 29.02.2020
1761 Clouds 3 1002 65 10000 1.5 200 23:49 29.02.2020
1762 Clouds 4 1002 61 10000 2.6 110 23:31 29.02.2020
1763 Clouds 5 1002 61 10000 3.1 130 22:44 29.02.2020
1764 Clouds 5 1002 61 10000 4.6 130 22:24 29.02.2020
1765 Clouds 6 1002 61 10000 5.1 140 21:43 29.02.2020
1766 Clouds 6 1002 61 10000 5.7 140 21:25 29.02.2020
1767 Clouds 6 1002 61 10000 7.2 130 20:44 29.02.2020
1768 Clouds 7 1002 48 10000 7.2 130 20:22 29.02.2020
1769 Clouds 7 1002 51 10000 6.7 130 19:57 29.02.2020
1770 Clouds 7 1002 51 10000 6.7 130 19:38 29.02.2020
1771 Clouds 7 1003 45 10000 7.2 140 19:20 29.02.2020
1772 Clouds 7 1003 45 10000 7.2 140 19:20 29.02.2020
1773 Clouds 8 1003 39 10000 8.2 140 18:44 29.02.2020
1774 Clouds 8 1003 39 10000 8.2 140 18:25 29.02.2020
1775 Clouds 9 1003 36 10000 8.7 150 17:58 29.02.2020
1776 Clouds 9 1004 31 10000 9.8 160 17:40 29.02.2020
1777 Clouds 9 1003 36 10000 8.7 150 17:40 29.02.2020
1778 Clouds 9 1004 31 10000 9.8 160 17:21 29.02.2020
1779 Clouds 9 1004 31 10000 7.7 150 16:56 29.02.2020
1780 Clouds 10 1004 34 10000 8.2 140 16:37 29.02.2020
1781 Clouds 10 1004 34 10000 8.2 140 16:18 29.02.2020
1782 Clouds 10 1004 34 10000 8.2 140 16:18 29.02.2020
1783 Clouds 10 1005 34 10000 7.7 150 15:41 29.02.2020
1784 Clouds 10 1005 34 10000 7.7 150 15:23 29.02.2020
1785 Clouds 10 1006 37 10000 8.2 130 14:42 29.02.2020
1786 Clouds 9 1007 37 10000 6.7 120 14:24 29.02.2020
1787 Clouds 9 1007 37 10000 6.7 120 14:24 29.02.2020
1788 Clouds 9 1007 39 10000 5.7 130 13:58 29.02.2020
1789 Clouds 8 1008 42 10000 5.1 130 13:38 29.02.2020
1790 Clouds 8 1008 42 10000 5.1 130 13:20 29.02.2020
1791 Clouds 7 1009 48 10000 6.2 130 12:43 29.02.2020
1792 Clouds 7 1009 48 10000 6.2 130 12:22 29.02.2020
1793 Clouds 6 1009 48 10000 6.2 130 11:57 29.02.2020
1794 Clouds 6 1010 52 10000 6.2 130 11:39 29.02.2020
1795 Clouds 5 1010 52 10000 6.2 130 11:21 29.02.2020
1796 Clouds 5 1010 55 10000 5.7 130 10:46 29.02.2020
1797 Clouds 5 1011 55 10000 5.1 140 10:28 29.02.2020
1798 Clouds 4 1011 59 10000 5.1 140 09:50 29.02.2020
1799 Clouds 3 1011 59 10000 5.1 140 09:27 29.02.2020
1800 Clouds 3 1011 59 10000 5.7 150 08:43 29.02.2020
1801 Clouds 3 1012 59 10000 6.2 150 08:24 29.02.2020
1802 Clouds 2 1012 59 10000 7.2 160 07:59 29.02.2020
1803 Clouds 1 1012 59 10000 6.7 150 07:41 29.02.2020
1804 Clouds 1 1012 59 10000 6.7 150 07:18 29.02.2020
1805 Clouds 1 1013 51 10000 9.3 160 06:45 29.02.2020
1806 Clouds 1 1013 51 10000 9.8 160 06:25 29.02.2020
1807 Clouds 1 1014 51 10000 8.7 160 05:47 29.02.2020
1808 Clouds 0 1016 55 10000 5.7 140 04:46 29.02.2020
1809 Clouds 0 1016 55 10000 5.1 140 03:40 29.02.2020
1810 Clouds 0 1016 55 10000 5.1 140 03:22 29.02.2020
1811 Clouds -1 1018 86 10000 3.6 150 02:38 29.02.2020
1812 Clear -1 1018 80 10000 4.6 180 01:23 29.02.2020
1813 Clear -1 1019 67 0 2.53 189 00:37 29.02.2020
1814 Clear -1 1019 69 10000 3.6 250 23:56 28.02.2020
1815 Clear -1 1019 69 10000 4.1 260 23:36 28.02.2020
1816 Clear 0 1019 69 10000 4.1 260 23:18 28.02.2020
1817 Clear 0 1020 64 10000 5.1 270 22:41 28.02.2020
1818 Clear 0 1020 64 10000 5.1 270 22:19 28.02.2020
1819 Clear 1 1020 59 10000 4.1 280 21:41 28.02.2020
1820 -273 0 0 0 0 0 21:21 28.02.2020
1821 Clear 2 1019 59 10000 6.7 300 20:54 28.02.2020
1822 Clouds 2 1020 59 10000 4.6 290 20:36 28.02.2020
1823 Clouds 2 1020 59 10000 4.6 290 20:18 28.02.2020
1824 Clouds 3 1020 60 10000 5.1 290 19:55 28.02.2020
1825 Clouds 3 1019 64 10000 4.6 260 19:37 28.02.2020
1826 Clouds 3 1019 64 10000 4.6 260 19:18 28.02.2020
1827 Clouds 3 1019 60 10000 6.2 290 18:43 28.02.2020
1828 Clouds 4 1019 56 10000 6.7 300 18:22 28.02.2020
1829 Clouds 4 1018 60 10000 8.7 280 17:41 28.02.2020
1830 Clouds 5 1018 60 10000 8.7 280 17:23 28.02.2020
1831 Clouds 5 1017 56 10000 8.7 290 16:56 28.02.2020
1832 Rain 5 1017 56 10000 8.7 280 16:37 28.02.2020
1833 Rain 5 1017 48 10000 9.8 310 16:18 28.02.2020
1834 Clouds 6 1017 48 10000 9.8 310 15:42 28.02.2020
1835 Snow 6 1016 60 10000 9.8 300 15:20 28.02.2020
1836 Snow 5 1016 60 10000 9.8 300 15:20 28.02.2020
1837 Rain 6 1015 52 10000 12.3 320 14:59 28.02.2020
1838 Rain 6 1015 52 10000 11.8 310 14:41 28.02.2020
1839 Rain 6 1015 52 10000 11.8 310 14:19 28.02.2020
1840 Rain 6 1014 52 10000 13.4 310 13:57 28.02.2020
1841 Rain 6 1014 56 10000 10.8 310 13:39 28.02.2020
1842 Rain 6 1014 56 10000 10.8 310 13:19 28.02.2020
1843 Clouds 6 1014 52 10000 9.8 320 12:43 28.02.2020
1844 Clouds 6 1014 52 10000 9.8 320 12:24 28.02.2020
1845 Clouds 6 1013 56 10000 10.3 330 11:43 28.02.2020
1846 Clouds 6 1013 56 10000 10.3 330 11:24 28.02.2020
1847 Clouds 5 1012 60 10000 11.3 320 10:59 28.02.2020
1848 Clouds 5 1012 60 10000 11.3 320 10:41 28.02.2020
1849 Clouds 5 1011 60 10000 11.3 310 10:22 28.02.2020
1850 Clouds 5 1011 69 10000 10.8 310 09:47 28.02.2020
1851 Clouds 4 1010 52 10000 9.3 310 09:21 28.02.2020
1852 Clouds 4 1009 69 10000 12.9 310 08:57 28.02.2020
1853 Clouds 4 1009 69 10000 12.9 310 08:57 28.02.2020
1854 Clouds 4 1008 69 10000 12.3 310 08:37 28.02.2020
1855 Clouds 3 1008 69 10000 12.3 310 08:19 28.02.2020
1856 Clouds 3 1007 69 10000 12.9 310 07:40 28.02.2020
1857 Clouds 3 1006 74 10000 13.9 310 07:21 28.02.2020
1858 Rain 3 1005 74 10000 12.9 310 06:45 28.02.2020
1859 Rain 3 1004 74 10000 13.4 310 06:20 28.02.2020
1860 Rain 3 1000 81 10000 12.3 310 04:45 28.02.2020
1861 Rain 3 998 81 10000 13.9 280 04:18 28.02.2020
1862 Clouds 4 997 81 10000 8.2 210 02:46 28.02.2020
1863 Clouds 4 997 56 10000 8.2 210 02:27 28.02.2020
1864 Clouds 5 997 60 10000 9.8 230 00:59 28.02.2020
1865 Clouds 5 996 56 10000 6.2 180 00:28 28.02.2020
1866 Clouds 5 995 60 10000 5.7 190 23:42 27.02.2020
1867 Clouds 5 995 56 10000 6.2 170 23:20 27.02.2020
1868 Clouds 5 994 56 10000 8.7 150 22:46 27.02.2020
1869 Clouds 5 995 56 10000 8.7 150 22:26 27.02.2020
1870 Clouds 5 996 52 10000 8.2 150 21:58 27.02.2020
1871 Clouds 5 996 52 10000 8.2 150 21:39 27.02.2020
1872 Clouds 5 996 52 10000 9.3 140 21:19 27.02.2020
1873 Clouds 5 997 48 10000 8.2 140 20:56 27.02.2020
1874 Clouds 5 998 52 10000 7.7 150 20:38 27.02.2020
1875 Clouds 5 999 45 10000 7.7 140 20:20 27.02.2020
1876 Clouds 5 999 45 10000 7.7 140 19:54 27.02.2020
1877 Clouds 5 1000 45 10000 6.2 140 19:36 27.02.2020
1878 Clouds 5 1001 48 10000 6.2 140 19:18 27.02.2020
1879 Clouds 5 1001 48 10000 5.1 120 18:40 27.02.2020
1880 Clouds 5 1001 48 10000 5.1 120 18:22 27.02.2020
1881 Clouds 5 1002 52 10000 4.6 130 17:58 27.02.2020
1882 Clouds 6 1003 45 10000 5.7 150 17:39 27.02.2020
1883 Clouds 7 1003 39 10000 2.1 170 17:19 27.02.2020
1884 Clouds 7 1003 39 10000 2.1 170 16:56 27.02.2020
1885 Clouds 7 1004 39 10000 1.5 0 16:37 27.02.2020
1886 Clouds 7 1004 39 10000 1.5 0 16:18 27.02.2020
1887 Clouds 8 1005 39 10000 2.1 260 15:56 27.02.2020
1888 Clouds 8 1006 42 10000 5.1 270 15:36 27.02.2020
1889 Clouds 8 1006 42 10000 5.1 270 15:18 27.02.2020
1890 Clouds 8 1006 42 10000 5.1 270 15:18 27.02.2020
1891 Clouds 8 1006 42 10000 7.7 270 14:41 27.02.2020
1892 Clouds 7 1006 42 10000 7.7 270 14:23 27.02.2020
1893 Rain 7 1007 39 10000 7.2 280 13:57 27.02.2020
1894 Rain 7 1007 39 10000 8.2 290 13:39 27.02.2020
1895 Rain 7 1007 39 10000 8.2 290 13:20 27.02.2020
1896 Clouds 7 1007 42 10000 8.7 270 12:45 27.02.2020
1897 Clouds 8 1008 42 10000 8.2 280 12:22 27.02.2020
1898 Clouds 7 1008 48 10000 7.7 280 11:57 27.02.2020
1899 Clouds 7 1008 52 10000 8.7 280 11:38 27.02.2020
1900 Clouds 7 1008 52 10000 8.7 280 11:19 27.02.2020
1901 Clouds 6 1008 48 10000 9.3 290 10:42 27.02.2020
1902 Clouds 6 1008 48 10000 9.3 290 10:20 27.02.2020
1903 Clouds 5 1008 60 10000 9.8 290 09:46 27.02.2020
1904 Clouds 5 1008 60 10000 9.8 290 09:28 27.02.2020
1905 Clouds 4 1008 60 10000 9.3 290 08:56 27.02.2020
1906 Clouds 4 1007 69 10000 8.7 290 08:38 27.02.2020
1907 Clouds 3 1007 69 10000 8.7 290 08:18 27.02.2020
1908 Clouds 3 1007 69 10000 6.2 290 07:42 27.02.2020
1909 Clouds 2 1007 69 10000 6.7 290 07:24 27.02.2020
1910 Clouds 2 1007 69 10000 6.7 290 07:24 27.02.2020
1911 Clouds 3 1006 69 10000 7.2 300 06:30 27.02.2020
1912 Clouds 2 1006 69 10000 7.2 300 05:24 27.02.2020
1913 Clouds 3 1005 74 10000 7.2 300 03:21 27.02.2020
1914 Clouds 3 1004 64 10000 8.2 290 01:39 27.02.2020
1915 Clouds 3 1003 64 10000 8.7 290 00:43 27.02.2020
1916 Clouds 3 1003 64 10000 8.7 290 00:22 27.02.2020
1917 Clouds 4 1003 64 10000 8.2 280 23:38 26.02.2020
1918 Clouds 4 1003 64 10000 8.2 280 23:18 26.02.2020
1919 Clouds 4 1003 64 10000 8.2 280 22:56 26.02.2020
1920 Clouds 4 1003 64 10000 8.7 280 22:38 26.02.2020
1921 Clouds 4 1003 64 10000 8.7 280 22:19 26.02.2020
1922 Clouds 4 1002 64 10000 9.3 290 21:40 26.02.2020
1923 Clouds 3 1002 64 10000 7.7 280 21:21 26.02.2020
1924 Clouds 3 1001 69 10000 10.3 280 20:57 26.02.2020
1925 Clouds 3 1001 69 10000 11.3 270 20:38 26.02.2020
1926 Clouds 4 1001 69 10000 11.3 270 20:38 26.02.2020
1927 Clouds 4 1001 69 10000 11.3 270 20:19 26.02.2020
1928 Clouds 4 1001 56 10000 7.2 280 19:57 26.02.2020
1929 Clouds 4 1001 52 10000 5.1 280 19:38 26.02.2020
1930 Clouds 5 1000 52 10000 5.1 270 19:19 26.02.2020
1931 Clouds 5 1000 52 10000 5.1 270 18:57 26.02.2020
1932 Clouds 5 1000 52 10000 5.7 270 18:38 26.02.2020
1933 Clouds 6 1000 52 10000 5.7 270 18:19 26.02.2020
1934 Clouds 6 999 48 10000 4.6 260 17:41 26.02.2020
1935 Clouds 6 999 48 10000 4.6 260 17:20 26.02.2020
1936 Clouds 7 999 48 10000 4.1 280 16:57 26.02.2020
1937 Clouds 7 999 48 10000 4.6 280 16:39 26.02.2020
1938 Clouds 7 999 48 10000 4.6 280 16:20 26.02.2020
1939 Clouds 7 999 48 10000 5.7 280 15:46 26.02.2020
1940 Clouds 7 999 52 10000 6.2 270 15:28 26.02.2020
1941 Clouds 7 999 52 10000 6.7 270 14:55 26.02.2020
1942 Clouds 7 999 48 10000 7.7 270 14:37 26.02.2020
1943 Clouds 7 999 48 10000 7.7 270 14:18 26.02.2020
1944 Rain 7 998 48 10000 7.7 270 13:42 26.02.2020
1945 Rain 7 998 48 10000 5.7 270 13:20 26.02.2020
1946 Clouds 7 999 52 10000 7.2 290 12:39 26.02.2020
1947 Clouds 7 999 52 10000 7.2 290 12:20 26.02.2020
1948 Clouds 7 998 52 10000 7.7 280 11:56 26.02.2020
1949 Clouds 7 998 52 10000 7.7 280 11:56 26.02.2020
1950 Clouds 7 998 52 10000 9.8 280 11:38 26.02.2020
1951 Clouds 7 998 52 10000 9.8 280 11:20 26.02.2020
1952 Clouds 7 997 64 10000 10.3 280 10:41 26.02.2020
1953 Clouds 7 997 64 10000 10.3 280 10:23 26.02.2020
1954 Clouds 7 997 64 10000 7.2 280 09:57 26.02.2020
1955 Clouds 7 997 61 10000 9.3 290 09:39 26.02.2020
1956 Clouds 7 997 61 10000 9.3 290 09:19 26.02.2020
1957 Clouds 7 997 61 10000 5.1 290 08:39 26.02.2020
1958 Clouds 7 997 61 10000 5.1 290 08:39 26.02.2020
1959 Clouds 7 997 61 10000 5.1 290 08:19 26.02.2020
1960 Clouds 7 997 65 10000 3.6 280 07:50 26.02.2020
1961 Clouds 7 997 65 10000 5.1 290 07:29 26.02.2020
1962 Clouds 7 997 65 10000 4.6 290 06:58 26.02.2020
1963 Clouds 7 997 65 10000 4.6 290 06:39 26.02.2020
1964 Rain 7 997 65 10000 4.6 270 06:18 26.02.2020
1965 Clouds 7 997 66 0 8.2 230 05:47 26.02.2020
1966 Clouds 8 997 53 10000 6.2 280 04:52 26.02.2020
1967 Rain 8 998 57 10000 4.6 240 02:55 26.02.2020
1968 Clouds 9 999 71 10000 2.1 260 01:51 26.02.2020
1969 Rain 9 999 71 10000 3.6 250 01:21 26.02.2020
1970 Clouds 9 999 62 10000 7.7 280 00:28 26.02.2020
1971 Rain 10 1000 62 10000 8.7 280 23:59 25.02.2020
1972 Rain 10 1000 62 10000 8.7 280 23:41 25.02.2020
1973 Rain 10 1000 58 10000 5.1 270 23:21 25.02.2020
1974 Clouds 10 1001 62 0 7.2 230 22:43 25.02.2020
1975 Clouds 11 1001 62 0 7.2 230 22:20 25.02.2020
1976 Clouds 11 1001 50 10000 6.2 280 21:59 25.02.2020
1977 Clouds 11 1001 50 10000 8.2 290 21:38 25.02.2020
1978 Clouds 11 1001 50 10000 8.2 290 21:20 25.02.2020
1979 Clouds 11 1001 50 10000 8.7 290 20:56 25.02.2020
1980 Clouds 11 1001 47 10000 7.2 290 20:37 25.02.2020
1981 Clouds 12 1001 47 10000 7.2 290 20:19 25.02.2020
1982 Clouds 12 1001 47 10000 6.7 290 19:44 25.02.2020
1983 Clouds 12 1001 44 10000 7.2 290 19:23 25.02.2020
1984 Clouds 12 1001 41 10000 6.7 280 18:59 25.02.2020
1985 Clouds 12 1001 41 10000 8.7 310 18:39 25.02.2020
1986 Clouds 12 1001 41 10000 8.7 310 18:20 25.02.2020
1987 Clouds 13 1001 38 10000 7.7 280 17:56 25.02.2020
1988 Clouds 13 1001 58 10000 4.6 270 17:37 25.02.2020
1989 Clouds 13 1001 55 10000 4.6 270 17:18 25.02.2020
1990 Clouds 14 1001 55 10000 6.2 320 16:55 25.02.2020
1991 Clouds 14 1001 31 10000 6.2 300 16:37 25.02.2020
1992 Clouds 14 1001 31 10000 6.2 300 16:19 25.02.2020
1993 Clouds 15 1002 23 10000 9.8 270 15:45 25.02.2020
1994 Clouds 15 1002 27 10000 7.2 290 15:45 25.02.2020
1995 Clouds 15 1002 23 10000 9.8 270 15:20 25.02.2020
1996 Clouds 15 1003 42 10000 1.5 0 14:59 25.02.2020
1997 Clouds 15 1003 31 0 14.9 230 14:39 25.02.2020
1998 Clouds 15 1002 31 0 11.8 230 14:39 25.02.2020
1999 Clouds 15 1003 31 0 14.9 230 14:18 25.02.2020
2000 Clouds 15 1003 31 0 14.9 230 14:18 25.02.2020
2001 Clouds 15 1003 39 10000 1 0 13:58 25.02.2020
2002 Clouds 15 1004 42 10000 1.5 0 13:40 25.02.2020
2003 Clouds 15 1004 42 10000 1.5 0 13:20 25.02.2020
2004 Clouds 15 1004 42 10000 1.5 0 13:20 25.02.2020
2005 Clouds 15 1004 51 10000 3.6 180 12:56 25.02.2020
2006 Clouds 14 1005 54 10000 4.1 190 12:37 25.02.2020
2007 Clouds 13 1005 62 10000 3.6 170 12:19 25.02.2020
2008 Clouds 13 1005 62 10000 3.6 170 11:55 25.02.2020
2009 Clouds 12 1005 70 10000 3.6 180 11:37 25.02.2020
2010 Clouds 11 1005 70 10000 3.6 180 11:18 25.02.2020
2011 Clouds 11 1006 70 10000 3.6 180 10:41 25.02.2020
2012 Clouds 9 1006 75 10000 4.6 170 10:23 25.02.2020
2013 Clouds 8 1007 80 10000 2.6 150 09:42 25.02.2020
2014 Clouds 7 1007 80 10000 2.6 150 09:23 25.02.2020
2015 Clouds 7 1007 80 10000 4.1 170 08:58 25.02.2020
2016 Clouds 5 1008 86 10000 1.5 180 08:39 25.02.2020
2017 -273 0 0 0 0 0 08:21 25.02.2020
2018 Clouds 3 1008 83 10000 3.1 160 07:48 25.02.2020
2019 Clouds 4 1008 83 10000 3.1 160 07:21 25.02.2020
2020 Clouds 3 1008 86 10000 2.6 190 06:51 25.02.2020
2021 Clouds 3 1008 86 10000 2.6 190 06:51 25.02.2020
2022 Clouds 4 1009 83 10000 2.1 190 05:41 25.02.2020
2023 Clouds 4 1009 80 10000 2.6 200 03:54 25.02.2020
2024 Clouds 5 1010 70 10000 2.6 180 02:31 25.02.2020
2025 Clouds 5 1011 76 10000 3.6 180 00:55 25.02.2020
2026 Clouds 5 1011 76 10000 2.6 170 00:30 25.02.2020
2027 Clouds 6 1011 76 10000 3.1 170 23:46 24.02.2020
2028 Clouds 6 1012 76 10000 3.6 180 23:28 24.02.2020
2029 Clouds 6 1014 68 10000 3.1 160 22:43 24.02.2020
2030 Clouds 6 1014 68 10000 3.1 160 22:21 24.02.2020
2031 Clouds 7 1014 52 10000 3.6 170 21:58 24.02.2020
2032 Clouds 7 1014 52 10000 3.6 170 21:40 24.02.2020
2033 Clouds 7 1014 65 10000 2.6 150 21:20 24.02.2020
2034 Clouds 7 1015 70 10000 4.1 160 20:59 24.02.2020
2035 Clouds 7 1016 65 10000 2.6 170 20:41 24.02.2020
2036 Clouds 7 1016 65 10000 2.6 170 20:20 24.02.2020
2037 Clouds 7 1016 65 10000 2.6 170 20:20 24.02.2020
2038 Clouds 7 1017 65 10000 3.6 180 19:58 24.02.2020
2039 Rain 7 1017 65 10000 2.6 140 19:40 24.02.2020
2040 Rain 7 1017 65 10000 2.6 140 19:22 24.02.2020
2041 Clouds 7 1018 65 10000 3.1 160 18:56 24.02.2020
2042 Clouds 8 1018 61 10000 2.1 100 18:38 24.02.2020
2043 Clouds 8 1018 61 10000 2.1 100 18:19 24.02.2020
2044 Clouds 8 1018 68 10000 1 0 17:42 24.02.2020
2045 Clouds 8 1019 35 10000 2.6 230 17:21 24.02.2020
2046 Clouds 8 1019 49 10000 3.6 260 16:59 24.02.2020
2047 Clouds 8 1020 49 10000 3.6 250 16:40 24.02.2020
2048 Clouds 9 1020 49 10000 3.6 250 16:21 24.02.2020
2049 Clouds 9 1020 49 10000 5.1 270 15:59 24.02.2020
2050 Rain 9 1021 46 10000 5.7 270 15:40 24.02.2020
2051 Rain 9 1021 46 10000 5.7 270 15:21 24.02.2020
2052 Rain 9 1021 46 10000 6.2 270 14:58 24.02.2020
2053 Clouds 9 1021 49 10000 6.7 270 14:39 24.02.2020
2054 Clouds 9 1021 49 10000 6.7 270 14:19 24.02.2020
2055 Clouds 9 1022 48 10000 6.7 280 13:56 24.02.2020
2056 Clouds 9 1022 48 10000 6.7 280 13:37 24.02.2020
2057 Clouds 9 1022 47 10000 7.7 270 13:19 24.02.2020
2058 Clouds 9 1022 47 10000 7.7 270 12:55 24.02.2020
2059 Clouds 9 1022 57 10000 7.2 270 12:37 24.02.2020
2060 Clouds 9 1022 57 10000 7.2 270 12:18 24.02.2020
2061 Rain 9 1023 45 10000 7.7 310 11:42 24.02.2020
2062 Clouds 9 1023 45 10000 7.7 310 11:23 24.02.2020
2063 Clouds 8 1023 45 10000 8.7 300 10:44 24.02.2020
2064 Clouds 8 1023 49 10000 8.7 310 10:25 24.02.2020
2065 Clouds 7 1023 52 10000 8.7 320 09:41 24.02.2020
2066 Clouds 7 1023 52 10000 8.7 320 09:20 24.02.2020
2067 Clouds 7 1022 52 10000 9.8 310 08:57 24.02.2020
2068 Clouds 6 1022 60 10000 8.7 310 08:37 24.02.2020
2069 Clouds 6 1022 60 10000 8.7 310 08:19 24.02.2020
2070 Clouds 6 1021 60 10000 7.7 330 07:41 24.02.2020
2071 Clouds 5 1021 56 10000 9.3 330 07:23 24.02.2020
2072 Clouds 6 1020 56 10000 11.8 320 06:34 24.02.2020
2073 Clouds 6 1019 65 10000 10.8 320 05:52 24.02.2020
2074 Clouds 7 1018 70 10000 10.8 320 05:28 24.02.2020
2075 Rain 7 1015 75 10000 11.8 320 03:27 24.02.2020
2076 Rain 8 1014 75 10000 11.8 320 02:51 24.02.2020
2077 Rain 9 1010 87 10000 17.5 320 01:41 24.02.2020
2078 Rain 15 1009 51 10000 17.5 290 00:52 24.02.2020
2079 Rain 15 1009 48 10000 18.5 290 00:21 24.02.2020
2080 Clouds 15 1009 48 10000 18.5 290 23:58 23.02.2020
2081 Clouds 16 1007 48 10000 17 280 23:40 23.02.2020
2082 Rain 16 1009 45 10000 15.4 290 23:18 23.02.2020
2083 Rain 16 1009 45 10000 18.5 280 22:54 23.02.2020
2084 Rain 16 1009 45 10000 17 290 22:36 23.02.2020
2085 Rain 17 1009 45 10000 17 290 22:18 23.02.2020
2086 Rain 17 1009 45 10000 14.4 290 21:43 23.02.2020
2087 Rain 16 1009 45 10000 14.4 280 21:19 23.02.2020
2088 Rain 16 1009 45 10000 15.4 290 20:55 23.02.2020
2089 Rain 16 1009 48 10000 15.4 280 20:37 23.02.2020
2090 Rain 16 1009 48 10000 15.4 280 20:19 23.02.2020
2091 Clouds 16 1009 45 10000 13.9 280 19:55 23.02.2020
2092 Clouds 16 1009 45 10000 13.9 280 19:36 23.02.2020
2093 Clouds 15 1009 45 10000 13.9 280 19:18 23.02.2020
2094 Clouds 15 1010 48 10000 13.9 280 18:41 23.02.2020
2095 Rain 15 1010 48 10000 13.9 280 18:21 23.02.2020
2096 Rain 14 1011 48 10000 11.3 280 17:59 23.02.2020
2097 Rain 14 1011 48 10000 12.3 280 17:41 23.02.2020
2098 Clouds 14 1011 48 10000 12.3 280 17:22 23.02.2020
2099 Clouds 14 1012 48 10000 9.3 280 16:58 23.02.2020
2100 Clouds 14 1013 48 10000 8.7 260 16:40 23.02.2020
2101 Clouds 13 1013 48 10000 8.7 260 16:21 23.02.2020
2102 Rain 13 1014 51 10000 6.7 230 15:56 23.02.2020
2103 Rain 13 1014 48 10000 8.2 250 15:37 23.02.2020
2104 Rain 13 1014 48 10000 8.2 250 15:19 23.02.2020
2105 Clouds 13 1015 54 10000 7.2 260 14:55 23.02.2020
2106 Clouds 13 1016 54 10000 8.7 260 14:37 23.02.2020
2107 Clouds 12 1017 58 10000 10.3 270 14:19 23.02.2020
2108 Clouds 12 1017 58 10000 10.3 270 13:55 23.02.2020
2109 Rain 12 1018 54 10000 10.8 270 13:37 23.02.2020
2110 Rain 12 1018 54 10000 10.8 270 13:19 23.02.2020
2111 Clouds 12 1019 50 10000 10.8 280 12:40 23.02.2020
2112 Clouds 12 1019 50 10000 10.8 280 12:21 23.02.2020
2113 Clouds 12 1021 54 10000 8.7 270 11:39 23.02.2020
2114 Clouds 12 1021 54 10000 8.7 270 11:20 23.02.2020
2115 Clouds 12 1021 58 10000 10.3 280 10:59 23.02.2020
2116 Clouds 11 1021 62 10000 11.3 270 10:41 23.02.2020
2117 Clouds 11 1021 62 10000 11.3 270 10:23 23.02.2020
2118 Clouds 11 1021 57 10000 11.3 270 09:56 23.02.2020
2119 Clouds 11 1022 57 10000 10.8 270 09:38 23.02.2020
2120 Clouds 10 1022 57 10000 10.8 270 09:19 23.02.2020
2121 Clouds 10 1022 61 10000 10.3 280 08:50 23.02.2020
2122 Clouds 10 1022 66 10000 10.8 280 08:29 23.02.2020
2123 Clouds 9 1022 66 10000 10.3 280 07:48 23.02.2020
2124 Clouds 9 1022 66 10000 12.9 280 07:30 23.02.2020
2125 Rain 10 1023 62 10000 10.8 270 06:27 23.02.2020
2126 Rain 10 1023 57 10000 8.2 270 05:39 23.02.2020
2127 Rain 10 1022 47 10000 6.2 280 04:24 23.02.2020
2128 Clouds 10 1022 40 10000 4.6 250 02:53 23.02.2020
2129 Rain 11 1023 33 10000 8.2 270 01:48 23.02.2020
2130 Rain 10 1022 33 10000 8.2 280 01:22 23.02.2020
2131 Rain 10 1022 40 10000 4.1 260 00:45 23.02.2020
2132 Rain 9 1022 56 10000 2.1 190 00:23 23.02.2020
2133 Clouds 9 1022 56 10000 4.6 170 23:44 22.02.2020
2134 Clouds 9 1022 52 10000 4.6 170 23:25 22.02.2020
2135 Rain 8 1022 56 10000 3.1 180 22:55 22.02.2020
2136 Clouds 8 1021 46 0 2.1 210 22:36 22.02.2020
2137 Clouds 9 1021 46 0 2.1 210 22:18 22.02.2020
2138 Clouds 8 1023 52 10000 1.5 0 21:40 22.02.2020
2139 Clouds 8 1023 52 10000 1.5 0 21:21 22.02.2020
2140 Clouds 8 1023 45 10000 2.1 150 20:43 22.02.2020
2141 Clouds 8 1023 39 10000 2.1 210 20:24 22.02.2020
2142 Clouds 8 1023 42 10000 1.5 160 19:54 22.02.2020
2143 Clouds 9 1024 48 10000 3.6 170 19:36 22.02.2020
2144 Clouds 8 1024 48 10000 3.6 170 19:18 22.02.2020
2145 Clouds 9 1024 48 10000 3.6 170 19:18 22.02.2020
2146 Clouds 9 1024 48 10000 4.1 160 18:39 22.02.2020
2147 Clouds 9 1024 48 10000 4.1 160 18:21 22.02.2020
2148 Clouds 9 1024 39 10000 4.6 180 17:57 22.02.2020
2149 Clouds 10 1024 37 10000 5.7 160 17:37 22.02.2020
2150 Clouds 11 1024 37 10000 5.7 160 17:19 22.02.2020
2151 Clouds 12 1025 32 10000 2.6 150 16:55 22.02.2020
2152 Clouds 12 1024 26 10000 3.6 180 16:37 22.02.2020
2153 Clouds 13 1024 26 10000 3.6 180 16:19 22.02.2020
2154 Clouds 13 1026 28 10000 3.1 190 15:42 22.02.2020
2155 Rain 13 1026 28 10000 3.1 190 15:22 22.02.2020
2156 Rain 13 1026 28 10000 4.1 150 14:43 22.02.2020
2157 Clouds 13 1026 28 10000 4.1 150 14:22 22.02.2020
2158 Clouds 13 1027 30 10000 2.6 180 13:56 22.02.2020
2159 Clouds 13 1028 32 10000 2.6 180 13:38 22.02.2020
2160 Clouds 12 1028 32 10000 2.6 180 13:18 22.02.2020
2161 Clouds 12 1028 40 10000 2.1 180 12:41 22.02.2020
2162 Clouds 12 1028 40 10000 2.1 180 12:23 22.02.2020
2163 Clouds 11 1029 39 10000 2.1 170 11:46 22.02.2020
2164 Clouds 10 1029 52 10000 2.1 180 11:28 22.02.2020
2165 Clouds 9 1029 56 10000 1.5 190 10:57 22.02.2020
2166 Clouds 8 1029 52 10000 3.1 190 10:39 22.02.2020
2167 Clouds 8 1029 52 10000 3.1 190 10:19 22.02.2020
2168 Clouds 7 1029 65 10000 1.5 150 09:57 22.02.2020
2169 Clouds 6 1029 64 10000 2.1 170 09:38 22.02.2020
2170 Clouds 5 1029 74 10000 1.5 200 09:19 22.02.2020
2171 Clouds 4 1029 74 10000 1.5 200 08:44 22.02.2020
2172 Clouds 4 1029 80 10000 4.1 160 08:26 22.02.2020
2173 Clouds 2 1029 66 10000 3.1 170 07:43 22.02.2020
2174 Clouds 2 1029 66 10000 3.1 170 07:19 22.02.2020
2175 Clouds 2 1029 66 10000 2.6 180 06:47 22.02.2020
2176 Clouds 2 1029 66 10000 2.6 180 06:26 22.02.2020
2177 Clouds 1 1029 79 10000 3.1 180 04:30 22.02.2020
2178 Clouds 0 1030 79 10000 1.5 190 03:21 22.02.2020
2179 Clouds 0 1030 86 10000 3.1 170 02:28 22.02.2020
2180 Clouds 0 1030 69 10000 1.5 240 01:41 22.02.2020
2181 Clouds 0 1030 69 10000 1.5 240 01:23 22.02.2020
2182 Clouds 1 1030 69 10000 0.5 0 00:41 22.02.2020
2183 Clouds 1 1030 69 10000 0.5 0 00:21 22.02.2020
2184 Clouds 1 1029 69 10000 2.1 350 23:43 21.02.2020
2185 Clear 1 1029 69 10000 2.1 350 23:21 21.02.2020
2186 Clear 2 1029 69 10000 1.5 40 22:45 21.02.2020
2187 Clear 2 1029 69 10000 1.5 40 22:27 21.02.2020
2188 Clear 2 1029 64 10000 1.5 40 21:58 21.02.2020
2189 Clear 2 1029 56 10000 3.1 330 21:40 21.02.2020
2190 Clear 2 1029 56 10000 3.1 330 21:40 21.02.2020
2191 Clear 3 1029 56 10000 3.1 330 21:21 21.02.2020
2192 Clear 4 1029 48 10000 4.1 320 20:48 21.02.2020
2193 Clear 4 1029 48 10000 5.7 310 20:28 21.02.2020
2194 Clouds 4 1028 52 10000 4.6 320 19:41 21.02.2020
2195 Clouds 5 1028 52 10000 4.6 320 19:23 21.02.2020
2196 Clouds 5 1028 48 10000 4.6 320 18:55 21.02.2020
2197 Clouds 5 1028 48 10000 5.1 320 18:37 21.02.2020
2198 Clouds 5 1027 48 10000 5.7 320 18:19 21.02.2020
2199 Clouds 6 1027 45 10000 5.7 320 17:40 21.02.2020
2200 Clouds 6 1027 45 10000 5.7 320 17:21 21.02.2020
2201 Clouds 7 1026 45 10000 8.2 310 16:57 21.02.2020
2202 Clouds 7 1026 48 10000 6.7 290 16:39 21.02.2020
2203 Clouds 7 1026 48 10000 6.7 290 16:20 21.02.2020
2204 Clouds 7 1026 48 10000 6.7 290 16:20 21.02.2020
2205 Clouds 7 1026 45 10000 7.7 310 15:44 21.02.2020
2206 Clouds 7 1026 42 10000 8.7 300 15:19 21.02.2020
2207 Clouds 7 1026 42 10000 13.4 300 15:19 21.02.2020
2208 Clouds 7 1026 42 10000 13.4 300 14:56 21.02.2020
2209 Clouds 7 1025 45 10000 10.8 310 14:38 21.02.2020
2210 Clouds 7 1025 45 10000 10.8 310 14:19 21.02.2020
2211 Clouds 7 1025 49 10000 9.3 310 13:42 21.02.2020
2212 Clouds 7 1025 52 10000 9.8 300 13:42 21.02.2020
2213 Clouds 7 1025 49 10000 9.3 310 13:23 21.02.2020
2214 Rain 7 1025 48 10000 12.9 300 12:54 21.02.2020
2215 Rain 7 1025 52 10000 10.8 310 12:36 21.02.2020
2216 Rain 7 1025 52 10000 10.8 310 12:18 21.02.2020
2217 Rain 7 1024 70 10000 10.3 310 11:40 21.02.2020
2218 Rain 7 1024 80 10000 9.3 300 11:21 21.02.2020
2219 Rain 6 1024 80 0 9.8 280 10:56 21.02.2020
2220 Rain 6 1022 70 6000 9.8 280 10:38 21.02.2020
2221 Rain 6 1022 70 6000 9.8 280 10:38 21.02.2020
2222 Rain 5 1022 70 6000 9.8 280 10:19 21.02.2020
2223 Rain 6 1021 65 10000 9.8 280 09:43 21.02.2020
2224 Rain 6 1021 65 10000 9.8 280 09:25 21.02.2020
2225 Rain 6 1020 65 10000 9.8 280 08:58 21.02.2020
2226 Clouds 6 1019 61 10000 10.3 270 08:40 21.02.2020
2227 Rain 6 1020 75 0 9.8 240 08:21 21.02.2020
2228 Clouds 6 1019 65 10000 10.8 270 07:58 21.02.2020
2229 Clouds 6 1019 65 10000 10.8 270 07:40 21.02.2020
2230 Rain 6 1018 75 10000 6.7 280 07:18 21.02.2020
2231 Rain 6 1018 75 10000 6.7 280 06:47 21.02.2020
2232 Rain 6 1017 75 10000 5.7 280 06:28 21.02.2020
2233 Rain 5 1017 70 10000 8.2 280 05:42 21.02.2020
2234 Clouds 3 1017 74 10000 1 0 04:33 21.02.2020
2235 Clouds 2 1017 80 10000 4.1 170 03:58 21.02.2020
2236 Clouds 1 1017 80 10000 3.6 160 03:31 21.02.2020
2237 Clouds 1 1018 74 10000 3.6 200 01:51 21.02.2020
2238 Clouds 1 1018 69 10000 3.1 170 01:24 21.02.2020
2239 Clouds 2 1018 69 10000 3.1 150 00:45 21.02.2020
2240 Clouds 3 1019 64 10000 3.6 140 00:23 21.02.2020
2241 Clouds 3 1019 56 10000 5.1 140 23:44 20.02.2020
2242 Clouds 4 1019 56 10000 5.1 140 23:23 20.02.2020
2243 Clouds 5 1020 52 10000 4.1 150 22:56 20.02.2020
2244 Clouds 5 1020 52 10000 3.6 140 22:37 20.02.2020
2245 Clouds 5 1020 52 10000 3.6 140 22:19 20.02.2020
2246 Clouds 5 1020 56 10000 4.1 140 21:55 20.02.2020
2247 Clouds 5 1021 56 10000 3.1 150 21:37 20.02.2020
2248 Clouds 6 1021 56 10000 3.1 150 21:19 20.02.2020
2249 Clouds 6 1021 56 10000 3.1 160 20:54 20.02.2020
2250 Clouds 6 1021 60 10000 4.1 150 20:36 20.02.2020
2251 Clouds 6 1022 66 10000 4.1 160 20:18 20.02.2020
2252 Clouds 6 1022 66 10000 4.1 160 19:42 20.02.2020
2253 Clouds 6 1022 66 10000 1.5 130 19:24 20.02.2020
2254 Clouds 6 1022 56 10000 1 0 18:59 20.02.2020
2255 Clouds 6 1022 52 10000 1 0 18:39 20.02.2020
2256 Clouds 7 1022 49 10000 4.1 270 18:19 20.02.2020
2257 Clouds 7 1022 49 10000 4.1 270 17:41 20.02.2020
2258 Clear 8 1022 49 10000 4.1 270 17:23 20.02.2020
2259 Clouds 8 1022 45 10000 3.6 280 16:59 20.02.2020
2260 Clouds 9 1022 45 10000 3.1 280 16:41 20.02.2020
2261 Clouds 9 1022 45 10000 3.1 280 16:21 20.02.2020
2262 Clouds 9 1022 43 10000 3.6 300 15:59 20.02.2020
2263 Clouds 9 1023 42 10000 1.5 300 15:41 20.02.2020
2264 Clouds 9 1023 42 10000 1.5 300 15:20 20.02.2020
2265 Clouds 9 1023 42 10000 4.1 310 14:55 20.02.2020
2266 Clear 9 1023 42 10000 4.1 320 14:37 20.02.2020
2267 Clear 9 1023 42 10000 4.1 320 14:19 20.02.2020
2268 Clouds 9 1023 39 10000 5.7 320 13:44 20.02.2020
2269 Clouds 9 1023 39 10000 5.7 320 13:20 20.02.2020
2270 Clouds 9 1024 42 10000 5.7 300 12:58 20.02.2020
2271 Clouds 9 1024 42 10000 5.7 310 12:38 20.02.2020
2272 Clouds 9 1024 42 10000 6.7 330 12:19 20.02.2020
2273 Clouds 8 1024 42 10000 5.1 320 11:43 20.02.2020
2274 Clouds 8 1024 42 10000 5.1 320 11:23 20.02.2020
2275 Clouds 8 1024 45 10000 7.2 300 10:58 20.02.2020
2276 Clouds 7 1024 48 10000 5.7 310 10:40 20.02.2020
2277 Clouds 7 1024 48 10000 5.7 310 10:21 20.02.2020
2278 Clouds 7 1024 48 10000 5.7 310 10:21 20.02.2020
2279 Clouds 6 1024 60 10000 5.7 300 09:47 20.02.2020
2280 Clouds 5 1024 60 10000 7.2 300 09:25 20.02.2020
2281 Clear 5 1024 65 10000 7.2 300 08:59 20.02.2020
2282 Clear 4 1024 65 10000 6.2 300 08:39 20.02.2020
2283 -273 0 0 0 0 0 08:21 20.02.2020
2284 Clear 3 1024 69 10000 4.6 300 07:45 20.02.2020
2285 Clear 3 1024 69 10000 7.7 300 07:26 20.02.2020
2286 Clear 3 1024 69 10000 5.7 300 06:55 20.02.2020
2287 Clear 3 1024 69 10000 5.7 310 06:27 20.02.2020
2288 Clear 3 1024 69 10000 6.7 300 05:47 20.02.2020
2289 Clear 4 1023 69 10000 5.1 300 04:56 20.02.2020
2290 Clear 4 1023 67 10000 5.7 290 04:23 20.02.2020
2291 Clear 4 1023 69 10000 5.1 280 03:35 20.02.2020
2292 Clouds 4 1023 64 10000 6.7 300 02:28 20.02.2020
2293 Clouds 4 1022 66 10000 6.2 290 01:18 20.02.2020
2294 Clouds 3 1022 69 10000 6.2 290 00:34 20.02.2020
2295 Clouds 3 1022 66 10000 5.7 290 23:52 19.02.2020
2296 Rain 4 1022 64 10000 5.7 290 23:23 19.02.2020
2297 Rain 4 1022 64 10000 5.7 300 22:55 19.02.2020
2298 Rain 4 1021 80 10000 7.2 290 22:37 19.02.2020
2299 Rain 4 1021 80 10000 7.2 290 22:18 19.02.2020
2300 Rain 4 1021 80 10000 8.2 300 21:55 19.02.2020
2301 Thunderstorm 4 1022 86 7000 12.3 300 21:36 19.02.2020
2302 Thunderstorm 4 1022 86 7000 12.3 300 21:18 19.02.2020
2303 Rain 4 1020 75 10000 10.3 300 20:55 19.02.2020
2304 Rain 5 1020 75 10000 7.2 280 20:36 19.02.2020
2305 Rain 5 1020 75 10000 7.2 280 20:18 19.02.2020
2306 Clouds 5 1020 70 10000 9.3 280 19:54 19.02.2020
2307 Clouds 5 1019 70 10000 9.3 280 19:36 19.02.2020
2308 Clouds 5 1019 70 10000 7.7 280 19:18 19.02.2020
2309 Clouds 6 1019 70 10000 7.7 280 18:55 19.02.2020
2310 Clouds 6 1018 65 10000 5.1 260 18:37 19.02.2020
2311 Clouds 6 1018 65 10000 5.1 260 18:19 19.02.2020
2312 Clouds 6 1018 70 10000 8.7 270 17:42 19.02.2020
2313 Clouds 6 1018 70 10000 8.7 270 17:42 19.02.2020
2314 Rain 6 1018 70 10000 8.7 270 17:19 19.02.2020
2315 Rain 7 1018 70 10000 10.3 290 16:44 19.02.2020
2316 Rain 7 1017 70 10000 2.1 0 16:19 19.02.2020
2317 Rain 7 1017 75 10000 1.5 170 15:58 19.02.2020
2318 Rain 7 1017 75 10000 1.5 170 15:39 19.02.2020
2319 Rain 8 1017 61 10000 3.6 340 15:20 19.02.2020
2320 Rain 9 1016 57 10000 3.6 180 14:42 19.02.2020
2321 Rain 10 1016 50 10000 4.6 180 14:23 19.02.2020
2322 Clouds 10 1017 50 10000 6.2 200 13:59 19.02.2020
2323 Clouds 10 1018 50 10000 7.2 180 13:40 19.02.2020
2324 Rain 10 1018 56 10000 7.2 180 13:20 19.02.2020
2325 Rain 10 1019 56 10000 7.2 190 12:40 19.02.2020
2326 Rain 10 1019 56 10000 7.2 190 12:19 19.02.2020
2327 Rain 10 1019 56 10000 7.2 190 12:19 19.02.2020
2328 Rain 10 1019 49 10000 7.2 200 11:58 19.02.2020
2329 Rain 9 1020 49 10000 8.2 200 11:37 19.02.2020
2330 Rain 9 1020 63 10000 7.7 200 11:19 19.02.2020
2331 Rain 9 1020 63 10000 7.7 200 11:19 19.02.2020
2332 Clouds 9 1020 63 10000 7.7 200 10:56 19.02.2020
2333 Clouds 8 1020 52 10000 6.7 200 10:37 19.02.2020
2334 Clouds 8 1020 52 10000 6.7 200 10:19 19.02.2020
2335 Clouds 7 1021 52 10000 7.2 210 09:56 19.02.2020
2336 Clouds 6 1021 56 10000 6.7 210 09:37 19.02.2020
2337 Clouds 6 1021 56 10000 6.7 210 09:18 19.02.2020
2338 Clouds 4 1022 56 10000 5.1 210 08:43 19.02.2020
2339 Clouds 3 1022 56 10000 5.1 210 08:23 19.02.2020
2340 Clouds 3 1022 60 10000 5.1 210 07:41 19.02.2020
2341 Clouds 2 1022 60 10000 5.1 210 07:20 19.02.2020
2342 Clouds 2 1022 64 10000 4.1 210 06:47 19.02.2020
2343 Clouds 2 1022 74 10000 2.6 190 06:20 19.02.2020
2344 Clear 2 1023 80 10000 2.6 170 04:20 19.02.2020
2345 Clear 2 1024 64 10000 2.1 240 02:54 19.02.2020
2346 Clear 3 1025 60 10000 2.1 250 02:30 19.02.2020
2347 Clouds 3 1025 60 10000 2.1 250 01:24 19.02.2020
2348 Clouds 3 1025 64 10000 3.1 250 00:49 19.02.2020
2349 Clouds 3 1026 64 10000 2.1 260 00:29 19.02.2020
2350 Rain 4 1026 65 10000 3.1 250 23:44 18.02.2020
2351 Rain 4 1026 60 10000 2.6 250 23:20 18.02.2020
2352 Clouds 4 1026 60 10000 3.1 250 22:57 18.02.2020
2353 Clouds 4 1026 56 10000 2.1 240 22:39 18.02.2020
2354 Clouds 5 1026 56 10000 2.1 240 22:19 18.02.2020
2355 Clouds 5 1026 52 10000 3.1 230 21:55 18.02.2020
2356 Clouds 5 1026 52 10000 3.1 240 21:37 18.02.2020
2357 Clouds 5 1026 52 10000 3.1 240 21:37 18.02.2020
2358 Clouds 5 1026 52 10000 3.1 240 21:18 18.02.2020
2359 Clouds 5 1026 45 10000 2.6 260 20:56 18.02.2020
2360 Clouds 5 1026 45 10000 2.6 260 20:56 18.02.2020
2361 Clouds 5 1026 45 10000 2.6 260 20:56 18.02.2020
2362 Clouds 5 1026 52 10000 1.5 260 20:38 18.02.2020
2363 Clouds 6 1026 52 10000 1.5 260 20:19 18.02.2020
2364 Clouds 6 1026 48 10000 3.1 310 19:42 18.02.2020
2365 Clouds 7 1025 49 10000 2.1 330 19:20 18.02.2020
2366 Clouds 7 1025 45 10000 2.6 330 18:59 18.02.2020
2367 Clouds 8 1025 42 10000 3.1 320 18:41 18.02.2020
2368 Clouds 8 1025 42 10000 3.1 320 18:20 18.02.2020
2369 Clouds 8 1025 39 10000 6.7 300 17:55 18.02.2020
2370 Clouds 9 1025 39 10000 5.7 310 17:37 18.02.2020
2371 Clear 9 1025 39 10000 5.7 310 17:18 18.02.2020
2372 Clear 10 1025 40 10000 7.7 310 16:39 18.02.2020
2373 Clear 10 1025 40 10000 7.7 310 16:19 18.02.2020
2374 Clear 10 1025 47 0 7.2 270 15:40 18.02.2020
2375 Rain 11 1024 34 10000 9.8 280 15:20 18.02.2020
2376 Clear 11 1024 40 10000 11.8 290 14:57 18.02.2020
2377 Clear 11 1024 40 10000 11.8 290 14:57 18.02.2020
2378 Rain 11 1025 37 10000 11.3 280 14:38 18.02.2020
2379 Rain 11 1025 37 10000 11.3 280 14:20 18.02.2020
2380 Rain 11 1025 40 10000 12.3 280 13:42 18.02.2020
2381 Rain 11 1025 40 10000 12.3 280 13:23 18.02.2020
2382 Rain 11 1025 40 10000 10.8 280 12:56 18.02.2020
2383 Clouds 11 1025 47 10000 11.8 290 12:38 18.02.2020
2384 Clouds 11 1025 47 10000 11.8 290 12:19 18.02.2020
2385 Clouds 11 1025 43 10000 12.3 290 11:44 18.02.2020
2386 Clouds 11 1025 43 10000 12.3 290 11:26 18.02.2020
2387 Clouds 10 1025 53 10000 10.8 290 10:57 18.02.2020
2388 Clouds 10 1025 57 10000 9.8 290 10:39 18.02.2020
2389 Clouds 10 1025 57 10000 9.8 290 10:18 18.02.2020
2390 Clouds 9 1025 61 10000 8.2 290 09:56 18.02.2020
2391 Clouds 9 1025 61 10000 7.7 280 09:37 18.02.2020
2392 Clouds 9 1025 61 10000 7.7 280 09:37 18.02.2020
2393 Clouds 8 1024 66 10000 5.7 290 09:18 18.02.2020
2394 Clouds 8 1024 66 10000 5.7 290 08:43 18.02.2020
2395 Clouds 8 1024 66 10000 6.2 290 08:21 18.02.2020
2396 Clouds 7 1023 66 10000 9.3 290 07:57 18.02.2020
2397 Clouds 8 1023 66 10000 7.7 290 07:34 18.02.2020
2398 Clouds 8 1023 66 10000 7.7 300 06:58 18.02.2020
2399 Clouds 8 1023 66 10000 7.7 300 06:39 18.02.2020
2400 Clouds 8 1022 70 10000 4.6 290 06:20 18.02.2020
2401 Clouds 8 1022 70 10000 8.2 300 05:34 18.02.2020
2402 Clouds 8 1021 71 10000 7.7 300 04:39 18.02.2020
2403 Rain 9 1021 76 10000 10.8 300 03:36 18.02.2020
2404 Clouds 9 1021 76 10000 5.7 300 02:38 18.02.2020
2405 Clouds 8 1020 71 10000 5.7 310 01:19 18.02.2020
2406 Clouds 8 1020 66 10000 3.1 280 00:22 18.02.2020
2407 Clouds 8 1019 70 10000 1.5 270 23:57 17.02.2020
2408 Clouds 8 1019 75 10000 2.6 300 23:38 17.02.2020
2409 Clouds 8 1019 75 10000 2.6 300 23:19 17.02.2020
2410 Clouds 8 1019 70 10000 1.5 320 22:41 17.02.2020
2411 Rain 8 1019 70 10000 1.5 320 22:21 17.02.2020
2412 Rain 8 1018 75 10000 3.1 50 21:59 17.02.2020
2413 Rain 8 1018 75 10000 2.1 200 21:38 17.02.2020
2414 Rain 8 1018 75 10000 2.1 200 21:18 17.02.2020
2415 Clouds 8 1018 70 10000 3.1 140 20:42 17.02.2020
2416 Clouds 8 1018 70 10000 3.1 140 20:21 17.02.2020
2417 Clouds 8 1019 70 10000 2.6 160 19:59 17.02.2020
2418 Clouds 8 1018 75 10000 2.6 160 19:40 17.02.2020
2419 Clouds 9 1018 75 10000 2.6 160 19:20 17.02.2020
2420 Clouds 9 1018 66 10000 1.5 80 18:38 17.02.2020
2421 Clouds 9 1018 66 10000 1.5 80 18:20 17.02.2020
2422 Clouds 9 1018 66 10000 2.6 70 18:20 17.02.2020
2423 Clouds 9 1018 66 10000 2.6 70 17:59 17.02.2020
2424 Clouds 10 1018 62 10000 3.1 80 17:38 17.02.2020
2425 Clouds 10 1018 62 10000 3.1 80 17:38 17.02.2020
2426 Clouds 10 1018 62 10000 3.1 80 17:19 17.02.2020
2427 Clouds 11 1018 62 10000 3.1 90 16:58 17.02.2020
2428 Clouds 12 1018 58 10000 3.1 110 16:40 17.02.2020
2429 Clouds 12 1018 58 10000 3.1 110 16:21 17.02.2020
2430 Clouds 12 1018 58 10000 4.6 110 15:45 17.02.2020
2431 Clouds 12 1018 58 10000 4.6 110 15:45 17.02.2020
2432 Clouds 13 1018 58 10000 4.6 110 15:26 17.02.2020
2433 Clouds 13 1018 58 10000 5.1 100 14:57 17.02.2020
2434 Clouds 13 1019 62 10000 4.6 100 14:39 17.02.2020
2435 Clouds 12 1019 62 10000 4.6 100 14:20 17.02.2020
2436 Clouds 12 1019 57 10000 4.1 100 13:55 17.02.2020
2437 Clouds 12 1019 61 10000 4.1 110 13:36 17.02.2020
2438 Clouds 12 1019 61 10000 4.1 110 13:18 17.02.2020
2439 Clouds 12 1020 61 10000 4.1 120 13:18 17.02.2020
2440 Clouds 11 1020 66 10000 3.6 130 12:42 17.02.2020
2441 Clouds 11 1020 66 10000 3.6 130 12:22 17.02.2020
2442 Clouds 10 1020 65 10000 3.1 100 11:50 17.02.2020
2443 Clouds 10 1020 70 10000 3.6 140 11:29 17.02.2020
2444 Clouds 9 1020 66 0 1.95 167 10:58 17.02.2020
2445 Clouds 8 1020 75 0 1 260 10:40 17.02.2020
2446 Clouds 8 1020 80 10000 3.6 160 10:21 17.02.2020
2447 Clouds 8 1020 80 10000 3.6 160 10:21 17.02.2020
2448 Clouds 7 1020 80 10000 3.1 150 09:58 17.02.2020
2449 Clouds 6 1020 86 10000 3.6 160 09:40 17.02.2020
2450 Clouds 5 1020 86 10000 3.1 160 09:20 17.02.2020
2451 Clouds 5 1020 86 10000 3.1 160 08:56 17.02.2020
2452 Clouds 4 1020 86 10000 3.1 170 08:38 17.02.2020
2453 Clouds 3 1020 86 10000 3.1 170 08:19 17.02.2020
2454 Clouds 2 1020 86 10000 3.6 160 07:40 17.02.2020
2455 Clouds 2 1020 86 10000 3.6 160 07:22 17.02.2020
2456 Clouds 2 1019 88 10000 1.5 140 06:51 17.02.2020
2457 Clouds 2 1019 88 10000 0.5 0 06:30 17.02.2020
2458 Clouds 2 1019 86 10000 2.1 110 05:40 17.02.2020
2459 Clouds 3 1019 80 10000 2.6 110 04:58 17.02.2020
2460 Clouds 4 1018 75 10000 4.1 120 03:20 17.02.2020
2461 Clouds 6 1018 65 10000 7.7 140 01:36 17.02.2020
2462 Clouds 6 1018 65 10000 8.2 130 00:41 17.02.2020
2463 Clouds 6 1018 70 10000 7.2 130 00:19 17.02.2020
2464 Clouds 7 1019 70 10000 7.7 130 23:52 16.02.2020
2465 -273 0 0 0 0 0 23:29 16.02.2020
2466 Clouds 7 1019 65 10000 7.2 140 22:57 16.02.2020
2467 Clouds 8 1019 61 10000 7.2 140 22:38 16.02.2020
2468 Clouds 8 1019 61 10000 7.2 140 22:20 16.02.2020
2469 Clouds 8 1019 57 10000 9.8 140 21:56 16.02.2020
2470 Clouds 8 1020 57 10000 8.7 130 21:38 16.02.2020
2471 Clouds 9 1020 57 10000 8.7 130 21:20 16.02.2020
2472 Clouds 9 1021 57 10000 7.7 140 20:57 16.02.2020
2473 Clouds 9 1020 53 10000 8.2 140 20:38 16.02.2020
2474 Clouds 9 1020 53 10000 8.2 140 20:20 16.02.2020
2475 Clouds 9 1021 53 10000 8.7 140 19:57 16.02.2020
2476 -273 0 0 0 0 0 19:37 16.02.2020
2477 Clouds 9 1021 57 10000 7.2 140 19:18 16.02.2020
2478 Clouds 9 1022 57 10000 7.2 130 18:42 16.02.2020
2479 Clouds 9 1022 57 10000 7.2 130 18:23 16.02.2020
2480 Clouds 10 1021 53 10000 7.2 130 17:55 16.02.2020
2481 Clouds 10 1022 53 10000 6.7 140 17:36 16.02.2020
2482 Clouds 10 1022 53 10000 6.7 140 17:18 16.02.2020
2483 Clouds 11 1022 53 10000 8.2 140 16:54 16.02.2020
2484 Clouds 11 1022 50 10000 9.8 150 16:36 16.02.2020
2485 Clouds 11 1022 50 10000 9.8 150 16:18 16.02.2020
2486 Clouds 11 1022 50 10000 9.8 140 15:40 16.02.2020
2487 Clouds 11 1022 50 10000 9.8 140 15:21 16.02.2020
2488 Clouds 11 1022 50 10000 9.8 140 14:44 16.02.2020
2489 Clouds 12 1022 50 10000 8.7 140 14:23 16.02.2020
2490 Clouds 11 1023 50 10000 8.7 140 13:57 16.02.2020
2491 Clouds 11 1023 53 10000 8.2 140 13:38 16.02.2020
2492 Clouds 11 1023 53 10000 8.2 140 13:20 16.02.2020
2493 Clouds 11 1024 61 10000 8.2 130 12:39 16.02.2020
2494 Clouds 10 1024 61 10000 8.2 130 12:19 16.02.2020
2495 Clouds 9 1025 65 10000 6.7 130 11:40 16.02.2020
2496 Clouds 8 1025 65 10000 6.7 130 11:20 16.02.2020
2497 Rain 7 1025 70 10000 6.7 140 10:58 16.02.2020
2498 Clouds 7 1025 70 10000 6.7 140 10:58 16.02.2020
2499 Rain 6 1025 70 10000 5.7 130 10:40 16.02.2020
2500 Rain 5 1025 70 10000 5.7 130 10:21 16.02.2020
2501 Rain 6 1025 70 10000 5.7 130 10:21 16.02.2020
2502 Rain 6 1025 70 10000 5.7 130 10:21 16.02.2020
2503 Clouds 5 1025 75 10000 6.7 140 09:59 16.02.2020
2504 Clouds 4 1025 69 10000 6.2 140 09:38 16.02.2020
2505 Clouds 4 1025 69 10000 6.2 140 09:20 16.02.2020
2506 Clouds 4 1025 69 10000 6.2 140 08:50 16.02.2020
2507 Clouds 2 1025 87 10000 5.1 140 08:22 16.02.2020
2508 Clouds 1 1025 90 10000 5.7 140 07:59 16.02.2020
2509 Clouds 1 1025 90 10000 5.7 140 07:40 16.02.2020
2510 Clouds 0 1024 90 10000 5.1 130 06:47 16.02.2020
2511 Clouds 1 1025 90 10000 4.6 140 05:53 16.02.2020
2512 Clouds 1 1025 87 10000 4.1 140 04:37 16.02.2020
2513 Clouds 2 1025 87 10000 5.1 140 03:20 16.02.2020
2514 Clouds 2 1025 82 10000 5.7 140 01:58 16.02.2020
2515 Clouds 2 1025 84 10000 5.7 140 01:38 16.02.2020
2516 Clouds 3 1025 84 10000 4.6 150 01:19 16.02.2020
2517 Clouds 3 1024 84 10000 6.7 130 00:42 16.02.2020
2518 Clouds 3 1024 84 10000 6.7 130 00:22 16.02.2020
2519 Clouds 4 1024 70 10000 6.2 130 23:43 15.02.2020
2520 Clouds 4 1024 77 10000 5.7 130 23:25 15.02.2020
2521 Clouds 5 1025 65 10000 5.1 140 22:59 15.02.2020
2522 Clouds 5 1025 65 10000 7.2 140 22:40 15.02.2020
2523 Clouds 5 1025 65 10000 7.2 140 22:19 15.02.2020
2524 Clouds 5 1025 65 10000 7.2 140 21:56 15.02.2020
2525 Clouds 6 1025 61 10000 6.7 140 21:37 15.02.2020
2526 Clouds 6 1025 61 10000 6.7 140 21:19 15.02.2020
2527 Clouds 6 1026 65 10000 6.2 130 20:39 15.02.2020
2528 Clouds 6 1026 65 10000 6.2 130 20:20 15.02.2020
2529 Clouds 7 1026 61 10000 6.2 140 19:44 15.02.2020
2530 Clouds 7 1026 61 10000 6.2 140 19:22 15.02.2020
2531 Clouds 7 1026 61 10000 4.6 130 18:43 15.02.2020
2532 Clouds 7 1026 61 10000 4.6 130 18:23 15.02.2020
2533 Clouds 8 1026 61 10000 3.6 130 17:58 15.02.2020
2534 Clouds 8 1026 61 10000 4.1 120 17:38 15.02.2020
2535 Clouds 9 1026 61 10000 4.1 120 17:19 15.02.2020
2536 Clouds 10 1026 57 10000 4.6 130 16:43 15.02.2020
2537 Clouds 10 1026 53 10000 5.1 130 16:24 15.02.2020
2538 Clouds 10 1026 53 10000 5.1 130 15:58 15.02.2020
2539 Clouds 10 1026 53 10000 5.1 130 15:58 15.02.2020
2540 Clouds 10 1026 53 10000 4.6 130 15:40 15.02.2020
2541 Clouds 11 1026 53 10000 4.6 130 15:21 15.02.2020
2542 Clouds 11 1027 50 10000 4.1 130 14:44 15.02.2020
2543 Clouds 11 1027 50 10000 4.1 130 14:19 15.02.2020
2544 Clouds 10 1027 57 10000 4.1 130 13:54 15.02.2020
2545 Clouds 10 1027 53 10000 3.6 140 13:36 15.02.2020
2546 Clouds 10 1027 53 10000 3.6 140 13:18 15.02.2020
2547 Clouds 10 1028 53 10000 2.6 120 12:42 15.02.2020
2548 Clouds 10 1028 53 10000 2.6 120 12:22 15.02.2020
2549 Clouds 10 1028 57 10000 2.1 120 11:49 15.02.2020
2550 Clouds 10 1028 57 10000 2.1 120 11:49 15.02.2020
2551 Clouds 9 1028 61 10000 2.1 180 11:30 15.02.2020
2552 Clouds 9 1028 65 10000 1.5 160 10:56 15.02.2020
2553 Clouds 8 1028 70 10000 2.1 150 10:37 15.02.2020
2554 Clouds 8 1028 70 10000 2.1 150 10:37 15.02.2020
2555 Clouds 7 1028 75 10000 1.5 180 10:18 15.02.2020
2556 Clouds 6 1028 75 10000 1.5 180 09:41 15.02.2020
2557 Clouds 5 1028 81 10000 2.1 240 09:23 15.02.2020
2558 Clear 4 1028 86 10000 2.1 120 08:44 15.02.2020
2559 Clear 3 1028 86 10000 2.1 120 08:25 15.02.2020
2560 Clear 3 1028 86 10000 1 110 07:59 15.02.2020
2561 Clear 3 1028 80 10000 1.5 30 07:38 15.02.2020
2562 Clear 3 1028 80 10000 1.5 30 07:18 15.02.2020
2563 Clear 3 1027 80 10000 3.1 320 06:37 15.02.2020
2564 Clear 4 1027 80 10000 3.1 300 05:54 15.02.2020
2565 Clear 4 1027 75 10000 4.1 320 04:48 15.02.2020
2566 Clear 5 1027 75 10000 5.7 300 03:45 15.02.2020
2567 Clear 5 1027 70 10000 5.1 310 02:58 15.02.2020
2568 Clear 5 1027 70 10000 5.7 300 02:23 15.02.2020
2569 Clear 5 1027 70 10000 4.6 300 01:41 15.02.2020
2570 Clouds 6 1026 70 10000 5.7 310 00:56 15.02.2020
2571 Clouds 6 1026 70 10000 5.1 300 00:26 15.02.2020
2572 Clear 6 1025 75 10000 4.1 320 23:44 14.02.2020
2573 Clear 6 1025 75 10000 4.1 320 23:20 14.02.2020
2574 Clouds 6 1025 75 10000 4.6 300 22:54 14.02.2020
2575 Clear 6 1025 75 10000 5.1 280 22:36 14.02.2020
2576 Clear 6 1025 75 10000 5.1 280 22:18 14.02.2020
2577 Clouds 6 1024 75 10000 5.7 290 21:40 14.02.2020
2578 Clouds 7 1024 75 10000 5.7 290 21:20 14.02.2020
2579 Clouds 7 1024 75 10000 6.2 290 20:43 14.02.2020
2580 Rain 7 1023 75 10000 8.2 280 20:20 14.02.2020
2581 Rain 7 1023 75 10000 5.1 300 19:56 14.02.2020
2582 Rain 7 1023 75 10000 5.1 300 19:56 14.02.2020
2583 Rain 7 1023 75 10000 5.1 300 19:56 14.02.2020
2584 Rain 7 1023 75 10000 4.1 310 19:38 14.02.2020
2585 Rain 7 1023 75 10000 4.1 310 19:18 14.02.2020
2586 Clouds 6 1022 75 10000 5.1 310 18:55 14.02.2020
2587 Clouds 7 1022 81 10000 5.7 280 18:37 14.02.2020
2588 Rain 7 1022 87 10000 4.1 290 18:18 14.02.2020
2589 Rain 7 1022 87 10000 4.1 290 17:41 14.02.2020
2590 Rain 7 1021 75 10000 7.7 300 17:19 14.02.2020
2591 Rain 8 1020 81 10000 6.2 290 16:57 14.02.2020
2592 Rain 8 1020 81 10000 9.8 290 16:39 14.02.2020
2593 Rain 8 1020 81 10000 9.8 290 16:20 14.02.2020
2594 Rain 9 1019 66 10000 8.7 280 15:55 14.02.2020
2595 Clouds 9 1019 66 10000 9.3 300 15:37 14.02.2020
2596 Clouds 9 1019 66 10000 9.3 300 15:19 14.02.2020
2597 Clouds 9 1018 66 10000 7.2 290 14:55 14.02.2020
2598 Clouds 9 1018 70 10000 7.2 300 14:37 14.02.2020
2599 Clouds 9 1018 70 10000 7.2 300 14:18 14.02.2020
2600 Rain 9 1017 81 10000 7.7 310 13:39 14.02.2020
2601 Rain 9 1017 81 10000 7.7 310 13:21 14.02.2020
2602 Rain 8 1017 66 10000 7.2 300 12:58 14.02.2020
2603 Rain 8 1017 66 10000 7.2 300 12:39 14.02.2020
2604 Clouds 8 1017 66 10000 7.7 290 12:20 14.02.2020
2605 Clouds 8 1017 66 10000 7.7 290 12:20 14.02.2020
2606 Clouds 9 1016 66 10000 10.3 290 11:58 14.02.2020
2607 Clouds 9 1016 66 10000 10.3 290 11:40 14.02.2020
2608 Clouds 8 1015 66 10000 9.3 290 11:20 14.02.2020
2609 Clouds 8 1014 66 10000 10.3 290 10:55 14.02.2020
2610 Clouds 8 1014 61 10000 10.3 290 10:36 14.02.2020
2611 Clouds 8 1014 61 10000 10.3 290 10:18 14.02.2020
2612 Clouds 8 1013 65 10000 8.7 290 09:39 14.02.2020
2613 Clouds 8 1013 65 10000 8.7 290 09:19 14.02.2020
2614 Clouds 7 1012 65 10000 8.7 290 08:43 14.02.2020
2615 Clouds 7 1012 61 10000 9.3 290 08:24 14.02.2020
2616 Clouds 6 1011 65 10000 8.7 280 07:51 14.02.2020
2617 Clouds 6 1011 65 10000 8.7 280 07:33 14.02.2020
2618 Clouds 6 1011 70 10000 6.7 270 06:56 14.02.2020
2619 Rain 6 1011 75 10000 6.7 270 06:23 14.02.2020
2620 Rain 7 1011 75 10000 5.7 260 05:47 14.02.2020
2621 Clouds 5 1010 75 10000 1.5 170 04:28 14.02.2020
2622 Clouds 5 1009 70 10000 1 0 03:29 14.02.2020
2623 Clouds 5 1008 65 10000 4.1 310 02:30 14.02.2020
2624 Rain 5 1008 70 10000 1 0 01:27 14.02.2020
2625 Clouds 5 1008 65 10000 2.6 270 00:43 14.02.2020
2626 Clouds 5 1008 70 10000 2.6 190 00:43 14.02.2020
2627 Clouds 5 1008 70 10000 2.6 190 00:23 14.02.2020
2628 Clouds 5 1007 65 10000 3.6 160 23:45 13.02.2020
2629 Clouds 5 1007 65 10000 5.7 150 23:21 13.02.2020
2630 Clouds 6 1007 65 10000 4.6 140 22:44 13.02.2020
2631 Clouds 6 1008 69 10000 4.6 130 22:20 13.02.2020
2632 Clouds 6 1008 69 10000 4.6 130 22:20 13.02.2020
2633 Clouds 6 1008 69 10000 4.6 130 22:20 13.02.2020
2634 Clouds 6 1008 69 10000 5.7 130 21:59 13.02.2020
2635 Clouds 6 1008 69 10000 6.2 140 21:40 13.02.2020
2636 Clouds 6 1008 69 10000 6.2 140 21:22 13.02.2020
2637 Clouds 6 1007 69 10000 7.7 140 20:58 13.02.2020
2638 Clouds 6 1008 69 10000 6.7 140 20:39 13.02.2020
2639 Clouds 6 1008 70 10000 6.7 140 20:21 13.02.2020
2640 Clouds 6 1009 70 10000 6.7 140 19:56 13.02.2020
2641 Clouds 6 1010 70 10000 7.2 150 19:36 13.02.2020
2642 Clouds 6 1010 70 10000 7.2 150 19:18 13.02.2020
2643 Clouds 6 1011 70 10000 8.7 150 18:43 13.02.2020
2644 Clouds 6 1011 70 10000 8.2 160 18:24 13.02.2020
2645 Clouds 7 1012 70 10000 8.2 150 17:59 13.02.2020
2646 Clouds 7 1012 70 10000 8.2 150 17:40 13.02.2020
2647 Clouds 7 1012 61 10000 9.8 160 17:20 13.02.2020
2648 -273 0 0 0 0 0 16:58 13.02.2020
2649 Clouds 8 1014 61 10000 8.2 140 16:38 13.02.2020
2650 Clouds 8 1014 61 10000 8.2 140 16:38 13.02.2020
2651 Clouds 8 1014 61 10000 8.2 140 16:19 13.02.2020
2652 Clouds 8 1014 61 10000 8.2 150 15:56 13.02.2020
2653 Clouds 8 1015 61 10000 7.7 150 15:37 13.02.2020
2654 Clouds 8 1015 61 10000 7.7 150 15:19 13.02.2020
2655 Clouds 8 1016 61 10000 9.8 150 14:56 13.02.2020
2656 Clouds 9 1016 61 10000 9.8 150 14:38 13.02.2020
2657 Clouds 9 1017 57 10000 8.2 150 14:20 13.02.2020
2658 Clouds 9 1018 57 10000 6.7 140 13:46 13.02.2020
2659 Clouds 9 1018 57 10000 6.7 140 13:18 13.02.2020
2660 Clouds 9 1018 57 10000 6.7 140 13:18 13.02.2020
2661 Clouds 9 1018 57 10000 6.7 140 13:18 13.02.2020
2662 Clouds 8 1019 61 10000 5.7 140 12:56 13.02.2020
2663 Clouds 8 1020 57 10000 5.7 130 12:37 13.02.2020
2664 Clouds 8 1020 57 10000 5.7 130 12:19 13.02.2020
2665 Clouds 8 1021 70 10000 2.6 150 11:43 13.02.2020
2666 Clouds 8 1020 57 10000 3.6 150 11:43 13.02.2020
2667 Clouds 7 1021 70 10000 2.6 150 11:20 13.02.2020
2668 Clouds 6 1021 70 10000 3.6 150 10:49 13.02.2020
2669 Clouds 6 1022 66 10000 3.6 180 10:28 13.02.2020
2670 Clouds 5 1022 66 10000 1.5 230 09:57 13.02.2020
2671 Clouds 5 1022 69 10000 2.1 220 09:38 13.02.2020
2672 Clouds 4 1022 69 10000 2.1 220 09:20 13.02.2020
2673 Clouds 2 1022 69 10000 2.6 250 08:42 13.02.2020
2674 Clouds 1 1022 69 10000 4.1 260 08:19 13.02.2020
2675 Clouds 1 1022 69 10000 4.1 260 07:40 13.02.2020
2676 Clouds 1 1022 74 10000 4.1 260 07:22 13.02.2020
2677 Clouds 1 1022 74 10000 4.1 260 07:21 13.02.2020
2678 Clouds 1 1021 74 10000 5.1 260 06:45 13.02.2020
2679 Clouds 1 1021 74 10000 5.1 260 06:21 13.02.2020
2680 Clouds 2 1021 80 10000 4.6 230 05:37 13.02.2020
2681 Clouds 2 1021 80 10000 5.1 220 04:26 13.02.2020
2682 Clouds 2 1021 80 10000 1.5 230 03:52 13.02.2020
2683 Clouds 2 1020 86 10000 2.1 210 03:26 13.02.2020
2684 Clouds 2 1020 80 10000 1.5 220 02:53 13.02.2020
2685 Clouds 2 1020 69 10000 3.6 250 02:19 13.02.2020
2686 Clouds 2 1020 69 10000 1.5 280 01:35 13.02.2020
2687 Clouds 2 1020 75 10000 4.1 250 00:40 13.02.2020
2688 Clouds 2 1020 75 10000 4.1 250 00:21 13.02.2020
2689 Clouds 3 1020 75 10000 3.6 250 23:41 12.02.2020
2690 Rain 3 1020 86 10000 5.1 240 23:22 12.02.2020
2691 Clouds 3 1020 86 10000 5.1 240 22:48 12.02.2020
2692 Rain 3 1019 80 10000 7.7 260 22:28 12.02.2020
2693 Rain 3 1019 80 10000 7.2 270 21:59 12.02.2020
2694 Rain 3 1019 80 10000 7.2 270 21:40 12.02.2020
2695 Rain 3 1019 86 10000 5.1 240 21:20 12.02.2020
2696 Rain 3 1019 93 10000 3.6 250 20:58 12.02.2020
2697 Rain 3 1018 86 10000 4.6 270 20:39 12.02.2020
2698 Rain 3 1018 86 10000 4.6 270 20:20 12.02.2020
2699 Rain 3 1019 86 10000 6.7 280 19:55 12.02.2020
2700 Rain 3 1018 80 10000 10.8 280 19:37 12.02.2020
2701 Rain 3 1018 80 10000 10.8 280 19:18 12.02.2020
2702 Rain 4 1017 60 10000 6.2 260 18:46 12.02.2020
2703 Rain 4 1017 60 10000 7.7 270 18:19 12.02.2020
2704 Clouds 5 1017 60 10000 5.7 270 17:56 12.02.2020
2705 Clouds 5 1017 56 10000 7.2 280 17:36 12.02.2020
2706 Clouds 5 1017 56 10000 7.2 280 17:18 12.02.2020
2707 Rain 6 1016 52 10000 9.3 270 16:40 12.02.2020
2708 Clouds 6 1017 52 10000 7.7 280 16:20 12.02.2020
2709 Clouds 7 1016 48 10000 13.4 270 15:43 12.02.2020
2710 Clouds 7 1016 48 10000 11.8 280 15:24 12.02.2020
2711 Clouds 7 1016 39 10000 11.3 280 14:59 12.02.2020
2712 Clouds 7 1016 39 10000 11.3 280 14:41 12.02.2020
2713 Clouds 7 1016 39 10000 11.3 280 14:20 12.02.2020
2714 Clouds 7 1016 39 10000 14.9 280 13:57 12.02.2020
2715 Clouds 7 1016 42 10000 11.8 290 13:39 12.02.2020
2716 Clouds 7 1016 42 10000 11.8 290 13:20 12.02.2020
2717 Rain 7 1016 45 10000 11.3 290 12:57 12.02.2020
2718 Rain 7 1016 45 10000 13.9 280 12:38 12.02.2020
2719 Rain 7 1016 45 10000 13.9 280 12:18 12.02.2020
2720 Rain 7 1016 42 10000 13.9 290 11:57 12.02.2020
2721 Rain 6 1015 42 10000 13.4 290 11:39 12.02.2020
2722 Rain 6 1015 42 10000 13.4 290 11:20 12.02.2020
2723 Rain 6 1016 45 10000 11.8 290 10:55 12.02.2020
2724 Clouds 5 1016 52 10000 10.8 290 10:37 12.02.2020
2725 Rain 5 1016 52 10000 10.8 290 10:19 12.02.2020
2726 Rain 4 1017 69 10000 5.7 300 09:42 12.02.2020
2727 Rain 4 1017 69 10000 5.7 300 09:42 12.02.2020
2728 Rain 4 1017 69 10000 5.7 300 09:42 12.02.2020
2729 Rain 4 1017 69 10000 5.7 300 09:23 12.02.2020
2730 Rain 3 1016 69 10000 6.2 320 08:58 12.02.2020
2731 Rain 4 1016 69 10000 6.2 320 08:58 12.02.2020
2732 Rain 3 1016 69 10000 7.7 300 08:38 12.02.2020
2733 Rain 3 1016 69 10000 7.7 300 08:20 12.02.2020
2734 Clouds 2 1016 69 10000 6.7 280 07:44 12.02.2020
2735 Clouds 2 1016 69 10000 6.7 280 07:24 12.02.2020
2736 Clouds 2 1016 64 10000 6.2 290 06:57 12.02.2020
2737 Clouds 2 1015 69 10000 5.7 280 06:24 12.02.2020
2738 Clouds 2 1015 74 10000 8.7 270 05:44 12.02.2020
2739 Snow 2 1014 62 10000 6.7 260 04:59 12.02.2020
2740 Snow 2 1014 62 10000 6.7 260 04:40 12.02.2020
2741 Rain 2 1013 62 10000 6.7 260 03:42 12.02.2020
2742 Rain 2 1013 62 10000 4.1 260 03:23 12.02.2020
2743 Rain 2 1011 65 10000 10.8 250 02:31 12.02.2020
2744 Clouds 3 1011 56 10000 8.2 280 01:59 12.02.2020
2745 Clouds 5 1011 56 10000 9.8 270 00:58 12.02.2020
2746 Clouds 5 1011 56 10000 9.8 270 00:58 12.02.2020
2747 Clouds 4 1011 56 10000 9.8 270 00:39 12.02.2020
2748 Clouds 5 1011 56 10000 8.2 270 00:21 12.02.2020
2749 Clouds 4 1011 65 10000 5.7 270 23:42 11.02.2020
2750 Rain 4 1011 67 10000 7.7 280 23:24 11.02.2020
2751 Rain 4 1011 60 10000 9.8 280 22:56 11.02.2020
2752 Clouds 4 1011 65 10000 8.7 280 22:38 11.02.2020
2753 Clouds 4 1011 65 10000 7.7 270 22:19 11.02.2020
2754 Clouds 4 1011 65 10000 7.7 270 21:56 11.02.2020
2755 Rain 3 1011 69 10000 3.6 290 21:37 11.02.2020
2756 Clouds 3 1011 69 10000 3.6 290 21:18 11.02.2020
2757 Clouds 3 1011 69 10000 3.6 290 21:18 11.02.2020
2758 Clouds 3 1011 69 10000 6.2 300 20:57 11.02.2020
2759 Thunderstorm 3 1009 60 10000 8.7 270 20:38 11.02.2020
2760 Thunderstorm 3 1009 60 10000 8.7 270 20:18 11.02.2020
2761 Thunderstorm 3 1009 60 10000 8.7 270 20:18 11.02.2020
2762 Clouds 4 1009 60 10000 8.2 260 19:54 11.02.2020
2763 Clouds 5 1009 56 10000 8.2 260 19:36 11.02.2020
2764 Clouds 5 1009 56 10000 8.2 260 19:18 11.02.2020
2765 Clouds 5 1009 60 10000 7.7 260 18:42 11.02.2020
2766 Clouds 5 1009 60 10000 7.7 260 18:24 11.02.2020
2767 Clouds 5 1008 71 10000 7.7 260 17:55 11.02.2020
2768 Clouds 5 1007 56 10000 8.7 270 17:37 11.02.2020
2769 Clouds 6 1007 56 10000 8.7 270 17:18 11.02.2020
2770 Clouds 6 1007 56 10000 9.3 270 16:57 11.02.2020
2771 Clouds 6 1007 56 10000 10.3 270 16:38 11.02.2020
2772 Clouds 6 1007 56 10000 10.3 270 16:20 11.02.2020
2773 Clouds 6 1007 59 10000 9.3 250 15:47 11.02.2020
2774 Clouds 6 1007 59 10000 9.3 250 15:29 11.02.2020
2775 Clouds 6 1007 59 10000 10.3 260 14:58 11.02.2020
2776 Clouds 6 1007 75 10000 10.3 250 14:39 11.02.2020
2777 Clouds 7 1007 75 10000 10.3 250 14:19 11.02.2020
2778 Clouds 7 1007 57 10000 9.3 260 13:42 11.02.2020
2779 Clouds 7 1007 52 10000 9.3 270 13:22 11.02.2020
2780 Clouds 7 1007 65 10000 5.7 240 12:59 11.02.2020
2781 Clouds 7 1007 57 10000 9.8 280 12:41 11.02.2020
2782 Clouds 7 1007 57 10000 9.8 280 12:21 11.02.2020
2783 Clouds 7 1007 57 10000 9.3 280 11:56 11.02.2020
2784 Clouds 7 1007 57 10000 7.7 270 11:38 11.02.2020
2785 Clouds 7 1007 50 10000 7.7 270 11:19 11.02.2020
2786 Clouds 7 1006 50 10000 10.3 270 10:40 11.02.2020
2787 Rain 6 1006 50 10000 10.3 270 10:21 11.02.2020
2788 Rain 7 1005 50 10000 10.3 270 09:57 11.02.2020
2789 Rain 6 1005 70 10000 8.7 260 09:39 11.02.2020
2790 Rain 6 1005 70 10000 8.7 260 09:21 11.02.2020
2791 Rain 5 1005 50 7000 14.4 250 08:49 11.02.2020
2792 Rain 5 1005 46 7000 14.4 250 08:25 11.02.2020
2793 Rain 5 1005 70 10000 11.3 250 07:51 11.02.2020
2794 Rain 5 1003 75 10000 11.8 260 07:32 11.02.2020
2795 Clouds 5 1003 75 10000 12.9 260 06:57 11.02.2020
2796 Rain 5 1003 75 10000 11.8 240 06:38 11.02.2020
2797 Rain 5 1003 75 10000 11.8 240 06:20 11.02.2020
2798 Rain 5 1002 87 10000 5.1 250 06:20 11.02.2020
2799 Rain 6 1001 87 10000 7.7 280 05:39 11.02.2020
2800 Rain 6 999 87 10000 5.7 220 05:19 11.02.2020
2801 Rain 6 1000 80 10000 5.1 190 03:32 11.02.2020
2802 Rain 6 1000 80 10000 5.1 190 03:32 11.02.2020
2803 Rain 6 1002 70 10000 5.1 230 02:37 11.02.2020
2804 Rain 6 1003 75 10000 4.6 240 01:52 11.02.2020
2805 Rain 6 1003 52 10000 10.3 230 01:30 11.02.2020
2806 Clouds 6 1004 52 10000 4.1 220 00:23 11.02.2020
2807 Clouds 6 1004 52 10000 5.1 220 23:47 10.02.2020
2808 Clouds 6 1005 48 10000 4.1 220 23:29 10.02.2020
2809 Clear 6 1005 48 10000 4.1 230 22:57 10.02.2020
2810 Clear 6 1006 48 10000 4.6 240 22:37 10.02.2020
2811 Rain 6 1006 48 10000 4.6 240 22:19 10.02.2020
2812 Rain 7 1007 42 10000 6.2 260 21:40 10.02.2020
2813 Clear 7 1007 42 10000 6.2 260 21:22 10.02.2020
2814 Clear 7 1007 42 10000 5.7 270 20:56 10.02.2020
2815 Clear 7 1007 43 10000 8.2 270 20:38 10.02.2020
2816 Rain 7 1007 43 10000 8.2 270 20:19 10.02.2020
2817 Rain 7 1007 61 10000 7.2 280 19:57 10.02.2020
2818 Rain 7 1007 61 10000 7.2 280 19:57 10.02.2020
2819 Rain 7 1007 57 10000 7.7 280 19:37 10.02.2020
2820 Rain 7 1007 57 10000 7.7 280 19:18 10.02.2020
2821 Rain 7 1007 53 10000 8.7 290 18:58 10.02.2020
2822 Rain 7 1007 53 10000 8.7 290 18:38 10.02.2020
2823 Rain 8 1006 61 10000 8.2 280 18:20 10.02.2020
2824 Clouds 8 1006 53 10000 10.8 280 17:54 10.02.2020
2825 Clouds 8 1006 53 10000 10.8 280 17:54 10.02.2020
2826 Rain 8 1006 57 10000 11.8 270 17:36 10.02.2020
2827 Clouds 9 1004 61 10000 15.9 280 17:18 10.02.2020
2828 Clouds 9 1004 61 10000 15.9 280 16:56 10.02.2020
2829 Rain 9 1005 71 0 14.9 250 16:37 10.02.2020
2830 Rain 9 1005 71 0 14.9 250 16:18 10.02.2020
2831 Clouds 10 1003 62 10000 12.3 280 15:41 10.02.2020
2832 Rain 11 1003 62 10000 12.3 270 15:22 10.02.2020
2833 Rain 11 1004 76 10000 8.2 210 14:58 10.02.2020
2834 Rain 10 1004 76 10000 8.7 240 14:40 10.02.2020
2835 Rain 10 1004 76 10000 8.7 240 14:19 10.02.2020
2836 Rain 10 1004 76 10000 8.7 240 14:19 10.02.2020
2837 Rain 9 1007 93 10000 7.2 270 13:55 10.02.2020
2838 Rain 9 1006 93 10000 3.6 320 13:37 10.02.2020
2839 Rain 8 1006 93 10000 3.6 320 13:18 10.02.2020
2840 Rain 8 1005 71 5000 11.3 330 12:42 10.02.2020
2841 Rain 9 1003 66 6000 4.1 340 12:24 10.02.2020
2842 Rain 11 1003 41 10000 4.1 260 11:54 10.02.2020
2843 Rain 11 1003 41 10000 4.1 260 11:54 10.02.2020
2844 Rain 11 1002 43 10000 2.6 190 11:36 10.02.2020
2845 Clouds 10 1002 43 10000 2.6 190 11:18 10.02.2020
2846 Clouds 10 1002 54 10000 3.1 250 10:42 10.02.2020
2847 Clouds 9 1002 54 10000 3.1 250 10:23 10.02.2020
2848 Clouds 8 1001 54 10000 3.6 150 09:44 10.02.2020
2849 Clouds 6 1001 46 10000 3.6 160 09:23 10.02.2020
2850 Clouds 6 1001 49 10000 3.1 0 08:43 10.02.2020
2851 Clouds 4 1001 49 10000 3.1 0 08:22 10.02.2020
2852 Clouds 4 1002 52 10000 4.1 130 07:57 10.02.2020
2853 Clouds 4 1002 52 10000 3.1 150 07:36 10.02.2020
2854 Clouds 4 1002 52 10000 4.1 130 06:58 10.02.2020
2855 Clouds 4 1004 68 10000 4.1 130 05:41 10.02.2020
2856 Clouds 3 1006 60 10000 6.2 120 04:23 10.02.2020
2857 Rain 3 1009 69 10000 5.1 100 03:31 10.02.2020
2858 Clouds 2 1009 69 10000 3.6 120 02:53 10.02.2020
2859 Clouds 2 1010 74 10000 4.1 120 01:36 10.02.2020
2860 Clouds 1 1011 74 10000 5.1 130 00:48 10.02.2020
2861 Clouds 1 1012 74 10000 5.7 130 00:28 10.02.2020
2862 Clouds 1 1013 74 10000 5.7 120 23:44 09.02.2020
2863 Clouds 1 1013 74 10000 5.7 120 23:26 09.02.2020
2864 Clear 2 1014 74 10000 5.7 140 22:58 09.02.2020
2865 Clear 2 1015 74 10000 5.1 130 22:38 09.02.2020
2866 Clear 2 1015 74 10000 5.1 130 22:19 09.02.2020
2867 Clear 2 1016 84 10000 5.1 140 21:41 09.02.2020
2868 Clear 2 1017 84 10000 5.7 140 21:22 09.02.2020
2869 Clear 2 1017 84 10000 5.7 140 21:22 09.02.2020
2870 Clouds 3 1017 84 10000 7.2 130 20:47 09.02.2020
2871 Clouds 3 1018 65 10000 6.2 140 20:23 09.02.2020
2872 Clouds 3 1019 65 10000 6.7 140 19:57 09.02.2020
2873 Clouds 3 1019 69 10000 5.1 130 19:39 09.02.2020
2874 Clouds 3 1019 69 10000 5.1 130 19:20 09.02.2020
2875 Clouds 3 1019 69 10000 5.1 130 19:20 09.02.2020
2876 Clouds 3 1020 65 10000 6.7 130 18:42 09.02.2020
2877 Clouds 4 1020 65 10000 5.7 130 18:24 09.02.2020
2878 Clouds 4 1021 65 10000 5.1 130 17:59 09.02.2020
2879 Clouds 4 1021 65 10000 5.7 130 17:39 09.02.2020
2880 Clouds 4 1021 65 10000 5.7 130 17:39 09.02.2020
2881 Clouds 5 1021 65 10000 5.7 130 17:21 09.02.2020
2882 Clouds 6 1022 60 10000 6.2 140 16:43 09.02.2020
2883 Clouds 6 1022 60 10000 6.2 140 16:24 09.02.2020
2884 Clouds 6 1023 60 10000 6.7 130 15:59 09.02.2020
2885 Clouds 6 1023 60 10000 6.2 130 15:41 09.02.2020
2886 Clouds 7 1023 60 10000 6.2 130 15:21 09.02.2020
2887 Clouds 7 1023 60 10000 6.2 140 14:57 09.02.2020
2888 Clouds 6 1024 60 10000 5.1 130 14:38 09.02.2020
2889 Clouds 6 1024 60 10000 5.1 130 14:20 09.02.2020
2890 Clouds 6 1025 60 10000 5.7 130 13:44 09.02.2020
2891 Clouds 6 1025 60 10000 5.7 140 13:26 09.02.2020
2892 Clouds 5 1026 64 10000 5.1 130 12:56 09.02.2020
2893 Clouds 5 1026 60 10000 3.6 130 12:37 09.02.2020
2894 Clouds 5 1026 60 10000 3.6 130 12:18 09.02.2020
2895 Clouds 5 1026 60 10000 3.6 130 12:18 09.02.2020
2896 Clouds 4 1027 64 10000 3.1 140 11:41 09.02.2020
2897 Clouds 3 1027 64 10000 2.6 130 11:20 09.02.2020
2898 Clouds 3 1027 69 10000 3.1 140 10:57 09.02.2020
2899 Clouds 2 1028 64 10000 3.6 130 10:38 09.02.2020
2900 Clouds 2 1028 64 10000 3.6 130 10:20 09.02.2020
2901 Clouds 1 1027 74 10000 2.6 130 09:41 09.02.2020
2902 Clouds 0 1027 74 10000 2.6 130 09:22 09.02.2020
2903 Clouds -1 1027 79 10000 2.1 120 08:45 09.02.2020
2904 Clouds -1 1028 79 10000 1.5 130 08:45 09.02.2020
2905 Clouds -3 1027 79 10000 2.1 120 08:26 09.02.2020
2906 Clouds -3 1027 79 10000 2.6 130 07:58 09.02.2020
2907 Clouds -3 1027 79 10000 3.1 140 07:34 09.02.2020
2908 Clouds -3 1027 79 10000 2.6 150 06:46 09.02.2020
2909 Clouds -3 1027 79 10000 3.6 140 05:59 09.02.2020
2910 Clouds -3 1027 79 10000 3.1 130 05:37 09.02.2020
2911 Clouds -3 1027 79 10000 3.1 130 05:18 09.02.2020
2912 Clouds -2 1027 80 10000 4.1 130 03:52 09.02.2020
2913 Clouds -2 1027 80 10000 2.6 140 02:44 09.02.2020
2914 Clouds -2 1026 80 10000 4.6 130 02:25 09.02.2020
2915 Clear -2 1026 86 10000 3.1 130 01:35 09.02.2020
2916 Clear -1 1027 91 10000 5.7 140 00:42 09.02.2020
2917 Clear -1 1027 91 10000 5.7 140 00:23 09.02.2020
2918 Clear -1 1027 91 10000 4.6 150 23:42 08.02.2020
2919 Clear 0 1027 88 10000 4.6 150 23:20 08.02.2020
2920 Rain 0 1027 74 10000 5.1 140 22:42 08.02.2020
2921 Clear 0 1027 74 10000 3.1 150 22:22 08.02.2020
2922 Clear 1 1027 74 10000 4.1 150 21:58 08.02.2020
2923 Clouds 1 1027 69 10000 5.7 140 21:40 08.02.2020
2924 Clouds 1 1027 69 10000 5.7 140 21:20 08.02.2020
2925 Clouds 1 1027 74 10000 5.7 140 20:56 08.02.2020
2926 Clouds 1 1027 74 10000 5.7 140 20:56 08.02.2020
2927 Clouds 1 1027 69 10000 5.1 130 20:38 08.02.2020
2928 Clouds 2 1027 69 10000 5.1 130 20:19 08.02.2020
2929 Clouds 2 1027 69 10000 5.1 130 19:55 08.02.2020
2930 Clouds 2 1027 69 10000 5.1 130 19:36 08.02.2020
2931 Clouds 2 1027 69 10000 4.6 130 19:18 08.02.2020
2932 Clouds 3 1027 69 10000 4.6 130 18:43 08.02.2020
2933 Clouds 3 1027 64 10000 4.6 130 18:23 08.02.2020
2934 Clouds 3 1027 64 10000 5.1 130 17:44 08.02.2020
2935 Clear 4 1027 65 10000 5.1 140 17:22 08.02.2020
2936 Clouds 5 1027 69 10000 5.1 140 16:59 08.02.2020
2937 Clouds 6 1027 69 10000 5.1 140 16:39 08.02.2020
2938 Clouds 6 1027 69 10000 6.7 140 16:21 08.02.2020
2939 Clouds 6 1027 69 10000 6.7 140 16:21 08.02.2020
2940 Clouds 6 1027 69 10000 6.7 140 16:21 08.02.2020
2941 Clouds 6 1027 56 10000 6.7 140 15:43 08.02.2020
2942 Clouds 6 1027 56 10000 6.7 140 15:19 08.02.2020
2943 Clouds 6 1027 56 10000 6.7 140 14:59 08.02.2020
2944 Clouds 6 1028 56 10000 6.7 150 14:40 08.02.2020
2945 Clouds 6 1028 56 10000 6.7 150 14:19 08.02.2020
2946 Clouds 6 1028 56 10000 7.2 140 13:43 08.02.2020
2947 Clouds 6 1028 56 10000 7.2 140 13:43 08.02.2020
2948 Clouds 6 1028 56 10000 7.2 140 13:23 08.02.2020
2949 Clouds 5 1029 60 10000 7.7 140 12:57 08.02.2020
2950 Clouds 5 1029 56 10000 7.2 130 12:37 08.02.2020
2951 Clouds 5 1029 56 10000 7.2 130 12:19 08.02.2020
2952 Clouds 4 1029 64 10000 7.2 120 11:43 08.02.2020
2953 Clouds 3 1029 64 10000 7.2 120 11:22 08.02.2020
2954 Clouds 3 1029 64 10000 7.2 130 10:57 08.02.2020
2955 Clouds 3 1029 64 10000 7.2 130 10:38 08.02.2020
2956 Clouds 3 1029 64 10000 7.2 130 10:20 08.02.2020
2957 Clouds 2 1029 69 10000 6.7 140 09:49 08.02.2020
2958 Clouds 1 1029 69 10000 6.7 140 09:24 08.02.2020
2959 Clouds 0 1029 72 10000 5.7 140 08:46 08.02.2020
2960 Clouds 0 1028 74 10000 6.2 140 08:24 08.02.2020
2961 Clouds -1 1028 74 10000 6.7 130 07:53 08.02.2020
2962 Clouds -1 1028 80 10000 6.2 140 07:34 08.02.2020
2963 Clouds -1 1028 83 10000 5.1 120 06:54 08.02.2020
2964 Clouds -1 1028 83 10000 4.6 120 06:21 08.02.2020
2965 Clouds -1 1029 86 10000 2.6 120 05:33 08.02.2020
2966 Clouds -1 1029 92 10000 2.1 140 04:54 08.02.2020
2967 Clouds -1 1029 92 10000 3.6 170 04:24 08.02.2020
2968 Clear -2 1029 86 10000 2.1 150 03:37 08.02.2020
2969 Clear -1 1029 92 10000 1.5 160 02:29 08.02.2020
2970 Clear -1 1029 92 10000 1.5 160 02:29 08.02.2020
2971 Clear -1 1029 92 10000 2.1 170 01:33 08.02.2020
2972 Clear -1 1029 86 10000 0.5 0 00:47 08.02.2020
2973 Clouds -1 1029 87 10000 1 0 00:25 08.02.2020
2974 Clouds 0 1029 80 10000 1.5 300 23:58 07.02.2020
2975 Clouds 0 1029 80 10000 1.5 300 23:39 07.02.2020
2976 Clouds 0 1029 86 10000 1 0 23:20 07.02.2020
2977 Clouds 0 1029 80 10000 3.1 270 22:42 07.02.2020
2978 Clouds 1 1029 80 10000 3.1 280 22:20 07.02.2020
2979 Clouds 1 1029 80 10000 3.1 280 21:59 07.02.2020
2980 Clouds 1 1029 86 10000 3.1 320 21:40 07.02.2020
2981 Clouds 1 1029 86 10000 3.1 320 21:20 07.02.2020
2982 Clouds 2 1029 80 10000 3.1 310 20:40 07.02.2020
2983 Clouds 2 1029 80 10000 3.1 310 20:21 07.02.2020
2984 Clouds 2 1029 80 10000 3.6 300 19:56 07.02.2020
2985 Clouds 3 1029 75 10000 3.1 320 19:37 07.02.2020
2986 Clouds 3 1029 75 10000 3.1 320 19:37 07.02.2020
2987 Clouds 3 1029 75 10000 3.1 320 19:18 07.02.2020
2988 Clouds 4 1028 75 10000 3.6 330 18:45 07.02.2020
2989 Clouds 4 1028 75 10000 3.6 330 18:26 07.02.2020
2990 Clouds 4 1028 75 10000 3.1 320 17:57 07.02.2020
2991 Clouds 5 1028 75 10000 4.6 320 17:39 07.02.2020
2992 Clouds 5 1028 63 10000 4.6 320 17:19 07.02.2020
2993 Clouds 5 1028 63 10000 4.6 320 16:50 07.02.2020
2994 Clouds 6 1028 63 10000 4.6 310 16:24 07.02.2020
2995 Clouds 6 1028 63 10000 5.1 320 15:55 07.02.2020
2996 Clouds 6 1028 63 10000 5.1 330 15:29 07.02.2020
2997 Clouds 6 1028 63 10000 5.1 320 14:58 07.02.2020
2998 Clouds 6 1028 60 10000 6.2 330 14:40 07.02.2020
2999 Clouds 6 1028 60 10000 6.2 330 14:21 07.02.2020
3000 Clouds 6 1028 60 10000 6.2 310 13:57 07.02.2020
3001 Clouds 6 1028 60 10000 7.2 310 13:38 07.02.2020
3002 Clouds 6 1028 60 10000 7.2 310 13:20 07.02.2020
3003 Clouds 6 1028 60 10000 7.2 310 12:42 07.02.2020
3004 Clouds 6 1028 60 10000 7.2 310 12:24 07.02.2020
3005 Clouds 5 1029 60 10000 7.7 320 11:58 07.02.2020
3006 Clouds 5 1029 60 10000 8.2 310 11:39 07.02.2020
3007 Clouds 5 1029 60 10000 8.2 310 11:18 07.02.2020
3008 Clouds 4 1028 56 10000 7.7 300 10:40 07.02.2020
3009 Clouds 4 1028 60 10000 6.2 300 10:20 07.02.2020
3010 Clouds 4 1028 60 10000 8.2 300 09:45 07.02.2020
3011 Clouds 3 1028 60 10000 8.2 300 09:25 07.02.2020
3012 Clouds 3 1028 64 10000 8.2 300 08:57 07.02.2020
3013 Clouds 3 1028 64 10000 8.2 300 08:37 07.02.2020
3014 Clouds 2 1028 64 10000 8.2 300 08:19 07.02.2020
3015 Clouds 3 1028 64 10000 7.7 300 07:40 07.02.2020
3016 Clouds 3 1027 64 10000 8.7 300 07:19 07.02.2020
3017 Clouds 2 1027 64 10000 8.2 300 06:43 07.02.2020
3018 Clouds 2 1027 64 10000 8.2 300 06:22 07.02.2020
3019 Clouds 2 1027 64 10000 9.3 300 05:43 07.02.2020
3020 Clouds 2 1026 64 10000 9.8 300 03:58 07.02.2020
3021 Clouds 2 1027 64 10000 8.2 300 02:30 07.02.2020
3022 Clouds 2 1027 60 10000 8.7 300 01:34 07.02.2020
3023 Clouds 3 1027 60 10000 9.3 300 00:38 07.02.2020
3024 Clouds 3 1028 60 10000 7.7 300 23:56 06.02.2020
3025 Clouds 3 1028 60 10000 8.7 310 23:36 06.02.2020
3026 Clouds 3 1028 60 10000 8.7 310 23:18 06.02.2020
3027 Clouds 3 1028 64 10000 6.2 320 22:42 06.02.2020
3028 Clouds 3 1028 64 10000 6.2 320 22:23 06.02.2020
3029 Clouds 2 1028 64 10000 6.7 320 21:37 06.02.2020
3030 Clouds 2 1028 64 10000 6.7 320 21:19 06.02.2020
3031 Clouds 2 1027 64 10000 6.2 330 20:56 06.02.2020
3032 Clouds 2 1027 64 10000 5.7 320 20:37 06.02.2020
3033 Clouds 2 1027 64 10000 5.7 320 20:18 06.02.2020
3034 Clouds 2 1027 69 10000 5.1 320 19:58 06.02.2020
3035 Clouds 2 1027 69 10000 4.6 330 19:39 06.02.2020
3036 Clouds 2 1027 69 10000 4.6 330 19:21 06.02.2020
3037 Clouds 2 1027 69 10000 4.1 340 18:57 06.02.2020
3038 Clouds 2 1027 69 10000 5.7 340 18:38 06.02.2020
3039 Clouds 3 1027 64 10000 4.6 320 18:19 06.02.2020
3040 Clouds 3 1027 55 10000 6.7 320 17:42 06.02.2020
3041 Clouds 3 1027 55 10000 6.7 320 17:21 06.02.2020
3042 Clouds 3 1027 55 10000 7.2 320 16:57 06.02.2020
3043 Clouds 4 1027 52 10000 8.2 320 16:39 06.02.2020
3044 Clouds 4 1027 52 10000 8.2 320 16:20 06.02.2020
3045 Clouds 5 1028 52 10000 10.3 310 15:42 06.02.2020
3046 Clouds 5 1028 52 10000 10.3 310 15:21 06.02.2020
3047 Clouds 5 1027 48 10000 11.3 310 14:47 06.02.2020
3048 Clouds 5 1027 48 10000 11.3 310 14:26 06.02.2020
3049 Clouds 5 1028 45 10000 10.3 310 13:55 06.02.2020
3050 Clouds 5 1028 48 10000 9.8 310 13:36 06.02.2020
3051 Clouds 5 1028 48 10000 9.8 310 13:18 06.02.2020
3052 Clouds 5 1029 44 10000 9.8 300 12:43 06.02.2020
3053 Clouds 5 1028 44 10000 10.8 310 12:43 06.02.2020
3054 Clouds 4 1029 44 10000 9.8 300 12:18 06.02.2020
3055 Clouds 4 1029 41 10000 8.2 310 11:56 06.02.2020
3056 Clouds 4 1029 44 10000 7.7 310 11:37 06.02.2020
3057 Clear 4 1029 44 10000 7.7 310 11:18 06.02.2020
3058 Clear 4 1029 44 10000 7.7 310 11:18 06.02.2020
3059 Clear 3 1029 44 10000 6.7 300 10:56 06.02.2020
3060 Clear 3 1029 48 10000 6.2 300 10:37 06.02.2020
3061 Clear 3 1029 48 10000 5.7 290 10:18 06.02.2020
3062 Clear 2 1029 59 10000 4.6 270 09:43 06.02.2020
3063 Clear 2 1029 59 10000 4.6 270 09:43 06.02.2020
3064 Clear 2 1029 59 10000 4.6 270 09:20 06.02.2020
3065 Clear 1 1029 49 10000 4.6 300 08:47 06.02.2020
3066 Clear 1 1029 49 10000 4.6 300 08:47 06.02.2020
3067 Clear 0 1029 50 10000 4.6 300 08:25 06.02.2020
3068 Clouds 0 1029 60 10000 4.1 300 07:58 06.02.2020
3069 Clouds 0 1030 60 10000 2.6 300 07:33 06.02.2020
3070 Clouds -1 1030 60 10000 3.1 300 06:59 06.02.2020
3071 Clouds 0 1030 60 10000 4.6 290 06:21 06.02.2020
3072 Clouds -1 1030 60 10000 5.1 300 05:44 06.02.2020
3073 Clouds 0 1030 64 10000 5.7 310 04:18 06.02.2020
3074 Clouds 0 1031 63 10000 2.6 320 03:19 06.02.2020
3075 Clouds 0 1031 69 10000 7.7 320 02:25 06.02.2020
3076 Clouds 1 1031 64 10000 7.7 320 01:25 06.02.2020
3077 Clouds 1 1031 64 10000 7.2 320 00:53 06.02.2020
3078 Clouds 1 1031 64 10000 8.2 310 00:23 06.02.2020
3079 Clouds 1 1031 64 10000 6.7 320 23:43 05.02.2020
3080 Clouds 1 1031 64 10000 8.2 320 23:24 05.02.2020
3081 Clouds 1 1031 64 10000 7.7 320 22:57 05.02.2020
3082 Clouds 1 1031 59 10000 9.3 320 22:38 05.02.2020
3083 Clouds 2 1031 59 10000 9.3 320 22:20 05.02.2020
3084 Clouds 1 1030 55 10000 7.7 320 21:41 05.02.2020
3085 Clouds 1 1030 55 10000 7.7 320 21:23 05.02.2020
3086 Clouds 1 1030 59 10000 7.2 320 20:57 05.02.2020
3087 Clouds 1 1030 59 10000 6.2 330 20:38 05.02.2020
3088 Clouds 1 1030 59 10000 6.2 330 20:18 05.02.2020
3089 Clouds 1 1029 59 10000 7.2 330 19:55 05.02.2020
3090 Clouds 1 1028 59 10000 8.2 330 19:37 05.02.2020
3091 Clouds 1 1028 55 10000 7.7 330 19:18 05.02.2020
3092 Clouds 1 1028 55 10000 7.7 330 18:44 05.02.2020
3093 Clouds 1 1026 59 10000 8.7 330 18:21 05.02.2020
3094 Clouds 2 1026 59 10000 8.7 330 17:58 05.02.2020
3095 Clouds 2 1025 55 10000 11.3 330 17:37 05.02.2020
3096 Clouds 2 1025 47 10000 12.3 330 17:18 05.02.2020
3097 Clouds 3 1024 48 10000 13.4 330 16:44 05.02.2020
3098 Clouds 3 1024 48 10000 13.4 330 16:25 05.02.2020
3099 Clouds 3 1023 48 10000 14.4 330 15:59 05.02.2020
3100 Clouds 3 1023 48 10000 14.4 330 15:59 05.02.2020
3101 Clouds 4 1023 48 10000 14.4 330 15:40 05.02.2020
3102 Clouds 4 1023 60 10000 10.8 340 15:19 05.02.2020
3103 Clouds 4 1022 60 10000 10.8 330 14:54 05.02.2020
3104 Clouds 4 1022 55 10000 11.3 340 14:36 05.02.2020
3105 Clouds 4 1022 55 10000 11.3 340 14:18 05.02.2020
3106 Rain 4 1020 64 10000 10.3 340 13:40 05.02.2020
3107 Rain 4 1020 64 10000 10.3 340 13:22 05.02.2020
3108 Clouds 4 1019 65 10000 11.3 340 12:43 05.02.2020
3109 Clouds 4 1019 65 10000 11.3 340 12:43 05.02.2020
3110 Clouds 4 1019 65 10000 11.3 340 12:24 05.02.2020
3111 Clouds 4 1018 65 10000 11.8 330 11:57 05.02.2020
3112 Clouds 4 1017 65 10000 11.8 330 11:38 05.02.2020
3113 Clouds 4 1017 65 10000 11.8 330 11:20 05.02.2020
3114 Clouds 4 1016 65 10000 11.3 330 10:42 05.02.2020
3115 Clouds 4 1016 65 10000 11.3 330 10:24 05.02.2020
3116 Clouds 4 1016 65 10000 11.3 320 09:58 05.02.2020
3117 Clouds 4 1015 69 10000 11.8 320 09:37 05.02.2020
3118 Clouds 4 1015 69 10000 11.8 320 09:19 05.02.2020
3119 Clouds 4 1014 69 10000 11.3 320 08:44 05.02.2020
3120 Clouds 3 1014 69 10000 10.3 320 08:24 05.02.2020
3121 Clouds 3 1013 69 10000 10.3 320 07:55 05.02.2020
3122 Clouds 3 1012 69 10000 10.3 320 07:33 05.02.2020
3123 Clouds 3 1012 74 10000 9.8 320 06:50 05.02.2020
3124 Rain 3 1012 64 10000 10.3 320 06:23 05.02.2020
3125 Rain 3 1011 64 10000 9.8 320 05:54 05.02.2020
3126 Snow 3 1010 69 10000 11.8 320 05:19 05.02.2020
3127 Snow 3 1010 67 10000 12.3 320 04:52 05.02.2020
3128 Rain 3 1009 69 10000 10.3 310 03:52 05.02.2020
3129 Clouds 3 1009 69 10000 12.3 310 02:26 05.02.2020
3130 Clouds 3 1009 69 10000 11.8 310 01:53 05.02.2020
3131 Clouds 4 1010 64 10000 10.3 320 00:43 05.02.2020
3132 Clouds 3 1009 64 10000 10.3 310 23:58 04.02.2020
3133 Clouds 3 1009 69 10000 10.8 310 23:39 04.02.2020
3134 Clouds 3 1009 69 10000 10.8 310 23:18 04.02.2020
3135 Clouds 3 1009 69 10000 9.8 320 22:56 04.02.2020
3136 Clouds 3 1009 64 10000 10.3 310 22:38 04.02.2020
3137 Clouds 3 1009 64 10000 10.3 310 22:19 04.02.2020
3138 Clouds 3 1008 64 10000 10.3 310 21:54 04.02.2020
3139 Clouds 3 1008 64 10000 10.3 310 21:54 04.02.2020
3140 Clouds 3 1008 64 10000 11.3 300 21:36 04.02.2020
3141 Clouds 3 1008 69 10000 8.2 310 21:18 04.02.2020
3142 Clouds 3 1008 64 10000 11.3 310 20:42 04.02.2020
3143 Clouds 3 1008 64 10000 11.3 310 20:21 04.02.2020
3144 Clouds 3 1007 64 10000 10.3 310 19:58 04.02.2020
3145 Clouds 4 1007 60 10000 10.8 310 19:40 04.02.2020
3146 Clouds 4 1007 60 10000 10.8 310 19:22 04.02.2020
3147 Clouds 4 1007 56 10000 11.3 310 18:55 04.02.2020
3148 Clouds 4 1007 60 10000 10.3 310 18:37 04.02.2020
3149 Clouds 4 1007 60 10000 10.3 310 18:18 04.02.2020
3150 Clouds 5 1006 60 10000 10.8 310 17:43 04.02.2020
3151 Rain 5 1006 60 10000 10.8 310 17:21 04.02.2020
3152 Clouds 5 1006 56 10000 11.3 320 17:21 04.02.2020
3153 Clouds 5 1006 56 10000 11.3 320 16:56 04.02.2020
3154 Clouds 5 1005 56 10000 12.9 310 16:37 04.02.2020
3155 Clouds 5 1005 56 10000 12.9 310 16:19 04.02.2020
3156 Clouds 5 1004 60 10000 12.9 320 15:56 04.02.2020
3157 Clouds 5 1004 57 10000 14.4 320 15:37 04.02.2020
3158 Clouds 6 1003 57 10000 13.9 320 15:18 04.02.2020
3159 Clouds 6 1003 57 10000 11.3 310 14:42 04.02.2020
3160 Clouds 6 1003 58 10000 11.3 310 14:23 04.02.2020
3161 Clouds 6 1002 58 10000 13.9 320 13:57 04.02.2020
3162 Clouds 6 1001 60 10000 17 310 13:39 04.02.2020
3163 Clouds 6 1001 60 10000 17 310 13:19 04.02.2020
3164 Clouds 6 1001 54 10000 15.9 310 12:44 04.02.2020
3165 Clouds 6 1001 54 10000 15.9 310 12:26 04.02.2020
3166 Clouds 6 1001 54 10000 17.5 310 11:58 04.02.2020
3167 Clouds 6 1000 61 10000 18.5 310 11:39 04.02.2020
3168 Rain 7 1000 61 10000 18.5 310 11:21 04.02.2020
3169 Rain 7 999 65 10000 17.5 290 10:55 04.02.2020
3170 Rain 7 998 70 8000 18.5 280 10:36 04.02.2020
3171 Rain 7 998 70 8000 18.5 280 10:36 04.02.2020
3172 Rain 8 997 71 10000 15.4 270 10:18 04.02.2020
3173 Rain 8 997 76 10000 10.8 240 09:40 04.02.2020
3174 Rain 9 997 76 10000 10.8 240 09:22 04.02.2020
3175 Rain 9 998 81 10000 5.1 220 08:50 04.02.2020
3176 Rain 8 996 81 10000 4.6 180 08:28 04.02.2020
3177 Rain 8 996 81 10000 4.6 180 08:28 04.02.2020
3178 Rain 8 996 76 10000 5.1 170 07:58 04.02.2020
3179 Clouds 8 997 76 10000 4.6 180 07:39 04.02.2020
3180 Clouds 7 997 76 10000 4.6 180 07:21 04.02.2020
3181 Clouds 7 998 70 10000 7.7 160 06:42 04.02.2020
3182 Rain 7 999 70 10000 6.7 180 05:40 04.02.2020
3183 Rain 7 1001 66 10000 7.2 180 05:22 04.02.2020
3184 Clouds 6 1006 81 10000 2.6 230 03:50 04.02.2020
3185 Clouds 6 1007 75 10000 3.1 230 03:31 04.02.2020
3186 Rain 7 1008 70 10000 4.1 230 02:51 04.02.2020
3187 Clouds 7 1009 70 10000 4.6 230 02:28 04.02.2020
3188 Clouds 7 1010 70 10000 4.1 180 01:50 04.02.2020
3189 Clouds 8 1010 66 10000 6.2 240 01:32 04.02.2020
3190 Clouds 8 1012 66 10000 6.7 250 00:27 04.02.2020
3191 Clouds 8 1013 66 10000 4.6 270 23:57 03.02.2020
3192 Clouds 8 1013 66 10000 5.1 270 23:39 03.02.2020
3193 Clouds 8 1013 66 10000 5.1 270 23:19 03.02.2020
3194 Clouds 8 1013 66 10000 6.2 270 22:39 03.02.2020
3195 Clouds 8 1013 66 10000 5.7 280 22:20 03.02.2020
3196 Clouds 8 1014 66 10000 5.1 280 21:43 03.02.2020
3197 Clouds 8 1014 66 10000 7.7 280 21:20 03.02.2020
3198 Clouds 8 1013 66 10000 8.7 280 20:59 03.02.2020
3199 Clouds 8 1013 66 10000 10.8 290 20:40 03.02.2020
3200 Clouds 8 1013 66 10000 10.8 290 20:19 03.02.2020
3201 Clouds 8 1013 66 10000 10.8 280 19:56 03.02.2020
3202 Clouds 8 1013 66 10000 12.3 280 19:38 03.02.2020
3203 Clouds 8 1013 66 10000 12.3 280 19:19 03.02.2020
3204 Clouds 8 1013 66 10000 12.3 280 19:19 03.02.2020
3205 Clouds 8 1013 66 10000 12.3 280 18:43 03.02.2020
3206 Clouds 8 1013 66 10000 12.3 280 18:24 03.02.2020
3207 Clouds 8 1013 66 10000 11.3 280 17:58 03.02.2020
3208 Clouds 8 1013 66 10000 11.3 280 17:39 03.02.2020
3209 Clouds 8 1013 66 10000 11.3 280 17:20 03.02.2020
3210 Clouds 8 1013 70 10000 9.8 280 16:54 03.02.2020
3211 Clouds 8 1013 70 10000 10.3 280 16:36 03.02.2020
3212 Clouds 8 1013 70 10000 10.3 280 16:18 03.02.2020
3213 Clouds 8 1013 70 10000 10.8 280 15:54 03.02.2020
3214 Clouds 8 1014 75 10000 8.2 280 15:36 03.02.2020
3215 Clouds 8 1014 75 10000 8.2 280 15:36 03.02.2020
3216 Clouds 8 1014 70 10000 11.3 280 15:18 03.02.2020
3217 Clouds 8 1013 75 10000 10.8 270 14:39 03.02.2020
3218 Rain 8 1013 75 10000 10.8 270 14:21 03.02.2020
3219 Rain 8 1013 75 10000 11.3 270 13:55 03.02.2020
3220 Rain 8 1013 75 10000 12.9 260 13:36 03.02.2020
3221 Rain 8 1013 75 10000 11.8 250 13:18 03.02.2020
3222 Rain 8 1013 75 10000 10.8 270 12:40 03.02.2020
3223 Rain 8 1013 75 10000 10.8 270 12:40 03.02.2020
3224 Rain 8 1013 75 10000 10.8 270 12:22 03.02.2020
3225 Rain 8 1014 81 10000 10.3 270 11:58 03.02.2020
3226 Rain 7 1013 81 10000 10.8 270 11:38 03.02.2020
3227 Rain 7 1013 81 10000 10.8 270 11:18 03.02.2020
3228 Rain 7 1013 81 10000 8.7 280 10:43 03.02.2020
3229 Rain 7 1013 81 10000 8.7 280 10:25 03.02.2020
3230 Rain 7 1013 81 10000 8.7 290 09:49 03.02.2020
3231 Rain 7 1013 81 10000 8.7 290 09:49 03.02.2020
3232 Rain 7 1013 81 10000 8.7 290 09:28 03.02.2020
3233 Rain 7 1013 81 10000 9.3 290 08:59 03.02.2020
3234 Rain 7 1012 81 10000 9.3 290 08:40 03.02.2020
3235 Rain 7 1012 81 10000 9.3 290 08:22 03.02.2020
3236 Rain 7 1012 81 10000 10.3 280 07:42 03.02.2020
3237 Rain 8 1012 81 10000 10.3 280 07:23 03.02.2020
3238 Rain 8 1011 81 10000 9.8 280 06:56 03.02.2020
3239 Rain 8 1011 81 10000 8.2 280 06:31 03.02.2020
3240 Rain 8 1010 81 10000 7.7 280 05:51 03.02.2020
3241 Rain 9 1010 81 10000 8.7 270 05:31 03.02.2020
3242 Rain 9 1010 87 10000 8.2 270 04:45 03.02.2020
3243 Rain 11 1010 62 10000 10.3 280 02:48 03.02.2020
3244 Rain 11 1009 85 0 8.71 286 02:27 03.02.2020
3245 Clouds 13 1008 62 10000 11.3 290 00:49 03.02.2020
3246 Clouds 13 1008 62 10000 12.3 290 00:27 03.02.2020
3247 Clouds 13 1008 67 10000 12.3 290 23:56 02.02.2020
3248 Clouds 13 1008 67 10000 11.3 280 23:36 02.02.2020
3249 Clouds 13 1008 67 10000 11.3 280 23:18 02.02.2020
3250 Clouds 13 1008 67 10000 11.8 280 22:39 02.02.2020
3251 Clouds 13 1008 67 10000 11.8 280 22:39 02.02.2020
3252 Clouds 13 1008 67 10000 11.8 280 22:21 02.02.2020
3253 Clouds 13 1008 71 10000 13.9 280 21:58 02.02.2020
3254 Clouds 12 1008 71 10000 7.7 270 21:39 02.02.2020
3255 Rain 12 1008 71 10000 7.7 270 21:20 02.02.2020
3256 Rain 12 1008 76 10000 5.7 270 20:57 02.02.2020
3257 Rain 12 1008 71 10000 5.1 260 20:39 02.02.2020
3258 Rain 11 1008 71 10000 5.1 260 20:20 02.02.2020
3259 Rain 11 1009 71 10000 2.1 0 19:57 02.02.2020
3260 Rain 11 1009 71 10000 1.5 0 19:38 02.02.2020
3261 Rain 11 1009 71 10000 1.5 0 19:38 02.02.2020
3262 Clouds 11 1009 71 10000 1.5 0 19:20 02.02.2020
3263 Clouds 11 1009 66 10000 2.1 210 18:55 02.02.2020
3264 Rain 11 1009 76 10000 5.1 190 18:37 02.02.2020
3265 Rain 11 1010 66 10000 3.6 180 18:18 02.02.2020
3266 Rain 11 1010 66 10000 3.6 180 17:57 02.02.2020
3267 Clouds 12 1010 71 10000 4.6 210 17:37 02.02.2020
3268 Clouds 12 1010 71 10000 4.6 210 17:18 02.02.2020
3269 Clouds 12 1010 66 10000 4.1 260 16:56 02.02.2020
3270 Clouds 12 1010 66 10000 4.1 250 16:37 02.02.2020
3271 Clouds 12 1010 66 10000 4.1 250 16:18 02.02.2020
3272 Clouds 12 1011 66 10000 5.1 250 15:54 02.02.2020
3273 Rain 12 1012 66 10000 4.6 260 15:36 02.02.2020
3274 Rain 12 1012 54 10000 4.6 270 15:18 02.02.2020
3275 Clouds 13 1012 54 10000 7.2 280 14:41 02.02.2020
3276 Clouds 13 1012 54 10000 7.2 280 14:19 02.02.2020
3277 Clouds 14 1013 54 10000 8.2 280 13:58 02.02.2020
3278 Clouds 14 1013 54 10000 8.7 270 13:39 02.02.2020
3279 Clouds 14 1013 54 10000 8.7 270 13:20 02.02.2020
3280 Clouds 14 1014 58 10000 9.8 270 12:55 02.02.2020
3281 Clouds 13 1014 58 10000 9.8 270 12:36 02.02.2020
3282 Clouds 13 1014 58 10000 9.8 270 12:18 02.02.2020
3283 Clouds 12 1014 58 10000 7.7 280 11:41 02.02.2020
3284 Clouds 12 1013 62 10000 9.8 300 11:19 02.02.2020
3285 Clouds 12 1013 62 10000 9.8 300 10:56 02.02.2020
3286 Clouds 11 1014 62 10000 8.2 290 10:37 02.02.2020
3287 Clouds 11 1014 62 10000 8.2 290 10:19 02.02.2020
3288 Clouds 10 1015 66 10000 7.7 280 09:56 02.02.2020
3289 Clouds 10 1015 71 10000 7.7 280 09:38 02.02.2020
3290 Clouds 9 1015 71 10000 7.7 280 09:19 02.02.2020
3291 Clouds 9 1014 76 10000 7.7 280 08:43 02.02.2020
3292 Clouds 8 1014 76 10000 7.7 280 08:24 02.02.2020
3293 Clouds 8 1014 75 10000 5.1 270 07:47 02.02.2020
3294 Clouds 8 1014 75 10000 5.1 270 07:28 02.02.2020
3295 Clouds 8 1014 75 10000 7.2 280 06:44 02.02.2020
3296 Clouds 8 1014 75 10000 7.2 280 06:26 02.02.2020
3297 Clouds 7 1013 75 10000 6.2 290 05:48 02.02.2020
3298 Rain 8 1012 81 10000 9.3 310 04:48 02.02.2020
3299 Rain 10 1011 66 10000 7.7 270 03:30 02.02.2020
3300 Clouds 11 1007 75 0 3.58 210 02:35 02.02.2020
3301 Clouds 11 1010 71 10000 8.2 280 01:55 02.02.2020
3302 Clouds 12 1000 83 0 0.89 247 01:26 02.02.2020
3303 Clouds 12 1007 76 0 1.79 233 00:44 02.02.2020
3304 Clouds 12 1010 67 10000 8.7 270 00:23 02.02.2020
3305 Clouds 12 1009 62 10000 11.3 270 23:47 01.02.2020
3306 Clouds 13 1009 62 10000 11.3 270 23:23 01.02.2020
3307 Clouds 13 1009 58 10000 9.8 270 22:59 01.02.2020
3308 Clouds 13 1009 58 10000 9.8 270 22:41 01.02.2020
3309 Clouds 13 1009 58 10000 7.7 270 22:18 01.02.2020
3310 Clouds 13 1009 62 10000 4.1 260 21:39 01.02.2020
3311 Clouds 12 1008 81 10000 5.7 170 21:18 01.02.2020
3312 Clouds 11 1008 81 10000 5.1 170 20:41 01.02.2020
3313 Clouds 10 1008 81 10000 5.1 170 20:20 01.02.2020
3314 Clouds 9 1008 81 10000 3.6 160 19:57 01.02.2020
3315 Clouds 9 1008 71 10000 4.1 220 19:39 01.02.2020
3316 Clouds 10 1008 71 10000 4.1 220 19:20 01.02.2020
3317 Clouds 10 1009 76 10000 2.1 270 18:58 01.02.2020
3318 Clouds 10 1009 76 10000 2.1 270 18:40 01.02.2020
3319 Clouds 10 1008 76 10000 1.5 0 18:22 01.02.2020
3320 Clouds 11 1008 76 10000 3.6 150 17:58 01.02.2020
3321 Clouds 11 1009 71 10000 4.1 160 17:39 01.02.2020
3322 Clouds 12 1009 71 10000 4.1 160 17:20 01.02.2020
3323 Clouds 13 1009 62 10000 3.6 140 16:56 01.02.2020
3324 Clouds 13 1009 62 10000 4.1 140 16:38 01.02.2020
3325 Clouds 14 1009 62 10000 4.1 140 16:19 01.02.2020
3326 Clouds 14 1009 58 10000 4.1 140 15:41 01.02.2020
3327 Clouds 15 1009 58 10000 4.1 140 15:22 01.02.2020
3328 Clouds 16 1009 51 10000 5.1 140 14:57 01.02.2020
3329 Clouds 15 1009 55 10000 5.7 140 14:38 01.02.2020
3330 Clouds 16 1009 55 10000 5.7 140 14:20 01.02.2020
3331 Clouds 16 1010 51 10000 4.6 140 13:43 01.02.2020
3332 Clouds 16 1010 55 10000 4.6 140 13:18 01.02.2020
3333 Clouds 16 1011 58 10000 4.1 140 12:43 01.02.2020
3334 Clouds 16 1011 58 10000 4.1 140 12:24 01.02.2020
3335 Clouds 16 1011 54 10000 4.6 150 11:56 01.02.2020
3336 Clouds 16 1012 54 10000 4.1 170 11:37 01.02.2020
3337 Clouds 13 1012 58 10000 3.1 170 11:18 01.02.2020
3338 Clouds 13 1012 58 10000 3.1 170 10:55 01.02.2020
3339 Clouds 13 1012 66 10000 4.1 160 10:37 01.02.2020
3340 Clouds 11 1012 66 10000 4.1 160 10:18 01.02.2020
3341 Clouds 11 1012 71 10000 4.6 180 09:41 01.02.2020
3342 Clouds 11 1012 71 10000 3.6 170 09:41 01.02.2020
3343 Clouds 11 1012 71 10000 4.6 180 09:23 01.02.2020
3344 Clouds 9 1013 76 10000 3.1 190 08:59 01.02.2020
3345 Clouds 7 1013 81 10000 2.1 180 08:36 01.02.2020
3346 Clouds 7 1012 81 10000 3.1 200 07:46 01.02.2020
3347 Clouds 7 1012 81 10000 3.1 200 07:25 01.02.2020
3348 Clouds 7 1012 76 10000 1 160 06:50 01.02.2020
3349 Clouds 6 1012 76 10000 1 160 06:50 01.02.2020
3350 Clouds 7 1013 81 10000 4.6 220 06:19 01.02.2020
3351 Clouds 8 1012 66 10000 2.1 230 05:50 01.02.2020
3352 Clouds 8 1013 71 10000 5.1 290 03:40 01.02.2020
3353 Clouds 9 1013 66 10000 4.1 270 03:20 01.02.2020
3354 Clouds 9 1013 66 10000 3.1 220 02:41 01.02.2020
3355 Clouds 10 1013 66 10000 3.1 250 02:22 01.02.2020
3356 Clouds 11 1013 66 10000 4.1 260 01:48 01.02.2020
3357 Clouds 11 1013 62 10000 6.7 300 01:28 01.02.2020
3358 Clouds 11 1013 62 10000 7.7 280 00:25 01.02.2020
3359 Clouds 10 1013 66 10000 6.7 280 23:42 31.01.2020
3360 Clouds 11 1013 66 10000 6.7 280 23:19 31.01.2020
3361 Clouds 11 1013 62 10000 6.7 280 22:58 31.01.2020
3362 Clouds 11 1013 62 10000 6.7 280 22:40 31.01.2020
3363 Clouds 11 1013 67 10000 6.2 300 22:21 31.01.2020
3364 Clouds 11 1012 67 10000 6.2 290 21:55 31.01.2020
3365 Clouds 11 1012 71 10000 4.6 310 21:37 31.01.2020
3366 Clouds 11 1012 71 10000 4.6 310 21:19 31.01.2020
3367 Clouds 11 1012 71 10000 4.1 300 20:56 31.01.2020
3368 Clouds 12 1012 71 10000 5.7 300 20:37 31.01.2020
3369 Clouds 12 1012 67 10000 6.2 290 20:18 31.01.2020
3370 Clouds 12 1012 67 10000 6.2 290 19:55 31.01.2020
3371 Clouds 12 1012 67 10000 6.2 280 19:36 31.01.2020
3372 Clouds 13 1012 67 10000 6.7 280 19:18 31.01.2020
3373 Clouds 13 1012 67 10000 7.7 280 18:39 31.01.2020
3374 Clouds 13 1012 67 10000 7.7 280 18:21 31.01.2020
3375 Clouds 13 1011 67 10000 7.2 280 17:46 31.01.2020
3376 Clouds 13 1011 62 10000 7.2 280 17:28 31.01.2020
3377 Clouds 14 1011 62 10000 9.8 280 16:59 31.01.2020
3378 Clouds 14 1010 58 10000 7.7 280 16:39 31.01.2020
3379 Clouds 14 1010 58 10000 7.7 280 16:19 31.01.2020
3380 Clouds 14 1010 62 10000 8.7 280 15:58 31.01.2020
3381 Clouds 14 1010 62 10000 9.3 280 15:40 31.01.2020
3382 Clouds 14 1010 62 10000 9.3 280 15:20 31.01.2020
3383 Clouds 14 1010 62 10000 8.7 280 14:45 31.01.2020
3384 Clouds 14 1010 62 10000 7.2 270 14:26 31.01.2020
3385 Clouds 14 1009 62 10000 9.3 280 13:59 31.01.2020
3386 Clouds 14 1009 62 10000 8.2 270 13:38 31.01.2020
3387 Clouds 14 1009 62 10000 8.2 270 13:20 31.01.2020
3388 Clouds 14 1009 67 10000 7.2 290 12:45 31.01.2020
3389 Clouds 14 1009 67 10000 7.2 290 12:24 31.01.2020
3390 Clouds 13 1009 67 10000 9.3 280 11:56 31.01.2020
3391 Clouds 13 1009 67 10000 9.3 280 11:37 31.01.2020
3392 Clouds 13 1009 71 10000 8.2 270 11:19 31.01.2020
3393 Clouds 12 1008 76 10000 7.7 270 10:44 31.01.2020
3394 Clouds 12 1008 76 10000 7.7 270 10:44 31.01.2020
3395 Clouds 12 1008 76 10000 7.7 270 10:23 31.01.2020
3396 Clouds 11 1008 76 10000 9.8 280 09:59 31.01.2020
3397 Clouds 11 1008 76 10000 9.8 290 09:41 31.01.2020
3398 Clouds 11 1008 76 10000 9.8 290 09:41 31.01.2020
3399 Clouds 10 1008 76 10000 9.8 290 09:21 31.01.2020
3400 Clouds 10 1008 71 10000 10.8 280 08:54 31.01.2020
3401 Clouds 9 1008 71 10000 8.7 280 08:28 31.01.2020
3402 Clouds 9 1007 76 10000 9.3 280 07:59 31.01.2020
3403 Clouds 8 1007 87 10000 7.2 270 07:40 31.01.2020
3404 Clouds 8 1008 86 10000 2.6 170 07:18 31.01.2020
3405 Clouds 7 1008 56 10000 2.6 180 06:27 31.01.2020
3406 Clouds 6 1008 86 10000 4.1 180 05:53 31.01.2020
3407 Clouds 3 1009 80 10000 3.1 180 05:18 31.01.2020
3408 Clouds 2 1010 54 10000 2.6 190 03:47 31.01.2020
3409 Clouds 1 1010 80 10000 2.6 170 01:44 31.01.2020
3410 Clouds 1 1011 80 10000 3.6 200 00:47 31.01.2020
3411 Clouds 1 1011 80 10000 3.6 190 00:29 31.01.2020
3412 Clouds 1 1011 62 10000 3.6 170 23:58 30.01.2020
3413 Clouds 1 1012 74 10000 2.6 210 23:39 30.01.2020
3414 Clouds 1 1012 74 10000 2.6 210 23:20 30.01.2020
3415 Clouds 1 1012 74 10000 2.1 180 22:38 30.01.2020
3416 Clouds 1 1012 74 10000 2.1 180 22:19 30.01.2020
3417 Clouds 2 1012 69 10000 1.5 190 21:57 30.01.2020
3418 Clouds 2 1013 74 10000 1 0 21:39 30.01.2020
3419 Clouds 2 1013 74 10000 1 0 21:18 30.01.2020
3420 Clouds 2 1013 74 10000 2.6 190 21:18 30.01.2020
3421 Clouds 2 1013 74 10000 2.6 190 20:55 30.01.2020
3422 Clouds 2 1013 69 10000 1.5 160 20:37 30.01.2020
3423 Clouds 2 1013 69 10000 2.1 120 20:18 30.01.2020
3424 Clouds 3 1013 69 10000 2.1 120 19:42 30.01.2020
3425 Clouds 4 1013 65 10000 2.1 130 19:19 30.01.2020
3426 Clouds 4 1014 69 10000 2.1 160 18:43 30.01.2020
3427 Clouds 4 1014 69 10000 2.1 160 18:24 30.01.2020
3428 Clouds 5 1014 69 10000 2.1 170 17:59 30.01.2020
3429 Clouds 5 1014 69 10000 2.1 170 17:40 30.01.2020
3430 Clouds 6 1014 65 10000 1 0 17:19 30.01.2020
3431 Clouds 6 1014 65 10000 2.1 200 16:58 30.01.2020
3432 Clouds 7 1014 65 0 5.1 230 16:39 30.01.2020
3433 Clouds 7 1014 57 10000 3.1 280 16:20 30.01.2020
3434 Clouds 8 1015 57 10000 5.7 290 15:44 30.01.2020
3435 Clouds 8 1015 57 10000 5.7 290 15:21 30.01.2020
3436 Clouds 8 1015 57 10000 5.7 290 15:21 30.01.2020
3437 Clouds 8 1015 65 10000 3.6 240 14:57 30.01.2020
3438 Clouds 8 1016 65 10000 3.1 250 14:37 30.01.2020
3439 Clouds 8 1016 58 10000 3.1 250 14:19 30.01.2020
3440 Clouds 8 1016 52 10000 4.1 180 13:41 30.01.2020
3441 Clouds 8 1016 52 10000 4.1 180 13:23 30.01.2020
3442 Clouds 8 1016 49 10000 5.1 180 12:55 30.01.2020
3443 Clouds 8 1017 55 10000 4.6 180 12:37 30.01.2020
3444 Clouds 8 1017 55 10000 4.6 180 12:37 30.01.2020
3445 Clouds 7 1017 55 10000 4.6 180 12:18 30.01.2020
3446 Clouds 7 1017 65 10000 4.6 270 11:41 30.01.2020
3447 Clouds 6 1017 65 10000 4.6 270 11:22 30.01.2020
3448 Clouds 6 1017 70 10000 6.7 280 10:58 30.01.2020
3449 Clouds 5 1017 69 10000 7.7 290 10:39 30.01.2020
3450 Clouds 5 1017 69 10000 7.7 290 10:20 30.01.2020
3451 Clouds 5 1017 69 10000 5.7 280 09:45 30.01.2020
3452 Clouds 4 1018 69 10000 5.1 270 09:24 30.01.2020
3453 Clouds 3 1018 69 10000 7.2 280 08:42 30.01.2020
3454 Clouds 3 1018 69 10000 7.2 280 08:22 30.01.2020
3455 Clouds 3 1018 64 10000 5.7 280 07:58 30.01.2020
3456 Clouds 3 1018 64 10000 5.7 280 07:39 30.01.2020
3457 Clouds 2 1017 64 10000 5.1 290 07:18 30.01.2020
3458 Clouds 2 1017 69 10000 5.1 280 06:43 30.01.2020
3459 Clouds 2 1017 69 10000 5.1 280 06:25 30.01.2020
3460 Clouds 2 1017 69 10000 5.7 280 05:29 30.01.2020
3461 Clouds 2 1017 74 10000 5.1 270 04:57 30.01.2020
3462 Clouds 2 1016 69 10000 3.6 260 03:48 30.01.2020
3463 Clouds 3 1016 69 10000 6.7 280 02:59 30.01.2020
3464 Clouds 3 1014 69 10000 8.2 290 01:30 30.01.2020
3465 Clouds 3 1014 74 10000 6.7 280 00:37 30.01.2020
3466 Clouds 3 1014 74 10000 6.7 280 00:18 30.01.2020
3467 Clouds 3 1013 69 10000 6.7 280 23:43 29.01.2020
3468 Clouds 3 1013 69 10000 6.7 280 23:20 29.01.2020
3469 Clouds 3 1013 90 10000 1.5 180 22:56 29.01.2020
3470 Clouds 3 1013 90 10000 1.5 180 22:56 29.01.2020
3471 Clouds 3 1013 90 10000 1 0 22:37 29.01.2020
3472 Clouds 2 1013 90 10000 1 0 22:18 29.01.2020
3473 Clouds 3 1012 90 10000 4.6 280 21:55 29.01.2020
3474 Clouds 3 1012 90 10000 5.7 260 21:36 29.01.2020
3475 Clouds 3 1012 90 10000 5.7 260 21:18 29.01.2020
3476 Rain 3 1011 69 10000 6.2 260 20:54 29.01.2020
3477 Clouds 3 1011 69 10000 5.1 270 20:36 29.01.2020
3478 Clouds 3 1011 69 10000 3.6 250 20:18 29.01.2020
3479 Clouds 3 1011 69 10000 3.6 250 19:54 29.01.2020
3480 Clouds 3 1011 69 10000 5.7 270 19:36 29.01.2020
3481 Clouds 3 1011 69 10000 5.7 270 19:18 29.01.2020
3482 Clouds 3 1010 64 10000 4.1 290 18:38 29.01.2020
3483 Clouds 3 1010 64 10000 4.1 290 18:19 29.01.2020
3484 Clouds 4 1010 60 10000 3.6 260 17:41 29.01.2020
3485 Clouds 4 1010 60 10000 3.6 260 17:23 29.01.2020
3486 Clear 4 1009 56 10000 7.2 290 16:57 29.01.2020
3487 Clear 4 1009 56 10000 7.2 290 16:39 29.01.2020
3488 Clouds 5 1009 48 10000 10.8 300 16:19 29.01.2020
3489 Clouds 5 1009 48 10000 10.8 300 16:19 29.01.2020
3490 Clear 5 1010 60 0 9.3 230 15:39 29.01.2020
3491 Clear 5 1010 60 0 9.3 230 15:21 29.01.2020
3492 Clouds 5 1009 56 10000 8.7 270 14:55 29.01.2020
3493 Clear 5 1009 60 0 10.8 230 14:37 29.01.2020
3494 Rain 5 1009 56 0 10.8 230 14:18 29.01.2020
3495 Rain 5 1008 60 10000 9.8 290 13:40 29.01.2020
3496 Rain 5 1008 60 10000 9.8 290 13:22 29.01.2020
3497 Rain 5 1008 60 10000 7.7 280 12:56 29.01.2020
3498 Rain 4 1008 75 10000 5.7 280 12:38 29.01.2020
3499 Rain 4 1008 75 10000 5.7 280 12:20 29.01.2020
3500 Rain 3 1008 86 10000 5.1 290 11:47 29.01.2020
3501 Rain 3 1008 86 10000 5.1 290 11:24 29.01.2020
3502 Clouds 2 1008 75 10000 2.1 170 10:56 29.01.2020
3503 Snow 2 1008 75 10000 2.1 190 10:37 29.01.2020
3504 Rain 2 1008 75 10000 2.1 190 10:19 29.01.2020
3505 Rain 2 1008 80 10000 2.1 150 09:40 29.01.2020
3506 Rain 1 1008 80 10000 2.1 150 09:21 29.01.2020
3507 Rain 1 1007 80 10000 4.6 180 08:57 29.01.2020
3508 Clouds 1 1007 74 10000 4.1 130 08:39 29.01.2020
3509 Clouds 1 1007 74 10000 4.1 130 08:20 29.01.2020
3510 Clouds 1 1006 64 10000 2.6 220 07:44 29.01.2020
3511 Clouds 1 1006 64 10000 2.6 220 07:24 29.01.2020
3512 Clouds 1 1005 64 10000 4.1 260 06:55 29.01.2020
3513 Clouds 1 1005 69 10000 2.6 220 06:37 29.01.2020
3514 Clouds 1 1005 69 10000 2.6 220 06:18 29.01.2020
3515 Clouds 1 1006 74 10000 3.6 220 05:44 29.01.2020
3516 Clouds 1 1006 74 10000 3.1 300 05:25 29.01.2020
3517 Clear 1 1006 69 10000 6.2 280 04:37 29.01.2020
3518 Clouds 2 1006 69 10000 8.2 270 02:50 29.01.2020
3519 Clouds 3 1005 69 10000 6.7 270 02:18 29.01.2020
3520 Rain 3 1005 65 10000 9.3 290 00:43 29.01.2020
3521 Clouds 3 1005 69 10000 3.6 280 00:24 29.01.2020
3522 Clouds 3 1005 69 10000 3.1 290 23:56 28.01.2020
3523 Clouds 3 1004 69 10000 4.1 290 23:37 28.01.2020
3524 Clouds 3 1004 69 10000 4.1 290 23:18 28.01.2020
3525 Clouds 3 1004 65 10000 8.7 280 22:40 28.01.2020
3526 Clouds 3 1004 65 10000 8.7 280 22:21 28.01.2020
3527 Clouds 3 1003 65 10000 10.8 290 21:42 28.01.2020
3528 Clouds 3 1003 69 10000 6.7 300 21:23 28.01.2020
3529 Clouds 3 1003 69 10000 5.1 280 20:58 28.01.2020
3530 Clouds 3 1003 69 10000 7.2 280 20:40 28.01.2020
3531 Rain 4 1003 80 10000 3.1 270 20:21 28.01.2020
3532 Rain 3 1003 100 10000 1 0 19:39 28.01.2020
3533 Rain 3 1003 100 10000 1 0 19:20 28.01.2020
3534 Rain 3 1003 100 10000 2.6 180 18:58 28.01.2020
3535 Mist 3 1003 93 10000 4.1 190 18:40 28.01.2020
3536 Mist 3 1003 93 10000 4.1 190 18:21 28.01.2020
3537 Clouds 3 1003 93 7000 0.5 0 17:59 28.01.2020
3538 Clouds 3 1003 93 6000 2.6 140 17:38 28.01.2020
3539 Rain 3 1003 93 6000 2.6 140 17:19 28.01.2020
3540 Rain 2 1005 100 4100 3.1 170 16:55 28.01.2020
3541 Rain 2 1005 100 700 4.1 260 16:37 28.01.2020
3542 Rain 2 1003 100 450 1 0 16:19 28.01.2020
3543 Rain 2 1003 100 450 1 0 15:44 28.01.2020
3544 Fog 2 1003 100 350 3.1 110 15:19 28.01.2020
3545 Fog 2 1003 100 350 1 0 14:55 28.01.2020
3546 Rain 2 1003 100 450 2.6 130 14:36 28.01.2020
3547 Fog 2 1003 100 400 3.6 120 14:18 28.01.2020
3548 Fog 2 1003 100 550 3.6 130 13:39 28.01.2020
3549 Fog 2 1003 100 550 3.6 130 13:21 28.01.2020
3550 Fog 2 1003 100 550 3.6 130 13:21 28.01.2020
3551 Fog 2 1004 100 750 3.6 140 12:42 28.01.2020
3552 Fog 2 1004 100 450 3.6 120 12:24 28.01.2020
3553 Fog 2 1004 100 550 4.1 130 11:55 28.01.2020
3554 Fog 2 1005 100 450 3.6 130 11:37 28.01.2020
3555 Fog 1 1005 100 450 3.6 130 11:18 28.01.2020
3556 Fog 1 1006 81 300 2.6 110 10:40 28.01.2020
3557 Rain 1 1006 81 300 2.6 110 10:22 28.01.2020
3558 Rain 1 1006 81 350 2.1 140 09:55 28.01.2020
3559 Rain 1 1006 81 350 2.1 140 09:55 28.01.2020
3560 Rain 1 1006 81 350 1.5 130 09:36 28.01.2020
3561 Fog 0 1007 81 400 2.6 140 09:18 28.01.2020
3562 Fog 0 1006 81 450 4.1 120 08:40 28.01.2020
3563 Fog 0 1006 93 450 4.1 120 08:19 28.01.2020
3564 Fog 0 1006 93 600 4.1 110 07:38 28.01.2020
3565 Fog 0 1006 93 700 4.1 100 06:51 28.01.2020
3566 Fog 0 1006 93 700 2.6 100 06:28 28.01.2020
3567 Fog 0 1007 93 800 2.6 100 05:55 28.01.2020
3568 Fog 0 1007 93 800 4.6 130 05:33 28.01.2020
3569 Fog 0 1007 94 800 5.1 130 04:38 28.01.2020
3570 Mist -1 1007 100 1100 6.7 130 03:33 28.01.2020
3571 Mist -1 1008 100 900 6.7 140 02:25 28.01.2020
3572 Mist -1 1008 100 900 6.7 140 02:25 28.01.2020
3573 Mist -1 1009 100 1000 6.7 140 01:57 28.01.2020
3574 Mist -1 1009 100 1100 7.7 130 01:32 28.01.2020
3575 Fog -1 1010 100 900 7.2 130 00:51 28.01.2020
3576 Fog -1 1011 100 750 6.7 130 00:29 28.01.2020
3577 Fog -1 1011 100 700 7.7 130 23:51 27.01.2020
3578 Fog -1 1011 100 700 7.7 130 23:51 27.01.2020
3579 Rain -1 1012 92 700 5.7 130 23:30 27.01.2020
3580 Rain -1 1012 92 750 6.2 130 22:59 27.01.2020
3581 Rain -1 1013 100 800 6.7 130 22:41 27.01.2020
3582 Fog -1 1014 100 800 5.1 140 22:20 27.01.2020
3583 Fog -1 1014 100 800 5.1 140 21:56 27.01.2020
3584 Fog -1 1014 100 700 5.1 140 21:37 27.01.2020
3585 Fog -1 1014 92 750 4.6 140 21:18 27.01.2020
3586 Fog -1 1014 92 750 4.6 140 20:54 27.01.2020
3587 Fog -1 1015 100 700 4.1 140 20:36 27.01.2020
3588 Fog -1 1015 100 700 4.1 140 20:18 27.01.2020
3589 Fog -1 1015 100 550 2.6 130 19:41 27.01.2020
3590 Fog 0 1015 100 550 2.6 130 19:23 27.01.2020
3591 Fog 0 1016 100 650 3.6 120 18:56 27.01.2020
3592 Fog 0 1016 100 500 2.6 110 18:38 27.01.2020
3593 Fog 0 1016 100 500 2.6 110 18:19 27.01.2020
3594 Fog 1 1016 100 650 3.6 150 17:39 27.01.2020
3595 Fog 1 1016 100 650 3.6 150 17:21 27.01.2020
3596 Fog 1 1016 100 650 3.6 150 16:59 27.01.2020
3597 Fog 1 1017 74 1000 2.6 140 16:41 27.01.2020
3598 Fog 2 1017 74 1000 2.6 140 16:23 27.01.2020
3599 Mist 2 1017 74 2400 1 0 15:55 27.01.2020
3600 Mist 2 1017 74 3600 1 0 15:37 27.01.2020
3601 Mist 2 1017 74 3600 1 0 15:37 27.01.2020
3602 Mist 2 1017 74 3600 1 0 15:18 27.01.2020
3603 Mist 2 1017 74 2800 2.6 130 14:42 27.01.2020
3604 Mist 2 1017 61 2800 2.6 130 14:22 27.01.2020
3605 Fog 3 1018 61 1300 3.1 120 13:58 27.01.2020
3606 Fog 3 1018 61 1300 3.1 120 13:40 27.01.2020
3607 Fog 3 1018 66 1200 1.5 110 13:20 27.01.2020
3608 Fog 3 1018 66 900 1.5 100 12:54 27.01.2020
3609 Fog 3 1019 100 600 1.5 110 12:36 27.01.2020
3610 Fog 2 1019 100 600 1.5 110 12:18 27.01.2020
3611 Fog 2 1019 100 550 1.5 110 11:41 27.01.2020
3612 Fog 2 1019 100 550 1.5 110 11:41 27.01.2020
3613 Fog 1 1019 100 450 1.5 100 11:20 27.01.2020
3614 Fog 0 1019 100 400 1 0 10:43 27.01.2020
3615 Fog 0 1019 100 400 1 0 10:24 27.01.2020
3616 Fog 0 1019 100 400 1 0 09:56 27.01.2020
3617 Fog 0 1019 100 350 0.5 0 09:38 27.01.2020
3618 Fog 0 1019 100 350 0.5 0 09:18 27.01.2020
3619 Fog -1 1019 100 350 1 30 08:42 27.01.2020
3620 Fog -1 1019 92 400 1 0 08:20 27.01.2020
3621 Fog -1 1019 100 500 1 130 07:54 27.01.2020
3622 Fog -1 1019 100 600 0.5 0 07:34 27.01.2020
3623 Fog -1 1019 100 550 0.5 0 06:53 27.01.2020
3624 Fog -1 1019 100 750 0.5 0 06:25 27.01.2020
3625 Clouds -1 1019 100 800 1 0 05:23 27.01.2020
3626 Mist -1 1020 100 800 0.5 0 03:49 27.01.2020
3627 Fog -1 1020 100 800 1 0 02:38 27.01.2020
3628 Mist -1 1020 100 1200 1 0 01:29 27.01.2020
3629 Mist -1 1021 100 1900 1.5 110 00:57 27.01.2020
3630 Mist -1 1021 100 3500 2.1 130 00:36 27.01.2020
3631 Mist -1 1021 100 4100 2.1 130 00:18 27.01.2020
3632 Mist -1 1021 100 3500 2.1 130 00:18 27.01.2020
3633 Mist -1 1021 100 4100 2.1 130 23:41 26.01.2020
3634 Mist -1 1021 100 5000 1.5 120 23:41 26.01.2020
3635 Mist -1 1021 100 5000 1.5 120 23:19 26.01.2020
3636 Mist -1 1021 100 5000 1.5 130 22:54 26.01.2020
3637 Mist -1 1021 100 4800 2.1 140 22:36 26.01.2020
3638 Mist -1 1021 100 4800 2.1 140 22:18 26.01.2020
3639 Mist -1 1021 100 4200 2.1 150 21:55 26.01.2020
3640 Mist -1 1021 100 4200 2.1 170 21:37 26.01.2020
3641 Mist -1 1021 100 4200 2.1 170 21:18 26.01.2020
3642 Mist -1 1021 100 4200 2.1 170 21:18 26.01.2020
3643 Mist -1 1021 100 4700 1 0 20:55 26.01.2020
3644 Mist -1 1021 100 5000 2.1 180 20:36 26.01.2020
3645 Mist -1 1021 100 5000 2.1 180 20:18 26.01.2020
3646 Mist -1 1021 100 4300 1.5 150 19:41 26.01.2020
3647 Mist -1 1021 100 4300 2.6 160 19:21 26.01.2020
3648 Mist -1 1021 100 4500 1.5 160 18:59 26.01.2020
3649 Mist -1 1021 100 3000 1.5 140 18:40 26.01.2020
3650 Mist -1 1021 100 3000 1.5 140 18:22 26.01.2020
3651 Mist -1 1021 100 1400 1.5 160 17:58 26.01.2020
3652 Mist -1 1021 100 2100 2.1 190 17:38 26.01.2020
3653 Mist -1 1021 100 2100 2.1 190 17:19 26.01.2020
3654 Mist 0 1021 92 2100 2.1 160 16:58 26.01.2020
3655 Mist 0 1021 92 1400 1.5 160 16:39 26.01.2020
3656 Mist 0 1021 92 1400 1.5 160 16:20 26.01.2020
3657 Clear 0 1022 89 0 2.34 113 15:57 26.01.2020
3658 Clear 0 1012 88 0 2.34 113 15:39 26.01.2020
3659 Clear 0 1022 88 0 2.34 113 15:18 26.01.2020
3660 Clear 0 1021 93 0 2.34 113 14:40 26.01.2020
3661 Clouds 0 1013 88 0 2.34 133 14:20 26.01.2020
3662 Clouds 0 1013 88 0 2.34 133 13:43 26.01.2020
3663 Clouds 0 1022 94 0 2.22 124 13:21 26.01.2020
3664 Clouds 0 1023 89 0 2.22 124 12:58 26.01.2020
3665 Clouds 0 1023 89 0 2.22 124 12:40 26.01.2020
3666 Clouds 0 1023 89 0 2.22 124 12:21 26.01.2020
3667 Clouds 0 1014 89 0 2.22 124 11:57 26.01.2020
3668 Clouds 0 1014 89 0 2.22 124 11:39 26.01.2020
3669 Mist -1 1023 92 4700 3.1 150 11:18 26.01.2020
3670 Mist -1 1023 92 4700 3.1 150 10:58 26.01.2020
3671 Mist -1 1023 92 4700 3.1 150 10:38 26.01.2020
3672 Mist -1 1023 92 4700 3.1 150 10:20 26.01.2020
3673 Mist -1 1023 92 3800 2.6 150 09:57 26.01.2020
3674 Mist -1 1023 92 2200 2.6 150 09:39 26.01.2020
3675 Mist -1 1023 92 2200 2.6 150 09:39 26.01.2020
3676 Mist -1 1023 92 2200 2.6 150 09:20 26.01.2020
3677 Mist -1 1023 92 3300 2.6 160 08:43 26.01.2020
3678 Mist -1 1023 92 3300 2.6 160 08:22 26.01.2020
3679 Mist -1 1023 92 2800 2.6 160 07:57 26.01.2020
3680 Mist -1 1023 92 2400 2.6 150 07:39 26.01.2020
3681 Mist -1 1023 92 2400 2.6 150 07:20 26.01.2020
3682 Mist -1 1022 100 4200 2.1 180 06:30 26.01.2020
3683 Mist -2 1022 100 2000 2.6 160 05:31 26.01.2020
3684 Clouds -2 1022 100 1200 2.6 170 04:45 26.01.2020
3685 Mist -1 1023 100 1100 3.1 120 02:42 26.01.2020
3686 Mist -1 1023 92 2100 2.6 120 01:48 26.01.2020
3687 Mist -1 1023 92 3100 2.1 110 01:24 26.01.2020
3688 Mist -1 1024 100 4400 2.1 170 00:44 26.01.2020
3689 Mist -1 1024 100 4400 2.1 170 00:26 26.01.2020
3690 Clouds -1 1023 93 0 1.07 129 23:41 25.01.2020
3691 Clouds -1 1024 89 0 1.11 127 23:22 25.01.2020
3692 Clouds -1 1024 91 0 0.45 215 22:58 25.01.2020
3693 Clouds -1 1022 86 0 1.11 127 22:40 25.01.2020
3694 Clouds -1 1022 86 0 1.11 127 22:19 25.01.2020
3695 Clouds -1 1023 93 0 1.11 127 21:57 25.01.2020
3696 Clouds -1 1024 90 0 1.11 127 21:38 25.01.2020
3697 Clouds -1 1024 90 0 1.11 127 21:19 25.01.2020
3698 Clouds -1 1024 84 0 1.11 127 20:44 25.01.2020
3699 Clouds -1 1014 90 0 1.21 171 20:25 25.01.2020
3700 Clouds -1 1024 83 0 1.12 169 19:55 25.01.2020
3701 Clouds -1 1015 90 0 1.12 169 19:37 25.01.2020
3702 Clouds 0 1023 90 0 1.12 169 19:18 25.01.2020
3703 Clouds 0 1024 90 0 1.12 169 18:41 25.01.2020
3704 Clouds 0 1023 90 0 1.12 169 18:21 25.01.2020
3705 Clouds 0 1014 89 0 1.12 169 17:58 25.01.2020
3706 Clouds 0 1024 89 0 1.12 169 17:38 25.01.2020
3707 Clouds 0 1023 89 0 1.31 132 17:18 25.01.2020
3708 Clouds 0 1023 89 0 1.39 128 16:42 25.01.2020
3709 Clouds 0 1023 89 0 1.39 128 16:23 25.01.2020
3710 Clouds 0 1024 89 0 1.39 128 15:58 25.01.2020
3711 Clouds 0 1021 85 0 1.39 128 15:39 25.01.2020
3712 Clouds 0 1021 84 0 1.39 128 15:20 25.01.2020
3713 Clouds 0 1024 89 0 1.39 128 15:20 25.01.2020
3714 Clouds 0 1024 88 0 1.39 128 14:42 25.01.2020
3715 Clouds 0 1023 90 0 1.32 148 14:19 25.01.2020
3716 Clouds 1 1024 88 0 1.32 148 13:45 25.01.2020
3717 Clouds 0 1024 88 0 1.05 130 13:27 25.01.2020
3718 Mist 0 1025 100 1300 1.5 210 12:58 25.01.2020
3719 Mist 0 1024 92 2300 2.1 200 12:39 25.01.2020
3720 Mist 0 1024 92 2300 2.1 200 12:20 25.01.2020
3721 Mist 0 1024 66 1600 1 240 11:40 25.01.2020
3722 Snow 0 1024 100 1800 2.6 170 11:20 25.01.2020
3723 Mist 0 1024 100 2200 2.1 190 10:56 25.01.2020
3724 Mist 0 1024 100 2000 1.5 170 10:38 25.01.2020
3725 Mist 0 1024 100 2000 1.5 170 10:18 25.01.2020
3726 Mist -1 1024 100 1700 1.5 230 09:40 25.01.2020
3727 Mist -1 1024 100 1700 1.5 230 09:19 25.01.2020
3728 Clouds -1 1024 100 1100 2.1 240 08:43 25.01.2020
3729 Clouds -1 1023 100 1200 3.1 200 07:58 25.01.2020
3730 Fog -1 1023 100 900 2.1 220 07:36 25.01.2020
3731 Fog -1 1023 100 900 2.1 220 07:36 25.01.2020
3732 Fog -1 1023 100 800 2.1 240 06:41 25.01.2020
3733 Fog -1 1023 100 900 2.1 240 06:22 25.01.2020
3734 Mist -1 1023 100 1100 2.6 220 05:43 25.01.2020
3735 Mist -1 1023 100 1300 2.1 220 04:24 25.01.2020
3736 Mist -2 1023 100 1500 1.5 220 03:50 25.01.2020
3737 Mist -2 1024 100 1400 2.6 170 02:38 25.01.2020
3738 Mist -2 1024 100 1300 2.6 170 01:57 25.01.2020
3739 Mist -2 1024 92 2200 3.1 170 01:23 25.01.2020
3740 Rain -2 1024 92 2800 2.6 160 00:41 25.01.2020
3741 Rain -2 1024 92 2800 2.6 160 00:41 25.01.2020
3742 Mist -2 1024 92 2800 2.6 160 00:22 25.01.2020
3743 Mist -1 1025 92 3500 1.5 160 23:42 24.01.2020
3744 Mist -1 1025 92 3500 1.5 160 23:24 24.01.2020
3745 Mist -1 1025 92 4300 1.5 140 22:47 24.01.2020
3746 Mist -1 1025 92 4300 1.5 140 22:28 24.01.2020
3747 Mist -1 1025 92 4700 1.5 110 21:59 24.01.2020
3748 Mist -1 1025 92 4700 1.5 110 21:40 24.01.2020
3749 Mist -1 1025 92 5000 0.5 0 21:19 24.01.2020
3750 Mist -1 1025 92 5000 2.1 220 20:44 24.01.2020
3751 Mist -1 1025 92 5000 2.1 210 20:22 24.01.2020
3752 Mist -1 1025 92 5000 2.1 200 19:59 24.01.2020
3753 Clouds -1 1024 86 6000 1.5 180 19:40 24.01.2020
3754 Clouds -1 1024 86 6000 1.5 180 19:22 24.01.2020
3755 Clouds -1 1025 86 6000 2.6 170 18:56 24.01.2020
3756 Clouds -1 1025 86 7000 2.6 150 18:37 24.01.2020
3757 Clouds -1 1025 86 7000 2.6 150 18:19 24.01.2020
3758 Clouds -1 1024 86 7000 3.1 160 17:42 24.01.2020
3759 Clouds 0 1024 86 7000 2.1 160 17:21 24.01.2020
3760 Clouds 0 1024 86 7000 2.1 160 17:21 24.01.2020
3761 Clouds 0 1025 86 7000 1.5 180 16:55 24.01.2020
3762 Clouds 0 1025 86 7000 3.1 180 16:36 24.01.2020
3763 Clouds 0 1025 86 8000 2.6 180 16:18 24.01.2020
3764 Clouds 0 1025 86 8000 2.6 180 16:18 24.01.2020
3765 Clouds 0 1025 86 8000 2.6 180 15:40 24.01.2020
3766 Clouds 0 1025 86 8000 2.6 160 15:20 24.01.2020
3767 Clouds 1 1025 86 8000 3.6 150 14:42 24.01.2020
3768 Clouds 1 1025 86 8000 3.6 150 14:23 24.01.2020
3769 Clouds 0 1026 86 7000 3.1 180 13:57 24.01.2020
3770 Clouds 0 1026 86 8000 3.1 180 13:39 24.01.2020
3771 Clouds 0 1026 86 8000 3.1 180 13:19 24.01.2020
3772 Clouds 0 1027 86 7000 2.6 170 12:42 24.01.2020
3773 Clouds 0 1027 86 7000 2.6 170 12:19 24.01.2020
3774 Clouds 0 1027 86 7000 2.6 180 11:44 24.01.2020
3775 Clouds 0 1027 92 7000 3.6 180 11:19 24.01.2020
3776 Clouds 0 1027 92 7000 3.6 170 10:43 24.01.2020
3777 Clouds -1 1027 92 8000 3.1 170 10:23 24.01.2020
3778 Clouds -1 1027 92 7000 3.1 190 09:59 24.01.2020
3779 Clouds -1 1027 92 7000 3.1 190 09:40 24.01.2020
3780 Clouds -1 1027 92 6000 3.1 180 09:22 24.01.2020
3781 Clouds -1 1027 92 6000 2.6 150 08:41 24.01.2020
3782 Clouds -2 1027 92 6000 2.6 150 08:20 24.01.2020
3783 Clouds -2 1027 92 6000 3.6 150 07:53 24.01.2020
3784 Clouds -1 1027 92 6000 2.6 140 07:34 24.01.2020
3785 Clouds -1 1027 92 6000 3.6 140 06:48 24.01.2020
3786 Clouds -1 1026 92 6000 3.6 150 06:29 24.01.2020
3787 Clouds -2 1026 92 6000 4.6 140 05:59 24.01.2020
3788 Clouds -2 1026 92 6000 6.2 130 04:57 24.01.2020
3789 Clear -2 1026 92 8000 7.2 130 02:53 24.01.2020
3790 Clear -1 1026 86 10000 7.2 140 02:26 24.01.2020
3791 Clear -1 1026 86 10000 7.2 140 02:26 24.01.2020
3792 Clear -1 1026 86 10000 7.2 140 01:46 24.01.2020
3793 Clear -1 1027 86 10000 6.7 130 01:28 24.01.2020
3794 Clear -1 1028 80 10000 8.2 130 00:25 24.01.2020
3795 Clear -1 1028 80 10000 7.7 130 23:49 23.01.2020
3796 Clear -1 1028 80 10000 8.7 140 23:31 23.01.2020
3797 Clear -1 1028 80 10000 8.7 130 22:59 23.01.2020
3798 Clear -1 1029 80 10000 8.7 140 22:38 23.01.2020
3799 Clear -1 1029 80 10000 8.7 140 22:38 23.01.2020
3800 Clear -1 1029 80 10000 8.7 140 22:19 23.01.2020
3801 Clear -1 1029 80 10000 6.7 130 21:57 23.01.2020
3802 Clear 0 1029 80 10000 5.7 130 21:39 23.01.2020
3803 Clear 0 1029 80 10000 5.7 130 21:20 23.01.2020
3804 Clear 0 1029 80 10000 6.2 130 20:59 23.01.2020
3805 Clear 0 1030 80 10000 5.7 130 20:38 23.01.2020
3806 Clear 0 1030 80 10000 5.7 130 20:20 23.01.2020
3807 Clear 0 1030 80 10000 5.7 140 19:56 23.01.2020
3808 Clear 0 1030 80 10000 4.1 130 19:38 23.01.2020
3809 Clear 0 1030 80 10000 4.1 130 19:19 23.01.2020
3810 Clear 1 1030 80 10000 4.1 130 18:43 23.01.2020
3811 Clear 1 1030 80 10000 4.1 130 18:21 23.01.2020
3812 Clear 1 1031 74 10000 3.6 130 17:59 23.01.2020
3813 Clear 1 1031 74 10000 3.6 120 17:40 23.01.2020
3814 Clear 2 1031 69 10000 3.6 120 17:20 23.01.2020
3815 Clear 2 1031 69 10000 3.6 120 17:20 23.01.2020
3816 Clear 2 1031 69 10000 3.6 120 16:57 23.01.2020
3817 Clear 3 1031 64 10000 4.1 120 16:37 23.01.2020
3818 Clear 3 1031 64 10000 4.1 120 16:18 23.01.2020
3819 Clear 4 1032 60 10000 4.1 130 15:56 23.01.2020
3820 Clouds 4 1032 60 10000 3.6 140 15:37 23.01.2020
3821 Clouds 5 1032 60 10000 3.6 140 15:18 23.01.2020
3822 Clouds 5 1033 60 10000 3.1 120 14:55 23.01.2020
3823 Clouds 5 1033 60 10000 3.1 130 14:37 23.01.2020
3824 Clouds 5 1033 60 10000 3.1 130 14:19 23.01.2020
3825 Rain 5 1034 60 10000 2.6 140 13:43 23.01.2020
3826 Rain 5 1035 65 10000 1.5 110 13:20 23.01.2020
3827 Rain 5 1035 65 10000 1.5 110 12:54 23.01.2020
3828 Rain 4 1035 69 10000 1.5 110 12:36 23.01.2020
3829 Rain 4 1035 69 10000 1.5 110 12:18 23.01.2020
3830 Rain 4 1036 69 10000 1 0 11:42 23.01.2020
3831 Rain 3 1036 69 10000 1 0 11:23 23.01.2020
3832 Rain 3 1036 69 10000 0.5 0 10:56 23.01.2020
3833 Rain 3 1036 74 10000 1 0 10:38 23.01.2020
3834 Clouds 2 1036 74 10000 1 0 10:18 23.01.2020
3835 Clouds 1 1036 69 6000 1.5 100 09:40 23.01.2020
3836 Clouds 1 1036 69 6000 1.5 100 09:21 23.01.2020
3837 Clouds 0 1036 69 7000 1.5 70 08:43 23.01.2020
3838 Clouds 0 1036 86 8000 1.5 340 08:25 23.01.2020
3839 Clouds 0 1035 80 10000 1 0 07:51 23.01.2020
3840 Clouds 0 1035 80 10000 1.5 20 07:27 23.01.2020
3841 Clouds 0 1035 80 10000 3.1 10 06:55 23.01.2020
3842 Clouds 0 1035 80 10000 2.1 310 06:25 23.01.2020
3843 Clouds 0 1035 80 10000 2.1 310 05:59 23.01.2020
3844 Clouds 0 1035 80 10000 2.6 320 04:25 23.01.2020
3845 Clouds 0 1035 74 10000 4.6 300 02:50 23.01.2020
3846 Clouds 0 1035 74 10000 5.7 300 01:53 23.01.2020
3847 Clouds 0 1034 74 10000 6.2 300 00:44 23.01.2020
3848 Clouds 0 1034 74 10000 6.7 300 00:22 23.01.2020
3849 Clouds 0 1034 80 10000 7.7 300 23:46 22.01.2020
3850 Clouds 1 1034 74 10000 5.7 290 23:28 22.01.2020
3851 Clouds 1 1034 74 10000 6.2 290 22:43 22.01.2020
3852 Clouds 1 1033 74 10000 6.2 290 22:25 22.01.2020
3853 Clouds 1 1033 74 10000 5.1 300 21:58 22.01.2020
3854 Clouds 1 1033 74 10000 5.1 320 21:36 22.01.2020
3855 Clouds 1 1033 74 10000 5.1 320 21:18 22.01.2020
3856 Clouds 1 1032 69 10000 6.2 320 20:42 22.01.2020
3857 Clouds 1 1032 69 10000 6.2 320 20:23 22.01.2020
3858 Clouds 1 1032 80 10000 1.5 330 19:59 22.01.2020
3859 Clouds 1 1031 80 10000 2.1 340 19:41 22.01.2020
3860 Clouds 1 1031 80 10000 2.1 340 19:21 22.01.2020
3861 Clouds 0 1031 80 10000 2.6 10 18:59 22.01.2020
3862 Clouds 0 1031 80 10000 2.6 10 18:40 22.01.2020
3863 Clouds 0 1030 80 10000 1.5 10 18:21 22.01.2020
3864 Clouds 0 1030 80 10000 2.6 360 17:57 22.01.2020
3865 Clouds 0 1030 80 10000 3.6 30 17:39 22.01.2020
3866 Clouds 1 1030 80 10000 3.6 30 17:20 22.01.2020
3867 Clouds 1 1029 74 10000 2.1 30 16:55 22.01.2020
3868 Clouds 1 1029 74 10000 2.1 30 16:55 22.01.2020
3869 Clouds 1 1029 74 10000 2.1 30 16:55 22.01.2020
3870 Clouds 1 1030 64 10000 3.6 320 16:37 22.01.2020
3871 Clouds 1 1030 64 10000 3.6 320 16:18 22.01.2020
3872 Clouds 2 1029 60 10000 5.1 290 15:41 22.01.2020
3873 Clouds 2 1030 69 10000 4.6 330 15:23 22.01.2020
3874 Clouds 2 1030 64 10000 5.7 330 14:59 22.01.2020
3875 Rain 2 1030 74 10000 6.7 350 14:38 22.01.2020
3876 Rain 2 1030 74 10000 6.7 350 14:19 22.01.2020
3877 Rain 2 1031 74 10000 6.2 10 13:56 22.01.2020
3878 Rain 2 1031 74 10000 6.2 10 13:56 22.01.2020
3879 Rain 2 1031 74 10000 6.2 10 13:56 22.01.2020
3880 Rain 1 1031 80 10000 3.6 20 13:37 22.01.2020
3881 Rain 1 1031 80 10000 3.6 20 13:19 22.01.2020
3882 Rain 2 1031 74 10000 3.1 340 12:56 22.01.2020
3883 Rain 1 1031 80 10000 5.1 310 12:38 22.01.2020
3884 Rain 1 1031 80 10000 5.1 310 12:19 22.01.2020
3885 Rain 1 1032 54 9000 4.1 320 11:56 22.01.2020
3886 Clouds 0 1032 54 10000 3.6 300 11:38 22.01.2020
3887 Clouds 0 1032 67 10000 3.6 300 11:19 22.01.2020
3888 Clouds -1 1033 86 10000 3.6 320 10:45 22.01.2020
3889 Clouds -1 1033 86 9000 4.6 310 10:21 22.01.2020
3890 Clouds -1 1034 92 9000 3.1 290 09:57 22.01.2020
3891 Clouds -1 1034 92 9000 3.1 290 09:39 22.01.2020
3892 Mist -2 1034 92 4900 2.1 340 09:20 22.01.2020
3893 Mist -1 1034 100 4200 3.1 350 08:54 22.01.2020
3894 Mist -1 1034 92 4900 3.1 350 08:36 22.01.2020
3895 Mist -2 1034 92 4900 3.1 350 08:18 22.01.2020
3896 Mist -2 1034 100 4600 3.1 340 07:41 22.01.2020
3897 Mist -2 1034 92 5000 3.1 350 07:21 22.01.2020
3898 Mist -2 1034 92 5000 3.1 350 07:21 22.01.2020
3899 Clouds -1 1034 92 7000 1.5 290 06:33 22.01.2020
3900 Mist -1 1034 92 5000 1 0 05:45 22.01.2020
3901 Clouds -1 1035 92 7000 1.5 140 04:25 22.01.2020
3902 Clouds -1 1036 92 7000 1 0 03:26 22.01.2020
3903 Clouds -1 1036 92 8000 1.5 160 02:39 22.01.2020
3904 Mist -1 1038 100 3800 0.5 0 00:47 22.01.2020
3905 Mist -1 1038 100 3800 0.5 0 00:47 22.01.2020
3906 Mist -1 1038 100 3400 0.5 0 00:27 22.01.2020
3907 Mist -1 1038 100 3200 1 0 23:55 21.01.2020
3908 Mist -1 1039 100 4100 1 100 23:37 21.01.2020
3909 Mist -1 1039 100 4100 1 100 23:18 21.01.2020
3910 Mist -1 1039 100 4100 1 100 23:18 21.01.2020
3911 Mist -1 1039 100 3200 1 50 22:40 21.01.2020
3912 Mist -1 1039 100 3300 1.5 70 22:21 21.01.2020
3913 Mist -1 1039 100 3300 1.5 30 21:57 21.01.2020
3914 Mist -1 1039 100 2900 1 0 21:38 21.01.2020
3915 Mist -1 1039 100 2900 1 0 21:20 21.01.2020
3916 Mist -1 1039 92 3200 1 110 20:56 21.01.2020
3917 Mist -1 1040 92 3200 1 150 20:37 21.01.2020
3918 Mist -1 1040 92 3200 1 150 20:19 21.01.2020
3919 Mist -1 1040 92 4100 1.5 170 19:56 21.01.2020
3920 Mist -1 1040 92 4100 1.5 170 19:56 21.01.2020
3921 Mist -1 1040 92 4400 0.5 0 19:38 21.01.2020
3922 Mist -1 1040 92 4400 0.5 0 19:20 21.01.2020
3923 Mist -1 1040 92 5000 0.5 0 18:55 21.01.2020
3924 Mist -1 1040 92 5000 0.5 0 18:55 21.01.2020
3925 Mist -1 1041 92 5000 1 120 18:37 21.01.2020
3926 Mist -1 1041 92 5000 1 120 18:18 21.01.2020
3927 Mist -1 1040 92 5000 1 140 17:45 21.01.2020
3928 Mist -1 1041 100 5000 1 0 17:20 21.01.2020
3929 Mist 0 1041 100 4100 1 0 16:59 21.01.2020
3930 Mist 0 1041 100 6000 1 0 16:37 21.01.2020
3931 Mist 0 1041 100 6000 1 0 16:19 21.01.2020
3932 Mist 0 1041 100 5000 2.1 150 15:54 21.01.2020
3933 Mist 0 1041 92 5000 2.1 170 15:36 21.01.2020
3934 Mist 0 1041 92 5000 2.1 170 15:18 21.01.2020
3935 Mist 0 1042 92 5000 2.1 170 14:38 21.01.2020
3936 Mist 0 1042 92 5000 2.1 170 14:20 21.01.2020
3937 Fog 0 1042 92 900 2.1 120 13:40 21.01.2020
3938 Fog 0 1042 92 900 2.1 120 13:19 21.01.2020
3939 Rain 0 1042 69 6000 2.1 30 12:45 21.01.2020
3940 Fog 0 1043 100 550 2.1 170 12:27 21.01.2020
3941 Fog 0 1043 100 550 1.5 110 11:58 21.01.2020
3942 Fog 0 1043 100 550 2.1 170 11:40 21.01.2020
3943 Fog 0 1043 100 550 2.1 170 11:21 21.01.2020
3944 Fog 0 1043 100 600 2.1 140 10:55 21.01.2020
3945 Fog 0 1043 92 450 1.5 110 10:37 21.01.2020
3946 Fog -1 1043 92 450 1.5 110 10:18 21.01.2020
3947 Fog -1 1044 100 250 1 0 09:41 21.01.2020
3948 Fog -2 1044 100 250 1 0 09:22 21.01.2020
3949 Fog -2 1043 92 300 1 40 08:50 21.01.2020
3950 Clouds -2 1043 92 1000 0.5 0 08:30 21.01.2020
3951 Clear -2 1043 92 6000 2.1 30 07:59 21.01.2020
3952 Clouds -3 1043 92 450 1.5 160 07:40 21.01.2020
3953 Clouds -3 1043 92 450 1.5 160 07:21 21.01.2020
3954 Clouds -3 1043 100 3000 1 170 06:49 21.01.2020
3955 Clouds -3 1043 100 3000 1 170 06:26 21.01.2020
3956 Fog -2 1044 100 450 2.1 150 05:42 21.01.2020
3957 Clouds -2 1045 100 350 0.5 0 04:39 21.01.2020
3958 Fog -1 1046 92 10000 0.5 0 02:56 21.01.2020
3959 Clouds -1 1046 100 450 0.5 0 01:53 21.01.2020
3960 Clouds -1 1046 92 5000 0.5 0 01:18 21.01.2020
3961 Clouds -1 1046 100 6000 1 0 00:36 21.01.2020
3962 Clouds -1 1046 100 6000 1 300 23:58 20.01.2020
3963 Fog -1 1046 89 7000 1.5 320 23:38 20.01.2020
3964 Fog -1 1046 89 7000 1.5 320 23:19 20.01.2020
3965 Clouds -1 1046 89 6000 1.5 310 22:56 20.01.2020
3966 Clouds -1 1047 89 7000 1.5 320 22:37 20.01.2020
3967 Clouds -1 1047 89 7000 1.5 320 22:19 20.01.2020
3968 Clouds -1 1047 89 8000 2.6 310 21:57 20.01.2020
3969 Clouds 0 1046 89 8000 2.6 310 21:37 20.01.2020
3970 Clouds 0 1046 89 8000 2.6 310 21:37 20.01.2020
3971 Clouds 0 1046 89 8000 2.6 310 21:18 20.01.2020
3972 Clouds 0 1046 89 9000 2.1 330 20:55 20.01.2020
3973 Clouds 0 1046 89 8000 1.5 300 20:36 20.01.2020
3974 Clouds 0 1046 90 8000 1.5 300 20:18 20.01.2020
3975 Clouds 0 1046 90 8000 1.5 300 20:18 20.01.2020
3976 Clouds 0 1046 90 10000 2.1 320 19:56 20.01.2020
3977 Clouds 1 1046 90 10000 2.1 300 19:37 20.01.2020
3978 Clouds 1 1046 90 10000 2.1 300 19:18 20.01.2020
3979 Clouds 1 1046 90 10000 2.1 320 18:42 20.01.2020
3980 Clouds 2 1046 90 10000 2.1 330 18:21 20.01.2020
3981 Clouds 2 1046 90 10000 3.1 340 17:40 20.01.2020
3982 Clouds 2 1046 81 10000 3.1 340 17:19 20.01.2020
3983 Rain 3 1045 81 10000 3.1 340 16:58 20.01.2020
3984 Rain 3 1045 80 10000 3.6 320 16:37 20.01.2020
3985 Rain 3 1045 80 10000 3.6 320 16:18 20.01.2020
3986 Rain 3 1045 80 10000 3.6 320 16:18 20.01.2020
3987 Rain 3 1045 80 10000 3.1 330 15:54 20.01.2020
3988 Rain 3 1045 80 10000 3.6 340 15:36 20.01.2020
3989 Rain 3 1045 80 10000 3.6 340 15:18 20.01.2020
3990 Rain 4 1045 80 10000 3.1 320 14:41 20.01.2020
3991 Rain 4 1045 80 10000 3.6 320 14:22 20.01.2020
3992 Rain 4 1045 80 10000 3.6 320 13:57 20.01.2020
3993 Rain 4 1045 80 10000 3.6 340 13:39 20.01.2020
3994 Rain 4 1045 80 10000 4.1 330 13:20 20.01.2020
3995 Rain 4 1045 80 10000 4.1 330 12:45 20.01.2020
3996 Rain 4 1045 80 10000 4.1 330 12:27 20.01.2020
3997 Rain 3 1045 86 10000 4.1 320 11:57 20.01.2020
3998 Rain 3 1045 86 10000 4.1 330 11:38 20.01.2020
3999 Rain 2 1045 86 10000 4.1 330 11:19 20.01.2020
4000 Rain 2 1045 86 10000 4.1 320 10:47 20.01.2020
4001 Rain 2 1045 86 10000 4.1 320 10:21 20.01.2020
4002 Rain 2 1044 93 10000 4.6 320 09:54 20.01.2020
4003 Rain 2 1044 93 10000 4.1 320 09:36 20.01.2020
4004 Rain 2 1044 93 10000 4.1 320 09:18 20.01.2020
4005 Clouds 2 1043 93 10000 4.6 320 08:42 20.01.2020
4006 Clouds 1 1043 93 10000 4.6 320 08:24 20.01.2020
4007 Rain 1 1043 93 10000 4.1 320 07:43 20.01.2020
4008 Rain 1 1042 93 10000 4.6 320 07:23 20.01.2020
4009 Rain 1 1042 93 10000 4.1 320 06:46 20.01.2020
4010 Rain 1 1041 93 10000 4.6 320 06:26 20.01.2020
4011 Rain 1 1041 93 10000 4.6 320 05:42 20.01.2020
4012 Rain 1 1041 93 10000 4.6 320 05:21 20.01.2020
4013 Rain 1 1041 100 10000 4.6 320 04:41 20.01.2020
4014 Rain 1 1040 97 10000 5.1 330 02:55 20.01.2020
4015 Rain 1 1039 100 10000 5.1 330 01:52 20.01.2020
4016 Rain 1 1039 100 10000 6.2 310 01:26 20.01.2020
4017 Rain 1 1039 100 10000 5.1 320 00:44 20.01.2020
4018 Rain 1 1038 93 10000 5.7 320 00:22 20.01.2020
4019 Rain 1 1038 93 9000 6.2 320 23:39 19.01.2020
4020 Rain 1 1038 93 9000 6.2 320 23:20 19.01.2020
4021 Rain 1 1037 93 8000 6.2 310 22:56 19.01.2020
4022 Rain 1 1037 93 9000 6.2 320 22:38 19.01.2020
4023 Rain 1 1037 93 9000 6.2 320 22:20 19.01.2020
4024 Rain 1 1037 93 9000 6.2 320 21:56 19.01.2020
4025 Rain 1 1037 93 9000 6.2 320 21:56 19.01.2020
4026 Rain 1 1037 93 7000 5.7 320 21:38 19.01.2020
4027 Rain 2 1037 93 7000 5.7 320 21:20 19.01.2020
4028 Rain 1 1036 93 10000 6.2 320 20:57 19.01.2020
4029 Rain 2 1036 93 10000 5.7 320 20:38 19.01.2020
4030 Rain 2 1036 93 10000 5.7 320 20:20 19.01.2020
4031 Drizzle 2 1036 93 10000 6.2 320 19:57 19.01.2020
4032 Drizzle 2 1035 93 10000 5.1 330 19:39 19.01.2020
4033 Drizzle 2 1035 93 10000 5.1 330 19:20 19.01.2020
4034 Drizzle 2 1035 93 10000 5.1 330 18:56 19.01.2020
4035 Drizzle 2 1034 93 10000 5.7 320 18:38 19.01.2020
4036 Rain 2 1034 93 10000 5.7 320 18:20 19.01.2020
4037 Rain 2 1034 93 10000 5.7 320 17:58 19.01.2020
4038 -273 0 0 0 0 0 17:58 19.01.2020
4039 Rain 2 1033 93 10000 5.7 320 17:39 19.01.2020
4040 Rain 2 1033 93 10000 5.7 320 17:20 19.01.2020
4041 Rain 2 1033 93 10000 5.1 320 16:59 19.01.2020
4042 Rain 2 1033 93 10000 6.2 320 16:38 19.01.2020
4043 Rain 2 1033 93 10000 6.2 320 16:20 19.01.2020
4044 Rain 2 1032 93 10000 5.7 330 15:58 19.01.2020
4045 Rain 2 1032 93 10000 5.7 320 15:38 19.01.2020
4046 Rain 2 1032 93 10000 5.7 320 15:20 19.01.2020
4047 Rain 2 1031 93 9000 6.2 320 14:57 19.01.2020
4048 Rain 2 1031 86 10000 5.7 320 14:38 19.01.2020
4049 Rain 2 1031 86 10000 5.7 320 14:18 19.01.2020
4050 Rain 2 1031 86 10000 5.7 320 13:57 19.01.2020
4051 Rain 2 1031 93 10000 4.6 320 13:38 19.01.2020
4052 Rain 2 1031 93 10000 4.6 320 13:19 19.01.2020
4053 Rain 2 1031 93 10000 5.1 330 12:55 19.01.2020
4054 Rain 2 1030 93 8000 4.1 330 12:37 19.01.2020
4055 Rain 2 1030 93 8000 4.1 330 12:19 19.01.2020
4056 Rain 2 1030 93 9000 4.1 330 11:42 19.01.2020
4057 Rain 2 1030 93 9000 4.1 330 11:20 19.01.2020
4058 Rain 2 1030 93 8000 4.1 330 10:56 19.01.2020
4059 Rain 2 1030 93 8000 4.1 330 10:56 19.01.2020
4060 Rain 2 1030 93 8000 4.1 330 10:56 19.01.2020
4061 Rain 2 1029 93 8000 5.1 320 10:38 19.01.2020
4062 Rain 2 1029 93 8000 5.1 320 10:19 19.01.2020
4063 Rain 2 1029 93 8000 4.6 320 09:55 19.01.2020
4064 Rain 2 1029 93 8000 4.6 320 09:55 19.01.2020
4065 Rain 2 1029 93 8000 4.6 320 09:55 19.01.2020
4066 Rain 2 1029 93 8000 4.6 320 09:55 19.01.2020
4067 Rain 2 1029 93 6000 4.1 330 09:37 19.01.2020
4068 Rain 2 1029 93 6000 4.1 330 09:18 19.01.2020
4069 Rain 2 1029 93 6000 4.1 330 08:48 19.01.2020
4070 Rain 2 1028 93 7000 3.6 330 08:28 19.01.2020
4071 Rain 2 1028 93 7000 4.1 330 07:42 19.01.2020
4072 Rain 1 1028 93 7000 4.1 330 07:22 19.01.2020
4073 Rain 2 1027 93 8000 3.6 330 06:54 19.01.2020
4074 Rain 1 1027 93 10000 4.6 320 06:21 19.01.2020
4075 Rain 1 1026 87 6000 2.1 70 02:47 19.01.2020
4076 Rain 1 1026 87 6000 1 0 02:24 19.01.2020
4077 Rain 1 1026 91 4800 2.1 320 01:28 19.01.2020
4078 Rain 1 1026 88 5000 1 340 00:54 19.01.2020
4079 Rain 1 1026 100 4600 1 20 00:29 19.01.2020
4080 Mist 1 1026 100 4600 1 20 23:59 18.01.2020
4081 Rain 1 1026 100 4600 1 20 23:41 18.01.2020
4082 Rain 1 1026 100 5000 1.5 30 23:23 18.01.2020
4083 Rain 1 1026 100 5000 1 10 22:55 18.01.2020
4084 Rain 1 1026 100 6000 1.5 330 22:37 18.01.2020
4085 Rain 1 1026 92 6000 1.5 330 22:19 18.01.2020
4086 Rain 1 1026 92 6000 1.5 330 21:57 18.01.2020
4087 Mist 0 1026 92 5000 2.1 330 21:38 18.01.2020
4088 Mist 0 1026 92 5000 2.1 330 21:20 18.01.2020
4089 Mist 0 1026 92 5000 1 340 20:44 18.01.2020
4090 Mist 0 1026 92 5000 1 340 20:21 18.01.2020
4091 Clouds 0 1026 92 6000 1 340 19:59 18.01.2020
4092 Snow 0 1026 92 5000 1.5 340 19:41 18.01.2020
4093 Snow 0 1026 92 5000 1.5 340 19:22 18.01.2020
4094 Snow 0 1026 92 4000 1 10 18:43 18.01.2020
4095 Rain 0 1026 92 4000 1 10 18:24 18.01.2020
4096 Snow 0 1026 92 3700 1.5 350 17:56 18.01.2020
4097 Snow 0 1025 92 3500 1.5 360 17:38 18.01.2020
4098 Snow 0 1025 92 3500 1.5 360 17:19 18.01.2020
4099 Snow 0 1025 92 2400 1 0 16:55 18.01.2020
4100 Snow 0 1025 92 1900 1.5 50 16:37 18.01.2020
4101 Snow 0 1025 92 1900 1.5 50 16:19 18.01.2020
4102 Snow 0 1025 92 2200 1 0 15:43 18.01.2020
4103 Snow 0 1025 92 1500 1.5 60 15:24 18.01.2020
4104 Snow 0 1025 92 3300 1.5 50 14:58 18.01.2020
4105 Mist 0 1025 92 3600 1.5 40 14:39 18.01.2020
4106 Mist 0 1025 100 2400 1.5 50 14:18 18.01.2020
4107 Mist 0 1025 100 2400 1.5 50 13:45 18.01.2020
4108 Mist 0 1026 100 1400 2.1 60 13:27 18.01.2020
4109 Clouds 0 1026 100 1000 1.5 100 12:59 18.01.2020
4110 Rain 0 1026 100 1000 1.5 100 12:40 18.01.2020
4111 Rain -1 1026 100 900 1.5 50 12:21 18.01.2020
4112 Fog 0 1026 100 800 1.5 120 11:44 18.01.2020
4113 Mist -1 1026 100 1000 1.5 130 11:24 18.01.2020
4114 Mist -1 1026 100 1300 2.1 110 10:57 18.01.2020
4115 Mist -1 1026 100 1400 2.6 120 10:38 18.01.2020
4116 Mist -1 1026 100 1400 2.6 120 10:20 18.01.2020
4117 Mist -1 1026 100 1400 2.6 120 10:20 18.01.2020
4118 Mist -1 1026 100 1500 2.6 120 09:48 18.01.2020
4119 Mist -1 1026 100 3200 2.6 120 09:30 18.01.2020
4120 Mist -1 1026 100 3400 3.1 120 08:57 18.01.2020
4121 Mist -1 1026 100 3400 3.1 110 08:39 18.01.2020
4122 Mist -1 1026 100 3400 3.1 110 08:19 18.01.2020
4123 Mist -1 1026 100 5000 3.1 110 07:50 18.01.2020
4124 Mist -1 1026 100 5000 3.1 120 07:31 18.01.2020
4125 Mist -1 1026 92 5000 2.6 130 06:48 18.01.2020
4126 Mist -1 1025 92 4800 2.6 120 05:59 18.01.2020
4127 Mist -1 1025 92 4800 2.1 120 05:24 18.01.2020
4128 Mist -1 1025 92 4900 3.6 140 02:56 18.01.2020
4129 Mist -1 1024 92 3800 5.1 130 01:56 18.01.2020
4130 Mist -1 1024 92 3600 5.1 130 01:35 18.01.2020
4131 Mist -1 1024 92 4200 5.1 130 00:37 18.01.2020
4132 Mist -1 1024 92 4200 5.1 130 00:18 18.01.2020
4133 Mist -1 1024 92 4200 5.1 130 00:18 18.01.2020
4134 Mist -1 1024 92 4200 5.1 130 00:18 18.01.2020
4135 Mist -1 1024 92 4300 5.1 140 23:44 17.01.2020
4136 Mist -1 1024 92 4300 5.1 140 23:20 17.01.2020
4137 Mist 0 1024 92 5000 5.7 140 22:59 17.01.2020
4138 Clouds 0 1025 100 6000 5.7 140 22:40 17.01.2020
4139 Rain 0 1025 100 5000 5.1 140 22:18 17.01.2020
4140 Rain 0 1025 100 4800 5.7 140 21:41 17.01.2020
4141 Mist 0 1025 100 4800 5.7 140 21:22 17.01.2020
4142 Mist 0 1025 100 4100 5.1 140 20:58 17.01.2020
4143 Mist 0 1025 100 3400 5.1 130 20:39 17.01.2020
4144 Mist 0 1025 100 3400 5.1 130 20:20 17.01.2020
4145 Mist 0 1025 100 2200 5.1 140 19:56 17.01.2020
4146 Mist 0 1025 100 1800 5.7 140 19:38 17.01.2020
4147 Mist -1 1025 100 1800 5.7 140 19:19 17.01.2020
4148 Mist 0 1025 100 2600 5.1 140 18:56 17.01.2020
4149 Mist -1 1025 100 5000 5.1 140 18:36 17.01.2020
4150 Mist -1 1025 100 5000 5.1 140 18:18 17.01.2020
4151 Clouds -1 1025 92 8000 5.1 150 17:39 17.01.2020
4152 Clouds 0 1025 92 8000 5.1 150 17:21 17.01.2020
4153 Clouds 0 1025 92 7000 5.7 140 16:44 17.01.2020
4154 Clouds 0 1025 92 7000 6.7 140 16:21 17.01.2020
4155 Mist -1 1025 92 5000 6.2 140 15:58 17.01.2020
4156 Mist 0 1025 92 3800 5.7 140 15:40 17.01.2020
4157 Mist 0 1025 92 5000 6.2 140 15:40 17.01.2020
4158 Mist 0 1025 92 3800 5.7 140 15:21 17.01.2020
4159 Mist 0 1025 92 3900 7.7 140 14:43 17.01.2020
4160 Mist 0 1025 100 5000 7.2 140 14:24 17.01.2020
4161 Mist 0 1025 100 2200 6.2 140 13:45 17.01.2020
4162 Mist 0 1025 100 5000 6.2 140 13:23 17.01.2020
4163 Mist 0 1026 92 5000 6.7 140 12:48 17.01.2020
4164 Clouds 0 1026 92 6000 6.7 140 12:23 17.01.2020
4165 Mist 0 1026 92 3900 5.1 130 11:44 17.01.2020
4166 Mist -1 1027 100 1000 4.6 140 11:20 17.01.2020
4167 Mist -1 1027 100 1000 4.6 140 11:20 17.01.2020
4168 Mist -1 1027 100 1000 4.6 140 11:20 17.01.2020
4169 Mist -1 1027 100 1200 5.1 130 10:58 17.01.2020
4170 Mist -1 1027 100 1200 5.1 130 10:40 17.01.2020
4171 Fog -1 1027 100 600 4.6 130 10:21 17.01.2020
4172 Fog -1 1027 92 600 6.2 130 09:56 17.01.2020
4173 Fog -1 1027 92 500 6.7 130 09:37 17.01.2020
4174 Fog -1 1027 92 650 4.1 130 09:18 17.01.2020
4175 Mist -1 1027 92 1100 4.1 130 08:42 17.01.2020
4176 Mist -1 1027 92 1100 4.1 130 08:23 17.01.2020
4177 Fog -2 1027 92 900 4.6 120 07:51 17.01.2020
4178 Mist -1 1028 92 1500 1.5 110 07:31 17.01.2020
4179 Mist -1 1028 92 1600 1.5 110 06:56 17.01.2020
4180 Mist -1 1028 100 2500 0.5 0 06:37 17.01.2020
4181 Mist -1 1028 100 1100 3.6 110 05:27 17.01.2020
4182 Clouds -1 1030 89 0 2.78 134 03:38 17.01.2020
4183 Clouds -2 1026 87 0 0.45 110 02:44 17.01.2020
4184 Clouds -2 1021 91 0 1.91 134 01:46 17.01.2020
4185 Clouds -2 1028 89 0 1.91 134 01:27 17.01.2020
4186 Clouds -2 1031 91 0 2.03 135 00:44 17.01.2020
4187 Clouds -2 1031 92 5000 2.6 90 00:20 17.01.2020
4188 Clouds -2 1031 92 5000 2.6 90 23:42 16.01.2020
4189 Clouds -2 1031 92 5000 2.6 90 23:24 16.01.2020
4190 Mist -2 1031 92 4800 1 120 22:43 16.01.2020
4191 Mist -2 1032 92 4900 0.5 0 22:22 16.01.2020
4192 Mist -2 1032 100 4000 1.5 160 21:57 16.01.2020
4193 Mist -1 1032 92 5000 1 170 21:39 16.01.2020
4194 Mist -1 1032 92 5000 1 180 21:19 16.01.2020
4195 Mist -1 1032 92 5000 1 180 20:59 16.01.2020
4196 Mist -1 1032 92 5000 1 150 20:40 16.01.2020
4197 Mist -1 1032 92 5000 1 150 20:20 16.01.2020
4198 Mist -1 1032 73 5000 0.5 0 19:57 16.01.2020
4199 Mist -1 1032 73 5000 0.5 0 19:39 16.01.2020
4200 Clouds -1 1032 92 6000 1 70 19:20 16.01.2020
4201 Clouds 0 1032 73 7000 0.5 0 18:56 16.01.2020
4202 Clouds 0 1032 86 7000 1.5 310 18:37 16.01.2020
4203 Clouds 0 1032 86 7000 1.5 310 18:18 16.01.2020
4204 Clouds 0 1032 86 8000 1.5 330 17:58 16.01.2020
4205 Clouds 1 1032 86 8000 1 320 17:39 16.01.2020
4206 Clouds 1 1032 86 8000 1 320 17:20 16.01.2020
4207 Clouds 2 1032 86 8000 2.1 350 16:41 16.01.2020
4208 Clouds 2 1032 86 8000 2.1 350 16:21 16.01.2020
4209 Clouds 2 1032 86 8000 2.1 20 15:57 16.01.2020
4210 Clouds 2 1031 86 8000 1.5 340 15:38 16.01.2020
4211 Clouds 2 1031 86 8000 1.5 340 15:20 16.01.2020
4212 Clouds 2 1032 86 8000 2.1 10 14:42 16.01.2020
4213 Clouds 2 1032 86 8000 1.5 10 14:24 16.01.2020
4214 Clouds 2 1032 86 8000 1.5 330 13:55 16.01.2020
4215 Clouds 2 1032 80 8000 1 0 13:37 16.01.2020
4216 Clouds 2 1032 80 8000 1 0 13:19 16.01.2020
4217 Clouds 1 1032 80 8000 1 0 12:41 16.01.2020
4218 Clouds 1 1032 80 7000 1.5 330 12:21 16.01.2020
4219 Clouds 1 1033 57 6000 0.5 0 11:43 16.01.2020
4220 Clouds 1 1033 57 6000 0.5 0 11:24 16.01.2020
4221 Clouds 0 1033 92 6000 1 0 10:59 16.01.2020
4222 Mist 0 1033 92 4900 0.5 0 10:38 16.01.2020
4223 Mist 0 1033 92 4900 0.5 0 10:20 16.01.2020
4224 Mist 0 1032 100 2500 1.5 40 09:56 16.01.2020
4225 Mist 0 1032 100 1800 1.5 30 09:37 16.01.2020
4226 Mist 0 1032 100 1800 1.5 30 09:18 16.01.2020
4227 Mist -1 1031 92 2400 1 0 08:44 16.01.2020
4228 Mist -1 1031 92 2400 1 0 08:23 16.01.2020
4229 Mist -1 1031 92 2000 0.5 0 07:43 16.01.2020
4230 Clouds -1 1031 100 2400 0.5 0 07:25 16.01.2020
4231 Fog -1 1031 100 650 0.5 0 06:56 16.01.2020
4232 Fog -1 1031 100 300 0.5 0 06:37 16.01.2020
4233 Fog -2 1030 100 350 0.5 0 05:56 16.01.2020
4234 Fog -2 1031 100 350 0.5 0 05:31 16.01.2020
4235 Fog -2 1030 100 300 1 0 04:37 16.01.2020
4236 Fog -2 1030 100 300 1 0 04:37 16.01.2020
4237 Fog -2 1029 100 450 1.5 160 03:28 16.01.2020
4238 Fog -2 1029 100 700 2.6 190 02:29 16.01.2020
4239 Mist -1 1028 100 4100 2.1 130 00:45 16.01.2020
4240 Mist -1 1028 100 4100 2.1 130 00:24 16.01.2020
4241 Mist -1 1028 100 4800 2.1 140 23:48 15.01.2020
4242 Mist -1 1028 91 5000 3.1 140 23:22 15.01.2020
4243 Clouds 0 1027 91 6000 3.6 150 22:57 15.01.2020
4244 Clouds 0 1027 91 7000 2.6 140 22:39 15.01.2020
4245 Clouds 0 1027 91 7000 2.6 140 22:19 15.01.2020
4246 Clouds 0 1027 92 7000 3.1 130 21:57 15.01.2020
4247 Clouds 0 1026 91 7000 2.6 130 21:37 15.01.2020
4248 Clouds 0 1026 91 7000 2.6 130 21:19 15.01.2020
4249 Clouds 0 1026 91 7000 3.6 120 20:57 15.01.2020
4250 Clouds 0 1026 91 6000 3.1 120 20:39 15.01.2020
4251 Clouds 0 1026 89 6000 3.1 120 20:20 15.01.2020
4252 Mist 0 1025 89 5000 4.1 140 19:55 15.01.2020
4253 Mist 0 1025 89 5000 4.6 130 19:37 15.01.2020
4254 Mist 0 1025 89 5000 4.6 130 19:19 15.01.2020
4255 Mist 0 1025 89 5000 4.1 130 18:56 15.01.2020
4256 Mist 0 1025 89 6000 4.6 130 18:38 15.01.2020
4257 Mist 0 1025 89 6000 4.6 130 18:19 15.01.2020
4258 Clouds 0 1024 89 6000 6.7 140 17:57 15.01.2020
4259 Clouds 0 1024 89 9000 5.7 130 17:38 15.01.2020
4260 Clouds 0 1024 78 9000 5.7 130 17:19 15.01.2020
4261 Clouds 0 1024 78 7000 7.2 140 16:41 15.01.2020
4262 Clouds 0 1024 78 7000 7.2 140 16:22 15.01.2020
4263 Clouds 0 1024 78 6000 7.7 140 15:58 15.01.2020
4264 Mist 0 1024 78 4700 6.7 140 15:39 15.01.2020
4265 Mist 0 1024 78 4700 6.7 140 15:20 15.01.2020
4266 Clear 0 1024 78 7000 4.1 110 14:43 15.01.2020
4267 Mist 0 1024 100 5000 7.2 140 14:20 15.01.2020
4268 Mist 0 1025 100 5000 6.7 140 13:55 15.01.2020
4269 Mist 0 1025 92 4900 7.2 140 13:37 15.01.2020
4270 Mist 0 1025 92 4900 7.2 140 13:18 15.01.2020
4271 Mist 0 1026 92 5000 6.7 140 12:41 15.01.2020
4272 Mist 0 1026 92 5000 6.7 140 12:20 15.01.2020
4273 Mist 0 1026 92 5000 6.7 140 11:59 15.01.2020
4274 Mist -1 1026 92 5000 6.2 140 11:38 15.01.2020
4275 Mist -1 1026 92 5000 6.2 140 11:19 15.01.2020
4276 Mist -1 1026 92 4900 7.2 140 10:46 15.01.2020
4277 Mist -1 1026 92 2700 5.7 150 10:28 15.01.2020
4278 Mist -1 1026 92 3300 5.7 140 09:55 15.01.2020
4279 Mist -1 1026 92 5000 5.7 140 09:37 15.01.2020
4280 Mist -1 1026 92 4900 6.2 140 09:19 15.01.2020
4281 Mist -1 1026 92 5000 6.7 130 08:41 15.01.2020
4282 Mist -1 1026 92 5000 6.7 130 08:23 15.01.2020
4283 Snow -1 1026 92 6000 5.7 140 07:54 15.01.2020
4284 Clouds -1 1026 92 6000 6.7 130 07:32 15.01.2020
4285 Clouds -1 1026 92 6000 6.2 130 06:48 15.01.2020
4286 Clouds -1 1026 92 6000 5.1 130 06:23 15.01.2020
4287 Mist -1 1026 92 5000 5.7 140 04:46 15.01.2020
4288 Clouds -1 1026 92 6000 4.6 140 02:40 15.01.2020
4289 Clouds -1 1026 92 6000 4.6 150 01:43 15.01.2020
4290 Clouds -1 1026 92 6000 4.6 150 01:20 15.01.2020
4291 Mist -1 1026 92 5000 5.7 130 00:37 15.01.2020
4292 Mist -1 1026 92 5000 5.7 130 00:19 15.01.2020
4293 Mist -1 1026 92 5000 4.6 130 23:46 14.01.2020
4294 Mist -1 1026 92 5000 4.6 130 23:24 14.01.2020
4295 Mist -1 1026 92 5000 4.6 140 22:54 14.01.2020
4296 Clouds -1 1026 92 6000 4.6 130 22:36 14.01.2020
4297 Clouds -1 1026 92 6000 4.6 130 22:18 14.01.2020
4298 Clouds -1 1026 86 6000 4.6 140 21:55 14.01.2020
4299 Clouds -1 1026 86 6000 3.6 130 21:37 14.01.2020
4300 Clouds -1 1026 86 6000 3.6 130 21:19 14.01.2020
4301 Clouds -1 1026 86 6000 3.6 130 20:42 14.01.2020
4302 -273 0 0 0 0 0 20:22 14.01.2020
4303 Clouds -1 1026 86 6000 3.6 130 19:57 14.01.2020
4304 Clouds -1 1025 92 6000 3.6 130 19:38 14.01.2020
4305 Clouds -1 1025 92 6000 3.6 130 19:20 14.01.2020
4306 Clouds -1 1025 92 6000 4.6 140 18:58 14.01.2020
4307 Clouds -1 1025 92 6000 4.6 140 18:39 14.01.2020
4308 Clouds -1 1025 92 8000 4.6 130 18:19 14.01.2020
4309 Clouds -1 1025 92 8000 4.1 130 17:39 14.01.2020
4310 Clouds -1 1025 92 8000 4.1 130 17:19 14.01.2020
4311 Clouds -1 1024 92 7000 4.6 130 16:59 14.01.2020
4312 Clouds -1 1024 92 6000 4.1 130 16:40 14.01.2020
4313 Clouds -1 1024 92 6000 4.1 130 16:21 14.01.2020
4314 Clouds -1 1024 92 6000 4.6 120 15:55 14.01.2020
4315 Clouds -1 1023 92 7000 5.1 120 15:37 14.01.2020
4316 Clouds -1 1023 92 7000 5.1 120 15:18 14.01.2020
4317 Clouds -1 1024 92 8000 4.1 120 14:43 14.01.2020
4318 Clouds 0 1023 86 6000 4.1 130 14:20 14.01.2020
4319 Clouds 0 1023 86 9000 4.6 140 13:43 14.01.2020
4320 Clouds 0 1023 86 9000 4.6 140 13:20 14.01.2020
4321 Clouds 0 1023 86 9000 4.6 130 12:59 14.01.2020
4322 Clouds 0 1023 86 8000 4.6 130 12:40 14.01.2020
4323 Clouds 0 1023 86 8000 4.6 130 12:20 14.01.2020
4324 Clouds 0 1023 86 8000 4.6 130 12:20 14.01.2020
4325 Clouds 0 1024 92 8000 4.6 130 11:43 14.01.2020
4326 Clouds -1 1024 92 10000 4.6 130 11:23 14.01.2020
4327 Mist -1 1024 92 8000 5.1 130 10:58 14.01.2020
4328 Clouds -1 1023 92 7000 3.6 130 10:39 14.01.2020
4329 Clouds -1 1023 92 7000 3.6 130 10:39 14.01.2020
4330 Clouds -1 1023 92 7000 3.6 130 10:20 14.01.2020
4331 Clouds -1 1023 92 7000 3.6 140 09:57 14.01.2020
4332 Clouds -1 1023 92 7000 3.6 140 09:39 14.01.2020
4333 Clouds -1 1023 92 7000 3.6 140 09:20 14.01.2020
4334 Mist -1 1023 92 5000 3.6 130 08:46 14.01.2020
4335 Mist -1 1023 92 4900 3.6 130 08:24 14.01.2020
4336 Mist -1 1023 92 5000 3.6 150 07:53 14.01.2020
4337 Mist -1 1022 92 5000 4.6 140 07:33 14.01.2020
4338 Mist -1 1022 92 5000 3.6 130 06:54 14.01.2020
4339 Clouds -1 1023 92 7000 3.6 170 06:27 14.01.2020
4340 Mist -1 1023 92 5000 2.6 180 05:27 14.01.2020
4341 Mist -1 1023 100 4200 2.6 150 03:52 14.01.2020
4342 Mist -1 1023 92 2200 3.6 140 02:43 14.01.2020
4343 Mist -1 1022 92 3700 3.6 140 01:53 14.01.2020
4344 Mist -1 1023 100 2000 4.1 150 00:51 14.01.2020
4345 Mist -1 1023 100 1200 2.6 150 00:32 14.01.2020
4346 Mist -1 1023 100 1200 2.6 150 00:32 14.01.2020
4347 Mist -1 1023 100 2300 3.6 130 23:55 13.01.2020
4348 Mist -1 1023 100 3200 3.1 170 23:37 13.01.2020
4349 Mist 0 1023 100 3200 3.1 170 23:18 13.01.2020
4350 Mist 0 1023 100 3200 3.1 170 23:18 13.01.2020
4351 Mist 0 1023 92 5000 4.6 140 22:42 13.01.2020
4352 Mist 0 1023 92 5000 4.6 140 22:21 13.01.2020
4353 Mist 0 1023 92 5000 3.6 150 21:57 13.01.2020
4354 Mist 0 1023 92 4900 4.6 140 21:38 13.01.2020
4355 Mist 0 1023 92 4900 4.6 140 21:38 13.01.2020
4356 Mist 0 1023 92 4900 4.6 140 21:38 13.01.2020
4357 Mist 0 1023 92 4600 5.1 140 21:19 13.01.2020
4358 Mist 0 1023 92 4900 4.6 140 21:19 13.01.2020
4359 Mist 0 1023 92 4600 5.1 140 20:58 13.01.2020
4360 Mist 0 1023 90 5000 4.6 160 20:40 13.01.2020
4361 Mist 0 1023 87 5000 4.6 160 20:22 13.01.2020
4362 Mist 0 1023 87 5000 5.1 120 19:59 13.01.2020
4363 Mist 0 1023 87 5000 5.7 130 19:39 13.01.2020
4364 Mist 1 1023 87 5000 5.7 130 19:20 13.01.2020
4365 Mist 1 1023 87 5000 5.7 130 19:20 13.01.2020
4366 Mist 1 1023 87 5000 6.7 120 18:56 13.01.2020
4367 Mist 1 1023 87 5000 6.7 120 18:37 13.01.2020
4368 Mist 1 1023 87 5000 6.7 120 18:19 13.01.2020
4369 Mist 1 1023 86 5000 5.1 120 17:43 13.01.2020
4370 Mist 1 1023 80 5000 6.2 120 17:25 13.01.2020
4371 Mist 2 1023 80 4300 5.7 120 16:58 13.01.2020
4372 Clouds 2 1023 83 0 3.78 123 16:38 13.01.2020
4373 Clouds 2 1023 87 0 1.34 143 16:20 13.01.2020
4374 Clouds 3 1024 81 0 3.78 123 15:54 13.01.2020
4375 Clouds 4 1024 80 0 3.78 123 15:36 13.01.2020
4376 Clouds 4 1020 66 0 1.34 112 15:18 13.01.2020
4377 Clouds 4 1023 77 0 3.78 123 14:40 13.01.2020
4378 Clouds 4 1024 80 0 2.34 118 14:22 13.01.2020
4379 Clouds 5 1025 80 0 2.34 118 13:56 13.01.2020
4380 Clouds 5 1025 80 0 2.34 118 13:56 13.01.2020
4381 Clouds 5 1025 79 0 2.34 118 13:37 13.01.2020
4382 Clouds 5 1025 80 0 2.34 118 13:19 13.01.2020
4383 Clouds 4 1026 66 10000 2.6 100 12:43 13.01.2020
4384 Clouds 4 1026 66 10000 2.6 100 12:23 13.01.2020
4385 Clouds 4 1026 66 10000 2.6 100 12:23 13.01.2020
4386 Clouds 4 1026 66 10000 2.6 100 11:58 13.01.2020
4387 Clouds 4 1027 66 9000 1.5 120 11:38 13.01.2020
4388 Clouds 4 1027 66 9000 1.5 120 11:38 13.01.2020
4389 Clouds 4 1027 73 9000 1.5 120 11:19 13.01.2020
4390 Clouds 3 1027 73 8000 1.5 120 10:56 13.01.2020
4391 Clouds 3 1027 73 6000 2.1 150 10:38 13.01.2020
4392 Clouds 2 1027 73 6000 2.1 150 10:19 13.01.2020
4393 Clouds 1 1027 73 6000 2.6 160 09:44 13.01.2020
4394 Clouds 1 1027 100 6000 2.1 150 09:26 13.01.2020
4395 Mist 1 1027 92 5000 2.1 160 08:59 13.01.2020
4396 Mist 1 1027 92 5000 2.6 180 08:38 13.01.2020
4397 Mist 0 1027 92 5000 2.6 180 08:19 13.01.2020
4398 Clouds 0 1027 92 6000 2.1 170 07:45 13.01.2020
4399 Clouds 0 1027 92 6000 1.5 180 07:27 13.01.2020
4400 Clouds 0 1027 100 6000 1.5 150 06:39 13.01.2020
4401 Clouds 0 1027 92 7000 1 130 05:57 13.01.2020
4402 Clouds -1 1027 92 7000 1 0 05:19 13.01.2020
4403 Clouds -1 1027 92 10000 3.1 170 03:46 13.01.2020
4404 Clouds -1 1027 92 10000 2.6 170 02:51 13.01.2020
4405 Clouds -1 1027 92 10000 2.1 160 02:31 13.01.2020
4406 Clouds -1 1026 92 10000 1.5 180 01:33 13.01.2020
4407 Clouds -1 1026 92 10000 3.6 170 00:59 13.01.2020
4408 Clouds -1 1027 92 10000 2.6 160 00:37 13.01.2020
4409 Clouds -1 1027 92 10000 2.6 160 00:18 13.01.2020
4410 Clouds -1 1027 92 10000 2.1 160 23:41 12.01.2020
4411 Clouds -1 1027 92 10000 2.1 160 23:22 12.01.2020
4412 Clouds -1 1027 92 10000 3.1 160 22:57 12.01.2020
4413 Clouds -1 1027 86 10000 3.1 180 22:39 12.01.2020
4414 Clouds -1 1027 86 10000 3.1 180 22:20 12.01.2020
4415 Clouds -1 1027 86 10000 3.6 160 21:55 12.01.2020
4416 Clouds -1 1027 92 10000 3.6 150 21:37 12.01.2020
4417 Clouds -1 1027 92 10000 3.6 150 21:19 12.01.2020
4418 Clouds -1 1027 92 10000 4.1 160 20:55 12.01.2020
4419 Clouds -1 1027 78 10000 3.6 150 20:37 12.01.2020
4420 Clouds -1 1027 84 10000 3.6 150 20:19 12.01.2020
4421 Clouds -1 1027 84 10000 4.1 150 19:54 12.01.2020
4422 Clouds 0 1027 84 10000 3.6 140 19:36 12.01.2020
4423 Clouds 0 1027 84 10000 3.6 140 19:18 12.01.2020
4424 Clouds 0 1027 80 10000 4.1 140 18:56 12.01.2020
4425 Clouds 0 1027 74 10000 4.6 140 18:38 12.01.2020
4426 Clouds 1 1027 74 10000 4.6 140 18:19 12.01.2020
4427 Clouds 1 1026 74 10000 5.7 150 17:42 12.01.2020
4428 Clear 1 1026 74 10000 5.7 150 17:21 12.01.2020
4429 Clear 2 1026 69 10000 5.7 140 16:58 12.01.2020
4430 Clear 2 1026 74 0 1 130 16:38 12.01.2020
4431 Clear 3 1026 73 10000 5.7 130 16:20 12.01.2020
4432 Clear 3 1027 69 0 4.12 159 15:55 12.01.2020
4433 Clear 4 1027 69 0 4.12 159 15:37 12.01.2020
4434 Clear 5 1027 73 10000 5.7 140 15:19 12.01.2020
4435 Clear 5 1027 73 10000 6.2 150 14:42 12.01.2020
4436 Clear 5 1027 73 10000 6.2 150 14:23 12.01.2020
4437 Clear 5 1027 59 10000 6.7 140 13:57 12.01.2020
4438 Clear 5 1027 59 10000 5.7 140 13:39 12.01.2020
4439 Clear 4 1027 60 10000 5.7 140 13:20 12.01.2020
4440 Clear 4 1028 60 10000 5.1 140 12:55 12.01.2020
4441 Clear 4 1028 60 10000 2.1 140 12:37 12.01.2020
4442 Clear 4 1028 60 10000 2.1 140 12:37 12.01.2020
4443 Clear 4 1028 60 10000 2.1 140 12:18 12.01.2020
4444 Clear 3 1029 74 10000 2.1 140 11:41 12.01.2020
4445 Clear 2 1029 74 10000 2.1 140 11:22 12.01.2020
4446 Clear 2 1029 80 10000 1.5 110 10:56 12.01.2020
4447 Clear 1 1029 76 10000 4.22 142 10:37 12.01.2020
4448 Clear 0 1029 76 10000 4.22 142 10:19 12.01.2020
4449 Clear -1 1029 86 10000 0.5 0 09:42 12.01.2020
4450 Clear -2 1029 86 10000 3.1 160 09:23 12.01.2020
4451 Clear -3 1029 85 10000 2.6 160 08:48 12.01.2020
4452 Clear -4 1030 92 10000 1 0 08:24 12.01.2020
4453 Clear -3 1030 86 10000 1.5 130 07:49 12.01.2020
4454 Clear -3 1030 86 10000 1.5 130 07:30 12.01.2020
4455 Clear -3 1030 86 10000 1 0 06:59 12.01.2020
4456 Clear -3 1030 86 10000 1 0 06:59 12.01.2020
4457 Clear -3 1030 86 10000 1 0 06:59 12.01.2020
4458 Clear -3 1030 86 10000 1 160 06:36 12.01.2020
4459 Clear -3 1030 92 10000 2.6 170 05:52 12.01.2020
4460 Clear -3 1031 85 10000 2.6 170 04:56 12.01.2020
4461 Clear -2 1031 92 10000 2.1 190 03:43 12.01.2020
4462 Clouds -2 1032 86 10000 1 270 02:46 12.01.2020
4463 Clear -2 1032 86 10000 2.1 200 02:24 12.01.2020
4464 Clear -1 1032 84 10000 1.5 240 01:34 12.01.2020
4465 Clear -1 1032 83 10000 2.1 260 00:46 12.01.2020
4466 Clear -1 1032 83 10000 2.6 250 00:22 12.01.2020
4467 Clear -1 1032 74 10000 2.1 300 23:57 11.01.2020
4468 Clear 0 1032 74 10000 1.5 340 23:39 11.01.2020
4469 Clear 0 1032 69 10000 3.1 330 23:18 11.01.2020
4470 Clear 0 1032 69 10000 3.1 330 22:56 11.01.2020
4471 Clear 0 1032 69 10000 4.1 330 22:37 11.01.2020
4472 Clear 1 1032 69 10000 4.1 330 22:19 11.01.2020
4473 Clear 1 1032 74 10000 4.1 320 21:44 11.01.2020
4474 Clear 1 1032 74 10000 4.1 320 21:19 11.01.2020
4475 Clear 2 1032 69 10000 4.1 320 20:57 11.01.2020
4476 Clear 2 1032 69 10000 3.6 320 20:39 11.01.2020
4477 Clouds 2 1032 69 10000 3.6 320 20:19 11.01.2020
4478 Clouds 2 1032 69 10000 3.6 320 19:57 11.01.2020
4479 Clouds 3 1032 69 10000 2.6 320 19:38 11.01.2020
4480 Clouds 3 1032 69 10000 2.6 320 19:38 11.01.2020
4481 Clouds 3 1032 69 10000 2.6 320 19:20 11.01.2020
4482 Clouds 3 1032 64 10000 4.1 330 18:55 11.01.2020
4483 Clouds 4 1032 64 10000 4.1 330 18:36 11.01.2020
4484 Clouds 4 1032 64 10000 4.1 330 18:18 11.01.2020
4485 Clouds 4 1032 64 10000 4.1 330 17:57 11.01.2020
4486 Clouds 4 1032 64 10000 4.1 330 17:57 11.01.2020
4487 Clouds 4 1032 60 10000 4.1 340 17:39 11.01.2020
4488 Clouds 4 1032 60 10000 4.1 340 17:18 11.01.2020
4489 Clouds 5 1032 60 10000 5.7 340 16:43 11.01.2020
4490 Clouds 5 1032 56 10000 6.7 350 16:24 11.01.2020
4491 Clouds 6 1032 56 10000 7.7 330 15:56 11.01.2020
4492 Clouds 6 1031 56 10000 7.7 340 15:38 11.01.2020
4493 Clouds 6 1031 56 10000 7.7 340 15:19 11.01.2020
4494 Clouds 6 1031 56 10000 6.7 330 14:46 11.01.2020
4495 Clouds 6 1031 56 10000 6.7 330 14:25 11.01.2020
4496 Clouds 6 1031 56 10000 7.7 320 13:57 11.01.2020
4497 Clouds 7 1031 58 10000 7.2 330 13:38 11.01.2020
4498 Clouds 7 1031 58 10000 7.2 330 13:20 11.01.2020
4499 Clouds 7 1031 65 10000 6.2 320 12:55 11.01.2020
4500 Clouds 7 1031 65 10000 6.2 320 12:36 11.01.2020
4501 Clouds 7 1031 70 10000 6.2 320 12:18 11.01.2020
4502 Clouds 7 1031 70 10000 6.2 320 11:42 11.01.2020
4503 Clouds 6 1031 75 10000 4.1 330 11:23 11.01.2020
4504 Clouds 6 1031 81 10000 2.6 330 10:46 11.01.2020
4505 Clouds 6 1031 86 10000 3.1 320 10:25 11.01.2020
4506 Clouds 5 1030 86 10000 3.1 350 09:43 11.01.2020
4507 Rain 5 1030 86 10000 3.1 350 09:21 11.01.2020
4508 Rain 5 1030 86 10000 3.1 10 08:57 11.01.2020
4509 Rain 5 1029 81 10000 4.6 350 08:38 11.01.2020
4510 Rain 5 1029 75 10000 5.1 300 08:19 11.01.2020
4511 Clouds 4 1028 75 10000 6.2 300 07:42 11.01.2020
4512 Clouds 5 1028 75 10000 6.2 300 07:24 11.01.2020
4513 Clouds 3 1028 75 10000 5.7 290 06:43 11.01.2020
4514 Rain 4 1027 86 10000 4.6 360 05:29 11.01.2020
4515 Clear 3 1026 86 10000 1 0 04:40 11.01.2020
4516 Clear 3 1026 86 10000 1 0 04:21 11.01.2020
4517 Mist 2 1026 92 3700 2.1 10 02:46 11.01.2020
4518 Fog 1 1025 100 250 1.5 170 01:47 11.01.2020
4519 Fog 1 1025 100 250 1.5 170 01:27 11.01.2020
4520 Fog 2 1025 100 200 1 0 00:52 11.01.2020
4521 Rain 2 1026 100 400 1 0 00:25 11.01.2020
4522 Rain 2 1025 100 300 3.1 160 23:58 10.01.2020
4523 Fog 2 1025 100 150 0.5 0 23:39 10.01.2020
4524 Clouds 1 1025 92 300 0.5 0 23:20 10.01.2020
4525 Mist 1 1025 92 1200 0.5 0 22:41 10.01.2020
4526 Mist 1 1025 92 1200 0.5 0 22:22 10.01.2020
4527 Mist 1 1025 100 2000 0.5 0 21:59 10.01.2020
4528 Mist 1 1024 100 1600 2.1 180 21:41 10.01.2020
4529 Mist 1 1024 100 1600 2.1 180 21:20 10.01.2020
4530 Mist 1 1024 100 1700 1.5 160 20:57 10.01.2020
4531 Mist 1 1024 100 1800 1.5 190 20:38 10.01.2020
4532 Mist 1 1024 100 1800 1.5 190 20:38 10.01.2020
4533 Mist 1 1024 100 1800 1.5 190 20:20 10.01.2020
4534 Mist 1 1024 100 2400 1.5 210 19:41 10.01.2020
4535 Mist 1 1024 100 2400 1.5 210 19:21 10.01.2020
4536 Mist 0 1024 100 2600 1 0 18:56 10.01.2020
4537 Mist 0 1024 92 3500 1 0 18:37 10.01.2020
4538 Mist 0 1024 92 3500 1 0 18:18 10.01.2020
4539 Mist 0 1024 92 3600 2.1 210 17:56 10.01.2020
4540 Mist 0 1023 92 3800 1.5 190 17:38 10.01.2020
4541 Mist 0 1023 92 3800 1.5 190 17:38 10.01.2020
4542 Mist 0 1023 92 2700 2.6 210 17:19 10.01.2020
4543 Mist 0 1023 92 2700 2.6 210 17:19 10.01.2020
4544 Mist 1 1023 80 2500 2.1 210 16:43 10.01.2020
4545 Mist 2 1023 80 2500 2.1 210 16:22 10.01.2020
4546 Mist 1 1023 80 2800 2.1 220 15:58 10.01.2020
4547 Mist 2 1023 80 3100 1 0 15:39 10.01.2020
4548 Mist 2 1023 80 3100 1 0 15:20 10.01.2020
4549 Mist 2 1023 80 3000 1.5 210 14:59 10.01.2020
4550 Mist 3 1022 80 2600 2.6 190 14:40 10.01.2020
4551 Mist 2 1022 71 2800 2.6 180 14:19 10.01.2020
4552 Mist 3 1022 71 2800 2.6 180 13:58 10.01.2020
4553 Mist 3 1022 71 2500 2.1 160 13:39 10.01.2020
4554 Mist 2 1022 70 2500 2.1 160 13:21 10.01.2020
4555 Mist 3 1022 70 3000 2.6 180 12:57 10.01.2020
4556 Mist 3 1022 92 2700 2.1 110 12:38 10.01.2020
4557 Mist 2 1022 92 2700 2.1 110 12:18 10.01.2020
4558 Mist 2 1022 92 2100 2.1 140 11:54 10.01.2020
4559 Mist 2 1022 92 2000 2.1 130 11:36 10.01.2020
4560 Mist 1 1022 92 1700 1.5 160 11:18 10.01.2020
4561 Mist 1 1022 92 1800 2.1 160 10:39 10.01.2020
4562 Mist 1 1022 92 1800 2.1 160 10:21 10.01.2020
4563 Mist 0 1022 92 2200 2.6 150 09:56 10.01.2020
4564 Mist 0 1022 92 2100 2.1 160 09:37 10.01.2020
4565 Mist 0 1022 92 2100 2.1 160 09:19 10.01.2020
4566 Mist 0 1022 92 2200 1.5 170 08:41 10.01.2020
4567 -273 0 0 0 0 0 08:22 10.01.2020
4568 Mist 0 1021 92 3600 2.1 130 07:44 10.01.2020
4569 Mist 0 1021 92 3700 2.6 140 07:24 10.01.2020
4570 Mist -1 1020 92 3600 2.6 130 06:45 10.01.2020
4571 Mist -1 1020 100 3400 2.1 140 06:25 10.01.2020
4572 Mist -1 1020 100 3400 2.6 150 05:46 10.01.2020
4573 Mist -1 1020 92 4300 3.6 120 03:37 10.01.2020
4574 Mist -1 1020 92 4300 3.6 120 03:18 10.01.2020
4575 Mist -1 1020 92 4500 2.1 120 02:39 10.01.2020
4576 Mist -1 1021 92 4900 2.6 130 01:38 10.01.2020
4577 Mist -1 1021 92 5000 2.6 130 01:19 10.01.2020
4578 Mist -1 1021 92 5000 2.1 120 00:39 10.01.2020
4579 Mist 0 1021 92 5000 2.6 130 23:58 09.01.2020
4580 Mist 0 1021 92 5000 2.1 120 23:38 09.01.2020
4581 Mist 0 1021 92 5000 2.1 120 23:20 09.01.2020
4582 Clouds 0 1022 92 6000 1.5 140 22:57 09.01.2020
4583 Clouds 0 1021 83 6000 3.1 130 22:38 09.01.2020
4584 Clouds 0 1021 83 6000 3.1 130 22:19 09.01.2020
4585 Clouds 0 1022 83 6000 2.6 130 21:57 09.01.2020
4586 Clouds 0 1022 86 6000 3.1 140 21:37 09.01.2020
4587 Clouds 0 1022 86 6000 3.1 140 21:37 09.01.2020
4588 Clouds 0 1022 86 6000 3.1 140 21:37 09.01.2020
4589 Clouds 1 1022 86 6000 3.1 140 21:19 09.01.2020
4590 Clouds 1 1022 86 6000 2.1 130 20:57 09.01.2020
4591 Clouds 1 1022 86 6000 2.1 130 20:39 09.01.2020
4592 Clouds 1 1022 86 6000 1.5 140 20:19 09.01.2020
4593 Clouds 1 1022 86 6000 1.5 140 20:19 09.01.2020
4594 Clouds 1 1022 86 6000 2.6 130 19:56 09.01.2020
4595 Clouds 1 1022 86 6000 2.6 130 19:37 09.01.2020
4596 Clouds 1 1022 86 6000 1.5 140 19:19 09.01.2020
4597 Clouds 2 1022 84 6000 1.5 90 18:55 09.01.2020
4598 Clouds 2 1022 84 6000 1.5 90 18:36 09.01.2020
4599 Clouds 2 1023 84 6000 3.1 110 18:18 09.01.2020
4600 Clouds 2 1023 84 10000 3.1 110 17:41 09.01.2020
4601 Clouds 3 1023 80 10000 2.6 150 17:18 09.01.2020
4602 Clouds 3 1023 77 10000 4.1 140 16:48 09.01.2020
4603 Clouds 3 1023 77 10000 4.1 140 16:24 09.01.2020
4604 Clouds 3 1023 77 10000 4.6 140 15:59 09.01.2020
4605 Clouds 3 1023 77 10000 4.6 140 15:40 09.01.2020
4606 Clouds 4 1023 77 10000 4.6 140 15:19 09.01.2020
4607 Clouds 4 1023 77 10000 4.1 120 14:42 09.01.2020
4608 Clouds 4 1024 70 10000 4.6 130 14:22 09.01.2020
4609 Clouds 5 1024 70 7000 3.6 130 13:57 09.01.2020
4610 Clouds 4 1024 70 7000 3.6 130 13:39 09.01.2020
4611 Clouds 4 1025 74 6000 4.1 130 13:20 09.01.2020
4612 Clouds 4 1025 74 6000 4.1 130 12:59 09.01.2020
4613 Clouds 4 1025 74 6000 4.6 130 12:40 09.01.2020
4614 Clouds 4 1025 74 6000 4.1 130 12:20 09.01.2020
4615 Clouds 4 1026 74 6000 4.6 130 11:57 09.01.2020
4616 Clouds 3 1026 74 6000 4.6 130 11:38 09.01.2020
4617 Clouds 3 1026 78 6000 3.6 130 11:20 09.01.2020
4618 Clouds 3 1026 86 6000 3.6 120 10:43 09.01.2020
4619 Clouds 3 1026 86 6000 3.6 120 10:22 09.01.2020
4620 Clouds 3 1026 86 6000 3.6 120 09:58 09.01.2020
4621 Clouds 2 1026 86 6000 3.6 130 09:38 09.01.2020
4622 Mist 2 1026 86 5000 4.1 140 09:19 09.01.2020
4623 Mist 2 1026 86 5000 4.6 130 08:55 09.01.2020
4624 Mist 2 1026 86 5000 4.6 130 08:37 09.01.2020
4625 Clouds 2 1026 86 6000 3.6 120 08:19 09.01.2020
4626 Clouds 2 1026 79 7000 4.1 130 07:42 09.01.2020
4627 Clouds 2 1026 86 7000 1.5 130 07:23 09.01.2020
4628 Clouds 2 1026 86 8000 3.1 120 06:38 09.01.2020
4629 Clouds 2 1027 86 8000 1 0 06:20 09.01.2020
4630 Clouds 3 1026 86 8000 3.1 140 05:48 09.01.2020
4631 Clouds 2 1027 86 8000 2.1 140 04:43 09.01.2020
4632 Clouds 3 1028 86 8000 1 0 03:31 09.01.2020
4633 Clouds 2 1028 86 9000 3.6 150 02:53 09.01.2020
4634 Clouds 2 1028 86 9000 3.1 160 02:24 09.01.2020
4635 Clouds 2 1028 86 9000 0.5 0 01:39 09.01.2020
4636 Rain 2 1029 86 7000 2.6 160 00:43 09.01.2020
4637 Rain 2 1029 83 8000 2.6 160 00:21 09.01.2020
4638 Rain 2 1029 83 8000 2.6 160 00:21 09.01.2020
4639 Rain 2 1029 83 8000 2.6 160 00:21 09.01.2020
4640 Rain 2 1029 83 10000 2.1 140 23:44 08.01.2020
4641 Rain 2 1029 86 10000 1.5 90 23:25 08.01.2020
4642 Rain 2 1029 80 10000 1.5 150 22:59 08.01.2020
4643 Rain 2 1029 80 10000 1.5 150 22:39 08.01.2020
4644 Rain 2 1029 80 10000 3.6 150 22:20 08.01.2020
4645 Rain 3 1029 80 10000 3.6 150 21:57 08.01.2020
4646 Clouds 3 1029 80 10000 3.6 160 21:38 08.01.2020
4647 Clouds 3 1029 80 10000 3.1 130 21:20 08.01.2020
4648 Clouds 3 1029 80 10000 3.6 160 20:58 08.01.2020
4649 Clouds 3 1029 80 10000 3.6 160 20:38 08.01.2020
4650 Clouds 3 1029 80 10000 4.1 160 20:20 08.01.2020
4651 Clouds 3 1030 74 10000 2.6 140 19:56 08.01.2020
4652 Clouds 3 1030 74 10000 2.6 140 19:56 08.01.2020
4653 Clouds 3 1030 74 10000 2.6 140 19:37 08.01.2020
4654 Clouds 3 1030 74 10000 2.6 140 19:37 08.01.2020
4655 Clouds 3 1029 80 10000 4.6 130 19:18 08.01.2020
4656 Clouds 3 1029 80 10000 5.1 140 18:55 08.01.2020
4657 Clouds 3 1029 80 10000 5.1 140 18:37 08.01.2020
4658 Clouds 3 1030 86 10000 5.1 150 18:18 08.01.2020
4659 Clouds 3 1030 86 10000 5.1 150 17:47 08.01.2020
4660 Clouds 3 1030 86 9000 4.1 160 17:24 08.01.2020
4661 Clouds 3 1030 86 9000 4.1 160 17:24 08.01.2020
4662 Clear 3 1029 80 10000 2.1 140 16:57 08.01.2020
4663 Clear 3 1029 80 10000 2.1 140 16:39 08.01.2020
4664 Clear 3 1029 81 10000 3.1 120 16:19 08.01.2020
4665 Clear 3 1029 81 10000 3.1 120 16:19 08.01.2020
4666 Clear 4 1029 81 10000 3.1 120 15:58 08.01.2020
4667 Clear 3 1029 75 10000 4.1 120 15:39 08.01.2020
4668 Clear 5 1029 70 10000 4.6 120 15:19 08.01.2020
4669 Clear 5 1029 81 10000 4.1 140 14:55 08.01.2020
4670 Clear 5 1029 81 10000 4.1 140 14:37 08.01.2020
4671 Clear 6 1029 66 10000 4.6 140 14:19 08.01.2020
4672 Clear 6 1029 61 10000 3.6 140 13:39 08.01.2020
4673 Clear 6 1030 61 10000 4.1 190 13:18 08.01.2020
4674 Clear 6 1030 61 10000 4.1 160 12:41 08.01.2020
4675 Clear 6 1030 65 10000 3.1 160 12:19 08.01.2020
4676 Clear 5 1031 70 10000 2.1 120 11:55 08.01.2020
4677 Clear 5 1031 70 10000 2.1 120 11:55 08.01.2020
4678 Clear 5 1031 70 10000 2.1 120 11:37 08.01.2020
4679 Clear 4 1031 75 10000 2.1 190 11:18 08.01.2020
4680 Clear 3 1031 80 10000 2.6 170 10:42 08.01.2020
4681 Clear 2 1031 86 10000 4.1 170 10:22 08.01.2020
4682 Clear 2 1031 85 10000 3.1 180 09:59 08.01.2020
4683 Clear 1 1031 85 10000 3.1 180 09:41 08.01.2020
4684 Clear 1 1032 85 10000 2.1 180 09:19 08.01.2020
4685 Mist 0 1031 85 10000 3.6 180 08:43 08.01.2020
4686 Mist 0 1031 94 10000 3.1 170 08:24 08.01.2020
4687 Mist 0 1031 94 10000 3.1 170 07:59 08.01.2020
4688 Mist 0 1031 94 10000 3.1 170 07:41 08.01.2020
4689 Clouds 1 1031 94 8000 2.6 160 07:23 08.01.2020
4690 Clouds 1 1031 94 10000 2.6 180 06:44 08.01.2020
4691 Clouds 1 1031 94 9000 2.1 170 05:59 08.01.2020
4692 Clouds 1 1031 94 9000 2.1 170 05:28 08.01.2020
4693 Clouds 1 1031 95 10000 1 90 04:46 08.01.2020
4694 Rain 1 1031 95 10000 0.5 0 03:32 08.01.2020
4695 Clouds 2 1031 95 10000 1 300 02:44 08.01.2020
4696 Clouds 2 1031 92 10000 1 340 02:19 08.01.2020
4697 Clouds 2 1031 92 10000 2.6 330 01:40 08.01.2020
4698 Rain 2 1031 91 10000 3.6 320 00:54 08.01.2020
4699 Clouds 2 1031 91 10000 3.6 320 00:26 08.01.2020
4700 Clouds 2 1031 91 10000 3.1 330 23:47 07.01.2020
4701 Clouds 2 1031 90 10000 2.6 310 23:22 07.01.2020
4702 Clouds 3 1031 90 10000 1 360 22:58 07.01.2020
4703 Clouds 2 1031 90 10000 1 360 22:39 07.01.2020
4704 Clouds 3 1031 90 10000 1.5 10 22:19 07.01.2020
4705 Rain 3 1031 90 10000 1.5 320 21:54 07.01.2020
4706 Rain 3 1031 90 10000 1.5 320 21:36 07.01.2020
4707 Rain 3 1031 90 10000 2.6 330 21:18 07.01.2020
4708 Rain 3 1031 90 10000 2.1 350 20:41 07.01.2020
4709 Clouds 3 1031 85 10000 3.1 350 20:23 07.01.2020
4710 Clouds 3 1031 87 10000 3.1 350 19:59 07.01.2020
4711 Clouds 2 1030 87 10000 3.1 350 19:38 07.01.2020
4712 Clouds 2 1030 80 10000 2.6 350 19:19 07.01.2020
4713 Clouds 2 1030 74 10000 4.1 340 18:57 07.01.2020
4714 Clouds 2 1030 74 10000 4.1 340 18:38 07.01.2020
4715 Clouds 2 1030 69 10000 5.1 310 18:18 07.01.2020
4716 Clouds 2 1030 74 10000 3.6 300 17:58 07.01.2020
4717 Clouds 2 1030 74 10000 3.6 300 17:38 07.01.2020
4718 Clouds 2 1030 80 10000 1.5 300 17:20 07.01.2020
4719 Clouds 2 1030 80 10000 1.5 300 16:55 07.01.2020
4720 Clouds 2 1029 74 10000 0.5 0 16:37 07.01.2020
4721 Clouds 2 1029 75 10000 1 0 16:18 07.01.2020
4722 Clouds 2 1029 74 10000 1.5 20 15:43 07.01.2020
4723 Clouds 2 1028 75 10000 2.6 20 15:24 07.01.2020
4724 Clouds 2 1028 75 10000 2.6 20 15:24 07.01.2020
4725 Clouds 2 1028 75 10000 2.6 20 15:24 07.01.2020
4726 Clouds 2 1028 75 10000 2.6 20 14:59 07.01.2020
4727 Clouds 2 1028 75 10000 2.6 20 14:41 07.01.2020
4728 Clouds 3 1027 57 10000 2.1 30 14:22 07.01.2020
4729 Clouds 3 1027 57 10000 2.1 30 14:22 07.01.2020
4730 Clouds 3 1027 74 10000 2.1 70 13:56 07.01.2020
4731 Clouds 2 1027 74 10000 2.1 70 13:37 07.01.2020
4732 Clouds 2 1027 57 10000 2.1 80 13:18 07.01.2020
4733 Clouds 3 1027 57 10000 2.1 110 12:40 07.01.2020
4734 Clouds 2 1027 80 10000 2.1 160 12:19 07.01.2020
4735 Clouds 2 1027 80 10000 3.1 170 11:43 07.01.2020
4736 Clouds 0 1028 79 10000 2.6 140 11:23 07.01.2020
4737 Clouds 0 1028 79 10000 2.6 140 10:58 07.01.2020
4738 Clouds -1 1028 86 10000 1.5 140 10:40 07.01.2020
4739 Clouds -2 1027 85 10000 2.6 160 10:22 07.01.2020
4740 Clouds -3 1027 85 10000 2.6 160 09:56 07.01.2020
4741 Clouds -4 1027 85 10000 1 150 09:37 07.01.2020
4742 Clouds -4 1027 85 10000 1.5 160 09:19 07.01.2020
4743 Clouds -5 1026 85 10000 2.1 160 08:41 07.01.2020
4744 Clear -6 1026 85 10000 2.6 160 08:20 07.01.2020
4745 Clear -6 1026 85 10000 2.6 140 07:49 07.01.2020
4746 Clear -6 1026 85 10000 2.6 120 07:25 07.01.2020
4747 Clear -6 1026 85 10000 2.1 120 06:52 07.01.2020
4748 Clear -6 1026 85 10000 2.1 120 06:32 07.01.2020
4749 Clear -5 1025 92 10000 1.5 130 05:42 07.01.2020
4750 Clear -5 1026 85 10000 1.5 150 03:52 07.01.2020
4751 Clear -5 1026 85 10000 2.6 140 03:25 07.01.2020
4752 Clear -5 1027 85 10000 3.1 160 02:20 07.01.2020
4753 Clear -5 1026 85 10000 3.1 150 01:40 07.01.2020
4754 Clear -5 1027 85 10000 3.1 150 01:18 07.01.2020
4755 Clear -4 1027 85 10000 2.1 140 00:21 07.01.2020
4756 Clear -4 1027 85 10000 1.5 160 23:58 06.01.2020
4757 Clear -4 1027 85 10000 1.5 160 23:39 06.01.2020
4758 Clear -4 1027 79 10000 2.1 140 23:21 06.01.2020
4759 Clear -4 1028 85 10000 1.5 150 22:56 06.01.2020
4760 Clear -3 1028 85 10000 1.5 150 22:37 06.01.2020
4761 Clear -3 1028 79 10000 0.5 0 22:19 06.01.2020
4762 Clear -3 1028 79 10000 1 150 21:54 06.01.2020
4763 Clear -3 1028 79 10000 1 150 21:36 06.01.2020
4764 Clear -3 1028 79 10000 1 150 21:36 06.01.2020
4765 Clear -3 1028 79 10000 0.5 0 21:18 06.01.2020
4766 Clear -3 1028 79 10000 2.1 110 20:54 06.01.2020
4767 Clear -3 1028 79 10000 2.1 110 20:54 06.01.2020
4768 Clear -2 1028 79 10000 2.1 110 20:36 06.01.2020
4769 Clouds -2 1028 74 10000 3.1 120 20:18 06.01.2020
4770 Clouds -2 1029 74 10000 3.1 100 19:55 06.01.2020
4771 Clouds -2 1029 74 10000 3.1 100 19:36 06.01.2020
4772 Clouds -1 1029 79 10000 2.1 120 19:18 06.01.2020
4773 Clouds -1 1029 79 10000 2.6 110 18:43 06.01.2020
4774 Clouds -1 1029 79 10000 2.1 120 18:20 06.01.2020
4775 Clouds 0 1029 79 10000 2.1 120 17:39 06.01.2020
4776 Clouds 0 1029 69 10000 3.1 130 17:20 06.01.2020
4777 Clouds 0 1029 69 10000 3.1 120 16:57 06.01.2020
4778 Clouds 1 1029 69 10000 3.1 120 16:38 06.01.2020
4779 Clouds 1 1029 64 10000 3.1 130 16:19 06.01.2020
4780 Clouds 2 1029 64 10000 3.1 130 15:43 06.01.2020
4781 Clouds 3 1030 64 10000 3.1 130 15:22 06.01.2020
4782 Clouds 3 1030 64 10000 3.1 130 14:59 06.01.2020
4783 Clouds 3 1030 55 10000 2.6 170 14:41 06.01.2020
4784 Clouds 3 1030 55 10000 3.1 150 14:22 06.01.2020
4785 Clouds 3 1030 59 10000 2.6 170 13:59 06.01.2020
4786 Clouds 3 1030 59 10000 2.6 170 13:39 06.01.2020
4787 Clouds 3 1031 59 10000 2.1 160 13:20 06.01.2020
4788 Clouds 3 1032 59 10000 2.6 150 12:55 06.01.2020
4789 Clouds 3 1032 59 10000 2.6 150 12:37 06.01.2020
4790 Clouds 3 1032 59 10000 2.6 150 12:37 06.01.2020
4791 Clouds 3 1032 59 10000 2.6 130 12:18 06.01.2020
4792 Clouds 2 1033 64 10000 2.6 190 11:41 06.01.2020
4793 Clouds 1 1033 69 10000 2.6 190 11:23 06.01.2020
4794 Clear 1 1033 69 10000 2.6 190 10:59 06.01.2020
4795 Clouds 0 1033 74 10000 2.6 170 10:40 06.01.2020
4796 Clouds 0 1033 70 10000 2.6 170 10:20 06.01.2020
4797 Clouds -2 1034 80 10000 1.5 170 09:39 06.01.2020
4798 Clouds -3 1034 74 10000 2.1 210 09:20 06.01.2020
4799 Clouds -3 1034 79 10000 1.5 220 08:52 06.01.2020
4800 Clouds -4 1034 79 10000 1.5 220 08:34 06.01.2020
4801 Clouds -4 1034 79 10000 1.5 210 07:57 06.01.2020
4802 Clouds -4 1034 79 10000 1.5 210 07:37 06.01.2020
4803 Clouds -4 1034 85 10000 2.6 190 06:49 06.01.2020
4804 Clouds -4 1034 85 10000 2.6 190 06:30 06.01.2020
4805 Clouds -4 1034 85 10000 1 0 05:48 06.01.2020
4806 Clear -4 1033 85 10000 1.5 40 04:55 06.01.2020
4807 Clear -4 1034 79 10000 1 360 04:21 06.01.2020
4808 Clear -3 1034 79 10000 1.5 150 03:25 06.01.2020
4809 Clear -2 1034 79 10000 4.1 310 02:25 06.01.2020
4810 Clear -2 1035 79 10000 3.6 320 01:46 06.01.2020
4811 Clear -2 1035 79 10000 3.1 310 01:28 06.01.2020
4812 Clear -2 1035 74 10000 4.1 300 00:44 06.01.2020
4813 Clear -2 1035 68 10000 2.6 290 00:24 06.01.2020
4814 Clear -2 1035 76 10000 2.1 300 23:43 05.01.2020
4815 Clear -2 1036 68 10000 1 0 23:23 05.01.2020
4816 Clear -2 1035 74 10000 1 0 22:58 05.01.2020
4817 Clear -2 1035 74 10000 1 0 22:39 05.01.2020
4818 Clear -2 1035 74 10000 2.6 310 22:20 05.01.2020
4819 Clear -2 1035 74 10000 2.6 310 21:56 05.01.2020
4820 Clear -1 1035 74 10000 3.6 300 21:38 05.01.2020
4821 Clear -1 1035 74 10000 5.1 310 21:20 05.01.2020
4822 Clear -1 1035 74 10000 5.1 310 21:20 05.01.2020
4823 Clear -1 1035 74 10000 4.1 330 20:56 05.01.2020
4824 Clear -1 1035 74 10000 4.1 330 20:38 05.01.2020
4825 Clear -1 1035 64 10000 3.1 330 20:19 05.01.2020
4826 Clear -1 1035 64 10000 3.1 330 19:58 05.01.2020
4827 Clear 0 1035 64 10000 4.1 310 19:38 05.01.2020
4828 Clear 0 1035 64 10000 4.1 310 19:19 05.01.2020
4829 Clear 0 1035 64 10000 3.1 300 18:55 05.01.2020
4830 Clear 0 1035 64 10000 3.1 300 18:37 05.01.2020
4831 Clear 0 1035 64 10000 3.1 300 18:37 05.01.2020
4832 Clouds 1 1034 59 10000 4.6 320 18:19 05.01.2020
4833 Clouds 1 1034 59 10000 4.6 320 17:57 05.01.2020
4834 Clouds 1 1034 59 10000 4.6 320 17:38 05.01.2020
4835 Clouds 1 1034 55 10000 6.2 320 17:19 05.01.2020
4836 Clouds 2 1033 55 10000 7.2 320 16:55 05.01.2020
4837 Clouds 2 1033 55 10000 7.2 320 16:37 05.01.2020
4838 Clear 2 1033 55 10000 7.7 320 16:19 05.01.2020
4839 Clouds 3 1033 51 10000 8.2 320 15:37 05.01.2020
4840 Clouds 4 1032 51 10000 7.7 320 15:18 05.01.2020
4841 Clouds 4 1032 51 10000 9.3 330 14:55 05.01.2020
4842 Clouds 4 1032 51 10000 9.3 330 14:37 05.01.2020
4843 Clouds 4 1032 51 10000 8.7 330 14:18 05.01.2020
4844 Clouds 4 1032 51 10000 9.8 320 13:54 05.01.2020
4845 Clouds 4 1032 51 10000 9.8 320 13:36 05.01.2020
4846 Clouds 4 1032 51 10000 9.3 320 13:18 05.01.2020
4847 Clouds 4 1032 55 10000 9.8 320 12:54 05.01.2020
4848 Clouds 4 1033 55 10000 8.2 320 12:36 05.01.2020
4849 Clouds 4 1033 55 10000 8.2 320 12:18 05.01.2020
4850 Clouds 4 1033 55 10000 8.7 320 11:43 05.01.2020
4851 Clouds 4 1033 55 10000 8.7 320 11:43 05.01.2020
4852 Clouds 4 1033 55 10000 8.7 320 11:43 05.01.2020
4853 Clouds 4 1033 55 10000 8.7 320 11:42 05.01.2020
4854 Clouds 4 1033 55 10000 8.7 320 11:42 05.01.2020
4855 Clouds 3 1032 59 10000 9.3 310 11:19 05.01.2020
4856 Clouds 3 1032 59 10000 9.3 310 10:57 05.01.2020
4857 Clouds 3 1032 59 10000 9.3 310 10:57 05.01.2020
4858 Clouds 3 1032 59 10000 9.3 310 10:57 05.01.2020
4859 Clouds 3 1032 59 10000 9.8 320 10:57 05.01.2020
4860 Clouds 3 1032 59 10000 9.8 320 10:38 05.01.2020
4861 Clouds 3 1032 59 10000 9.8 320 10:38 05.01.2020
4862 Clouds 3 1032 59 10000 9.8 320 10:38 05.01.2020
4863 Clouds 3 1032 59 10000 9.8 320 10:38 05.01.2020
4864 Clouds 3 1032 59 10000 9.8 320 10:38 05.01.2020
4865 Clouds 3 1032 59 10000 9.3 310 10:18 05.01.2020
4866 Clouds 2 1032 55 10000 9.8 310 09:41 05.01.2020
4867 Clouds 2 1031 59 10000 10.8 320 09:21 05.01.2020
4868 Clouds 2 1030 59 10000 10.3 320 08:49 05.01.2020
4869 Clouds 2 1030 59 10000 10.3 320 08:30 05.01.2020
4870 Clouds 1 1030 59 10000 10.3 320 07:56 05.01.2020
4871 Clouds 2 1030 59 10000 9.8 320 07:37 05.01.2020
4872 Clouds 2 1029 59 10000 8.7 320 07:19 05.01.2020
4873 Clouds 2 1028 64 10000 9.3 320 05:59 05.01.2020
4874 Clouds 2 1028 64 10000 8.2 320 05:32 05.01.2020
4875 Clouds 2 1027 64 10000 7.2 330 04:43 05.01.2020
4876 Clouds 2 1026 64 10000 9.3 320 04:18 05.01.2020
4877 Clouds 2 1026 64 10000 9.3 320 04:18 05.01.2020
4878 Clouds 2 1026 64 10000 9.3 320 04:18 05.01.2020
4879 Clouds 2 1025 64 10000 9.8 320 02:46 05.01.2020
4880 Rain 2 1025 69 10000 7.2 320 02:24 05.01.2020
4881 Rain 3 1024 74 10000 9.3 320 01:48 05.01.2020
4882 Rain 3 1024 86 10000 7.2 310 01:19 05.01.2020
4883 Rain 3 1023 86 10000 7.2 310 00:41 05.01.2020
4884 Rain 3 1023 86 8000 11.3 310 00:23 05.01.2020
4885 Rain 3 1023 86 8000 11.3 310 23:59 04.01.2020
4886 Clouds 4 1022 75 10000 10.8 290 23:40 04.01.2020
4887 Clouds 4 1022 70 10000 9.8 280 23:19 04.01.2020
4888 Clouds 4 1022 70 10000 9.8 280 23:19 04.01.2020
4889 Rain 4 1022 75 10000 9.3 280 22:40 04.01.2020
4890 Rain 4 1022 75 10000 10.8 280 22:22 04.01.2020
4891 Rain 4 1021 70 10000 13.9 280 21:58 04.01.2020
4892 Rain 4 1021 70 10000 13.9 280 21:39 04.01.2020
4893 Rain 4 1021 70 10000 12.3 280 21:20 04.01.2020
4894 Rain 4 1021 70 10000 11.3 280 20:59 04.01.2020
4895 Rain 4 1021 70 10000 11.3 280 20:40 04.01.2020
4896 Rain 4 1021 67 10000 12.3 280 20:21 04.01.2020
4897 Rain 4 1021 68 10000 12.3 280 19:57 04.01.2020
4898 Rain 4 1021 68 10000 12.3 280 19:57 04.01.2020
4899 Rain 4 1021 68 10000 13.4 290 19:38 04.01.2020
4900 Rain 4 1022 68 10000 13.4 280 19:20 04.01.2020
4901 Rain 5 1022 68 10000 13.9 290 18:55 04.01.2020
4902 Rain 5 1022 68 10000 13.9 290 18:36 04.01.2020
4903 Rain 5 1021 65 10000 10.8 280 18:18 04.01.2020
4904 Clouds 5 1022 65 10000 8.7 280 17:41 04.01.2020
4905 Clouds 5 1022 65 10000 8.7 280 17:41 04.01.2020
4906 Clouds 5 1022 65 10000 9.8 280 17:23 04.01.2020
4907 Clouds 5 1022 65 10000 9.8 280 16:58 04.01.2020
4908 Clouds 5 1022 65 10000 8.2 280 16:39 04.01.2020
4909 Clouds 5 1022 57 10000 7.2 280 16:21 04.01.2020
4910 Clouds 5 1022 57 10000 8.7 290 15:54 04.01.2020
4911 Clouds 5 1022 57 10000 8.7 290 15:36 04.01.2020
4912 Clouds 5 1022 57 10000 5.7 290 15:18 04.01.2020
4913 Clouds 5 1022 57 10000 6.7 310 14:42 04.01.2020
4914 Clouds 6 1022 81 10000 7.7 300 14:20 04.01.2020
4915 Clouds 6 1023 75 10000 5.7 310 13:59 04.01.2020
4916 Clouds 6 1023 75 10000 5.7 310 13:38 04.01.2020
4917 Rain 6 1023 75 10000 5.1 320 13:19 04.01.2020
4918 Rain 6 1023 81 10000 4.6 290 12:57 04.01.2020
4919 Rain 6 1023 81 10000 4.6 290 12:39 04.01.2020
4920 Rain 6 1024 81 10000 2.6 310 12:18 04.01.2020
4921 Rain 6 1024 81 10000 3.6 330 11:56 04.01.2020
4922 Rain 5 1024 81 10000 3.6 330 11:37 04.01.2020
4923 Rain 5 1024 80 10000 4.1 330 11:18 04.01.2020
4924 Rain 5 1025 75 10000 6.2 330 10:40 04.01.2020
4925 Rain 5 1024 81 10000 5.7 340 10:21 04.01.2020
4926 Rain 6 1024 87 10000 6.2 340 09:47 04.01.2020
4927 Rain 6 1024 75 10000 6.2 290 09:26 04.01.2020
4928 Clouds 6 1023 75 10000 6.2 290 08:49 04.01.2020
4929 Clouds 6 1023 75 10000 7.7 290 08:29 04.01.2020
4930 Clouds 6 1023 75 10000 7.7 290 07:57 04.01.2020
4931 Clouds 6 1022 81 10000 7.2 290 07:39 04.01.2020
4932 Clouds 6 1022 75 10000 10.3 290 06:44 04.01.2020
4933 Clouds 6 1022 70 10000 8.2 280 05:59 04.01.2020
4934 Rain 6 1022 70 10000 9.3 280 04:53 04.01.2020
4935 Rain 6 1022 75 10000 7.2 280 04:32 04.01.2020
4936 Clouds 6 1022 86 10000 2.6 220 03:37 04.01.2020
4937 Clouds 5 1023 78 10000 1.5 170 03:18 04.01.2020
4938 Clouds 3 1023 92 9000 2.6 130 02:18 04.01.2020
4939 Clouds 2 1023 92 6000 5.1 190 01:51 04.01.2020
4940 Mist 2 1023 100 5000 3.1 180 01:30 04.01.2020
4941 Mist 2 1024 100 4600 4.1 180 00:29 04.01.2020
4942 Mist 2 1024 100 4600 4.1 180 23:59 03.01.2020
4943 Mist 1 1025 100 3800 2.6 140 23:37 03.01.2020
4944 Rain 0 1025 100 2500 3.1 180 23:19 03.01.2020
4945 Mist -1 1025 92 3800 3.6 180 22:41 03.01.2020
4946 Mist -1 1025 92 3800 3.6 180 22:41 03.01.2020
4947 Mist 0 1025 92 3400 2.1 160 22:19 03.01.2020
4948 Mist -1 1025 92 2800 1.5 150 21:58 03.01.2020
4949 Mist 0 1025 92 2800 1.5 150 21:38 03.01.2020
4950 Mist -1 1025 92 2800 1.5 150 21:38 03.01.2020
4951 Mist -1 1025 92 2500 3.6 160 21:19 03.01.2020
4952 Mist -1 1025 92 2000 2.6 170 20:57 03.01.2020
4953 Mist -1 1025 92 2000 2.6 170 20:39 03.01.2020
4954 Mist -1 1025 92 1300 2.1 160 20:18 03.01.2020
4955 Mist -2 1025 92 1600 2.1 140 19:55 03.01.2020
4956 Mist -2 1025 92 1600 2.1 140 19:37 03.01.2020
4957 Mist -2 1025 92 1900 2.6 150 19:18 03.01.2020
4958 Mist -2 1025 92 2300 2.6 160 18:41 03.01.2020
4959 Mist -2 1025 92 2000 3.1 160 18:23 03.01.2020
4960 Mist -2 1026 100 2000 2.1 160 17:55 03.01.2020
4961 Mist -2 1026 100 2000 2.1 160 17:36 03.01.2020
4962 Mist -2 1026 100 2000 2.1 160 17:36 03.01.2020
4963 Mist -2 1025 92 2100 3.1 140 17:18 03.01.2020
4964 Mist -2 1025 92 1600 2.6 140 16:42 03.01.2020
4965 Clouds -2 1025 92 1200 2.6 140 16:22 03.01.2020
4966 Clouds -2 1025 100 750 3.6 140 15:44 03.01.2020
4967 Fog -2 1025 92 550 4.6 140 15:19 03.01.2020
4968 Fog -2 1025 92 550 4.6 140 15:19 03.01.2020
4969 Fog -2 1025 92 550 4.6 140 14:59 03.01.2020
4970 Fog -2 1025 100 550 4.1 130 14:38 03.01.2020
4971 Fog -1 1026 100 900 3.1 140 14:19 03.01.2020
4972 Fog -1 1026 100 550 3.6 140 13:43 03.01.2020
4973 Fog -1 1026 100 500 4.1 140 13:24 03.01.2020
4974 Fog 0 1026 100 500 4.1 140 12:58 03.01.2020
4975 Fog 0 1027 100 600 4.6 150 12:38 03.01.2020
4976 Fog 0 1027 100 500 3.6 140 12:20 03.01.2020
4977 Fog -1 1028 100 450 3.6 140 11:44 03.01.2020
4978 Fog -2 1028 100 350 3.1 130 11:20 03.01.2020
4979 Fog -3 1028 92 300 3.1 150 10:44 03.01.2020
4980 Fog -2 1028 92 350 3.1 160 10:25 03.01.2020
4981 Fog -2 1028 92 350 3.1 160 10:25 03.01.2020
4982 Fog -3 1028 92 350 3.6 160 09:58 03.01.2020
4983 Fog -3 1028 92 350 3.6 160 09:39 03.01.2020
4984 Fog -3 1028 92 400 3.1 150 09:21 03.01.2020
4985 Fog -3 1028 92 400 3.1 150 08:56 03.01.2020
4986 Fog -3 1029 92 400 2.1 150 08:37 03.01.2020
4987 Fog -3 1028 92 500 3.1 140 08:19 03.01.2020
4988 Fog -3 1028 92 500 3.6 140 07:39 03.01.2020
4989 Fog -3 1028 100 550 3.1 160 07:18 03.01.2020
4990 Fog -4 1028 92 550 3.6 160 06:47 03.01.2020
4991 Mist -4 1028 92 2100 3.1 160 06:29 03.01.2020
4992 Mist -4 1027 100 4100 3.1 160 05:39 03.01.2020
4993 Clouds -4 1028 92 4100 1.5 190 04:21 03.01.2020
4994 Mist -4 1028 92 4500 3.6 160 02:56 03.01.2020
4995 Mist -4 1028 92 5000 3.1 170 02:28 03.01.2020
4996 Mist -4 1028 100 4000 3.1 170 01:42 03.01.2020
4997 Mist -4 1028 100 4000 3.1 170 01:42 03.01.2020
4998 Mist -4 1028 92 4200 2.6 170 00:50 03.01.2020
4999 Mist -3 1028 92 4200 2.6 170 00:30 03.01.2020
5000 Mist -3 1028 92 5000 2.1 150 23:55 02.01.2020
5001 Mist -3 1028 92 5000 2.1 150 23:37 02.01.2020
5002 Clouds -3 1028 92 6000 3.1 120 23:19 02.01.2020
5003 Clouds -3 1028 92 6000 3.6 120 22:45 02.01.2020
5004 Clouds -3 1028 92 6000 4.1 110 22:22 02.01.2020
5005 Rain -3 1028 92 6000 4.1 110 22:00 02.01.2020
5006 Rain -2 1028 86 6000 1.5 130 21:41 02.01.2020
5007 Rain -3 1028 92 7000 1.5 110 21:23 02.01.2020
5008 Clouds -3 1028 86 7000 2.1 140 20:59 02.01.2020
5009 Clouds -3 1028 86 7000 2.1 140 20:39 02.01.2020
5010 Clouds -3 1028 86 7000 3.6 120 20:21 02.01.2020
5011 Clouds -2 1028 86 7000 2.6 120 19:56 02.01.2020
5012 Clouds -2 1028 86 7000 2.6 120 19:56 02.01.2020
5013 Clouds -2 1028 86 7000 2.6 120 19:56 02.01.2020
5014 Clouds -2 1028 86 7000 2.6 120 19:37 02.01.2020
5015 Clouds -2 1029 92 7000 2.6 150 19:19 02.01.2020
5016 Clouds -2 1029 92 7000 2.6 140 18:58 02.01.2020
5017 Clouds -2 1029 92 7000 2.6 140 18:39 02.01.2020
5018 Clouds -1 1029 86 8000 3.1 120 18:21 02.01.2020
5019 Clear -1 1029 86 10000 2.6 110 17:56 02.01.2020
5020 Clear -1 1029 86 10000 2.6 110 17:37 02.01.2020
5021 Clear 0 1029 80 10000 2.6 130 17:19 02.01.2020
5022 Clear 0 1029 86 10000 2.6 120 16:56 02.01.2020
5023 Clear 0 1029 86 10000 2.6 120 16:38 02.01.2020
5024 Clear 1 1029 80 10000 3.6 110 16:20 02.01.2020
5025 Clear 2 1029 74 10000 3.1 110 15:45 02.01.2020
5026 Clear 3 1029 74 10000 1.5 30 15:24 02.01.2020
5027 Clear 3 1029 74 10000 2.1 20 14:58 02.01.2020
5028 Clear 3 1029 74 10000 2.1 20 14:39 02.01.2020
5029 Clear 3 1030 74 10000 2.1 40 14:21 02.01.2020
5030 Clear 4 1030 74 10000 1.5 30 13:58 02.01.2020
5031 Clear 4 1030 74 10000 1.5 30 13:40 02.01.2020
5032 Clear 3 1030 80 10000 1.5 20 13:19 02.01.2020
5033 Clear 2 1031 74 10000 1 0 12:43 02.01.2020
5034 Clear 2 1031 80 10000 1 0 12:23 02.01.2020
5035 Clear 1 1031 80 10000 1 0 11:42 02.01.2020
5036 Clear 1 1032 80 10000 0.5 0 11:23 02.01.2020
5037 Clear 1 1032 86 10000 1 0 10:56 02.01.2020
5038 Clear -1 1032 86 10000 1 0 10:36 02.01.2020
5039 Clear -1 1032 86 10000 1.5 70 10:18 02.01.2020
5040 Clear -3 1032 86 10000 1.5 90 09:41 02.01.2020
5041 Clear -4 1032 85 10000 1.5 140 09:21 02.01.2020
5042 Clear -5 1032 92 10000 1.5 180 08:41 02.01.2020
5043 Clear -5 1032 92 10000 1 0 08:22 02.01.2020
5044 Clear -6 1032 92 10000 1 0 07:47 02.01.2020
5045 Clear -5 1032 92 10000 3.1 180 07:27 02.01.2020
5046 Clear -5 1033 85 10000 2.1 210 06:43 02.01.2020
5047 Clear -5 1033 85 10000 1.5 240 05:54 02.01.2020
5048 Clear -4 1033 92 10000 1 0 04:38 02.01.2020
5049 Clear -4 1033 85 10000 2.1 250 04:19 02.01.2020
5050 Clear -3 1033 86 10000 0.5 0 02:21 02.01.2020
5051 Clear -3 1033 86 10000 0.5 0 01:57 02.01.2020
5052 Clear -3 1033 92 10000 1 160 01:30 02.01.2020
5053 Clear -2 1033 92 10000 1.5 160 00:52 02.01.2020
5054 Clear -2 1033 92 10000 1.5 160 00:28 02.01.2020
5055 Clear -1 1033 92 10000 2.6 190 23:47 01.01.2020
5056 Clear -2 1034 92 10000 3.1 180 23:24 01.01.2020
5057 Rain -2 1034 86 10000 3.1 190 22:54 01.01.2020
5058 Clear -2 1034 86 10000 3.1 190 22:36 01.01.2020
5059 Clear -2 1034 80 10000 2.1 230 22:18 01.01.2020
5060 Clear -1 1034 74 10000 3.1 240 21:42 01.01.2020
5061 Clear -1 1034 92 0 0.95 233 21:21 01.01.2020
5062 Clear -1 1034 92 0 0.95 233 20:59 01.01.2020
5063 Clear -1 1034 80 0 2.1 230 20:39 01.01.2020
5064 Clear 0 1034 77 0 2.1 230 20:20 01.01.2020
5065 Clear 0 1034 77 0 2.1 230 19:58 01.01.2020
5066 Clear 0 1034 86 10000 3.1 230 19:39 01.01.2020
5067 Clear 0 1034 74 10000 3.1 260 19:20 01.01.2020
5068 Clear 0 1034 74 10000 3.1 260 18:57 01.01.2020
5069 Clear 0 1034 69 10000 1.5 290 18:39 01.01.2020
5070 Clear 1 1034 69 10000 1.5 330 18:20 01.01.2020
5071 Clear 1 1034 69 10000 1 300 17:59 01.01.2020
5072 Clear 1 1034 69 10000 1 300 17:40 01.01.2020
5073 Clear 1 1034 69 10000 1 300 17:40 01.01.2020
5074 Clear 2 1034 69 0 1 210 17:20 01.01.2020
5075 Clear 2 1034 64 10000 2.6 340 16:59 01.01.2020
5076 Clear 3 1034 64 10000 2.6 340 16:38 01.01.2020
5077 Clear 4 1033 60 10000 3.6 330 16:20 01.01.2020
5078 Clear 4 1033 60 10000 4.6 320 15:57 01.01.2020
5079 Clear 5 1033 60 10000 4.6 320 15:38 01.01.2020
5080 Clear 5 1033 56 10000 5.1 320 15:20 01.01.2020
5081 Clear 6 1033 56 10000 4.6 350 14:56 01.01.2020
5082 Clear 5 1033 56 10000 4.6 350 14:37 01.01.2020
5083 Clear 6 1033 56 10000 4.6 340 14:19 01.01.2020
5084 Clear 6 1034 56 10000 6.2 330 13:55 01.01.2020
5085 Clear 6 1034 56 10000 6.2 330 13:36 01.01.2020
5086 Clear 6 1034 56 10000 5.7 320 13:18 01.01.2020
5087 Clear 6 1034 56 10000 5.7 330 12:40 01.01.2020
5088 Clouds 5 1034 56 10000 5.1 300 12:20 01.01.2020
5089 Clouds 5 1034 56 10000 5.7 310 11:57 01.01.2020
5090 Clouds 5 1034 56 10000 5.7 310 11:57 01.01.2020
5091 Clouds 5 1034 56 10000 5.7 310 11:39 01.01.2020
5092 Clouds 4 1035 60 10000 4.6 310 11:20 01.01.2020
5093 Clouds 4 1035 60 10000 3.6 300 10:55 01.01.2020
5094 Clouds 4 1035 60 10000 3.6 300 10:37 01.01.2020
5095 Clouds 3 1035 64 10000 4.1 300 10:18 01.01.2020
5096 Clouds 3 1035 60 10000 4.6 310 09:40 01.01.2020
5097 Clouds 2 1034 64 10000 5.7 310 09:20 01.01.2020
5098 Clouds 2 1034 60 10000 4.1 310 08:57 01.01.2020
5099 Clouds 2 1034 60 10000 4.1 310 08:57 01.01.2020
5100 Clouds 2 1034 60 10000 4.1 310 08:38 01.01.2020
5101 Clouds 1 1034 60 10000 4.1 310 08:19 01.01.2020
5102 Clouds 1 1034 60 10000 5.1 310 07:57 01.01.2020
5103 Clouds 1 1034 60 10000 5.1 310 07:38 01.01.2020
5104 Clouds 1 1034 64 10000 4.1 320 06:55 01.01.2020
5105 Clouds 1 1034 64 10000 5.7 320 06:36 01.01.2020
5106 Clouds 1 1034 64 10000 5.1 300 05:48 01.01.2020
5107 Clouds 1 1033 64 10000 5.7 300 04:20 01.01.2020
5108 Clouds 1 1033 64 10000 6.7 300 03:39 01.01.2020
5109 Clouds 1 1033 69 10000 6.7 300 03:21 01.01.2020
5110 Clouds 1 1034 64 10000 6.7 300 02:41 01.01.2020
5111 Clouds 1 1034 64 10000 6.2 300 02:22 01.01.2020
5112 Clouds 1 1034 64 10000 5.1 300 01:41 01.01.2020
5113 Clouds 1 1033 64 10000 5.7 300 01:22 01.01.2020
5114 Clouds 1 1033 64 10000 6.2 300 00:45 01.01.2020
5115 Clouds 1 1033 64 10000 6.2 300 00:45 01.01.2020
5116 Clouds 1 1033 64 10000 5.7 300 00:26 01.01.2020
5117 Clouds 2 1033 60 10000 5.1 310 23:56 31.12.2019
5118 Clouds 2 1033 60 10000 5.1 310 23:36 31.12.2019
5119 Clouds 2 1033 65 10000 5.7 310 23:18 31.12.2019
5120 Clouds 2 1033 69 10000 6.7 310 22:55 31.12.2019
5121 Clouds 2 1033 69 10000 6.7 310 22:36 31.12.2019
5122 Clouds 2 1033 64 10000 5.7 310 22:18 31.12.2019
5123 Clouds 2 1032 69 10000 4.1 320 21:42 31.12.2019
5124 Clouds 2 1032 69 10000 4.6 320 21:24 31.12.2019
5125 Clouds 2 1032 69 10000 4.6 330 20:57 31.12.2019
5126 Clouds 2 1032 69 10000 4.6 330 20:38 31.12.2019
5127 Clouds 3 1032 65 10000 4.6 330 20:20 31.12.2019
5128 Clouds 3 1031 65 10000 6.2 340 19:55 31.12.2019
5129 Clouds 3 1031 65 10000 6.2 340 19:37 31.12.2019
5130 Clouds 3 1031 65 10000 5.1 340 19:18 31.12.2019
5131 Clouds 3 1030 65 10000 4.1 360 18:55 31.12.2019
5132 Clouds 3 1030 65 10000 4.1 360 18:37 31.12.2019
5133 Clouds 4 1029 60 10000 6.7 320 18:19 31.12.2019
5134 Clouds 4 1029 56 10000 6.7 310 17:55 31.12.2019
5135 Clouds 4 1029 56 10000 6.7 310 17:36 31.12.2019
5136 Clouds 5 1029 56 10000 5.7 320 17:18 31.12.2019
5137 Clouds 5 1029 52 10000 8.2 310 16:55 31.12.2019
5138 Clouds 6 1029 52 10000 8.2 310 16:36 31.12.2019
5139 Clouds 6 1028 52 10000 8.7 310 16:18 31.12.2019
5140 Clouds 6 1028 49 10000 8.2 310 15:55 31.12.2019
5141 Clouds 7 1028 49 10000 8.2 310 15:37 31.12.2019
5142 Clouds 7 1028 45 10000 7.7 310 15:19 31.12.2019
5143 Clouds 7 1027 45 10000 6.7 310 14:55 31.12.2019
5144 Clouds 7 1027 45 10000 6.7 310 14:37 31.12.2019
5145 Clouds 8 1027 39 10000 6.7 320 14:18 31.12.2019
5146 Clouds 8 1026 39 10000 7.7 300 13:54 31.12.2019
5147 Clouds 8 1027 37 10000 7.7 310 13:36 31.12.2019
5148 Clouds 8 1027 37 10000 7.7 310 13:18 31.12.2019
5149 Clouds 8 1027 40 10000 6.2 300 12:54 31.12.2019
5150 Clouds 8 1027 40 10000 6.2 300 12:36 31.12.2019
5151 Clouds 8 1027 40 10000 6.2 300 12:36 31.12.2019
5152 Clouds 9 1026 40 10000 8.2 290 12:18 31.12.2019
5153 Clouds 8 1026 60 10000 2.1 220 11:54 31.12.2019
5154 Clouds 7 1026 60 10000 2.1 220 11:36 31.12.2019
5155 Clouds 7 1026 60 10000 2.1 220 11:36 31.12.2019
5156 Clouds 7 1027 64 10000 2.6 180 11:18 31.12.2019
5157 Clouds 6 1027 60 0 9.3 230 10:54 31.12.2019
5158 Clouds 6 1027 60 0 9.3 230 10:36 31.12.2019
5159 Clouds 6 1027 60 0 9.3 230 10:36 31.12.2019
5160 Clouds 5 1027 59 10000 4.1 160 10:18 31.12.2019
5161 Rain 4 1027 59 10000 3.6 170 09:54 31.12.2019
5162 Rain 4 1027 59 10000 3.6 170 09:36 31.12.2019
5163 Rain 3 1027 80 10000 4.1 170 09:18 31.12.2019
5164 Clouds 2 1027 86 10000 2.6 170 08:42 31.12.2019
5165 Clouds 1 1027 86 10000 3.6 160 08:21 31.12.2019
5166 Clouds 1 1027 86 10000 3.1 160 07:44 31.12.2019
5167 Clouds 0 1027 86 10000 2.6 160 07:22 31.12.2019
5168 Clouds 1 1028 80 10000 2.1 150 06:51 31.12.2019
5169 Clouds 0 1028 80 10000 2.1 150 06:51 31.12.2019
5170 Clouds 0 1028 80 10000 1.5 140 06:23 31.12.2019
5171 Clouds 0 1028 80 10000 1.5 120 04:54 31.12.2019
5172 Clouds -1 1029 80 10000 2.1 120 04:24 31.12.2019
5173 Clouds -1 1029 86 10000 2.6 170 02:57 31.12.2019
5174 Clear -1 1030 86 10000 2.1 150 02:21 31.12.2019
5175 Clear -1 1030 80 10000 0.5 0 01:50 31.12.2019
5176 Clear -1 1030 80 10000 0.5 0 01:31 31.12.2019
5177 Clear -1 1031 80 10000 2.1 130 00:49 31.12.2019
5178 Clear -1 1031 86 10000 2.1 140 00:25 31.12.2019
5179 Clear -1 1031 80 10000 1 120 23:58 30.12.2019
5180 Clear -1 1031 80 10000 1 120 23:40 30.12.2019
5181 Clear -2 1032 86 10000 1.5 140 23:22 30.12.2019
5182 Clear -2 1032 86 10000 1.5 130 22:59 30.12.2019
5183 Clear -2 1032 86 10000 1.5 130 22:41 30.12.2019
5184 Clear -1 1032 80 10000 1.5 140 22:21 30.12.2019
5185 Clear -1 1032 79 10000 3.6 160 21:57 30.12.2019
5186 Clear -1 1032 79 10000 3.6 160 21:39 30.12.2019
5187 Clear -1 1033 80 10000 3.1 160 21:20 30.12.2019
5188 Clear -1 1033 80 10000 3.1 160 20:59 30.12.2019
5189 Clear -1 1033 80 10000 1.5 140 20:40 30.12.2019
5190 Clouds -1 1034 50 10000 1.5 80 20:20 30.12.2019
5191 Clouds -1 1034 50 10000 1.5 80 19:59 30.12.2019
5192 Clouds -1 1034 50 10000 1 130 19:39 30.12.2019
5193 Clouds 0 1034 50 10000 1.5 150 19:19 30.12.2019
5194 Clouds 0 1034 50 10000 1.5 150 18:59 30.12.2019
5195 Clouds 0 1034 50 10000 3.1 150 18:41 30.12.2019
5196 Clouds 0 1034 50 10000 1.5 150 18:20 30.12.2019
5197 Clouds 0 1034 50 10000 2.6 160 17:57 30.12.2019
5198 Clouds 0 1034 50 10000 2.6 160 17:39 30.12.2019
5199 Clouds 1 1035 52 10000 2.6 160 17:19 30.12.2019
5200 Clouds 1 1035 52 10000 2.6 160 16:58 30.12.2019
5201 Clouds 1 1035 69 10000 1.5 150 16:38 30.12.2019
5202 Clouds 1 1035 69 10000 2.1 140 16:20 30.12.2019
5203 Clouds 1 1035 69 10000 2.1 140 15:56 30.12.2019
5204 Clouds 2 1035 69 10000 2.1 140 15:37 30.12.2019
5205 Clouds 2 1035 69 10000 2.1 130 15:18 30.12.2019
5206 Rain 2 1035 64 10000 1.5 100 14:43 30.12.2019
5207 Rain 2 1035 59 10000 1.5 160 14:20 30.12.2019
5208 Rain 2 1035 59 10000 1.5 160 13:58 30.12.2019
5209 Rain 2 1036 64 10000 1.5 160 13:40 30.12.2019
5210 Rain 2 1036 64 10000 1.5 160 13:40 30.12.2019
5211 Rain 2 1036 64 10000 3.1 190 13:21 30.12.2019
5212 Rain 2 1036 64 10000 2.6 180 12:56 30.12.2019
5213 Rain 2 1036 64 10000 2.6 180 12:37 30.12.2019
5214 Clear 2 1037 64 10000 2.6 180 12:18 30.12.2019
5215 Clear 2 1037 41 10000 1.5 200 11:45 30.12.2019
5216 Rain 1 1037 74 10000 1.5 220 11:20 30.12.2019
5217 Rain 0 1037 74 10000 1.5 170 10:58 30.12.2019
5218 Rain 0 1037 74 10000 1.5 170 10:40 30.12.2019
5219 Clear -1 1038 79 10000 1.5 150 10:19 30.12.2019
5220 Clear -2 1038 86 10000 1 130 09:42 30.12.2019
5221 Clear -2 1038 79 10000 0.5 0 09:20 30.12.2019
5222 Clear -3 1038 79 10000 1 240 08:56 30.12.2019
5223 Clear -3 1038 79 10000 1 240 08:38 30.12.2019
5224 Clouds -3 1038 79 10000 2.1 250 08:18 30.12.2019
5225 Clouds -3 1037 86 10000 1 0 07:42 30.12.2019
5226 Clouds -4 1037 86 10000 1.5 330 07:18 30.12.2019
5227 Clouds -4 1038 85 10000 2.1 340 06:29 30.12.2019
5228 Clear -5 1038 79 10000 1 320 04:29 30.12.2019
5229 Clear -5 1038 73 10000 3.1 320 03:43 30.12.2019
5230 Clear -4 1038 73 10000 2.1 320 02:41 30.12.2019
5231 Clear -4 1038 79 10000 3.6 340 02:21 30.12.2019
5232 Clear -3 1038 74 10000 3.1 330 01:27 30.12.2019
5233 Clear -3 1038 74 10000 3.6 340 00:51 30.12.2019
5234 Clear -3 1038 74 10000 3.6 340 00:28 30.12.2019
5235 Clouds -2 1039 68 10000 4.1 320 23:40 29.12.2019
5236 Clouds -2 1039 68 10000 3.6 320 23:22 29.12.2019
5237 Clouds -2 1039 71 10000 4.6 320 22:57 29.12.2019
5238 Clouds -2 1039 71 10000 4.6 320 22:38 29.12.2019
5239 Clouds -2 1039 71 10000 4.1 320 22:20 29.12.2019
5240 Clouds -2 1039 71 10000 4.6 320 21:55 29.12.2019
5241 Clouds -1 1039 71 10000 4.6 320 21:36 29.12.2019
5242 Clouds -1 1038 71 10000 5.1 310 21:18 29.12.2019
5243 Clouds -1 1039 71 10000 4.6 320 20:55 29.12.2019
5244 Clouds -1 1039 71 10000 4.6 320 20:55 29.12.2019
5245 Clouds -1 1039 71 10000 4.6 320 20:37 29.12.2019
5246 Clouds -1 1039 71 10000 4.6 320 20:37 29.12.2019
5247 Clouds -1 1039 69 10000 3.6 330 20:18 29.12.2019
5248 Clouds 0 1039 64 10000 4.1 330 19:55 29.12.2019
5249 Clouds 0 1039 64 10000 4.1 330 19:37 29.12.2019
5250 Clouds 0 1039 64 10000 4.1 330 19:37 29.12.2019
5251 Clouds 0 1039 64 10000 4.6 320 19:18 29.12.2019
5252 Clouds 0 1039 64 10000 4.1 330 18:54 29.12.2019
5253 Clouds 0 1039 64 10000 4.1 330 18:36 29.12.2019
5254 Clouds 0 1038 64 10000 4.6 320 18:18 29.12.2019
5255 Clouds 0 1038 64 10000 4.6 330 17:54 29.12.2019
5256 Clouds 0 1038 64 10000 4.6 330 17:36 29.12.2019
5257 Clouds 0 1038 64 10000 5.1 330 17:18 29.12.2019
5258 Clouds 0 1038 64 10000 5.7 320 16:54 29.12.2019
5259 Clouds 0 1038 64 10000 5.7 320 16:54 29.12.2019
5260 Clouds 0 1038 64 10000 5.7 320 16:36 29.12.2019
5261 Clouds 0 1038 64 10000 5.7 330 16:18 29.12.2019
5262 Clouds 1 1037 64 10000 6.2 330 15:54 29.12.2019
5263 Clouds 1 1037 64 10000 6.2 330 15:36 29.12.2019
5264 Clouds 1 1038 64 10000 6.7 330 15:18 29.12.2019
5265 Clouds 1 1037 64 10000 6.2 330 14:46 29.12.2019
5266 Clouds 1 1037 59 10000 7.7 320 14:19 29.12.2019
5267 Clouds 1 1037 59 10000 7.7 320 13:59 29.12.2019
5268 Clouds 1 1037 59 10000 6.7 320 13:40 29.12.2019
5269 Clouds 1 1038 59 10000 7.7 320 13:22 29.12.2019
5270 Clouds 1 1038 59 10000 7.7 320 13:22 29.12.2019
5271 Clouds 1 1038 59 10000 7.2 320 12:58 29.12.2019
5272 Clouds 1 1038 59 10000 7.2 320 12:39 29.12.2019
5273 Clouds 1 1038 59 10000 7.7 320 12:21 29.12.2019
5274 Clouds 1 1038 59 10000 7.2 320 11:43 29.12.2019
5275 Clouds 1 1039 63 10000 8.2 320 11:23 29.12.2019
5276 Clouds 1 1039 63 10000 8.2 320 10:59 29.12.2019
5277 Clouds 1 1039 63 10000 9.3 320 10:40 29.12.2019
5278 Clouds 0 1039 63 10000 8.2 320 10:18 29.12.2019
5279 Clouds 0 1038 63 10000 8.2 320 09:47 29.12.2019
5280 Clouds 0 1038 63 10000 8.2 320 09:28 29.12.2019
5281 Clouds 0 1038 63 10000 8.2 320 09:28 29.12.2019
5282 Clouds 0 1038 63 10000 8.2 320 08:59 29.12.2019
5283 Clouds 0 1038 63 10000 9.3 320 08:40 29.12.2019
5284 Clouds 0 1038 63 10000 9.3 320 08:40 29.12.2019
5285 Clouds 0 1038 70 10000 8.2 320 08:21 29.12.2019
5286 Clouds 0 1037 59 10000 9.8 320 07:45 29.12.2019
5287 Clouds 0 1037 59 10000 8.7 320 07:26 29.12.2019
5288 Clouds 0 1037 59 10000 9.3 320 06:42 29.12.2019
5289 Clouds 0 1037 59 10000 8.2 320 06:19 29.12.2019
5290 Clouds 0 1037 59 10000 8.2 320 05:44 29.12.2019
5291 Clouds 0 1037 59 10000 8.7 320 04:33 29.12.2019
5292 Clouds 0 1037 59 10000 9.3 320 03:39 29.12.2019
5293 Clouds 0 1038 59 10000 8.2 320 02:36 29.12.2019
5294 Clouds 1 1037 64 10000 8.2 320 02:18 29.12.2019
5295 Clouds 1 1037 64 10000 8.2 320 01:29 29.12.2019
5296 Clouds 1 1038 64 10000 8.7 320 00:47 29.12.2019
5297 Clouds 1 1038 64 10000 9.3 320 00:25 29.12.2019
5298 Clouds 0 1038 64 10000 8.7 310 23:56 28.12.2019
5299 Clouds 0 1038 64 10000 8.7 310 23:37 28.12.2019
5300 Clouds 1 1038 64 10000 8.7 320 23:18 28.12.2019
5301 Clouds 1 1038 64 10000 8.7 320 23:18 28.12.2019
5302 Clouds 1 1038 64 10000 8.7 320 23:18 28.12.2019
5303 Clouds 1 1038 64 10000 8.7 320 23:18 28.12.2019
5304 Clouds 0 1038 64 10000 8.2 320 22:38 28.12.2019
5305 Clouds 0 1038 64 10000 8.2 320 22:19 28.12.2019
5306 Clouds 1 1038 64 10000 8.2 320 21:57 28.12.2019
5307 Clouds 1 1037 64 10000 9.8 320 21:38 28.12.2019
5308 Clouds 0 1037 64 10000 10.8 320 21:19 28.12.2019
5309 Clouds 1 1038 64 10000 7.7 320 20:55 28.12.2019
5310 Clouds 1 1038 64 10000 7.7 320 20:55 28.12.2019
5311 Clouds 1 1038 64 10000 7.7 320 20:36 28.12.2019
5312 Clouds 1 1037 64 10000 8.2 320 20:18 28.12.2019
5313 Clouds 1 1037 64 10000 8.7 320 19:54 28.12.2019
5314 Clouds 1 1037 64 10000 8.7 320 19:36 28.12.2019
5315 Clouds 1 1037 64 10000 9.8 320 19:18 28.12.2019
5316 Clouds 1 1036 64 10000 10.8 320 18:43 28.12.2019
5317 Clouds 1 1036 59 10000 8.7 320 18:20 28.12.2019
5318 Clouds 1 1036 59 10000 7.7 320 17:59 28.12.2019
5319 Clouds 1 1036 59 10000 7.7 320 17:41 28.12.2019
5320 Clouds 1 1036 59 10000 7.7 320 17:21 28.12.2019
5321 Clouds 1 1035 59 10000 7.7 330 16:54 28.12.2019
5322 Clouds 1 1035 59 10000 7.7 330 16:36 28.12.2019
5323 Clouds 1 1035 59 10000 7.7 330 16:36 28.12.2019
5324 Clouds 1 1036 55 10000 8.7 330 16:18 28.12.2019
5325 Clouds 2 1035 55 10000 8.7 330 15:41 28.12.2019
5326 Clouds 2 1035 55 10000 8.7 330 15:21 28.12.2019
5327 Clouds 2 1035 55 10000 9.8 340 14:48 28.12.2019
5328 Clouds 2 1035 55 10000 10.8 330 14:26 28.12.2019
5329 Rain 2 1034 59 10000 10.3 330 13:58 28.12.2019
5330 Rain 2 1034 59 10000 10.3 330 13:39 28.12.2019
5331 Rain 3 1035 55 10000 10.3 330 13:20 28.12.2019
5332 Rain 3 1034 55 10000 9.3 330 12:57 28.12.2019
5333 Rain 3 1034 55 10000 9.3 330 12:39 28.12.2019
5334 Rain 3 1035 55 10000 8.7 330 12:20 28.12.2019
5335 Clouds 2 1034 59 10000 8.7 330 11:40 28.12.2019
5336 Rain 2 1034 55 10000 8.7 320 11:21 28.12.2019
5337 Rain 2 1034 55 10000 8.7 320 11:21 28.12.2019
5338 Clouds 2 1034 55 10000 8.7 320 10:56 28.12.2019
5339 Clouds 2 1034 59 10000 9.3 330 10:37 28.12.2019
5340 Clouds 2 1034 64 10000 8.2 320 10:18 28.12.2019
5341 Clouds 2 1034 69 10000 7.7 330 09:45 28.12.2019
5342 Clouds 2 1033 69 10000 8.2 330 09:24 28.12.2019
5343 Clouds 1 1033 69 10000 8.2 330 08:58 28.12.2019
5344 Clouds 1 1033 74 10000 6.7 330 08:40 28.12.2019
5345 Clouds 1 1033 74 10000 7.2 330 08:22 28.12.2019
5346 Clouds 1 1032 80 10000 7.2 330 07:43 28.12.2019
5347 Rain 1 1032 80 10000 5.7 330 07:21 28.12.2019
5348 Clouds 2 1031 80 10000 6.7 330 05:46 28.12.2019
5349 Rain 2 1031 74 10000 8.7 320 03:48 28.12.2019
5350 Clouds 3 1031 74 10000 8.2 310 02:51 28.12.2019
5351 Clouds 3 1031 74 10000 7.7 320 02:20 28.12.2019
5352 Clouds 3 1031 74 10000 7.7 320 01:55 28.12.2019
5353 Clouds 3 1030 74 10000 8.7 320 01:23 28.12.2019
5354 Rain 3 1030 69 10000 8.7 320 00:48 28.12.2019
5355 Rain 3 1030 69 10000 8.7 320 00:30 28.12.2019
5356 Clouds 3 1030 64 10000 7.7 310 23:58 27.12.2019
5357 Clouds 3 1030 64 10000 7.7 310 23:39 27.12.2019
5358 Clouds 3 1030 64 10000 7.2 310 23:19 27.12.2019
5359 Clouds 3 1029 64 10000 6.2 310 22:56 27.12.2019
5360 Clouds 3 1029 64 10000 6.2 310 22:37 27.12.2019
5361 Clouds 3 1029 64 10000 7.2 310 22:19 27.12.2019
5362 Clouds 3 1029 64 10000 6.2 320 21:43 27.12.2019
5363 Clouds 3 1029 64 10000 7.2 330 21:25 27.12.2019
5364 Clouds 3 1029 64 10000 7.2 330 20:57 27.12.2019
5365 Clouds 3 1028 64 10000 7.2 330 20:38 27.12.2019
5366 Clouds 3 1028 64 10000 6.7 330 20:20 27.12.2019
5367 Clouds 4 1027 64 10000 7.2 320 19:41 27.12.2019
5368 Clouds 4 1027 60 10000 7.2 330 19:20 27.12.2019
5369 Clouds 4 1027 60 10000 7.2 330 19:20 27.12.2019
5370 Clouds 4 1027 60 10000 7.2 330 18:57 27.12.2019
5371 Clouds 4 1027 60 10000 6.7 320 18:37 27.12.2019
5372 Clouds 4 1026 60 10000 6.2 330 18:19 27.12.2019
5373 Clouds 4 1026 60 10000 6.7 330 17:55 27.12.2019
5374 Clouds 4 1026 60 10000 6.7 330 17:37 27.12.2019
5375 Clear 4 1025 60 10000 6.7 320 17:18 27.12.2019
5376 Clear 4 1025 56 10000 6.2 320 16:44 27.12.2019
5377 Clouds 4 1025 48 10000 5.7 320 16:26 27.12.2019
5378 Clouds 5 1025 48 10000 5.7 330 15:59 27.12.2019
5379 Clouds 5 1025 48 10000 5.7 330 15:40 27.12.2019
5380 Clouds 5 1024 48 10000 5.1 310 15:20 27.12.2019
5381 Clouds 5 1024 48 10000 5.1 310 14:56 27.12.2019
5382 Clouds 5 1024 48 10000 4.6 320 14:38 27.12.2019
5383 Clouds 5 1024 48 10000 6.2 320 14:20 27.12.2019
5384 Clouds 6 1024 52 10000 3.6 340 13:48 27.12.2019
5385 Clouds 6 1023 56 10000 3.6 320 13:25 27.12.2019
5386 Clouds 6 1023 56 10000 3.6 320 13:25 27.12.2019
5387 Clouds 6 1023 56 10000 3.6 320 12:56 27.12.2019
5388 Clouds 6 1023 52 10000 4.1 320 12:38 27.12.2019
5389 Clouds 5 1024 52 10000 5.7 330 12:20 27.12.2019
5390 Clouds 5 1024 52 10000 5.1 330 11:43 27.12.2019
5391 Clouds 5 1024 65 10000 4.1 320 11:23 27.12.2019
5392 Clouds 4 1024 65 10000 3.6 300 10:55 27.12.2019
5393 Clouds 4 1024 65 10000 3.6 300 10:36 27.12.2019
5394 Clouds 4 1023 65 10000 3.6 300 10:18 27.12.2019
5395 Clouds 3 1023 69 10000 3.1 290 09:42 27.12.2019
5396 Clouds 3 1023 69 10000 3.6 290 09:21 27.12.2019
5397 Clouds 3 1023 74 10000 3.1 270 08:56 27.12.2019
5398 Clouds 3 1023 74 10000 3.1 270 08:36 27.12.2019
5399 Clouds 2 1023 74 10000 4.1 270 07:51 27.12.2019
5400 Clouds 2 1023 74 10000 4.1 270 07:31 27.12.2019
5401 Clouds 2 1023 74 10000 3.1 300 06:37 27.12.2019
5402 Clouds 3 1023 69 10000 4.1 300 05:37 27.12.2019
5403 Clouds 3 1023 79 10000 4.1 290 03:40 27.12.2019
5404 Clouds 3 1023 69 10000 3.6 300 02:21 27.12.2019
5405 Clouds 3 1023 78 10000 3.6 270 01:38 27.12.2019
5406 Clouds 3 1024 77 10000 2.6 260 01:19 27.12.2019
5407 Clouds 3 1024 77 10000 2.6 250 00:43 27.12.2019
5408 Clouds 3 1024 77 10000 2.1 290 00:24 27.12.2019
5409 Clouds 3 1024 77 10000 2.1 280 23:42 26.12.2019
5410 Clouds 2 1024 79 10000 3.1 260 23:22 26.12.2019
5411 Clouds 2 1024 79 10000 3.6 250 22:48 26.12.2019
5412 Clouds 2 1023 79 10000 3.6 260 22:23 26.12.2019
5413 Clouds 2 1023 79 10000 3.6 260 21:59 26.12.2019
5414 Clouds 2 1023 79 10000 3.6 260 21:39 26.12.2019
5415 Clouds 3 1023 79 10000 3.1 240 21:20 26.12.2019
5416 Clouds 3 1023 79 10000 2.6 300 20:46 26.12.2019
5417 Clouds 4 1023 74 10000 3.6 310 20:23 26.12.2019
5418 Clouds 4 1023 74 10000 3.6 310 19:59 26.12.2019
5419 Clouds 4 1024 78 10000 3.6 300 19:40 26.12.2019
5420 Clouds 4 1024 78 10000 2.6 290 19:22 26.12.2019
5421 Clouds 4 1024 65 10000 2.6 300 18:58 26.12.2019
5422 Clouds 4 1024 65 10000 2.6 300 18:40 26.12.2019
5423 Clouds 4 1024 65 10000 2.6 310 18:19 26.12.2019
5424 Clouds 4 1024 65 10000 2.6 310 17:57 26.12.2019
5425 Clouds 5 1024 65 10000 1.5 290 17:38 26.12.2019
5426 Clouds 5 1024 65 10000 1.5 290 17:38 26.12.2019
5427 Clouds 5 1024 65 10000 1.5 290 17:38 26.12.2019
5428 Clouds 5 1024 65 10000 0.5 0 17:18 26.12.2019
5429 Clouds 5 1024 70 10000 2.6 360 16:43 26.12.2019
5430 Clouds 5 1023 70 10000 5.1 310 16:23 26.12.2019
5431 Rain 5 1023 60 10000 4.6 320 15:56 26.12.2019
5432 Rain 5 1023 60 10000 4.6 320 15:56 26.12.2019
5433 Rain 6 1023 60 10000 4.6 320 15:38 26.12.2019
5434 Rain 6 1023 70 10000 5.1 310 15:18 26.12.2019
5435 Clouds 6 1023 70 10000 5.7 310 14:40 26.12.2019
5436 Clouds 7 1023 56 10000 5.7 320 14:22 26.12.2019
5437 Clouds 7 1023 63 10000 6.7 330 13:44 26.12.2019
5438 Clouds 7 1023 63 10000 6.7 330 13:44 26.12.2019
5439 Clouds 7 1023 65 10000 6.2 330 13:22 26.12.2019
5440 Clouds 7 1023 70 10000 6.7 320 12:58 26.12.2019
5441 Clouds 7 1023 70 10000 6.7 320 12:58 26.12.2019
5442 Clouds 7 1023 70 10000 6.7 320 12:39 26.12.2019
5443 Clouds 7 1023 65 10000 6.2 320 12:21 26.12.2019
5444 Clouds 7 1023 65 10000 7.2 310 11:58 26.12.2019
5445 Clouds 7 1023 65 10000 7.2 310 11:39 26.12.2019
5446 Clouds 6 1023 70 10000 7.2 310 11:20 26.12.2019
5447 Clouds 6 1023 75 10000 5.7 310 10:49 26.12.2019
5448 Clouds 5 1023 70 10000 6.7 310 10:20 26.12.2019
5449 Clouds 5 1023 75 10000 6.7 310 09:53 26.12.2019
5450 Clouds 5 1023 75 10000 6.7 310 09:32 26.12.2019
5451 Clouds 4 1022 80 10000 5.1 310 08:55 26.12.2019
5452 Clouds 4 1022 80 10000 5.1 310 08:37 26.12.2019
5453 Clouds 4 1022 75 10000 5.1 310 08:18 26.12.2019
5454 Clouds 4 1022 75 10000 5.1 310 07:31 26.12.2019
5455 Clouds 5 1021 75 10000 7.2 320 06:54 26.12.2019
5456 Rain 5 1021 75 10000 7.2 320 06:33 26.12.2019
5457 Rain 5 1021 75 10000 8.7 310 05:46 26.12.2019
5458 Clouds 5 1021 75 10000 5.1 320 04:59 26.12.2019
5459 Clouds 5 1021 75 10000 4.6 320 04:32 26.12.2019
5460 Clouds 5 1020 75 10000 6.7 320 03:19 26.12.2019
5461 Clouds 5 1020 75 10000 5.7 310 02:40 26.12.2019
5462 Clouds 5 1020 70 10000 4.6 320 02:19 26.12.2019
5463 Clouds 5 1020 70 10000 7.2 320 01:41 26.12.2019
5464 Clouds 5 1019 75 10000 8.2 320 01:22 26.12.2019
5465 Clouds 5 1019 75 10000 8.2 320 00:41 26.12.2019
5466 Clouds 5 1019 70 10000 8.7 310 00:22 26.12.2019
5467 Clouds 5 1019 70 10000 7.7 320 23:42 25.12.2019
5468 Rain 5 1018 70 10000 7.7 310 23:21 25.12.2019
5469 Rain 5 1018 70 10000 7.7 310 22:59 25.12.2019
5470 Rain 6 1018 70 10000 8.7 310 22:40 25.12.2019
5471 Rain 5 1017 70 10000 8.7 320 22:22 25.12.2019
5472 Rain 5 1017 70 10000 8.7 320 21:59 25.12.2019
5473 Rain 6 1017 75 10000 8.2 320 21:40 25.12.2019
5474 Rain 6 1016 75 10000 7.2 330 21:22 25.12.2019
5475 Rain 6 1016 81 10000 5.7 310 20:57 25.12.2019
5476 Rain 6 1016 81 10000 5.7 310 20:39 25.12.2019
5477 Rain 6 1015 81 10000 6.7 310 20:18 25.12.2019
5478 Rain 6 1015 81 10000 6.2 310 19:44 25.12.2019
5479 Rain 6 1015 87 10000 5.7 310 19:25 25.12.2019
5480 Rain 6 1015 87 10000 5.7 310 18:59 25.12.2019
5481 Rain 7 1014 87 10000 5.7 300 18:39 25.12.2019
5482 Rain 7 1014 87 10000 7.2 280 18:20 25.12.2019
5483 Rain 7 1014 81 10000 5.7 300 17:43 25.12.2019
5484 Rain 7 1013 75 10000 6.2 280 17:21 25.12.2019
5485 Rain 7 1013 75 10000 5.7 280 16:59 25.12.2019
5486 Rain 7 1013 75 10000 5.7 280 16:39 25.12.2019
5487 Clouds 8 1013 70 10000 6.2 270 16:19 25.12.2019
5488 Clouds 8 1012 70 10000 5.1 280 15:57 25.12.2019
5489 Clouds 8 1012 70 10000 5.1 280 15:57 25.12.2019
5490 Clouds 8 1012 70 10000 5.1 280 15:39 25.12.2019
5491 Clouds 8 1012 70 10000 6.2 270 15:20 25.12.2019
5492 Clouds 8 1012 70 10000 6.2 270 14:58 25.12.2019
5493 Clouds 8 1012 66 10000 7.2 290 14:39 25.12.2019
5494 Clouds 9 1012 61 10000 7.2 280 14:21 25.12.2019
5495 Clouds 9 1012 76 10000 4.6 280 13:55 25.12.2019
5496 Clouds 9 1012 57 10000 7.2 290 13:36 25.12.2019
5497 Clouds 9 1012 61 10000 6.7 290 13:18 25.12.2019
5498 Clouds 9 1012 66 10000 5.7 270 12:39 25.12.2019
5499 Clouds 9 1012 66 10000 8.2 280 12:20 25.12.2019
5500 Clouds 9 1012 70 10000 6.2 280 11:55 25.12.2019
5501 Clouds 8 1012 70 10000 6.2 280 11:37 25.12.2019
5502 Clouds 8 1012 70 10000 7.2 290 11:18 25.12.2019
5503 Clouds 8 1012 70 10000 6.7 290 10:38 25.12.2019
5504 Clouds 8 1012 70 10000 7.7 280 10:19 25.12.2019
5505 Clouds 8 1012 70 10000 7.2 280 09:49 25.12.2019
5506 Clouds 7 1012 70 10000 7.2 280 09:30 25.12.2019
5507 Rain 7 1012 70 10000 6.7 290 08:47 25.12.2019
5508 Rain 7 1012 70 10000 6.7 280 08:29 25.12.2019
5509 Clouds 7 1011 70 10000 7.7 280 07:50 25.12.2019
5510 Clouds 7 1011 70 10000 7.7 280 07:31 25.12.2019
5511 Rain 7 1011 70 10000 7.2 290 06:50 25.12.2019
5512 Clouds 7 1011 75 10000 7.2 290 06:22 25.12.2019
5513 Rain 7 1011 75 10000 7.7 280 05:18 25.12.2019
5514 Clouds 7 1011 70 10000 6.2 280 04:39 25.12.2019
5515 Clouds 7 1010 70 10000 5.1 300 04:20 25.12.2019
5516 Clouds 7 1010 70 10000 6.7 280 03:41 25.12.2019
5517 Clouds 6 1010 70 10000 8.2 290 02:51 25.12.2019
5518 Rain 6 1010 70 10000 5.7 290 02:20 25.12.2019
5519 Rain 6 1010 75 10000 4.6 300 01:25 25.12.2019
5520 Rain 6 1010 70 10000 6.2 290 00:52 25.12.2019
5521 Rain 6 1010 70 10000 6.2 290 00:29 25.12.2019
5522 Rain 6 1011 75 10000 6.2 280 23:56 24.12.2019
5523 Rain 6 1011 75 10000 6.2 280 23:38 24.12.2019
5524 Clouds 5 1011 75 10000 6.2 280 23:20 24.12.2019
5525 Clouds 5 1011 86 10000 3.1 250 22:40 24.12.2019
5526 Rain 5 1011 93 10000 2.1 170 22:21 24.12.2019
5527 Rain 5 1011 86 10000 2.6 230 21:43 24.12.2019
5528 Rain 5 1012 86 10000 1 320 21:23 24.12.2019
5529 Rain 5 1012 86 10000 1 320 21:23 24.12.2019
5530 Rain 5 1012 86 10000 3.1 290 20:55 24.12.2019
5531 Rain 5 1012 86 10000 3.1 290 20:36 24.12.2019
5532 Rain 4 1012 80 10000 4.1 260 20:18 24.12.2019
5533 Rain 5 1012 75 10000 4.1 250 19:43 24.12.2019
5534 Rain 5 1011 75 10000 1.5 300 19:20 24.12.2019
5535 Clouds 4 1012 72 10000 2.1 200 18:44 24.12.2019
5536 Clouds 4 1012 72 10000 1 180 18:24 24.12.2019
5537 Clouds 4 1012 72 10000 1 180 17:59 24.12.2019
5538 Clouds 4 1012 72 10000 0.5 0 17:38 24.12.2019
5539 Clouds 4 1011 80 0 1 130 17:20 24.12.2019
5540 Clouds 5 1012 65 10000 1.5 260 16:55 24.12.2019
5541 Clouds 6 1012 65 10000 1.5 260 16:37 24.12.2019
5542 Clouds 6 1013 61 10000 3.1 270 16:19 24.12.2019
5543 Clouds 7 1013 61 10000 5.1 280 15:55 24.12.2019
5544 Clouds 7 1013 61 10000 5.1 280 15:36 24.12.2019
5545 Clouds 8 1013 57 10000 5.7 280 15:18 24.12.2019
5546 Clouds 8 1013 57 10000 6.7 280 14:55 24.12.2019
5547 Clouds 8 1013 57 10000 6.7 280 14:37 24.12.2019
5548 Clouds 9 1014 54 10000 6.7 310 14:19 24.12.2019
5549 Clouds 9 1014 57 10000 6.2 300 13:55 24.12.2019
5550 Clouds 9 1014 57 10000 6.2 300 13:55 24.12.2019
5551 Clouds 9 1014 57 10000 6.2 300 13:37 24.12.2019
5552 Clouds 9 1014 61 10000 6.2 300 13:19 24.12.2019
5553 Clouds 9 1014 61 10000 7.7 310 12:55 24.12.2019
5554 Clouds 8 1014 61 10000 7.7 310 12:36 24.12.2019
5555 Clouds 8 1015 65 10000 8.2 300 12:18 24.12.2019
5556 Clouds 8 1015 61 10000 6.7 300 11:55 24.12.2019
5557 Clouds 8 1015 61 10000 6.7 300 11:36 24.12.2019
5558 Clouds 8 1015 61 10000 7.7 310 11:18 24.12.2019
5559 Clouds 8 1015 61 10000 8.7 310 10:55 24.12.2019
5560 Clouds 7 1015 61 10000 8.7 310 10:36 24.12.2019
5561 Clouds 7 1015 61 10000 9.3 310 10:18 24.12.2019
5562 Clouds 7 1015 61 10000 8.2 300 09:54 24.12.2019
5563 Clouds 7 1015 61 10000 8.2 300 09:36 24.12.2019
5564 Clouds 7 1015 61 10000 8.7 300 09:18 24.12.2019
5565 Rain 7 1014 65 10000 8.7 300 08:42 24.12.2019
5566 Rain 7 1014 65 10000 9.8 310 08:20 24.12.2019
5567 Clouds 7 1014 70 10000 8.7 310 07:45 24.12.2019
5568 Clouds 7 1014 65 10000 9.8 310 07:25 24.12.2019
5569 Clouds 6 1014 65 10000 9.8 310 06:57 24.12.2019
5570 Clouds 6 1014 70 10000 8.2 310 06:38 24.12.2019
5571 Clouds 6 1013 70 10000 8.2 310 06:18 24.12.2019
5572 Rain 6 1013 70 10000 8.2 310 05:20 24.12.2019
5573 Clouds 6 1012 70 10000 9.8 320 04:44 24.12.2019
5574 Clouds 6 1012 70 10000 7.7 300 03:50 24.12.2019
5575 Clouds 6 1012 65 10000 8.7 310 02:59 24.12.2019
5576 Clouds 6 1011 65 10000 11.3 310 02:21 24.12.2019
5577 Clouds 6 1010 64 10000 11.3 300 01:50 24.12.2019
5578 Clouds 7 1010 61 10000 10.3 310 01:21 24.12.2019
5579 Clouds 7 1010 61 10000 10.8 300 00:45 24.12.2019
5580 Clouds 7 1010 65 10000 12.3 310 00:23 24.12.2019
5581 Clouds 7 1009 65 10000 11.3 310 23:56 23.12.2019
5582 Clouds 7 1009 65 10000 11.3 310 23:37 23.12.2019
5583 Clouds 7 1009 65 10000 10.3 310 23:19 23.12.2019
5584 Clouds 7 1008 65 10000 11.8 310 22:56 23.12.2019
5585 Clouds 7 1008 65 10000 11.8 310 22:36 23.12.2019
5586 Clouds 7 1008 70 10000 9.8 310 22:18 23.12.2019
5587 Clouds 7 1007 70 10000 9.3 310 21:55 23.12.2019
5588 Clouds 7 1007 70 10000 9.3 310 21:36 23.12.2019
5589 Clouds 7 1007 70 10000 9.8 310 21:18 23.12.2019
5590 Clouds 7 1007 70 10000 9.8 310 20:56 23.12.2019
5591 Clouds 7 1007 70 10000 9.8 310 20:38 23.12.2019
5592 Clouds 7 1007 65 10000 9.8 310 20:18 23.12.2019
5593 Clouds 7 1006 65 10000 9.8 310 19:55 23.12.2019
5594 Clouds 7 1006 65 10000 9.8 310 19:37 23.12.2019
5595 Clouds 7 1006 70 10000 9.8 320 19:19 23.12.2019
5596 Clouds 7 1005 65 10000 10.8 310 18:55 23.12.2019
5597 Clouds 7 1005 70 10000 10.3 310 18:37 23.12.2019
5598 Clouds 7 1005 70 10000 10.3 310 18:19 23.12.2019
5599 Clouds 7 1004 70 10000 10.3 300 17:55 23.12.2019
5600 Clouds 7 1004 70 10000 10.3 300 17:37 23.12.2019
5601 Clouds 7 1004 70 10000 10.8 310 17:18 23.12.2019
5602 Clouds 7 1004 70 10000 10.8 310 16:42 23.12.2019
5603 Clouds 7 1003 70 10000 11.3 310 16:19 23.12.2019
5604 Clouds 7 1003 70 10000 11.3 310 15:59 23.12.2019
5605 Rain 7 1003 70 10000 11.8 310 15:38 23.12.2019
5606 Rain 7 1002 70 10000 10.3 310 15:20 23.12.2019
5607 Rain 7 1002 81 10000 10.8 310 14:59 23.12.2019
5608 Rain 7 1002 81 10000 10.8 310 14:41 23.12.2019
5609 Rain 7 1001 81 10000 9.8 300 14:22 23.12.2019
5610 Rain 7 1001 81 10000 10.3 300 13:58 23.12.2019
5611 Rain 7 1001 81 10000 10.3 300 13:40 23.12.2019
5612 Rain 7 1001 81 10000 9.8 300 13:22 23.12.2019
5613 Rain 7 1000 81 10000 9.8 300 12:57 23.12.2019
5614 Rain 7 1000 81 10000 9.8 300 12:39 23.12.2019
5615 Rain 7 1000 81 10000 10.8 300 12:20 23.12.2019
5616 Rain 6 1000 87 10000 11.3 300 11:44 23.12.2019
5617 Rain 6 999 87 10000 10.8 300 11:26 23.12.2019
5618 Rain 6 999 87 10000 10.8 300 10:59 23.12.2019
5619 Rain 6 999 87 10000 10.8 310 10:41 23.12.2019
5620 Rain 6 999 81 10000 11.8 300 10:21 23.12.2019
5621 Rain 6 998 81 10000 11.3 300 09:59 23.12.2019
5622 Rain 6 998 81 10000 11.3 300 09:40 23.12.2019
5623 Rain 6 998 81 10000 10.3 310 09:21 23.12.2019
5624 Rain 6 998 81 10000 10.3 310 08:58 23.12.2019
5625 Rain 6 997 87 10000 9.3 300 08:40 23.12.2019
5626 Rain 6 997 93 10000 8.7 300 08:22 23.12.2019
5627 Rain 6 996 93 10000 8.7 300 07:47 23.12.2019
5628 Rain 6 996 87 10000 10.3 300 07:20 23.12.2019
5629 Rain 6 995 87 10000 10.8 300 06:53 23.12.2019
5630 Rain 6 995 87 10000 10.3 300 06:26 23.12.2019
5631 Rain 6 995 87 10000 8.2 300 05:56 23.12.2019
5632 Rain 6 994 87 10000 9.3 290 05:29 23.12.2019
5633 Rain 6 994 87 10000 8.7 300 04:31 23.12.2019
5634 Rain 6 993 93 10000 5.7 310 03:24 23.12.2019
5635 Rain 6 993 93 10000 6.2 310 02:41 23.12.2019
5636 Rain 6 993 93 10000 5.7 310 02:19 23.12.2019
5637 Rain 5 992 93 10000 6.2 300 01:42 23.12.2019
5638 Rain 5 992 100 7000 3.6 310 01:23 23.12.2019
5639 Rain 5 992 93 7000 3.6 330 00:43 23.12.2019
5640 Rain 5 992 93 7000 4.1 330 00:23 23.12.2019
5641 Rain 5 992 93 7000 4.1 330 23:40 22.12.2019
5642 Rain 5 992 100 6000 3.6 340 23:21 22.12.2019
5643 Rain 4 992 100 6000 3.6 340 22:58 22.12.2019
5644 Rain 4 992 100 6000 3.6 340 22:58 22.12.2019
5645 Rain 4 992 93 7000 4.1 340 22:40 22.12.2019
5646 Rain 4 992 93 8000 4.1 350 22:21 22.12.2019
5647 Rain 4 992 93 8000 4.1 350 21:58 22.12.2019
5648 Rain 4 992 93 10000 3.1 340 21:58 22.12.2019
5649 Rain 4 992 93 10000 3.1 340 21:40 22.12.2019
5650 Rain 4 992 100 10000 2.1 360 21:21 22.12.2019
5651 Rain 4 992 93 10000 3.1 10 20:58 22.12.2019
5652 Rain 4 992 93 10000 3.1 10 20:39 22.12.2019
5653 Rain 4 991 93 10000 2.6 360 20:19 22.12.2019
5654 Rain 4 991 93 8000 2.6 10 19:57 22.12.2019
5655 Rain 4 991 93 8000 2.6 10 19:38 22.12.2019
5656 Rain 4 992 93 10000 3.1 360 19:19 22.12.2019
5657 Rain 4 992 93 10000 3.1 10 18:42 22.12.2019
5658 Rain 4 992 93 10000 2.1 30 18:23 22.12.2019
5659 Clouds 4 992 93 10000 2.1 360 17:56 22.12.2019
5660 Clouds 4 992 93 10000 2.1 360 17:38 22.12.2019
5661 Clouds 4 991 93 10000 2.1 40 17:19 22.12.2019
5662 Clouds 4 991 93 10000 2.1 40 16:57 22.12.2019
5663 Clouds 4 991 93 10000 3.1 330 16:38 22.12.2019
5664 Clouds 4 992 93 10000 2.6 330 16:20 22.12.2019
5665 Clouds 4 991 93 10000 4.1 320 15:56 22.12.2019
5666 Clouds 4 991 93 10000 4.1 320 15:56 22.12.2019
5667 Clouds 4 991 93 10000 4.1 320 15:38 22.12.2019
5668 Clouds 4 992 93 10000 3.1 310 15:19 22.12.2019
5669 Clouds 4 992 93 10000 3.1 310 14:55 22.12.2019
5670 Drizzle 4 991 100 5000 3.1 320 14:36 22.12.2019
5671 Mist 4 991 93 5000 3.1 340 14:18 22.12.2019
5672 Drizzle 4 991 86 8000 3.1 350 13:55 22.12.2019
5673 Drizzle 4 991 86 8000 3.1 350 13:36 22.12.2019
5674 Clouds 4 991 86 10000 3.1 360 13:18 22.12.2019
5675 Clouds 4 991 86 10000 3.1 360 13:18 22.12.2019
5676 Clouds 4 991 86 10000 3.1 360 13:18 22.12.2019
5677 Clouds 4 991 86 10000 2.6 350 12:55 22.12.2019
5678 Clouds 4 991 86 10000 2.6 350 12:37 22.12.2019
5679 Drizzle 4 991 93 10000 3.1 330 12:18 22.12.2019
5680 Drizzle 4 991 93 10000 3.1 330 12:18 22.12.2019
5681 Clouds 4 991 93 10000 3.1 320 11:55 22.12.2019
5682 Clouds 4 991 93 10000 3.1 320 11:36 22.12.2019
5683 Clouds 4 991 93 7000 1.5 340 11:18 22.12.2019
5684 Mist 3 991 100 5000 2.6 10 10:54 22.12.2019
5685 Mist 3 991 100 5000 2.6 10 10:36 22.12.2019
5686 Clouds 3 991 93 6000 2.1 360 10:18 22.12.2019
5687 Rain 3 991 93 10000 1 0 09:56 22.12.2019
5688 Rain 2 991 100 10000 1.5 70 09:37 22.12.2019
5689 Rain 2 991 100 10000 1.5 70 09:19 22.12.2019
5690 Clouds 2 991 93 10000 1.5 70 08:39 22.12.2019
5691 Clouds 1 991 93 10000 1.5 70 08:21 22.12.2019
5692 Clouds 1 990 100 10000 2.6 90 07:40 22.12.2019
5693 Clouds 1 990 93 10000 2.1 30 07:21 22.12.2019
5694 Clouds 1 991 93 10000 1.5 60 06:41 22.12.2019
5695 Clouds 2 992 91 10000 1.5 180 05:56 22.12.2019
5696 Clouds 2 991 93 10000 1.5 30 05:24 22.12.2019
5697 Clouds 3 991 93 10000 1 0 04:31 22.12.2019
5698 Clouds 3 992 93 10000 1 0 03:58 22.12.2019
5699 Clouds 4 992 86 10000 4.1 270 02:43 22.12.2019
5700 Clouds 4 991 86 10000 4.6 290 01:54 22.12.2019
5701 Clouds 5 991 81 10000 4.1 270 01:31 22.12.2019
5702 Clouds 5 991 81 10000 5.7 290 00:48 22.12.2019
5703 Clouds 5 992 81 10000 4.6 300 00:26 22.12.2019
5704 Clouds 5 992 81 10000 6.7 300 23:57 21.12.2019
5705 Clouds 6 992 81 10000 6.7 300 23:38 21.12.2019
5706 Clouds 6 991 81 10000 8.7 290 23:19 21.12.2019
5707 Clouds 6 991 75 10000 10.3 290 22:45 21.12.2019
5708 Clouds 6 991 81 10000 8.2 290 22:20 21.12.2019
5709 Clouds 6 991 81 10000 8.7 280 21:58 21.12.2019
5710 Clouds 6 991 81 10000 8.7 280 21:38 21.12.2019
5711 Clouds 6 991 87 10000 8.2 290 21:20 21.12.2019
5712 Clouds 6 991 87 10000 8.2 290 20:59 21.12.2019
5713 Clouds 6 991 87 10000 9.3 280 20:40 21.12.2019
5714 Rain 7 990 87 10000 8.7 280 20:22 21.12.2019
5715 Rain 7 990 87 10000 7.7 280 19:58 21.12.2019
5716 Rain 7 990 87 10000 7.7 280 19:40 21.12.2019
5717 Rain 8 990 93 6000 8.7 270 19:19 21.12.2019
5718 Rain 7 990 93 6000 8.7 270 19:19 21.12.2019
5719 Rain 8 989 93 6000 4.6 160 18:55 21.12.2019
5720 Rain 8 989 93 6000 4.6 160 18:37 21.12.2019
5721 Rain 8 989 93 9000 5.1 130 18:19 21.12.2019
5722 Rain 9 989 93 7000 6.7 110 17:55 21.12.2019
5723 Rain 9 989 93 7000 6.7 110 17:36 21.12.2019
5724 Rain 9 990 93 7000 6.2 110 17:18 21.12.2019
5725 Rain 9 991 93 9000 6.2 110 16:41 21.12.2019
5726 Rain 9 991 93 10000 6.7 110 16:19 21.12.2019
5727 Rain 9 991 93 10000 6.7 110 15:57 21.12.2019
5728 Rain 8 992 93 10000 6.2 120 15:38 21.12.2019
5729 Rain 8 993 93 10000 5.7 120 15:19 21.12.2019
5730 Rain 8 993 93 10000 5.7 120 14:57 21.12.2019
5731 Rain 8 993 93 10000 4.1 110 14:38 21.12.2019
5732 Rain 8 994 87 10000 4.1 110 14:19 21.12.2019
5733 Rain 8 995 87 10000 3.1 120 13:56 21.12.2019
5734 Rain 9 995 87 10000 3.1 120 13:37 21.12.2019
5735 Rain 9 995 81 9000 3.1 120 13:18 21.12.2019
5736 Rain 9 995 71 10000 3.1 100 12:55 21.12.2019
5737 Rain 9 995 71 10000 3.1 100 12:37 21.12.2019
5738 Clouds 9 996 71 10000 3.1 80 12:18 21.12.2019
5739 Clouds 9 997 71 10000 3.1 80 11:43 21.12.2019
5740 Clouds 9 997 66 10000 3.6 60 11:25 21.12.2019
5741 Clouds 9 998 71 10000 2.6 80 10:56 21.12.2019
5742 Clouds 9 998 71 10000 2.6 80 10:38 21.12.2019
5743 Clouds 9 999 71 10000 2.1 80 10:19 21.12.2019
5744 Clouds 8 999 76 10000 2.1 100 09:43 21.12.2019
5745 Clouds 8 999 81 10000 2.1 90 09:22 21.12.2019
5746 Clouds 7 999 75 10000 3.1 100 08:59 21.12.2019
5747 Clouds 8 999 75 10000 3.1 100 08:39 21.12.2019
5748 Clouds 8 998 70 10000 2.6 100 08:21 21.12.2019
5749 Clouds 8 999 70 10000 1.5 60 07:44 21.12.2019
5750 Clouds 9 999 62 10000 2.6 290 07:22 21.12.2019
5751 Clouds 9 999 66 10000 2.6 310 06:45 21.12.2019
5752 Clouds 10 999 66 10000 4.6 270 06:26 21.12.2019
5753 Clouds 10 999 66 10000 6.2 270 05:55 21.12.2019
5754 Clouds 11 998 58 10000 4.6 290 04:58 21.12.2019
5755 Clouds 11 998 58 10000 4.6 290 04:58 21.12.2019
5756 Clouds 10 997 58 10000 8.7 220 03:59 21.12.2019
5757 Clouds 10 995 71 10000 5.7 170 03:18 21.12.2019
5758 Rain 10 995 66 10000 8.7 170 02:18 21.12.2019
5759 Clouds 10 994 66 10000 9.8 170 01:38 21.12.2019
5760 Clouds 10 995 58 10000 10.3 180 01:20 21.12.2019
5761 Clouds 10 995 58 10000 9.8 170 00:37 21.12.2019
5762 Clouds 10 995 58 10000 8.2 170 00:18 21.12.2019
5763 Clouds 10 995 54 10000 8.2 170 23:38 20.12.2019
5764 Clouds 10 995 58 10000 6.7 160 23:19 20.12.2019
5765 Clouds 10 995 54 10000 7.2 160 22:43 20.12.2019
5766 Clouds 10 995 62 10000 7.2 150 22:22 20.12.2019
5767 Clouds 10 995 62 10000 8.2 150 21:59 20.12.2019
5768 Clouds 10 995 62 10000 8.2 150 21:40 20.12.2019
5769 Clouds 10 995 54 10000 9.8 170 21:20 20.12.2019
5770 Clouds 10 996 54 10000 9.8 170 20:56 20.12.2019
5771 Clouds 10 996 54 10000 9.8 170 20:36 20.12.2019
5772 Clouds 11 996 54 10000 11.3 170 20:18 20.12.2019
5773 Clouds 11 996 54 10000 10.8 160 19:42 20.12.2019
5774 Clouds 11 996 62 10000 8.7 150 19:20 20.12.2019
5775 Clouds 11 996 58 10000 10.3 160 18:58 20.12.2019
5776 Clouds 11 996 58 10000 10.3 160 18:39 20.12.2019
5777 Clouds 11 996 58 10000 10.3 160 18:39 20.12.2019
5778 Clouds 11 997 58 10000 11.3 170 18:21 20.12.2019
5779 Clouds 11 998 62 10000 10.8 160 17:55 20.12.2019
5780 Clouds 11 998 62 10000 10.8 160 17:37 20.12.2019
5781 Clear 11 998 62 10000 10.8 160 17:18 20.12.2019
5782 Clear 11 999 71 10000 9.3 150 16:40 20.12.2019
5783 Clear 12 999 71 10000 9.3 150 16:21 20.12.2019
5784 Clear 12 999 66 10000 9.8 150 15:57 20.12.2019
5785 Clear 12 1000 66 10000 10.3 160 15:39 20.12.2019
5786 Clear 13 1000 66 10000 10.3 160 15:20 20.12.2019
5787 Clouds 13 1000 62 10000 11.3 160 14:59 20.12.2019
5788 Clouds 13 1000 67 10000 12.9 150 14:41 20.12.2019
5789 Clouds 13 1000 67 10000 12.9 150 14:23 20.12.2019
5790 Clouds 13 1001 71 10000 12.3 150 13:56 20.12.2019
5791 Clouds 13 1002 71 10000 12.3 150 13:37 20.12.2019
5792 Clouds 13 1002 71 10000 12.3 150 13:18 20.12.2019
5793 Clouds 13 1003 76 10000 11.3 140 12:55 20.12.2019
5794 Clouds 12 1003 76 10000 11.3 140 12:36 20.12.2019
5795 Clouds 12 1003 76 10000 11.3 140 12:18 20.12.2019
5796 Clouds 11 1004 81 10000 10.8 150 11:56 20.12.2019
5797 Clouds 12 1005 87 10000 12.3 150 11:37 20.12.2019
5798 Clouds 10 1006 87 10000 11.8 150 11:18 20.12.2019
5799 Clouds 10 1006 87 10000 11.8 150 10:54 20.12.2019
5800 Clouds 10 1006 87 9000 11.3 140 10:36 20.12.2019
5801 Clouds 10 1006 87 9000 11.3 140 10:18 20.12.2019
5802 Clouds 9 1008 93 10000 10.3 140 09:41 20.12.2019
5803 Clouds 8 1008 93 10000 10.3 140 09:21 20.12.2019
5804 Clouds 8 1007 93 9000 12.3 140 08:44 20.12.2019
5805 Clouds 7 1008 87 8000 11.8 140 08:26 20.12.2019
5806 Clouds 7 1009 87 8000 9.8 140 07:59 20.12.2019
5807 Clouds 7 1009 87 8000 10.8 140 07:41 20.12.2019
5808 Clouds 7 1009 87 8000 10.8 140 07:20 20.12.2019
5809 Clouds 7 1009 87 9000 9.8 140 06:52 20.12.2019
5810 Clouds 7 1010 87 8000 7.7 140 06:33 20.12.2019
5811 Clouds 7 1011 93 7000 7.2 140 05:56 20.12.2019
5812 Clouds 7 1012 93 7000 5.7 110 05:37 20.12.2019
5813 Clouds 7 1012 93 7000 5.7 110 05:37 20.12.2019
5814 Clouds 7 1013 87 6000 6.7 120 04:34 20.12.2019
5815 Rain 7 1014 87 9000 3.6 110 03:31 20.12.2019
5816 Clouds 8 1014 81 9000 5.1 110 02:45 20.12.2019
5817 Clouds 8 1015 87 10000 5.1 110 01:54 20.12.2019
5818 Clouds 9 1015 87 10000 3.6 90 01:34 20.12.2019
5819 Clouds 9 1016 87 10000 5.7 90 00:49 20.12.2019
5820 Clouds 9 1017 87 10000 3.6 100 00:30 20.12.2019
5821 Clouds 9 1017 81 10000 4.1 110 23:57 19.12.2019
5822 Clouds 9 1018 81 10000 4.6 110 23:38 19.12.2019
5823 Clouds 9 1018 81 10000 4.6 110 23:19 19.12.2019
5824 Clouds 10 1018 81 10000 5.7 130 22:38 19.12.2019
5825 Clouds 10 1018 81 10000 5.7 130 22:20 19.12.2019
5826 Clouds 10 1018 81 10000 6.7 140 21:56 19.12.2019
5827 Clouds 10 1018 81 10000 5.1 140 21:38 19.12.2019
5828 Clouds 10 1018 81 10000 5.1 140 21:19 19.12.2019
5829 Clouds 10 1018 76 10000 8.2 150 20:56 19.12.2019
5830 Clouds 10 1018 76 10000 8.7 150 20:37 19.12.2019
5831 Clouds 10 1018 76 10000 8.7 150 20:37 19.12.2019
5832 Clouds 10 1018 76 10000 8.7 150 20:18 19.12.2019
5833 Clouds 10 1018 76 10000 8.7 150 20:18 19.12.2019
5834 Clouds 10 1018 76 10000 10.3 150 19:57 19.12.2019
5835 Clouds 10 1018 81 10000 8.7 150 19:39 19.12.2019
5836 Clouds 10 1018 81 10000 8.7 150 19:19 19.12.2019
5837 Rain 10 1018 81 10000 7.7 150 18:56 19.12.2019
5838 Rain 10 1018 76 10000 7.7 150 18:38 19.12.2019
5839 Rain 10 1018 76 10000 7.7 150 18:18 19.12.2019
5840 Rain 10 1018 81 10000 8.2 150 17:55 19.12.2019
5841 Clouds 10 1018 76 10000 8.2 140 17:37 19.12.2019
5842 Clouds 10 1018 81 10000 7.2 140 17:18 19.12.2019
5843 Clouds 9 1018 81 10000 7.2 140 16:55 19.12.2019
5844 Clouds 9 1018 81 10000 7.2 130 16:36 19.12.2019
5845 Clouds 9 1018 81 10000 7.2 130 16:18 19.12.2019
5846 Clouds 9 1018 81 10000 6.7 130 15:55 19.12.2019
5847 Clouds 9 1018 81 10000 7.2 130 15:36 19.12.2019
5848 Clouds 9 1018 81 10000 7.2 130 15:18 19.12.2019
5849 Clouds 9 1018 81 10000 10.8 140 14:42 19.12.2019
5850 Clouds 9 1018 81 10000 10.8 140 14:20 19.12.2019
5851 Clouds 9 1019 81 10000 8.2 130 13:58 19.12.2019
5852 Clouds 9 1019 87 10000 8.7 140 13:38 19.12.2019
5853 Clouds 9 1019 87 10000 8.7 140 13:19 19.12.2019
5854 Clouds 9 1019 81 10000 8.2 140 12:57 19.12.2019
5855 Clouds 9 1020 81 10000 7.7 140 12:38 19.12.2019
5856 Clouds 8 1020 81 10000 7.7 140 12:19 19.12.2019
5857 Clouds 8 1020 87 10000 8.2 130 12:19 19.12.2019
5858 Clouds 8 1020 81 10000 7.7 140 12:19 19.12.2019
5859 Clouds 8 1020 87 10000 8.2 130 11:58 19.12.2019
5860 Clouds 8 1020 87 10000 8.7 140 11:39 19.12.2019
5861 Clouds 7 1020 87 10000 8.7 140 11:18 19.12.2019
5862 Clouds 7 1020 87 10000 7.7 140 11:18 19.12.2019
5863 Clouds 7 1020 87 10000 7.7 140 10:56 19.12.2019
5864 Clouds 6 1020 93 10000 7.7 150 10:37 19.12.2019
5865 Clouds 6 1020 93 10000 7.7 150 10:19 19.12.2019
5866 Clouds 6 1020 93 10000 7.7 130 09:40 19.12.2019
5867 Rain 6 1020 93 10000 7.7 130 09:21 19.12.2019
5868 Rain 5 1020 93 8000 7.7 130 08:58 19.12.2019
5869 Rain 5 1020 100 6000 6.2 120 08:40 19.12.2019
5870 Clouds 4 1020 100 6000 6.2 120 08:19 19.12.2019
5871 Mist 4 1020 100 4000 6.7 120 07:57 19.12.2019
5872 Mist 4 1020 100 4800 6.7 120 07:38 19.12.2019
5873 Mist 4 1020 100 4800 6.7 120 07:19 19.12.2019
5874 Mist 4 1021 100 2200 5.7 120 06:50 19.12.2019
5875 Mist 4 1021 100 2200 5.7 120 06:50 19.12.2019
5876 Mist 4 1021 100 2300 4.6 130 06:29 19.12.2019
5877 Mist 4 1022 100 2800 2.6 120 05:55 19.12.2019
5878 Mist 4 1022 100 3800 3.1 140 05:36 19.12.2019
5879 Mist 4 1022 100 3600 1 0 04:52 19.12.2019
5880 Mist 4 1023 100 3000 1 0 03:23 19.12.2019
5881 Rain 3 1023 100 600 1 0 02:23 19.12.2019
5882 Fog 3 1023 100 300 1 280 01:23 19.12.2019
5883 Fog 3 1023 100 350 2.1 210 00:44 19.12.2019
5884 Fog 3 1023 100 350 2.1 210 00:24 19.12.2019
5885 Fog 3 1023 100 350 1 0 23:57 18.12.2019
5886 Fog 3 1023 100 400 0.5 0 23:38 18.12.2019
5887 Rain 3 1023 100 400 0.5 0 23:18 18.12.2019
5888 Fog 3 1023 100 300 1 130 22:55 18.12.2019
5889 Fog 3 1023 93 550 1.5 350 22:37 18.12.2019
5890 Fog 3 1023 93 550 1.5 350 22:19 18.12.2019
5891 Fog 3 1023 100 1200 1 0 21:56 18.12.2019
5892 Mist 3 1023 93 450 2.1 260 21:38 18.12.2019
5893 Mist 3 1023 93 450 2.1 260 21:19 18.12.2019
5894 Mist 4 1023 93 4000 1 0 20:55 18.12.2019
5895 Mist 4 1023 93 4000 1 0 20:55 18.12.2019
5896 Mist 4 1022 93 4400 0.5 0 20:37 18.12.2019
5897 Mist 3 1022 93 4400 0.5 0 20:19 18.12.2019
5898 Mist 4 1022 100 3100 1 0 19:55 18.12.2019
5899 Mist 4 1022 100 4300 2.1 160 19:37 18.12.2019
5900 Mist 4 1022 100 4300 2.1 160 19:18 18.12.2019
5901 Mist 5 1022 100 5000 1.5 140 18:44 18.12.2019
5902 Mist 5 1022 100 5000 1.5 140 18:25 18.12.2019
5903 Mist 5 1022 100 5000 1.5 140 18:25 18.12.2019
5904 Mist 5 1021 100 6000 1.5 80 17:57 18.12.2019
5905 Fog 6 1021 93 7000 1.5 360 17:39 18.12.2019
5906 Fog 6 1021 93 7000 1.5 360 17:19 18.12.2019
5907 Fog 6 1021 93 8000 1 70 16:56 18.12.2019
5908 Fog 6 1021 93 8000 1 70 16:56 18.12.2019
5909 Fog 6 1021 93 8000 1 70 16:38 18.12.2019
5910 Clear 7 1021 87 10000 0.5 0 16:20 18.12.2019
5911 Clear 8 1021 81 10000 1.5 350 15:55 18.12.2019
5912 Clear 8 1021 81 10000 1.5 350 15:37 18.12.2019
5913 Clear 9 1021 87 10000 1 0 15:18 18.12.2019
5914 Clear 10 1020 81 10000 1.5 110 14:42 18.12.2019
5915 Clear 10 1020 87 10000 1 0 14:22 18.12.2019
5916 Clear 10 1020 87 10000 1 0 13:57 18.12.2019
5917 Clouds 10 1020 87 7000 1.5 310 13:39 18.12.2019
5918 Mist 9 1020 93 7000 1.5 140 13:20 18.12.2019
5919 Mist 9 1020 93 10000 1 0 12:58 18.12.2019
5920 Mist 9 1020 93 10000 1 0 12:38 18.12.2019
5921 Mist 9 1020 93 10000 1 0 12:38 18.12.2019
5922 Mist 9 1020 100 7000 1.5 360 12:20 18.12.2019
5923 Fog 8 1020 100 800 0.5 0 11:56 18.12.2019
5924 Fog 7 1020 100 800 0.5 0 11:38 18.12.2019
5925 Fog 6 1020 100 550 1.5 10 11:19 18.12.2019
5926 Fog 6 1020 100 400 1.5 10 10:56 18.12.2019
5927 Fog 6 1020 100 400 1.5 10 10:38 18.12.2019
5928 Fog 4 1020 100 700 1 0 10:20 18.12.2019
5929 Mist 5 1019 100 4500 0.5 0 09:50 18.12.2019
5930 Mist 5 1019 100 4500 0.5 0 09:50 18.12.2019
5931 Mist 3 1019 100 4000 1 0 09:18 18.12.2019
5932 Fog 3 1018 100 4400 1.5 320 08:41 18.12.2019
5933 Fog 2 1018 100 2400 1.5 330 08:23 18.12.2019
5934 Fog 2 1017 100 900 2.1 320 07:55 18.12.2019
5935 Fog 3 1017 100 900 2.1 320 07:36 18.12.2019
5936 Fog 3 1017 100 750 0.5 0 07:18 18.12.2019
5937 Fog 3 1016 88 2000 1 340 06:49 18.12.2019
5938 Fog 3 1016 100 550 0.5 0 06:22 18.12.2019
5939 Rain 3 1016 100 550 0.5 0 05:27 18.12.2019
5940 Mist 3 1015 100 1300 1 0 03:31 18.12.2019
5941 Rain 3 1014 100 1400 1 0 02:41 18.12.2019
5942 Rain 3 1014 86 2200 2.6 160 02:23 18.12.2019
5943 Mist 3 1014 100 3800 1 0 01:42 18.12.2019
5944 Fog 3 1014 100 1000 1.5 290 01:24 18.12.2019
5945 Fog 3 1014 100 650 1 0 00:42 18.12.2019
5946 Fog 3 1014 100 750 1.5 150 00:24 18.12.2019
5947 Fog 3 1014 100 700 0.5 0 23:58 17.12.2019
5948 Fog 3 1014 100 700 0.5 0 23:39 17.12.2019
5949 Fog 3 1014 100 550 1.5 140 23:20 17.12.2019
5950 Fog 3 1014 100 500 0.5 0 22:57 17.12.2019
5951 Fog 3 1014 100 500 0.5 0 22:38 17.12.2019
5952 Fog 3 1014 100 600 1.5 300 22:19 17.12.2019
5953 Fog 3 1014 100 600 1.5 300 21:56 17.12.2019
5954 Fog 4 1014 100 500 0.5 0 21:56 17.12.2019
5955 Fog 4 1014 100 500 0.5 0 21:56 17.12.2019
5956 Fog 3 1014 100 500 0.5 0 21:38 17.12.2019
5957 Fog 4 1014 100 500 0.5 0 21:19 17.12.2019
5958 Fog 4 1014 100 500 0.5 0 20:58 17.12.2019
5959 Fog 4 1014 100 400 1.5 350 20:39 17.12.2019
5960 Fog 3 1014 100 800 1 0 20:18 17.12.2019
5961 Mist 3 1014 100 2000 1 30 19:56 17.12.2019
5962 Mist 4 1014 100 2000 1 30 19:38 17.12.2019
5963 Mist 4 1014 100 5000 1.5 330 19:18 17.12.2019
5964 Mist 4 1014 100 1900 1 190 18:55 17.12.2019
5965 Mist 4 1014 100 1900 1 190 18:37 17.12.2019
5966 Mist 4 1014 93 1800 1.5 170 18:19 17.12.2019
5967 Mist 4 1014 100 1100 1.5 150 17:42 17.12.2019
5968 Mist 4 1014 100 1100 1.5 150 17:42 17.12.2019
5969 Mist 4 1014 100 1100 1.5 150 17:42 17.12.2019
5970 Mist 4 1014 100 1700 1 0 17:21 17.12.2019
5971 Mist 4 1014 100 2000 0.5 0 16:57 17.12.2019
5972 Mist 4 1014 100 2000 0.5 0 16:38 17.12.2019
5973 Fog 4 1014 93 5000 0.5 0 16:19 17.12.2019
5974 Fog 4 1014 93 5000 0.5 0 15:59 17.12.2019
5975 Fog 5 1013 93 10000 1 0 15:38 17.12.2019
5976 Fog 5 1013 93 10000 1 0 15:19 17.12.2019
5977 Mist 5 1013 100 6000 1.5 290 14:56 17.12.2019
5978 Mist 5 1013 100 6000 1.5 290 14:38 17.12.2019
5979 Clouds 5 1013 93 8000 1 0 14:19 17.12.2019
5980 Clouds 5 1013 93 8000 1 0 13:56 17.12.2019
5981 Clouds 5 1012 93 7000 1.5 330 13:38 17.12.2019
5982 Mist 5 1012 100 5000 2.1 320 13:19 17.12.2019
5983 Mist 5 1012 100 5000 2.1 320 13:19 17.12.2019
5984 Mist 5 1012 100 5000 2.1 320 12:58 17.12.2019
5985 Mist 5 1012 100 5000 2.1 330 12:38 17.12.2019
5986 Mist 5 1012 100 5000 2.1 330 12:38 17.12.2019
5987 Mist 5 1012 93 2500 2.6 310 12:18 17.12.2019
5988 Mist 5 1012 100 1300 2.1 340 11:56 17.12.2019
5989 Mist 5 1012 100 1300 2.1 340 11:36 17.12.2019
5990 Mist 4 1012 100 700 1.5 340 11:36 17.12.2019
5991 Mist 4 1012 100 700 1.5 340 11:18 17.12.2019
5992 Fog 4 1012 100 350 2.1 350 10:57 17.12.2019
5993 Fog 4 1012 100 350 2.1 350 10:38 17.12.2019
5994 Fog 4 1012 100 500 2.1 320 10:19 17.12.2019
5995 Fog 3 1012 100 350 1 0 09:43 17.12.2019
5996 Fog 3 1011 100 400 1.5 320 09:22 17.12.2019
5997 Fog 3 1011 100 400 0.5 0 08:59 17.12.2019
5998 Fog 3 1011 100 400 0.5 0 08:40 17.12.2019
5999 Fog 3 1011 100 350 1 0 08:22 17.12.2019
6000 Fog 3 1011 100 350 1 0 08:22 17.12.2019
6001 Fog 3 1011 100 350 0.5 0 07:59 17.12.2019
6002 Fog 3 1011 100 350 0.5 0 07:41 17.12.2019
6003 Fog 3 1011 100 500 0.5 0 07:22 17.12.2019
6004 Fog 3 1011 100 500 0.5 0 06:42 17.12.2019
6005 Fog 3 1011 100 500 1.5 290 06:24 17.12.2019
6006 Fog 3 1011 100 500 1.5 290 06:24 17.12.2019
6007 Fog 3 1011 100 500 1 0 05:41 17.12.2019
6008 Fog 3 1011 100 550 1.5 330 04:58 17.12.2019
6009 Fog 3 1011 100 400 0.5 0 03:55 17.12.2019
6010 Rain 3 1012 100 350 0.5 0 02:26 17.12.2019
6011 Rain 3 1013 100 350 2.1 180 01:22 17.12.2019
6012 Fog 3 1013 100 400 1 0 00:47 17.12.2019
6013 Fog 3 1013 100 450 1.5 210 00:22 17.12.2019
6014 Fog 3 1013 100 450 2.1 170 23:58 16.12.2019
6015 Fog 3 1013 100 450 2.1 170 23:40 16.12.2019
6016 Fog 3 1013 100 450 1 0 23:18 16.12.2019
6017 Fog 3 1013 100 500 1 0 22:54 16.12.2019
6018 Fog 3 1013 100 600 2.6 250 22:36 16.12.2019
6019 Fog 3 1013 100 600 2.6 250 22:18 16.12.2019
6020 Fog 3 1013 100 650 2.1 250 21:54 16.12.2019
6021 Fog 3 1013 100 650 2.1 250 21:36 16.12.2019
6022 Fog 3 1013 100 800 2.1 250 21:18 16.12.2019
6023 Fog 3 1013 100 550 1.5 250 20:55 16.12.2019
6024 Fog 3 1013 100 550 1.5 250 20:37 16.12.2019
6025 Fog 4 1013 100 400 2.1 240 20:18 16.12.2019
6026 Fog 4 1013 100 400 2.1 240 20:18 16.12.2019
6027 Fog 3 1013 100 500 2.1 240 19:54 16.12.2019
6028 Fog 4 1013 100 500 2.1 220 19:36 16.12.2019
6029 Fog 4 1013 100 500 2.1 220 19:18 16.12.2019
6030 Fog 4 1013 100 400 1.5 250 18:54 16.12.2019
6031 Fog 3 1013 100 400 1.5 250 18:36 16.12.2019
6032 Fog 3 1013 100 450 2.6 250 18:18 16.12.2019
6033 Mist 4 1013 93 1000 2.6 260 17:55 16.12.2019
6034 Clouds 4 1013 93 6000 2.6 250 17:37 16.12.2019
6035 Clouds 4 1013 93 6000 2.6 250 17:18 16.12.2019
6036 Clouds 4 1013 93 9000 2.6 260 16:54 16.12.2019
6037 Clouds 4 1013 93 9000 2.6 260 16:36 16.12.2019
6038 Clouds 4 1013 86 10000 2.6 260 16:18 16.12.2019
6039 Clouds 5 1013 86 10000 2.1 290 15:54 16.12.2019
6040 Clouds 5 1013 86 10000 2.1 290 15:36 16.12.2019
6041 Clouds 5 1013 93 8000 2.6 250 15:18 16.12.2019
6042 Clouds 5 1013 93 7000 1.5 160 14:54 16.12.2019
6043 Clouds 5 1013 93 7000 1.5 160 14:36 16.12.2019
6044 Clouds 5 1013 93 7000 2.6 130 14:18 16.12.2019
6045 Clouds 5 1014 100 6000 3.6 130 13:38 16.12.2019
6046 Mist 5 1014 93 5000 4.6 130 13:20 16.12.2019
6047 Mist 5 1014 93 5000 4.6 130 12:58 16.12.2019
6048 Clouds 5 1014 81 0 2.1 200 12:58 16.12.2019
6049 Clouds 5 1014 93 10000 5.1 120 12:40 16.12.2019
6050 Clouds 5 1015 93 7000 3.6 100 12:20 16.12.2019
6051 Mist 5 1015 93 3500 3.6 110 11:59 16.12.2019
6052 Mist 4 1015 93 3500 3.6 110 11:41 16.12.2019
6053 Mist 4 1016 93 1400 5.7 120 11:21 16.12.2019
6054 Fog 4 1016 100 800 5.7 130 10:59 16.12.2019
6055 Fog 4 1016 100 800 5.7 130 10:40 16.12.2019
6056 Fog 4 1016 100 800 5.7 130 10:40 16.12.2019
6057 Mist 3 1016 100 3400 4.1 120 10:20 16.12.2019
6058 Mist 3 1016 100 1800 4.6 130 09:46 16.12.2019
6059 Mist 3 1016 100 1800 4.6 130 09:28 16.12.2019
6060 Mist 3 1017 93 2900 2.1 150 08:58 16.12.2019
6061 Mist 2 1017 100 2000 3.6 150 08:38 16.12.2019
6062 Mist 2 1017 100 2000 3.6 150 08:19 16.12.2019
6063 Mist 2 1017 100 5000 2.6 170 07:49 16.12.2019
6064 Mist 2 1017 100 5000 2.6 170 07:30 16.12.2019
6065 Mist 1 1017 93 5000 2.6 170 06:46 16.12.2019
6066 Clouds 1 1017 93 6000 2.6 190 06:26 16.12.2019
6067 Clouds 1 1017 94 8000 2.1 170 05:58 16.12.2019
6068 Clouds 1 1016 100 6000 1.5 150 05:39 16.12.2019
6069 Clouds 1 1016 100 6000 1.5 150 05:21 16.12.2019
6070 Mist 2 1016 85 5000 1.5 180 02:50 16.12.2019
6071 Clouds 2 1016 100 6000 0.5 0 01:45 16.12.2019
6072 Mist 2 1016 100 4800 1 310 00:56 16.12.2019
6073 Mist 2 1016 100 4800 1 310 00:37 16.12.2019
6074 Clouds 2 1015 93 6000 0.5 0 00:18 16.12.2019
6075 Clouds 3 1015 93 10000 2.1 140 23:40 15.12.2019
6076 Clouds 3 1015 93 8000 1 0 23:40 15.12.2019
6077 Clouds 3 1015 93 10000 2.1 140 23:22 15.12.2019
6078 Clouds 3 1014 93 10000 2.1 150 22:57 15.12.2019
6079 Rain 3 1014 93 10000 2.1 150 22:38 15.12.2019
6080 Rain 3 1014 93 10000 3.6 150 22:19 15.12.2019
6081 Rain 3 1014 93 10000 2.6 150 21:57 15.12.2019
6082 Clouds 3 1014 93 10000 2.6 150 21:38 15.12.2019
6083 Clouds 3 1014 93 10000 2.6 150 21:38 15.12.2019
6084 Clouds 3 1013 93 10000 3.1 160 21:19 15.12.2019
6085 Clouds 3 1013 93 10000 3.1 160 21:19 15.12.2019
6086 Clouds 3 1013 93 10000 4.6 160 20:57 15.12.2019
6087 Clouds 3 1013 93 10000 4.6 160 20:38 15.12.2019
6088 Clouds 3 1013 93 10000 3.6 180 20:20 15.12.2019
6089 Clouds 3 1013 66 10000 3.6 150 19:58 15.12.2019
6090 Clouds 3 1013 66 10000 3.6 150 19:39 15.12.2019
6091 Clouds 3 1013 93 10000 1.5 120 19:19 15.12.2019
6092 Clouds 3 1012 65 10000 3.1 160 18:57 15.12.2019
6093 Clouds 4 1012 65 10000 3.1 160 18:39 15.12.2019
6094 Clouds 4 1012 86 10000 3.1 170 18:19 15.12.2019
6095 Clouds 4 1012 66 10000 2.1 140 17:56 15.12.2019
6096 -273 0 0 0 0 0 17:37 15.12.2019
6097 Clouds 4 1012 66 10000 2.1 140 17:37 15.12.2019
6098 Clouds 4 1011 86 10000 2.1 150 17:19 15.12.2019
6099 Clouds 5 1011 86 10000 3.1 130 16:57 15.12.2019
6100 Clouds 5 1011 86 10000 3.1 130 16:39 15.12.2019
6101 Clouds 5 1011 80 10000 4.1 140 16:20 15.12.2019
6102 Clouds 5 1010 80 10000 3.1 120 15:55 15.12.2019
6103 Clouds 6 1010 80 10000 3.1 120 15:55 15.12.2019
6104 Clouds 5 1010 80 10000 3.1 120 15:55 15.12.2019
6105 Clouds 6 1010 80 10000 3.1 120 15:37 15.12.2019
6106 Clouds 6 1010 80 10000 3.6 130 15:18 15.12.2019
6107 Clouds 6 1010 80 10000 4.1 120 14:55 15.12.2019
6108 Clouds 6 1010 80 10000 4.1 120 14:36 15.12.2019
6109 Clouds 6 1010 80 10000 3.6 130 14:18 15.12.2019
6110 Clouds 6 1010 75 10000 5.1 140 13:55 15.12.2019
6111 Clouds 6 1010 75 10000 5.1 140 13:37 15.12.2019
6112 Clouds 6 1010 75 10000 5.1 140 13:37 15.12.2019
6113 Clouds 6 1010 75 10000 4.6 140 13:19 15.12.2019
6114 Clouds 6 1010 75 10000 4.6 140 13:19 15.12.2019
6115 Clouds 6 1010 80 10000 3.6 120 12:56 15.12.2019
6116 Clouds 6 1010 80 10000 3.6 120 12:38 15.12.2019
6117 Clouds 6 1010 75 10000 3.6 140 12:20 15.12.2019
6118 Clouds 5 1009 80 10000 2.6 110 11:39 15.12.2019
6119 Clouds 5 1009 80 10000 2.6 110 11:20 15.12.2019
6120 Clouds 5 1009 80 10000 2.6 110 11:20 15.12.2019
6121 Clouds 5 1010 61 10000 2.1 70 10:58 15.12.2019
6122 Clouds 5 1010 61 10000 2.1 70 10:40 15.12.2019
6123 Clouds 5 1009 61 10000 2.6 120 10:20 15.12.2019
6124 Clouds 5 1009 61 10000 2.1 80 09:59 15.12.2019
6125 Clouds 5 1009 61 10000 2.1 80 09:38 15.12.2019
6126 Clouds 5 1009 61 10000 2.6 110 09:20 15.12.2019
6127 Clouds 5 1009 61 10000 2.6 110 09:20 15.12.2019
6128 Clouds 4 1009 69 10000 2.1 120 08:55 15.12.2019
6129 Clouds 4 1009 69 10000 2.1 120 08:37 15.12.2019
6130 Clouds 3 1008 62 10000 2.1 340 08:19 15.12.2019
6131 Clouds 3 1008 62 10000 4.6 150 07:53 15.12.2019
6132 Clouds 3 1008 60 10000 4.1 160 07:32 15.12.2019
6133 Clouds 3 1009 60 10000 4.6 180 06:30 15.12.2019
6134 Clouds 3 1009 60 10000 1 0 05:51 15.12.2019
6135 Clouds 2 1010 65 10000 1.5 150 05:25 15.12.2019
6136 Clouds 2 1009 69 10000 1 0 04:24 15.12.2019
6137 Clouds 3 1009 60 10000 4.6 200 03:22 15.12.2019
6138 Clouds 3 1009 69 10000 4.6 180 02:33 15.12.2019
6139 Clear 3 1008 74 10000 3.6 210 01:44 15.12.2019
6140 Clouds 3 1008 74 10000 3.1 130 01:25 15.12.2019
6141 Clouds 3 1008 80 10000 2.6 180 00:54 15.12.2019
6142 Clouds 3 1008 80 10000 4.1 170 00:35 15.12.2019
6143 Clouds 3 1007 74 10000 3.6 160 23:58 14.12.2019
6144 Clouds 4 1007 74 10000 3.6 160 23:38 14.12.2019
6145 Clear 4 1007 65 10000 3.1 180 23:18 14.12.2019
6146 Clear 4 1007 65 10000 1.5 270 22:57 14.12.2019
6147 Clear 4 1007 65 10000 1.5 270 22:39 14.12.2019
6148 Clear 4 1006 65 10000 3.1 290 22:20 14.12.2019
6149 Clear 4 1006 65 10000 2.1 250 21:55 14.12.2019
6150 Clear 5 1006 65 10000 2.1 250 21:37 14.12.2019
6151 Clear 5 1006 61 10000 4.1 300 21:18 14.12.2019
6152 Clear 5 1006 61 10000 6.2 290 20:54 14.12.2019
6153 Clear 5 1006 61 10000 6.2 290 20:36 14.12.2019
6154 Clouds 6 1005 65 10000 5.7 290 20:18 14.12.2019
6155 Rain 7 1003 61 10000 10.8 280 19:40 14.12.2019
6156 Rain 7 1003 61 10000 10.8 280 19:21 14.12.2019
6157 Rain 7 1003 70 10000 5.7 270 18:58 14.12.2019
6158 Clouds 7 1003 70 10000 5.7 270 18:39 14.12.2019
6159 Clouds 7 1002 75 10000 4.1 230 18:21 14.12.2019
6160 Rain 7 1001 70 10000 6.7 270 17:59 14.12.2019
6161 Rain 7 1001 70 10000 6.7 270 17:41 14.12.2019
6162 Rain 7 1000 72 10000 9.8 300 17:22 14.12.2019
6163 Clouds 8 1000 53 10000 7.7 290 16:42 14.12.2019
6164 Clouds 8 1000 57 10000 7.2 280 16:19 14.12.2019
6165 Clouds 8 1000 57 10000 7.2 280 15:57 14.12.2019
6166 Clouds 8 999 57 10000 8.7 280 15:38 14.12.2019
6167 Clouds 8 999 57 10000 8.7 280 15:38 14.12.2019
6168 Clouds 8 999 61 10000 7.2 270 15:19 14.12.2019
6169 Clouds 8 999 66 10000 5.7 240 14:57 14.12.2019
6170 Clouds 8 999 66 10000 5.7 240 14:38 14.12.2019
6171 Rain 7 998 65 10000 7.2 200 14:18 14.12.2019
6172 Rain 7 998 65 10000 7.2 200 14:18 14.12.2019
6173 Clouds 7 997 65 10000 7.7 190 13:44 14.12.2019
6174 Clouds 7 997 66 10000 5.7 190 13:20 14.12.2019
6175 Clouds 6 997 75 10000 6.2 170 12:58 14.12.2019
6176 Clouds 6 997 75 10000 6.2 170 12:40 14.12.2019
6177 Clouds 6 997 80 10000 5.1 160 12:40 14.12.2019
6178 Clouds 6 997 80 10000 5.1 160 12:20 14.12.2019
6179 Clouds 5 997 75 10000 5.7 180 11:58 14.12.2019
6180 Clouds 5 997 75 10000 5.7 180 11:58 14.12.2019
6181 Clouds 5 997 75 10000 5.7 180 11:39 14.12.2019
6182 Clouds 5 996 80 10000 4.1 170 11:19 14.12.2019
6183 Clear 5 996 86 10000 3.6 150 10:57 14.12.2019
6184 Clear 4 996 86 10000 3.6 150 10:38 14.12.2019
6185 Clear 4 997 86 10000 2.1 170 10:20 14.12.2019
6186 Clear 4 997 93 10000 2.1 220 09:43 14.12.2019
6187 Clear 3 997 93 10000 4.6 170 09:23 14.12.2019
6188 Clear 2 996 80 10000 4.1 150 08:59 14.12.2019
6189 Clear 2 996 70 10000 4.1 150 08:59 14.12.2019
6190 Clear 2 996 80 10000 4.1 150 08:40 14.12.2019
6191 Clouds 2 996 77 9000 4.6 170 08:19 14.12.2019
6192 Clouds 2 996 77 10000 3.6 160 07:41 14.12.2019
6193 Clouds 2 996 77 10000 3.1 170 07:22 14.12.2019
6194 Clouds 1 996 77 10000 4.1 170 06:55 14.12.2019
6195 Clouds 2 996 77 9000 2.6 150 06:36 14.12.2019
6196 Clouds 2 995 77 9000 3.6 160 05:56 14.12.2019
6197 Clouds 2 995 77 9000 3.6 160 05:56 14.12.2019
6198 Rain 2 995 80 10000 3.6 160 04:35 14.12.2019
6199 Clouds 1 994 80 10000 3.1 150 02:25 14.12.2019
6200 Clouds 1 994 89 10000 2.6 170 01:46 14.12.2019
6201 Clouds 1 994 87 9000 1.5 190 01:28 14.12.2019
6202 Clouds 1 994 87 10000 3.1 170 00:44 14.12.2019
6203 Clouds 0 994 87 10000 4.1 160 00:26 14.12.2019
6204 Clouds 0 994 87 10000 4.1 160 23:44 13.12.2019
6205 Clouds 0 994 79 10000 3.6 160 23:22 13.12.2019
6206 Clouds 0 993 79 10000 3.6 150 23:00 13.12.2019
6207 Clouds 0 993 79 10000 3.6 150 22:40 13.12.2019
6208 Clouds 0 993 79 10000 3.6 150 22:19 13.12.2019
6209 Clouds 1 993 79 10000 2.6 160 21:55 13.12.2019
6210 Clouds 1 993 79 10000 2.6 160 21:37 13.12.2019
6211 Clouds 1 992 79 10000 3.1 120 21:19 13.12.2019
6212 Clouds 1 992 79 10000 1.5 80 20:41 13.12.2019
6213 Clouds 1 991 86 10000 2.6 150 20:22 13.12.2019
6214 Clouds 1 991 86 10000 2.6 150 19:59 13.12.2019
6215 Clouds 1 991 86 10000 2.6 100 19:40 13.12.2019
6216 Clouds 1 991 86 10000 2.6 100 19:22 13.12.2019
6217 Rain 1 990 74 10000 1 0 18:58 13.12.2019
6218 Rain 1 990 74 10000 2.6 260 18:40 13.12.2019
6219 Rain 1 990 74 10000 2.6 260 18:19 13.12.2019
6220 Rain 1 989 77 10000 4.1 160 17:43 13.12.2019
6221 Clouds 1 989 68 10000 4.1 160 17:20 13.12.2019
6222 Clouds 1 988 80 10000 5.7 160 16:59 13.12.2019
6223 Clouds 1 987 80 10000 7.2 170 16:39 13.12.2019
6224 Clouds 1 987 80 10000 7.2 170 16:20 13.12.2019
6225 Clouds 2 987 80 10000 8.2 160 15:58 13.12.2019
6226 Clouds 2 986 80 10000 9.3 160 15:37 13.12.2019
6227 Clouds 2 986 80 10000 9.3 160 15:18 13.12.2019
6228 Clouds 2 985 80 10000 8.2 150 14:41 13.12.2019
6229 Clouds 2 985 80 10000 8.2 150 14:21 13.12.2019
6230 Clouds 2 985 86 10000 8.2 150 13:57 13.12.2019
6231 Rain 2 985 86 10000 9.3 140 13:38 13.12.2019
6232 Rain 2 985 86 10000 9.3 140 13:19 13.12.2019
6233 Rain 1 986 65 10000 9.3 140 12:42 13.12.2019
6234 Rain 1 986 65 10000 9.3 140 12:20 13.12.2019
6235 Rain 1 987 65 10000 9.8 150 11:57 13.12.2019
6236 Rain 1 988 65 10000 11.3 150 11:39 13.12.2019
6237 Rain 1 988 75 10000 11.3 150 11:21 13.12.2019
6238 Rain 0 989 75 10000 10.3 150 10:43 13.12.2019
6239 Rain 0 989 75 10000 10.3 150 10:23 13.12.2019
6240 Clouds 0 989 75 10000 9.8 150 09:59 13.12.2019
6241 Clouds 0 990 92 10000 8.7 150 09:39 13.12.2019
6242 Clouds 0 990 92 10000 8.7 150 09:19 13.12.2019
6243 Clouds 0 991 92 10000 8.7 140 08:41 13.12.2019
6244 Clouds 0 991 92 10000 8.7 140 08:23 13.12.2019
6245 Clouds -1 991 92 8000 8.2 140 07:46 13.12.2019
6246 Clouds 0 992 92 8000 8.2 140 07:23 13.12.2019
6247 Clouds 0 992 92 10000 8.2 140 06:55 13.12.2019
6248 Clouds 0 993 100 6000 8.7 140 06:29 13.12.2019
6249 Mist 0 994 100 3000 5.7 140 05:46 13.12.2019
6250 Mist 0 994 100 3000 5.7 140 05:27 13.12.2019
6251 Clouds 0 995 94 6000 5.7 150 04:46 13.12.2019
6252 Mist 0 996 100 4800 5.1 140 03:47 13.12.2019
6253 Fog 0 998 100 350 1.5 110 02:34 13.12.2019
6254 Fog 0 999 100 500 1.5 160 01:47 13.12.2019
6255 Mist 0 1000 100 3100 1.5 160 00:57 13.12.2019
6256 Mist 0 1000 100 3000 1.5 140 00:37 13.12.2019
6257 Mist 0 1001 100 2900 1.5 160 23:59 12.12.2019
6258 Mist 0 1001 100 2900 1.5 160 23:59 12.12.2019
6259 Mist 0 1001 100 2800 1.5 140 23:39 12.12.2019
6260 Mist 0 1001 100 2800 1.5 140 23:21 12.12.2019
6261 Snow 0 1002 100 3500 1 0 22:56 12.12.2019
6262 Snow 0 1002 100 3500 1 0 22:56 12.12.2019
6263 Snow 0 1002 100 3500 1.5 190 22:37 12.12.2019
6264 Snow 0 1002 100 3500 1.5 190 22:18 12.12.2019
6265 Snow 0 1003 100 3000 1 150 21:55 12.12.2019
6266 Snow 0 1003 98 2300 1.5 190 21:36 12.12.2019
6267 Snow 0 1003 98 2300 1.5 190 21:36 12.12.2019
6268 Snow 0 1003 98 2300 1.5 190 21:18 12.12.2019
6269 Snow 0 1003 98 2500 1.5 200 20:55 12.12.2019
6270 Snow 0 1004 98 2500 1.5 240 20:37 12.12.2019
6271 Snow 0 1004 98 2500 1.5 240 20:19 12.12.2019
6272 Snow 0 1005 98 2500 1 0 19:42 12.12.2019
6273 Snow 0 1005 98 2500 1 0 19:23 12.12.2019
6274 Snow 0 1005 98 2300 1 0 18:58 12.12.2019
6275 Snow 0 1005 98 2100 1.5 170 18:40 12.12.2019
6276 Snow 0 1005 98 2400 1 160 18:21 12.12.2019
6277 Snow 0 1005 98 2400 1 160 17:58 12.12.2019
6278 Snow 0 1005 98 3400 1 130 17:40 12.12.2019
6279 Snow 0 1005 97 3400 1 130 17:21 12.12.2019
6280 Snow 0 1006 97 3900 0.5 0 16:58 12.12.2019
6281 Mist 0 1006 97 3700 1.5 110 16:40 12.12.2019
6282 Mist 0 1006 97 3700 1.5 110 16:21 12.12.2019
6283 Mist 0 1006 97 4900 2.6 100 15:57 12.12.2019
6284 Mist 0 1006 97 5000 1 120 15:39 12.12.2019
6285 Snow 0 1007 86 5000 1.5 120 15:18 12.12.2019
6286 Clouds 0 1007 97 8000 1 130 14:38 12.12.2019
6287 Clouds 0 1007 97 8000 1 130 14:38 12.12.2019
6288 Clouds 0 1007 87 8000 1 130 14:20 12.12.2019
6289 Clouds 0 1007 87 10000 1 130 13:58 12.12.2019
6290 Clouds 1 1007 87 10000 2.1 160 13:40 12.12.2019
6291 Clouds 0 1007 79 10000 2.1 160 13:21 12.12.2019
6292 Clouds 0 1008 79 10000 1.5 160 12:59 12.12.2019
6293 Clouds 0 1008 79 10000 1.5 160 12:40 12.12.2019
6294 Clouds 0 1008 86 10000 2.1 190 12:22 12.12.2019
6295 Clouds 0 1008 80 10000 1.5 170 11:57 12.12.2019
6296 Clouds 0 1008 86 10000 2.1 180 11:38 12.12.2019
6297 Snow -1 1009 86 10000 2.6 160 11:20 12.12.2019
6298 Snow -1 1009 86 10000 2.6 160 10:56 12.12.2019
6299 Clouds -2 1009 79 10000 2.6 150 10:38 12.12.2019
6300 Clouds -2 1009 79 10000 2.6 150 10:20 12.12.2019
6301 Clouds -2 1009 79 10000 1 150 09:55 12.12.2019
6302 Clouds -2 1009 79 10000 2.1 170 09:37 12.12.2019
6303 Clouds -2 1009 79 10000 2.1 170 09:19 12.12.2019
6304 Clouds -3 1009 74 10000 2.1 210 08:43 12.12.2019
6305 Clouds -4 1009 74 10000 2.1 210 08:25 12.12.2019
6306 Clouds -4 1008 79 10000 2.6 240 07:49 12.12.2019
6307 Clouds -4 1008 79 10000 2.6 240 07:27 12.12.2019
6308 Clouds -5 1008 86 10000 2.1 220 06:56 12.12.2019
6309 Clouds -5 1008 92 10000 2.6 190 06:35 12.12.2019
6310 Clear -5 1008 85 10000 3.1 130 05:42 12.12.2019
6311 Clear -5 1009 86 10000 1.5 210 04:55 12.12.2019
6312 Clear -5 1009 86 10000 1 130 04:23 12.12.2019
6313 Clear -4 1010 74 10000 1.5 110 02:40 12.12.2019
6314 Clear -4 1010 74 10000 1.5 110 02:22 12.12.2019
6315 Clear -4 1010 74 10000 1 0 01:54 12.12.2019
6316 Clear -3 1010 79 10000 3.6 190 01:32 12.12.2019
6317 Clear -3 1010 74 10000 5.7 160 00:47 12.12.2019
6318 Clear -3 1009 74 10000 6.2 150 00:21 12.12.2019
6319 Clear -3 1010 74 10000 7.7 130 23:45 11.12.2019
6320 Clear -3 1010 74 10000 7.7 130 23:21 11.12.2019
6321 Clear -3 1010 74 10000 5.7 140 22:59 11.12.2019
6322 Clear -3 1010 68 10000 6.7 140 22:39 11.12.2019
6323 Clear -3 1010 68 10000 6.7 140 22:20 11.12.2019
6324 Clear -2 1010 68 10000 6.2 130 21:59 11.12.2019
6325 Clear -2 1010 68 10000 8.7 130 21:39 11.12.2019
6326 Clear -2 1010 68 10000 8.7 130 21:20 11.12.2019
6327 Clear -2 1011 74 10000 7.7 130 20:58 11.12.2019
6328 Clear -2 1011 74 10000 7.7 130 20:39 11.12.2019
6329 Clear -2 1011 74 10000 7.7 130 20:19 11.12.2019
6330 Clear -2 1011 63 10000 7.2 130 19:59 11.12.2019
6331 Clear -2 1012 63 10000 6.7 130 19:40 11.12.2019
6332 Clear -2 1012 63 10000 7.2 140 19:20 11.12.2019
6333 Clear -1 1012 63 10000 7.2 140 18:57 11.12.2019
6334 Clear -1 1013 63 10000 5.1 120 18:38 11.12.2019
6335 Clear -1 1013 63 10000 5.1 120 18:18 11.12.2019
6336 Clear -1 1013 63 10000 4.1 120 17:55 11.12.2019
6337 Clear -1 1013 63 10000 3.1 120 17:36 11.12.2019
6338 Clear -1 1013 65 10000 3.1 120 17:18 11.12.2019
6339 Clear 0 1014 65 10000 5.1 120 16:55 11.12.2019
6340 Clear 0 1014 65 10000 5.1 120 16:55 11.12.2019
6341 Clear 0 1014 65 10000 4.1 120 16:36 11.12.2019
6342 Clear 1 1015 69 10000 4.1 130 16:18 11.12.2019
6343 Clear 0 1014 65 10000 4.1 120 16:18 11.12.2019
6344 Clear 1 1015 69 10000 4.1 130 15:54 11.12.2019
6345 Clear 1 1015 59 10000 5.1 140 15:36 11.12.2019
6346 Clear 2 1015 59 10000 5.1 140 15:18 11.12.2019
6347 Clear 2 1016 64 10000 4.6 120 14:54 11.12.2019
6348 Clear 3 1016 64 10000 4.6 110 14:36 11.12.2019
6349 Clear 3 1016 64 10000 4.6 110 14:18 11.12.2019
6350 Clear 3 1017 59 10000 2.6 120 13:41 11.12.2019
6351 Clear 3 1017 59 10000 2.6 120 13:21 11.12.2019
6352 Clear 3 1017 55 10000 3.6 110 12:57 11.12.2019
6353 Clear 3 1018 64 10000 3.1 100 12:38 11.12.2019
6354 Clear 2 1019 74 10000 2.1 130 12:20 11.12.2019
6355 Clear 2 1019 74 10000 2.1 130 11:58 11.12.2019
6356 Clear 2 1019 80 10000 2.1 160 11:38 11.12.2019
6357 Clear 1 1020 67 10000 1 0 11:19 11.12.2019
6358 Clear 0 1020 67 10000 1 0 10:57 11.12.2019
6359 Clear 0 1020 86 10000 2.1 160 10:38 11.12.2019
6360 Rain -1 1020 86 10000 2.1 160 10:19 11.12.2019
6361 Rain -2 1021 92 10000 1.5 240 09:44 11.12.2019
6362 Clear -2 1021 92 10000 1.5 240 09:21 11.12.2019
6363 Clear -3 1021 86 10000 2.6 250 08:58 11.12.2019
6364 Clear -3 1021 86 10000 2.6 250 08:58 11.12.2019
6365 Clear -4 1021 92 10000 1.5 190 08:39 11.12.2019
6366 Clear -4 1021 92 10000 1.5 190 08:20 11.12.2019
6367 Clear -4 1021 92 10000 1.5 190 08:20 11.12.2019
6368 Clear -5 1021 100 10000 1 150 07:59 11.12.2019
6369 Fog -4 1022 100 7000 1.5 340 07:41 11.12.2019
6370 Fog -4 1022 100 7000 1.5 340 07:22 11.12.2019
6371 Clear -4 1022 92 10000 1 320 06:44 11.12.2019
6372 Clear -4 1022 92 10000 1 320 06:23 11.12.2019
6373 Clear -3 1022 92 10000 1.5 310 05:46 11.12.2019
6374 Clear -3 1023 92 10000 1 0 05:27 11.12.2019
6375 Clear -3 1023 92 10000 1.5 10 04:47 11.12.2019
6376 Clear -2 1024 86 10000 2.6 330 02:50 11.12.2019
6377 Clear -1 1024 86 10000 3.1 320 01:30 11.12.2019
6378 Clear -1 1025 82 10000 2.6 340 00:56 11.12.2019
6379 Clear -1 1025 82 10000 2.1 350 00:36 11.12.2019
6380 Clear -1 1025 82 10000 2.1 350 00:18 11.12.2019
6381 Clear -1 1025 74 10000 2.6 320 23:41 10.12.2019
6382 Clear 0 1025 74 10000 3.6 310 23:21 10.12.2019
6383 Clear 0 1025 74 10000 3.6 310 22:41 10.12.2019
6384 Clear 0 1025 69 10000 5.7 310 22:22 10.12.2019
6385 Clear 0 1025 69 10000 6.2 300 21:58 10.12.2019
6386 Clear 1 1025 69 10000 6.2 300 21:39 10.12.2019
6387 Clear 1 1025 69 10000 7.2 310 21:21 10.12.2019
6388 Clear 1 1025 69 10000 7.2 310 20:58 10.12.2019
6389 Clear 1 1025 64 10000 4.6 310 20:38 10.12.2019
6390 Clear 1 1025 64 10000 4.6 310 20:19 10.12.2019
6391 Clear 1 1025 64 10000 4.6 310 20:19 10.12.2019
6392 Clear 1 1025 64 10000 4.6 310 20:19 10.12.2019
6393 Clear 1 1025 64 10000 4.6 310 20:19 10.12.2019
6394 Clear 1 1025 69 10000 4.1 310 19:56 10.12.2019
6395 Clear 1 1025 60 10000 5.7 320 19:38 10.12.2019
6396 Clear 2 1025 60 10000 5.7 320 19:20 10.12.2019
6397 Clear 2 1025 60 10000 6.2 320 18:55 10.12.2019
6398 Clear 2 1024 60 10000 7.2 320 18:36 10.12.2019
6399 Clear 3 1024 60 10000 7.2 320 18:36 10.12.2019
6400 Clear 3 1024 60 10000 7.2 320 18:18 10.12.2019
6401 Clear 3 1024 56 10000 7.2 320 17:41 10.12.2019
6402 Clear 3 1024 52 10000 6.2 310 17:22 10.12.2019
6403 Clear 4 1024 52 10000 7.7 320 16:58 10.12.2019
6404 Clouds 4 1023 48 10000 8.2 320 16:39 10.12.2019
6405 Clouds 4 1023 48 10000 8.2 320 16:19 10.12.2019
6406 Clouds 5 1023 45 10000 10.8 320 15:39 10.12.2019
6407 Clouds 5 1023 45 10000 10.8 320 15:18 10.12.2019
6408 Clouds 6 1023 45 10000 9.8 320 14:56 10.12.2019
6409 Clouds 6 1022 48 10000 11.3 310 14:38 10.12.2019
6410 Clouds 6 1022 48 10000 11.3 310 14:38 10.12.2019
6411 Clouds 6 1022 48 10000 11.3 310 14:20 10.12.2019
6412 Clouds 6 1022 48 10000 8.7 330 13:58 10.12.2019
6413 Clouds 6 1022 52 10000 9.3 320 13:40 10.12.2019
6414 Clouds 6 1022 52 10000 9.3 320 13:20 10.12.2019
6415 Clouds 6 1022 52 10000 9.3 320 13:20 10.12.2019
6416 Clouds 7 1022 52 10000 10.3 320 12:49 10.12.2019
6417 Clouds 6 1021 56 10000 9.8 320 12:28 10.12.2019
6418 Clouds 6 1021 56 10000 8.2 320 11:58 10.12.2019
6419 Clouds 6 1021 60 10000 10.3 310 11:40 10.12.2019
6420 Clouds 6 1021 60 10000 10.3 310 11:21 10.12.2019
6421 Clouds 6 1020 60 10000 9.3 320 10:43 10.12.2019
6422 Clouds 6 1020 60 10000 9.3 320 10:24 10.12.2019
6423 Clouds 5 1020 63 10000 6.7 330 09:57 10.12.2019
6424 Clouds 5 1019 63 10000 7.2 330 09:39 10.12.2019
6425 Clouds 5 1019 63 10000 7.2 330 09:20 10.12.2019
6426 Clouds 5 1019 63 10000 7.2 330 09:20 10.12.2019
6427 Clouds 5 1018 75 10000 6.2 330 08:58 10.12.2019
6428 Clouds 4 1018 75 10000 7.7 320 08:39 10.12.2019
6429 Clouds 4 1018 75 10000 7.7 320 08:21 10.12.2019
6430 Clouds 4 1017 75 10000 7.7 320 07:45 10.12.2019
6431 Clouds 4 1016 75 10000 6.7 320 07:27 10.12.2019
6432 Clouds 5 1015 75 10000 5.7 320 06:56 10.12.2019
6433 Clouds 4 1015 75 10000 7.7 310 06:38 10.12.2019
6434 Clouds 5 1015 75 10000 7.7 310 06:19 10.12.2019
6435 Clouds 4 1014 75 10000 6.2 310 05:51 10.12.2019
6436 Clouds 4 1012 81 10000 6.2 300 04:23 10.12.2019
6437 Clouds 4 1012 93 10000 2.1 330 03:27 10.12.2019
6438 Fog 4 1011 93 8000 2.6 190 02:36 10.12.2019
6439 Clouds 4 1010 93 6000 3.1 180 01:40 10.12.2019
6440 Clouds 4 1010 93 6000 3.1 180 01:19 10.12.2019
6441 Clouds 3 1010 93 7000 2.1 250 00:31 10.12.2019
6442 Clouds 4 1010 93 9000 2.1 180 23:59 09.12.2019
6443 Clouds 4 1010 93 9000 2.1 180 23:59 09.12.2019
6444 Clouds 4 1009 93 7000 2.1 170 23:39 09.12.2019
6445 Clouds 4 1009 93 7000 2.1 170 23:21 09.12.2019
6446 Clouds 4 1009 93 7000 2.6 170 22:57 09.12.2019
6447 Clouds 4 1009 93 6000 2.6 160 22:38 09.12.2019
6448 Clouds 4 1009 93 6000 2.6 160 22:18 09.12.2019
6449 Clouds 4 1009 93 6000 2.6 160 22:18 09.12.2019
6450 Clouds 4 1008 93 9000 3.1 150 21:56 09.12.2019
6451 Clouds 4 1008 93 10000 1.5 110 21:38 09.12.2019
6452 Clouds 4 1008 93 10000 1.5 100 21:18 09.12.2019
6453 Clouds 4 1008 93 10000 1.5 100 20:55 09.12.2019
6454 Clouds 4 1008 93 10000 3.1 130 20:37 09.12.2019
6455 Clouds 4 1008 93 10000 3.1 130 20:19 09.12.2019
6456 Clouds 4 1008 81 10000 2.1 180 19:55 09.12.2019
6457 Clouds 4 1008 81 10000 3.1 210 19:37 09.12.2019
6458 Clouds 4 1008 81 10000 3.1 210 19:18 09.12.2019
6459 Clouds 4 1008 81 10000 3.1 230 18:55 09.12.2019
6460 Clouds 4 1007 86 10000 3.1 160 18:36 09.12.2019
6461 Clouds 4 1007 86 10000 3.1 160 18:18 09.12.2019
6462 -273 0 0 0 0 0 17:56 09.12.2019
6463 Clouds 4 1007 86 10000 2.6 230 17:37 09.12.2019
6464 Clouds 5 1007 86 10000 2.6 230 17:19 09.12.2019
6465 Clouds 5 1007 93 9000 3.6 150 16:54 09.12.2019
6466 Clouds 5 1008 93 10000 2.1 0 16:36 09.12.2019
6467 Clouds 5 1008 93 10000 2.1 0 16:18 09.12.2019
6468 Mist 4 1008 100 8000 4.1 180 15:55 09.12.2019
6469 Rain 4 1008 93 8000 6.2 170 15:36 09.12.2019
6470 Rain 4 1008 93 8000 6.2 170 15:36 09.12.2019
6471 Rain 4 1008 93 4500 4.1 150 15:18 09.12.2019
6472 Rain 4 1008 93 4500 3.6 180 14:42 09.12.2019
6473 Rain 5 1008 93 4600 3.6 180 14:19 09.12.2019
6474 Rain 5 1008 93 4600 3.6 180 13:57 09.12.2019
6475 Rain 5 1008 100 3000 2.6 170 13:38 09.12.2019
6476 Rain 5 1008 100 3000 2.6 170 13:19 09.12.2019
6477 Rain 5 1008 100 2800 2.1 200 12:56 09.12.2019
6478 Rain 5 1008 100 2800 2.1 200 12:56 09.12.2019
6479 Rain 5 1009 100 2600 2.6 220 12:37 09.12.2019
6480 Rain 5 1009 100 2600 2.6 220 12:19 09.12.2019
6481 Mist 5 1009 93 3100 2.6 150 11:56 09.12.2019
6482 Mist 5 1009 100 4500 2.6 140 11:37 09.12.2019
6483 Fog 4 1009 100 2200 2.6 170 11:18 09.12.2019
6484 Fog 3 1009 100 2400 2.6 180 10:41 09.12.2019
6485 Fog 3 1009 100 1200 4.1 170 10:20 09.12.2019
6486 Fog 3 1009 100 1200 4.1 170 09:59 09.12.2019
6487 Fog 3 1009 100 1200 4.1 170 09:40 09.12.2019
6488 Fog 3 1008 100 2200 4.1 150 09:21 09.12.2019
6489 Fog 3 1009 100 750 3.6 150 08:44 09.12.2019
6490 Rain 2 1009 100 700 3.1 160 08:26 09.12.2019
6491 Rain 2 1009 100 700 3.1 160 08:26 09.12.2019
6492 Rain 2 1008 100 1000 3.6 140 07:57 09.12.2019
6493 Fog 2 1009 100 900 4.1 170 07:38 09.12.2019
6494 Fog 2 1009 100 900 4.1 170 07:20 09.12.2019
6495 Fog 2 1008 100 900 4.1 150 06:43 09.12.2019
6496 Fog 2 1008 93 700 3.1 170 06:24 09.12.2019
6497 Rain 1 1008 100 650 2.6 210 05:26 09.12.2019
6498 Rain 1 1008 93 750 3.1 180 04:46 09.12.2019
6499 Fog 1 1008 90 700 1.5 230 03:20 09.12.2019
6500 Fog 1 1008 90 750 2.6 230 02:24 09.12.2019
6501 Mist 1 1008 92 750 2.1 200 01:42 09.12.2019
6502 Mist 1 1009 93 1000 2.6 230 00:46 09.12.2019
6503 Mist 1 1009 100 1100 3.1 190 00:27 09.12.2019
6504 Mist 1 1009 100 2000 4.1 130 23:43 08.12.2019
6505 Mist 1 1009 100 2000 4.1 130 23:24 08.12.2019
6506 Fog 1 1010 100 900 4.1 140 22:57 08.12.2019
6507 Fog 1 1010 100 800 2.6 120 22:39 08.12.2019
6508 Fog 1 1010 100 800 2.6 120 22:39 08.12.2019
6509 Fog 2 1010 100 800 2.6 120 22:19 08.12.2019
6510 Fog 2 1010 100 800 2.1 120 21:58 08.12.2019
6511 Fog 2 1010 100 800 2.1 120 21:40 08.12.2019
6512 Mist 2 1010 100 1300 3.1 130 21:21 08.12.2019
6513 Mist 2 1010 100 2700 3.6 110 20:57 08.12.2019
6514 Mist 2 1010 91 4600 1.5 0 20:38 08.12.2019
6515 Mist 2 1010 85 4600 1.5 0 20:20 08.12.2019
6516 Mist 2 1010 85 4600 1.5 0 20:20 08.12.2019
6517 Mist 2 1010 85 4400 2.6 150 19:59 08.12.2019
6518 Mist 2 1010 85 4400 2.6 150 19:41 08.12.2019
6519 Mist 2 1010 85 5000 3.1 150 19:22 08.12.2019
6520 Mist 2 1010 85 5000 3.6 150 18:55 08.12.2019
6521 Clouds 3 1011 85 7000 4.6 140 18:37 08.12.2019
6522 Clouds 3 1011 85 10000 3.6 130 18:19 08.12.2019
6523 Clouds 3 1011 85 10000 3.6 130 18:19 08.12.2019
6524 Clouds 3 1011 85 10000 3.6 130 17:56 08.12.2019
6525 Clouds 4 1011 85 10000 3.1 130 17:38 08.12.2019
6526 Clouds 4 1011 85 10000 3.1 130 17:38 08.12.2019
6527 Clouds 5 1011 81 10000 3.1 130 17:20 08.12.2019
6528 Clouds 5 1011 81 10000 5.7 130 16:57 08.12.2019
6529 Clouds 6 1011 86 10000 4.6 130 16:39 08.12.2019
6530 Clouds 6 1011 86 10000 4.6 130 16:20 08.12.2019
6531 Clouds 6 1012 80 10000 4.6 130 15:55 08.12.2019
6532 Clouds 6 1012 75 10000 3.6 130 15:36 08.12.2019
6533 Clouds 7 1012 75 10000 3.6 130 15:36 08.12.2019
6534 Clouds 7 1012 75 10000 3.6 130 15:18 08.12.2019
6535 Clouds 7 1013 75 10000 4.1 140 14:43 08.12.2019
6536 Clouds 9 1013 75 10000 4.1 140 14:24 08.12.2019
6537 Clouds 10 1013 70 10000 3.6 120 13:58 08.12.2019
6538 Clouds 10 1013 65 10000 2.6 120 13:40 08.12.2019
6539 Clouds 10 1013 65 10000 2.6 120 13:21 08.12.2019
6540 Clouds 10 1014 65 10000 2.6 140 12:56 08.12.2019
6541 Clouds 11 1014 65 10000 3.1 140 12:38 08.12.2019
6542 Clouds 10 1014 65 10000 3.1 140 12:18 08.12.2019
6543 Clouds 10 1015 61 10000 3.1 130 11:55 08.12.2019
6544 Clouds 10 1016 57 10000 3.1 150 11:37 08.12.2019
6545 Clouds 8 1016 70 10000 1 0 11:19 08.12.2019
6546 Clouds 8 1016 57 10000 3.1 150 11:19 08.12.2019
6547 Clouds 7 1016 75 10000 1.5 160 10:39 08.12.2019
6548 Clouds 6 1016 75 10000 1.5 160 10:21 08.12.2019
6549 Clouds 7 1017 80 10000 1.5 150 09:58 08.12.2019
6550 Clouds 6 1017 80 10000 1 0 09:39 08.12.2019
6551 Clouds 5 1017 80 10000 1 0 09:20 08.12.2019
6552 Clouds 5 1017 80 10000 1 0 09:20 08.12.2019
6553 Clouds 4 1018 80 10000 1.5 200 08:59 08.12.2019
6554 Clouds 4 1017 86 10000 3.1 230 08:39 08.12.2019
6555 Clouds 3 1017 86 10000 3.1 230 08:21 08.12.2019
6556 Clouds 3 1017 86 10000 3.1 230 08:21 08.12.2019
6557 Clouds 3 1017 86 10000 1.5 330 07:45 08.12.2019
6558 Clouds 3 1017 93 10000 2.1 170 07:20 08.12.2019
6559 Clouds 3 1017 86 10000 1.5 210 06:52 08.12.2019
6560 Clouds 3 1017 93 10000 2.6 200 06:23 08.12.2019
6561 Clouds 3 1017 80 10000 1.5 190 05:58 08.12.2019
6562 Clouds 4 1018 75 10000 1.5 270 05:20 08.12.2019
6563 Clouds 4 1018 81 10000 3.1 250 03:55 08.12.2019
6564 Clouds 4 1018 81 10000 4.1 240 03:37 08.12.2019
6565 Clouds 4 1018 75 10000 3.6 260 02:40 08.12.2019
6566 Clouds 5 1018 81 10000 4.1 280 01:57 08.12.2019
6567 Clouds 5 1018 81 10000 3.1 250 01:33 08.12.2019
6568 Clouds 5 1019 86 10000 1.5 230 00:45 08.12.2019
6569 Clouds 5 1018 81 10000 2.1 250 00:21 08.12.2019
6570 Clouds 5 1019 75 10000 1.5 220 23:55 07.12.2019
6571 Clouds 5 1019 75 10000 1 210 23:36 07.12.2019
6572 Clouds 5 1019 75 10000 1 210 23:18 07.12.2019
6573 Clouds 5 1018 75 10000 2.6 250 22:54 07.12.2019
6574 Clouds 5 1018 70 10000 3.1 250 22:36 07.12.2019
6575 Clouds 5 1018 70 10000 3.1 250 22:18 07.12.2019
6576 Clouds 5 1019 75 10000 1.5 240 21:54 07.12.2019
6577 Clouds 5 1018 75 10000 3.6 260 21:36 07.12.2019
6578 Clouds 5 1018 75 10000 3.6 260 21:18 07.12.2019
6579 Clouds 5 1018 75 10000 3.1 250 20:38 07.12.2019
6580 Clouds 5 1018 75 10000 3.6 260 20:20 07.12.2019
6581 Clouds 5 1018 75 10000 3.6 260 19:57 07.12.2019
6582 Clouds 5 1017 75 10000 4.6 270 19:39 07.12.2019
6583 Clouds 5 1017 75 10000 4.6 270 19:21 07.12.2019
6584 Clouds 5 1017 75 10000 4.6 270 19:21 07.12.2019
6585 Clouds 5 1017 75 10000 4.6 290 18:58 07.12.2019
6586 Clouds 5 1017 70 10000 5.7 270 18:39 07.12.2019
6587 Clouds 6 1017 70 10000 5.7 270 18:18 07.12.2019
6588 Clouds 5 1017 70 10000 7.2 280 17:55 07.12.2019
6589 Clouds 6 1017 70 10000 4.1 270 17:37 07.12.2019
6590 Clouds 6 1017 70 10000 4.1 270 17:18 07.12.2019
6591 Clouds 7 1016 70 10000 5.1 280 16:55 07.12.2019
6592 Clouds 7 1016 70 10000 5.7 270 16:36 07.12.2019
6593 Clouds 7 1016 70 10000 5.7 270 16:18 07.12.2019
6594 Clouds 6 1016 70 10000 4.1 260 15:40 07.12.2019
6595 Clouds 6 1016 70 10000 4.1 260 15:40 07.12.2019
6596 Clouds 6 1016 80 10000 3.6 230 15:22 07.12.2019
6597 Clouds 5 1016 86 10000 5.1 180 14:43 07.12.2019
6598 Clouds 7 1016 86 10000 5.1 180 14:20 07.12.2019
6599 Clouds 7 1015 86 10000 4.1 160 13:59 07.12.2019
6600 Clouds 7 1016 86 10000 2.1 110 13:39 07.12.2019
6601 Clouds 7 1016 86 10000 2.1 110 13:20 07.12.2019
6602 Clouds 7 1016 72 10000 2.1 140 12:55 07.12.2019
6603 Clouds 7 1016 72 8000 2.1 0 12:36 07.12.2019
6604 Clouds 7 1016 72 8000 2.1 0 12:18 07.12.2019
6605 Clouds 6 1017 72 8000 3.6 210 11:41 07.12.2019
6606 Clouds 4 1017 70 8000 3.6 210 11:23 07.12.2019
6607 Clouds 4 1017 70 7000 4.1 190 10:56 07.12.2019
6608 Mist 3 1017 100 4400 3.6 180 10:36 07.12.2019
6609 Mist 2 1017 100 4000 2.6 190 10:18 07.12.2019
6610 Mist 1 1017 100 3400 3.6 180 09:39 07.12.2019
6611 Mist 2 1017 100 3400 3.6 180 09:21 07.12.2019
6612 Mist 1 1016 92 2500 3.6 200 08:46 07.12.2019
6613 Mist 2 1017 100 3200 3.1 170 08:46 07.12.2019
6614 Mist 0 1016 92 2500 3.6 200 08:25 07.12.2019
6615 Mist 0 1016 92 2500 3.6 200 08:25 07.12.2019
6616 Mist 0 1016 100 2500 5.1 160 07:53 07.12.2019
6617 Mist -1 1016 100 1500 3.6 160 07:30 07.12.2019
6618 Mist -1 1016 92 4800 3.6 160 06:53 07.12.2019
6619 Mist -1 1017 92 4500 3.1 200 06:28 07.12.2019
6620 Mist -1 1016 92 4600 3.1 170 05:50 07.12.2019
6621 Mist -2 1016 92 4500 3.1 190 04:48 07.12.2019
6622 Clouds -2 1017 92 6000 4.1 170 03:52 07.12.2019
6623 Clouds -2 1018 92 6000 3.6 160 02:47 07.12.2019
6624 Clouds -2 1018 92 6000 4.6 150 02:18 07.12.2019
6625 Clouds -2 1018 92 6000 4.1 150 01:30 07.12.2019
6626 Mist -2 1018 92 5000 4.6 150 00:43 07.12.2019
6627 Clouds -2 1018 92 6000 4.1 140 00:19 07.12.2019
6628 Clouds -1 1019 92 6000 4.1 150 23:45 06.12.2019
6629 Clouds -2 1019 92 6000 3.6 160 23:23 06.12.2019
6630 -273 0 0 0 0 0 22:58 06.12.2019
6631 Clouds -2 1019 92 6000 4.1 160 22:37 06.12.2019
6632 Clouds -1 1019 92 6000 4.1 160 22:18 06.12.2019
6633 Clouds -1 1019 92 6000 5.1 150 21:56 06.12.2019
6634 Clouds -1 1019 92 6000 5.7 160 21:37 06.12.2019
6635 Clouds -1 1019 92 6000 5.7 160 21:19 06.12.2019
6636 Clouds -1 1020 92 6000 4.6 160 20:42 06.12.2019
6637 Clouds -2 1020 92 6000 4.6 160 20:21 06.12.2019
6638 Clouds -1 1020 92 6000 4.6 160 19:57 06.12.2019
6639 Clouds -1 1020 92 6000 4.6 150 19:38 06.12.2019
6640 Clouds -1 1020 92 6000 4.6 150 19:20 06.12.2019
6641 Clouds -1 1020 92 6000 4.1 150 18:44 06.12.2019
6642 Clouds -1 1020 92 6000 4.1 150 18:23 06.12.2019
6643 Clouds -1 1020 92 6000 4.1 150 18:23 06.12.2019
6644 Clouds -1 1020 92 7000 4.1 150 17:58 06.12.2019
6645 Clouds -1 1021 83 7000 5.1 160 17:40 06.12.2019
6646 Clouds -1 1021 82 7000 5.1 160 17:22 06.12.2019
6647 Clouds -1 1021 82 7000 4.1 150 16:59 06.12.2019
6648 Clouds -1 1021 82 7000 4.1 140 16:40 06.12.2019
6649 Clouds -1 1021 82 7000 4.1 140 16:21 06.12.2019
6650 Clouds -1 1021 82 8000 4.1 150 15:42 06.12.2019
6651 Clouds 0 1021 82 8000 4.1 150 15:24 06.12.2019
6652 Clouds 0 1021 82 8000 4.1 140 14:59 06.12.2019
6653 Clouds 0 1021 82 8000 3.6 150 14:41 06.12.2019
6654 Clouds 1 1021 69 8000 3.6 150 14:20 06.12.2019
6655 Clouds 1 1022 69 8000 4.1 160 13:58 06.12.2019
6656 Clouds 1 1022 68 8000 4.6 150 13:40 06.12.2019
6657 Clouds 1 1022 68 8000 4.6 150 13:21 06.12.2019
6658 Clouds 1 1022 68 8000 4.6 150 13:21 06.12.2019
6659 Clouds 1 1023 68 8000 4.1 160 12:40 06.12.2019
6660 Clouds 1 1023 68 8000 4.1 160 12:21 06.12.2019
6661 Clouds 1 1023 68 8000 3.6 150 11:43 06.12.2019
6662 Clouds 1 1023 78 8000 3.6 150 11:23 06.12.2019
6663 Clouds 1 1024 78 8000 4.1 160 10:59 06.12.2019
6664 Clouds 0 1024 86 8000 4.1 160 10:40 06.12.2019
6665 Clouds 0 1024 86 8000 4.1 160 10:21 06.12.2019
6666 Clouds 0 1023 86 8000 4.1 160 09:56 06.12.2019
6667 Clouds 0 1024 86 9000 3.6 170 09:37 06.12.2019
6668 Clouds 0 1024 86 9000 3.6 170 09:19 06.12.2019
6669 Clouds 0 1024 86 9000 3.6 170 09:19 06.12.2019
6670 Clouds -1 1024 86 9000 3.6 170 08:44 06.12.2019
6671 Clouds -1 1024 86 9000 3.6 170 08:44 06.12.2019
6672 Clouds -1 1024 86 9000 3.1 170 08:25 06.12.2019
6673 Clouds -1 1024 80 9000 3.1 170 07:44 06.12.2019
6674 Clouds -1 1024 80 9000 3.1 170 07:23 06.12.2019
6675 Clouds -1 1024 80 9000 3.1 170 07:23 06.12.2019
6676 Clouds -1 1024 80 9000 3.1 170 07:23 06.12.2019
6677 Clouds -1 1024 80 9000 3.1 170 07:23 06.12.2019
6678 Clouds -1 1023 80 9000 3.6 160 07:23 06.12.2019
6679 Clouds -1 1023 80 9000 3.6 160 06:55 06.12.2019
6680 Clouds -1 1023 86 9000 3.1 150 06:26 06.12.2019
6681 Clouds -1 1024 86 8000 3.6 160 05:52 06.12.2019
6682 Clouds -1 1024 80 9000 4.1 150 04:34 06.12.2019
6683 Clouds -1 1024 86 8000 4.1 140 01:48 06.12.2019
6684 Clouds -1 1025 86 7000 3.6 140 00:57 06.12.2019
6685 Clouds -1 1025 86 7000 4.6 140 00:37 06.12.2019
6686 Clouds -1 1025 86 7000 4.6 140 00:19 06.12.2019
6687 Clouds -1 1025 86 8000 5.1 140 23:37 05.12.2019
6688 Clouds -1 1025 86 8000 5.1 140 23:18 05.12.2019
6689 Clouds -1 1025 86 8000 5.7 140 22:55 05.12.2019
6690 Clouds -1 1025 80 8000 5.1 140 22:36 05.12.2019
6691 Clouds -1 1025 86 9000 3.6 140 22:18 05.12.2019
6692 Clouds -1 1025 80 9000 5.1 140 21:42 05.12.2019
6693 Clouds -1 1025 80 9000 5.1 140 21:23 05.12.2019
6694 Clouds -1 1026 86 8000 5.1 140 20:58 05.12.2019
6695 Clouds -1 1027 92 8000 4.1 130 20:40 05.12.2019
6696 Clouds -1 1025 86 8000 5.7 140 20:19 05.12.2019
6697 Clouds -1 1025 86 7000 6.2 140 19:44 05.12.2019
6698 Clouds -1 1026 86 8000 6.2 140 19:26 05.12.2019
6699 Clouds -1 1026 86 8000 6.2 140 18:59 05.12.2019
6700 Clouds -1 1026 86 8000 6.7 140 18:39 05.12.2019
6701 Clouds -1 1026 80 9000 6.7 140 18:21 05.12.2019
6702 Clouds -1 1026 80 9000 6.7 140 17:59 05.12.2019
6703 Clouds -1 1026 80 9000 6.7 140 17:38 05.12.2019
6704 Clouds -1 1025 80 10000 7.2 140 17:19 05.12.2019
6705 Clouds -1 1025 86 9000 6.7 140 16:55 05.12.2019
6706 Clouds 0 1025 86 9000 6.7 140 16:37 05.12.2019
6707 Clouds 0 1025 86 10000 6.7 140 16:18 05.12.2019
6708 Clouds 0 1025 86 10000 6.7 140 15:55 05.12.2019
6709 Clouds 0 1025 77 10000 6.7 140 15:37 05.12.2019
6710 Clouds 0 1025 77 10000 7.2 140 15:18 05.12.2019
6711 Clouds 0 1026 77 10000 6.7 140 14:54 05.12.2019
6712 Clouds 0 1026 77 10000 6.7 140 14:36 05.12.2019
6713 Clouds 1 1026 65 10000 7.2 140 14:18 05.12.2019
6714 Clouds 1 1026 65 10000 7.7 150 13:55 05.12.2019
6715 Clouds 1 1026 65 10000 7.7 150 13:36 05.12.2019